<?xml version="1.0" encoding="UTF-8" standalone="no" ?>
<gpx xmlns="http://www.topografix.com/GPX/1/1" xmlns:xsi="http://www.w3.org/2001/XMLSchema-instance" xsi:schemaLocation="http://www.topografix.com/GPX/1/1 http://www.topografix.com/GPX/1/1/gpx.xsd" version="1.1" creator="VisuGPX - https://www.visugpx.com">
  <metadata>
    <name>Gigondas : Pas de l'Aigle - Saint-Amand - La Pousterle - La Verrière - Ravin de Prébayon - Mas de Lancieu - Pié Gu - Chapelle Saint-Côme</name>
  </metadata>
  <trk>
    <name><![CDATA[Move 071 nettoyé]]></name>
    <extensions>
      <line xmlns="http://www.topografix.com/GPX/gpx_style/0/2">
        <color>0000FF</color>
        <width>4</width>
      </line>
    </extensions>
    <trkseg>
      <trkpt lat="44.16309" lon="5.00317">
        <ele>239</ele>
        <time>2021-02-06T07:32:54Z</time>
      </trkpt>
      <trkpt lat="44.16304" lon="5.00332">
        <ele>240</ele>
        <time>2021-02-06T07:32:57Z</time>
      </trkpt>
      <trkpt lat="44.16295" lon="5.00354">
        <ele>243</ele>
        <time>2021-02-06T07:33:08Z</time>
      </trkpt>
      <trkpt lat="44.16295" lon="5.0037">
        <ele>244</ele>
        <time>2021-02-06T07:33:12Z</time>
      </trkpt>
      <trkpt lat="44.16298" lon="5.00383">
        <ele>244</ele>
        <time>2021-02-06T07:33:16Z</time>
      </trkpt>
      <trkpt lat="44.16303" lon="5.00394">
        <ele>245</ele>
        <time>2021-02-06T07:33:20Z</time>
      </trkpt>
      <trkpt lat="44.16313" lon="5.00405">
        <ele>247</ele>
        <time>2021-02-06T07:33:24Z</time>
      </trkpt>
      <trkpt lat="44.1632" lon="5.00413">
        <ele>248</ele>
        <time>2021-02-06T07:33:28Z</time>
      </trkpt>
      <trkpt lat="44.16328" lon="5.0042">
        <ele>249</ele>
        <time>2021-02-06T07:33:33Z</time>
      </trkpt>
      <trkpt lat="44.16338" lon="5.00424">
        <ele>250</ele>
        <time>2021-02-06T07:33:37Z</time>
      </trkpt>
      <trkpt lat="44.16348" lon="5.00428">
        <ele>250</ele>
        <time>2021-02-06T07:33:42Z</time>
      </trkpt>
      <trkpt lat="44.16352" lon="5.00428">
        <ele>250</ele>
        <time>2021-02-06T07:33:44Z</time>
      </trkpt>
      <trkpt lat="44.16361" lon="5.00432">
        <ele>250</ele>
        <time>2021-02-06T07:33:48Z</time>
      </trkpt>
      <trkpt lat="44.16369" lon="5.00437">
        <ele>250</ele>
        <time>2021-02-06T07:33:53Z</time>
      </trkpt>
      <trkpt lat="44.16377" lon="5.00445">
        <ele>250</ele>
        <time>2021-02-06T07:33:58Z</time>
      </trkpt>
      <trkpt lat="44.16382" lon="5.00455">
        <ele>251</ele>
        <time>2021-02-06T07:34:03Z</time>
      </trkpt>
      <trkpt lat="44.16388" lon="5.00464">
        <ele>251</ele>
        <time>2021-02-06T07:34:07Z</time>
      </trkpt>
      <trkpt lat="44.16396" lon="5.00472">
        <ele>251</ele>
        <time>2021-02-06T07:34:12Z</time>
      </trkpt>
      <trkpt lat="44.16405" lon="5.00482">
        <ele>252</ele>
        <time>2021-02-06T07:34:17Z</time>
      </trkpt>
      <trkpt lat="44.16411" lon="5.00492">
        <ele>252</ele>
        <time>2021-02-06T07:34:23Z</time>
      </trkpt>
      <trkpt lat="44.16415" lon="5.00499">
        <ele>252</ele>
        <time>2021-02-06T07:34:26Z</time>
      </trkpt>
      <trkpt lat="44.16417" lon="5.00508">
        <ele>252</ele>
        <time>2021-02-06T07:34:27Z</time>
      </trkpt>
      <trkpt lat="44.16415" lon="5.00523">
        <ele>253</ele>
        <time>2021-02-06T07:34:31Z</time>
      </trkpt>
      <trkpt lat="44.16415" lon="5.0054">
        <ele>254</ele>
        <time>2021-02-06T07:34:41Z</time>
      </trkpt>
      <trkpt lat="44.16422" lon="5.00551">
        <ele>253</ele>
        <time>2021-02-06T07:34:47Z</time>
      </trkpt>
      <trkpt lat="44.16427" lon="5.00565">
        <ele>254</ele>
        <time>2021-02-06T07:34:53Z</time>
      </trkpt>
      <trkpt lat="44.1643" lon="5.00579">
        <ele>254</ele>
        <time>2021-02-06T07:34:58Z</time>
      </trkpt>
      <trkpt lat="44.16433" lon="5.00591">
        <ele>254</ele>
        <time>2021-02-06T07:35:03Z</time>
      </trkpt>
      <trkpt lat="44.1644" lon="5.006">
        <ele>254</ele>
        <time>2021-02-06T07:35:07Z</time>
      </trkpt>
      <trkpt lat="44.16445" lon="5.00612">
        <ele>254</ele>
        <time>2021-02-06T07:35:12Z</time>
      </trkpt>
      <trkpt lat="44.1645" lon="5.00623">
        <ele>254</ele>
        <time>2021-02-06T07:35:16Z</time>
      </trkpt>
      <trkpt lat="44.16456" lon="5.00636">
        <ele>253</ele>
        <time>2021-02-06T07:35:21Z</time>
      </trkpt>
      <trkpt lat="44.16461" lon="5.00647">
        <ele>253</ele>
        <time>2021-02-06T07:35:25Z</time>
      </trkpt>
      <trkpt lat="44.16465" lon="5.00661">
        <ele>254</ele>
        <time>2021-02-06T07:35:30Z</time>
      </trkpt>
      <trkpt lat="44.16467" lon="5.00674">
        <ele>256</ele>
        <time>2021-02-06T07:35:35Z</time>
      </trkpt>
      <trkpt lat="44.16467" lon="5.00689">
        <ele>258</ele>
        <time>2021-02-06T07:35:40Z</time>
      </trkpt>
      <trkpt lat="44.16468" lon="5.00692">
        <ele>258</ele>
        <time>2021-02-06T07:35:41Z</time>
      </trkpt>
      <trkpt lat="44.16472" lon="5.00703">
        <ele>260</ele>
        <time>2021-02-06T07:35:46Z</time>
      </trkpt>
      <trkpt lat="44.16478" lon="5.00715">
        <ele>261</ele>
        <time>2021-02-06T07:35:51Z</time>
      </trkpt>
      <trkpt lat="44.16485" lon="5.00725">
        <ele>261</ele>
        <time>2021-02-06T07:35:56Z</time>
      </trkpt>
      <trkpt lat="44.16493" lon="5.00733">
        <ele>261</ele>
        <time>2021-02-06T07:36:00Z</time>
      </trkpt>
      <trkpt lat="44.16495" lon="5.00734">
        <ele>261</ele>
        <time>2021-02-06T07:36:01Z</time>
      </trkpt>
      <trkpt lat="44.16497" lon="5.00737">
        <ele>261</ele>
        <time>2021-02-06T07:36:02Z</time>
      </trkpt>
      <trkpt lat="44.16498" lon="5.00738">
        <ele>261</ele>
        <time>2021-02-06T07:36:03Z</time>
      </trkpt>
      <trkpt lat="44.16506" lon="5.00747">
        <ele>261</ele>
        <time>2021-02-06T07:36:08Z</time>
      </trkpt>
      <trkpt lat="44.16514" lon="5.00755">
        <ele>261</ele>
        <time>2021-02-06T07:36:13Z</time>
      </trkpt>
      <trkpt lat="44.16519" lon="5.00767">
        <ele>262</ele>
        <time>2021-02-06T07:36:18Z</time>
      </trkpt>
      <trkpt lat="44.16523" lon="5.00781">
        <ele>264</ele>
        <time>2021-02-06T07:36:24Z</time>
      </trkpt>
      <trkpt lat="44.16527" lon="5.00793">
        <ele>266</ele>
        <time>2021-02-06T07:36:28Z</time>
      </trkpt>
      <trkpt lat="44.16532" lon="5.00804">
        <ele>267</ele>
        <time>2021-02-06T07:36:32Z</time>
      </trkpt>
      <trkpt lat="44.16538" lon="5.00816">
        <ele>267</ele>
        <time>2021-02-06T07:36:37Z</time>
      </trkpt>
      <trkpt lat="44.16541" lon="5.0082">
        <ele>267</ele>
        <time>2021-02-06T07:36:39Z</time>
      </trkpt>
      <trkpt lat="44.16548" lon="5.00831">
        <ele>266</ele>
        <time>2021-02-06T07:36:44Z</time>
      </trkpt>
      <trkpt lat="44.16554" lon="5.00841">
        <ele>266</ele>
        <time>2021-02-06T07:36:49Z</time>
      </trkpt>
      <trkpt lat="44.1656" lon="5.00852">
        <ele>265</ele>
        <time>2021-02-06T07:36:54Z</time>
      </trkpt>
      <trkpt lat="44.16566" lon="5.00861">
        <ele>263</ele>
        <time>2021-02-06T07:36:58Z</time>
      </trkpt>
      <trkpt lat="44.16573" lon="5.00874">
        <ele>263</ele>
        <time>2021-02-06T07:37:03Z</time>
      </trkpt>
      <trkpt lat="44.16577" lon="5.00885">
        <ele>262</ele>
        <time>2021-02-06T07:37:07Z</time>
      </trkpt>
      <trkpt lat="44.16582" lon="5.00897">
        <ele>260</ele>
        <time>2021-02-06T07:37:11Z</time>
      </trkpt>
      <trkpt lat="44.16588" lon="5.00908">
        <ele>258</ele>
        <time>2021-02-06T07:37:15Z</time>
      </trkpt>
      <trkpt lat="44.16591" lon="5.00922">
        <ele>258</ele>
        <time>2021-02-06T07:37:20Z</time>
      </trkpt>
      <trkpt lat="44.16594" lon="5.00934">
        <ele>258</ele>
        <time>2021-02-06T07:37:24Z</time>
      </trkpt>
      <trkpt lat="44.16602" lon="5.00944">
        <ele>258</ele>
        <time>2021-02-06T07:37:29Z</time>
      </trkpt>
      <trkpt lat="44.1661" lon="5.00953">
        <ele>258</ele>
        <time>2021-02-06T07:37:34Z</time>
      </trkpt>
      <trkpt lat="44.16617" lon="5.00963">
        <ele>257</ele>
        <time>2021-02-06T07:37:39Z</time>
      </trkpt>
      <trkpt lat="44.16621" lon="5.00975">
        <ele>258</ele>
        <time>2021-02-06T07:37:43Z</time>
      </trkpt>
      <trkpt lat="44.16626" lon="5.00986">
        <ele>258</ele>
        <time>2021-02-06T07:37:48Z</time>
      </trkpt>
      <trkpt lat="44.16631" lon="5.01">
        <ele>259</ele>
        <time>2021-02-06T07:37:53Z</time>
      </trkpt>
      <trkpt lat="44.16636" lon="5.01011">
        <ele>259</ele>
        <time>2021-02-06T07:37:57Z</time>
      </trkpt>
      <trkpt lat="44.16644" lon="5.01019">
        <ele>257</ele>
        <time>2021-02-06T07:38:01Z</time>
      </trkpt>
      <trkpt lat="44.1665" lon="5.0103">
        <ele>257</ele>
        <time>2021-02-06T07:38:05Z</time>
      </trkpt>
      <trkpt lat="44.16653" lon="5.01042">
        <ele>257</ele>
        <time>2021-02-06T07:38:09Z</time>
      </trkpt>
      <trkpt lat="44.16655" lon="5.01056">
        <ele>257</ele>
        <time>2021-02-06T07:38:14Z</time>
      </trkpt>
      <trkpt lat="44.16655" lon="5.01069">
        <ele>258</ele>
        <time>2021-02-06T07:38:19Z</time>
      </trkpt>
      <trkpt lat="44.16659" lon="5.01081">
        <ele>258</ele>
        <time>2021-02-06T07:38:23Z</time>
      </trkpt>
      <trkpt lat="44.16661" lon="5.01094">
        <ele>257</ele>
        <time>2021-02-06T07:38:27Z</time>
      </trkpt>
      <trkpt lat="44.16663" lon="5.01107">
        <ele>257</ele>
        <time>2021-02-06T07:38:31Z</time>
      </trkpt>
      <trkpt lat="44.16664" lon="5.0112">
        <ele>257</ele>
        <time>2021-02-06T07:38:36Z</time>
      </trkpt>
      <trkpt lat="44.16663" lon="5.01133">
        <ele>258</ele>
        <time>2021-02-06T07:38:41Z</time>
      </trkpt>
      <trkpt lat="44.16664" lon="5.01148">
        <ele>258</ele>
        <time>2021-02-06T07:38:46Z</time>
      </trkpt>
      <trkpt lat="44.16661" lon="5.01162">
        <ele>258</ele>
        <time>2021-02-06T07:38:51Z</time>
      </trkpt>
      <trkpt lat="44.16657" lon="5.01174">
        <ele>259</ele>
        <time>2021-02-06T07:38:55Z</time>
      </trkpt>
      <trkpt lat="44.16651" lon="5.01185">
        <ele>260</ele>
        <time>2021-02-06T07:39:00Z</time>
      </trkpt>
      <trkpt lat="44.16643" lon="5.01193">
        <ele>261</ele>
        <time>2021-02-06T07:39:04Z</time>
      </trkpt>
      <trkpt lat="44.16637" lon="5.01205">
        <ele>263</ele>
        <time>2021-02-06T07:39:09Z</time>
      </trkpt>
      <trkpt lat="44.16633" lon="5.01217">
        <ele>264</ele>
        <time>2021-02-06T07:39:13Z</time>
      </trkpt>
      <trkpt lat="44.16627" lon="5.0123">
        <ele>266</ele>
        <time>2021-02-06T07:39:17Z</time>
      </trkpt>
      <trkpt lat="44.16625" lon="5.01243">
        <ele>267</ele>
        <time>2021-02-06T07:39:21Z</time>
      </trkpt>
      <trkpt lat="44.16622" lon="5.01257">
        <ele>267</ele>
        <time>2021-02-06T07:39:26Z</time>
      </trkpt>
      <trkpt lat="44.16618" lon="5.0127">
        <ele>267</ele>
        <time>2021-02-06T07:39:30Z</time>
      </trkpt>
      <trkpt lat="44.16616" lon="5.01283">
        <ele>267</ele>
        <time>2021-02-06T07:39:35Z</time>
      </trkpt>
      <trkpt lat="44.16614" lon="5.01296">
        <ele>266</ele>
        <time>2021-02-06T07:39:40Z</time>
      </trkpt>
      <trkpt lat="44.16609" lon="5.0131">
        <ele>266</ele>
        <time>2021-02-06T07:39:45Z</time>
      </trkpt>
      <trkpt lat="44.16605" lon="5.01324">
        <ele>266</ele>
        <time>2021-02-06T07:39:50Z</time>
      </trkpt>
      <trkpt lat="44.16601" lon="5.01336">
        <ele>267</ele>
        <time>2021-02-06T07:39:54Z</time>
      </trkpt>
      <trkpt lat="44.16597" lon="5.01349">
        <ele>267</ele>
        <time>2021-02-06T07:39:58Z</time>
      </trkpt>
      <trkpt lat="44.16594" lon="5.01363">
        <ele>267</ele>
        <time>2021-02-06T07:40:03Z</time>
      </trkpt>
      <trkpt lat="44.16594" lon="5.01377">
        <ele>267</ele>
        <time>2021-02-06T07:40:08Z</time>
      </trkpt>
      <trkpt lat="44.16592" lon="5.01391">
        <ele>267</ele>
        <time>2021-02-06T07:40:13Z</time>
      </trkpt>
      <trkpt lat="44.16591" lon="5.01397">
        <ele>267</ele>
        <time>2021-02-06T07:40:15Z</time>
      </trkpt>
      <trkpt lat="44.1659" lon="5.01411">
        <ele>267</ele>
        <time>2021-02-06T07:40:19Z</time>
      </trkpt>
      <trkpt lat="44.16598" lon="5.01421">
        <ele>267</ele>
        <time>2021-02-06T07:40:23Z</time>
      </trkpt>
      <trkpt lat="44.16607" lon="5.01428">
        <ele>267</ele>
        <time>2021-02-06T07:40:27Z</time>
      </trkpt>
      <trkpt lat="44.16616" lon="5.01426">
        <ele>267</ele>
        <time>2021-02-06T07:40:31Z</time>
      </trkpt>
      <trkpt lat="44.16618" lon="5.01424">
        <ele>267</ele>
        <time>2021-02-06T07:40:32Z</time>
      </trkpt>
      <trkpt lat="44.16619" lon="5.01421">
        <ele>267</ele>
        <time>2021-02-06T07:40:33Z</time>
      </trkpt>
      <trkpt lat="44.16621" lon="5.01419">
        <ele>267</ele>
        <time>2021-02-06T07:40:34Z</time>
      </trkpt>
      <trkpt lat="44.16622" lon="5.01417">
        <ele>267</ele>
        <time>2021-02-06T07:40:35Z</time>
      </trkpt>
      <trkpt lat="44.16624" lon="5.01415">
        <ele>267</ele>
        <time>2021-02-06T07:40:36Z</time>
      </trkpt>
      <trkpt lat="44.16626" lon="5.01413">
        <ele>267</ele>
        <time>2021-02-06T07:40:38Z</time>
      </trkpt>
      <trkpt lat="44.16628" lon="5.01416">
        <ele>267</ele>
        <time>2021-02-06T07:40:41Z</time>
      </trkpt>
      <trkpt lat="44.16628" lon="5.01418">
        <ele>267</ele>
        <time>2021-02-06T07:40:42Z</time>
      </trkpt>
      <trkpt lat="44.16628" lon="5.01423">
        <ele>267</ele>
        <time>2021-02-06T07:40:44Z</time>
      </trkpt>
      <trkpt lat="44.16629" lon="5.01426">
        <ele>268</ele>
        <time>2021-02-06T07:40:45Z</time>
      </trkpt>
      <trkpt lat="44.1663" lon="5.01429">
        <ele>268</ele>
        <time>2021-02-06T07:40:46Z</time>
      </trkpt>
      <trkpt lat="44.16632" lon="5.01433">
        <ele>268</ele>
        <time>2021-02-06T07:40:48Z</time>
      </trkpt>
      <trkpt lat="44.16634" lon="5.01434">
        <ele>268</ele>
        <time>2021-02-06T07:40:49Z</time>
      </trkpt>
      <trkpt lat="44.16635" lon="5.01435">
        <ele>268</ele>
        <time>2021-02-06T07:40:50Z</time>
      </trkpt>
      <trkpt lat="44.16637" lon="5.01437">
        <ele>269</ele>
        <time>2021-02-06T07:40:51Z</time>
      </trkpt>
      <trkpt lat="44.16638" lon="5.01439">
        <ele>269</ele>
        <time>2021-02-06T07:40:52Z</time>
      </trkpt>
      <trkpt lat="44.1664" lon="5.01442">
        <ele>269</ele>
        <time>2021-02-06T07:40:53Z</time>
      </trkpt>
      <trkpt lat="44.16641" lon="5.01443">
        <ele>270</ele>
        <time>2021-02-06T07:40:54Z</time>
      </trkpt>
      <trkpt lat="44.16642" lon="5.01445">
        <ele>270</ele>
        <time>2021-02-06T07:40:55Z</time>
      </trkpt>
      <trkpt lat="44.16644" lon="5.01447">
        <ele>270</ele>
        <time>2021-02-06T07:40:56Z</time>
      </trkpt>
      <trkpt lat="44.16645" lon="5.01449">
        <ele>271</ele>
        <time>2021-02-06T07:40:57Z</time>
      </trkpt>
      <trkpt lat="44.16647" lon="5.01452">
        <ele>271</ele>
        <time>2021-02-06T07:40:58Z</time>
      </trkpt>
      <trkpt lat="44.16648" lon="5.01454">
        <ele>272</ele>
        <time>2021-02-06T07:40:59Z</time>
      </trkpt>
      <trkpt lat="44.1665" lon="5.01459">
        <ele>272</ele>
        <time>2021-02-06T07:41:01Z</time>
      </trkpt>
      <trkpt lat="44.16652" lon="5.01461">
        <ele>273</ele>
        <time>2021-02-06T07:41:02Z</time>
      </trkpt>
      <trkpt lat="44.16654" lon="5.01467">
        <ele>273</ele>
        <time>2021-02-06T07:41:04Z</time>
      </trkpt>
      <trkpt lat="44.16655" lon="5.01469">
        <ele>273</ele>
        <time>2021-02-06T07:41:05Z</time>
      </trkpt>
      <trkpt lat="44.16657" lon="5.01473">
        <ele>274</ele>
        <time>2021-02-06T07:41:07Z</time>
      </trkpt>
      <trkpt lat="44.16659" lon="5.01475">
        <ele>274</ele>
        <time>2021-02-06T07:41:08Z</time>
      </trkpt>
      <trkpt lat="44.1666" lon="5.01477">
        <ele>274</ele>
        <time>2021-02-06T07:41:09Z</time>
      </trkpt>
      <trkpt lat="44.16662" lon="5.0148">
        <ele>275</ele>
        <time>2021-02-06T07:41:10Z</time>
      </trkpt>
      <trkpt lat="44.16669" lon="5.01488">
        <ele>276</ele>
        <time>2021-02-06T07:41:14Z</time>
      </trkpt>
      <trkpt lat="44.1667" lon="5.0149">
        <ele>276</ele>
        <time>2021-02-06T07:41:15Z</time>
      </trkpt>
      <trkpt lat="44.16675" lon="5.01496">
        <ele>278</ele>
        <time>2021-02-06T07:41:18Z</time>
      </trkpt>
      <trkpt lat="44.16677" lon="5.01498">
        <ele>278</ele>
        <time>2021-02-06T07:41:19Z</time>
      </trkpt>
      <trkpt lat="44.16679" lon="5.015">
        <ele>278</ele>
        <time>2021-02-06T07:41:20Z</time>
      </trkpt>
      <trkpt lat="44.16681" lon="5.01502">
        <ele>279</ele>
        <time>2021-02-06T07:41:21Z</time>
      </trkpt>
      <trkpt lat="44.16682" lon="5.01504">
        <ele>279</ele>
        <time>2021-02-06T07:41:22Z</time>
      </trkpt>
      <trkpt lat="44.16684" lon="5.01505">
        <ele>280</ele>
        <time>2021-02-06T07:41:23Z</time>
      </trkpt>
      <trkpt lat="44.16686" lon="5.01507">
        <ele>280</ele>
        <time>2021-02-06T07:41:24Z</time>
      </trkpt>
      <trkpt lat="44.16687" lon="5.01509">
        <ele>281</ele>
        <time>2021-02-06T07:41:25Z</time>
      </trkpt>
      <trkpt lat="44.16688" lon="5.01511">
        <ele>281</ele>
        <time>2021-02-06T07:41:26Z</time>
      </trkpt>
      <trkpt lat="44.1669" lon="5.01513">
        <ele>281</ele>
        <time>2021-02-06T07:41:27Z</time>
      </trkpt>
      <trkpt lat="44.16691" lon="5.01515">
        <ele>281</ele>
        <time>2021-02-06T07:41:28Z</time>
      </trkpt>
      <trkpt lat="44.16693" lon="5.01517">
        <ele>281</ele>
        <time>2021-02-06T07:41:29Z</time>
      </trkpt>
      <trkpt lat="44.16694" lon="5.01518">
        <ele>282</ele>
        <time>2021-02-06T07:41:30Z</time>
      </trkpt>
      <trkpt lat="44.16696" lon="5.0152">
        <ele>282</ele>
        <time>2021-02-06T07:41:31Z</time>
      </trkpt>
      <trkpt lat="44.16698" lon="5.01524">
        <ele>282</ele>
        <time>2021-02-06T07:41:33Z</time>
      </trkpt>
      <trkpt lat="44.16699" lon="5.01525">
        <ele>282</ele>
        <time>2021-02-06T07:41:34Z</time>
      </trkpt>
      <trkpt lat="44.16701" lon="5.01527">
        <ele>282</ele>
        <time>2021-02-06T07:41:35Z</time>
      </trkpt>
      <trkpt lat="44.16702" lon="5.0153">
        <ele>283</ele>
        <time>2021-02-06T07:41:36Z</time>
      </trkpt>
      <trkpt lat="44.16703" lon="5.01531">
        <ele>283</ele>
        <time>2021-02-06T07:41:37Z</time>
      </trkpt>
      <trkpt lat="44.16705" lon="5.01534">
        <ele>283</ele>
        <time>2021-02-06T07:41:38Z</time>
      </trkpt>
      <trkpt lat="44.16706" lon="5.01536">
        <ele>283</ele>
        <time>2021-02-06T07:41:39Z</time>
      </trkpt>
      <trkpt lat="44.16707" lon="5.01538">
        <ele>283</ele>
        <time>2021-02-06T07:41:40Z</time>
      </trkpt>
      <trkpt lat="44.1671" lon="5.01542">
        <ele>284</ele>
        <time>2021-02-06T07:41:42Z</time>
      </trkpt>
      <trkpt lat="44.16711" lon="5.01544">
        <ele>284</ele>
        <time>2021-02-06T07:41:43Z</time>
      </trkpt>
      <trkpt lat="44.16713" lon="5.01546">
        <ele>284</ele>
        <time>2021-02-06T07:41:44Z</time>
      </trkpt>
      <trkpt lat="44.16714" lon="5.01548">
        <ele>284</ele>
        <time>2021-02-06T07:41:45Z</time>
      </trkpt>
      <trkpt lat="44.16715" lon="5.01551">
        <ele>285</ele>
        <time>2021-02-06T07:41:46Z</time>
      </trkpt>
      <trkpt lat="44.16716" lon="5.01553">
        <ele>285</ele>
        <time>2021-02-06T07:41:47Z</time>
      </trkpt>
      <trkpt lat="44.16719" lon="5.0156">
        <ele>285</ele>
        <time>2021-02-06T07:41:50Z</time>
      </trkpt>
      <trkpt lat="44.16721" lon="5.01566">
        <ele>285</ele>
        <time>2021-02-06T07:41:53Z</time>
      </trkpt>
      <trkpt lat="44.16723" lon="5.0157">
        <ele>285</ele>
        <time>2021-02-06T07:41:55Z</time>
      </trkpt>
      <trkpt lat="44.16724" lon="5.01573">
        <ele>285</ele>
        <time>2021-02-06T07:41:57Z</time>
      </trkpt>
      <trkpt lat="44.16727" lon="5.01578">
        <ele>285</ele>
        <time>2021-02-06T07:41:59Z</time>
      </trkpt>
      <trkpt lat="44.16728" lon="5.01582">
        <ele>285</ele>
        <time>2021-02-06T07:42:01Z</time>
      </trkpt>
      <trkpt lat="44.16729" lon="5.01586">
        <ele>285</ele>
        <time>2021-02-06T07:42:03Z</time>
      </trkpt>
      <trkpt lat="44.16731" lon="5.0159">
        <ele>286</ele>
        <time>2021-02-06T07:42:05Z</time>
      </trkpt>
      <trkpt lat="44.16732" lon="5.01592">
        <ele>286</ele>
        <time>2021-02-06T07:42:06Z</time>
      </trkpt>
      <trkpt lat="44.16735" lon="5.01595">
        <ele>286</ele>
        <time>2021-02-06T07:42:08Z</time>
      </trkpt>
      <trkpt lat="44.16737" lon="5.01597">
        <ele>286</ele>
        <time>2021-02-06T07:42:10Z</time>
      </trkpt>
      <trkpt lat="44.16738" lon="5.016">
        <ele>286</ele>
        <time>2021-02-06T07:42:11Z</time>
      </trkpt>
      <trkpt lat="44.1674" lon="5.01605">
        <ele>287</ele>
        <time>2021-02-06T07:42:13Z</time>
      </trkpt>
      <trkpt lat="44.16741" lon="5.01608">
        <ele>287</ele>
        <time>2021-02-06T07:42:14Z</time>
      </trkpt>
      <trkpt lat="44.16742" lon="5.0161">
        <ele>287</ele>
        <time>2021-02-06T07:42:15Z</time>
      </trkpt>
      <trkpt lat="44.16743" lon="5.01613">
        <ele>287</ele>
        <time>2021-02-06T07:42:16Z</time>
      </trkpt>
      <trkpt lat="44.16745" lon="5.01616">
        <ele>287</ele>
        <time>2021-02-06T07:42:17Z</time>
      </trkpt>
      <trkpt lat="44.16746" lon="5.0162">
        <ele>287</ele>
        <time>2021-02-06T07:42:18Z</time>
      </trkpt>
      <trkpt lat="44.16747" lon="5.01623">
        <ele>287</ele>
        <time>2021-02-06T07:42:19Z</time>
      </trkpt>
      <trkpt lat="44.16748" lon="5.01626">
        <ele>288</ele>
        <time>2021-02-06T07:42:20Z</time>
      </trkpt>
      <trkpt lat="44.16748" lon="5.01629">
        <ele>288</ele>
        <time>2021-02-06T07:42:21Z</time>
      </trkpt>
      <trkpt lat="44.1675" lon="5.01632">
        <ele>288</ele>
        <time>2021-02-06T07:42:22Z</time>
      </trkpt>
      <trkpt lat="44.16751" lon="5.01634">
        <ele>288</ele>
        <time>2021-02-06T07:42:23Z</time>
      </trkpt>
      <trkpt lat="44.16752" lon="5.01637">
        <ele>288</ele>
        <time>2021-02-06T07:42:24Z</time>
      </trkpt>
      <trkpt lat="44.16752" lon="5.01642">
        <ele>289</ele>
        <time>2021-02-06T07:42:26Z</time>
      </trkpt>
      <trkpt lat="44.16753" lon="5.01645">
        <ele>289</ele>
        <time>2021-02-06T07:42:27Z</time>
      </trkpt>
      <trkpt lat="44.16755" lon="5.01648">
        <ele>289</ele>
        <time>2021-02-06T07:42:28Z</time>
      </trkpt>
      <trkpt lat="44.16756" lon="5.01651">
        <ele>289</ele>
        <time>2021-02-06T07:42:29Z</time>
      </trkpt>
      <trkpt lat="44.16758" lon="5.01654">
        <ele>290</ele>
        <time>2021-02-06T07:42:30Z</time>
      </trkpt>
      <trkpt lat="44.16759" lon="5.01658">
        <ele>290</ele>
        <time>2021-02-06T07:42:32Z</time>
      </trkpt>
      <trkpt lat="44.1676" lon="5.0166">
        <ele>290</ele>
        <time>2021-02-06T07:42:33Z</time>
      </trkpt>
      <trkpt lat="44.16761" lon="5.01663">
        <ele>290</ele>
        <time>2021-02-06T07:42:34Z</time>
      </trkpt>
      <trkpt lat="44.16766" lon="5.01671">
        <ele>291</ele>
        <time>2021-02-06T07:42:37Z</time>
      </trkpt>
      <trkpt lat="44.16768" lon="5.01673">
        <ele>291</ele>
        <time>2021-02-06T07:42:38Z</time>
      </trkpt>
      <trkpt lat="44.1677" lon="5.01675">
        <ele>291</ele>
        <time>2021-02-06T07:42:39Z</time>
      </trkpt>
      <trkpt lat="44.16771" lon="5.01677">
        <ele>292</ele>
        <time>2021-02-06T07:42:40Z</time>
      </trkpt>
      <trkpt lat="44.16773" lon="5.01679">
        <ele>292</ele>
        <time>2021-02-06T07:42:41Z</time>
      </trkpt>
      <trkpt lat="44.16782" lon="5.01687">
        <ele>294</ele>
        <time>2021-02-06T07:42:46Z</time>
      </trkpt>
      <trkpt lat="44.16789" lon="5.01696">
        <ele>296</ele>
        <time>2021-02-06T07:42:50Z</time>
      </trkpt>
      <trkpt lat="44.16794" lon="5.0171">
        <ele>298</ele>
        <time>2021-02-06T07:42:56Z</time>
      </trkpt>
      <trkpt lat="44.16795" lon="5.01722">
        <ele>298</ele>
        <time>2021-02-06T07:43:00Z</time>
      </trkpt>
      <trkpt lat="44.16796" lon="5.01738">
        <ele>298</ele>
        <time>2021-02-06T07:43:04Z</time>
      </trkpt>
      <trkpt lat="44.16796" lon="5.01753">
        <ele>297</ele>
        <time>2021-02-06T07:43:08Z</time>
      </trkpt>
      <trkpt lat="44.16796" lon="5.01758">
        <ele>297</ele>
        <time>2021-02-06T07:43:10Z</time>
      </trkpt>
      <trkpt lat="44.16797" lon="5.01761">
        <ele>298</ele>
        <time>2021-02-06T07:43:11Z</time>
      </trkpt>
      <trkpt lat="44.16797" lon="5.01764">
        <ele>298</ele>
        <time>2021-02-06T07:43:12Z</time>
      </trkpt>
      <trkpt lat="44.16797" lon="5.01767">
        <ele>298</ele>
        <time>2021-02-06T07:43:13Z</time>
      </trkpt>
      <trkpt lat="44.16797" lon="5.01771">
        <ele>298</ele>
        <time>2021-02-06T07:43:15Z</time>
      </trkpt>
      <trkpt lat="44.16797" lon="5.01774">
        <ele>298</ele>
        <time>2021-02-06T07:43:16Z</time>
      </trkpt>
      <trkpt lat="44.16797" lon="5.01779">
        <ele>299</ele>
        <time>2021-02-06T07:43:18Z</time>
      </trkpt>
      <trkpt lat="44.16798" lon="5.01782">
        <ele>299</ele>
        <time>2021-02-06T07:43:19Z</time>
      </trkpt>
      <trkpt lat="44.16798" lon="5.01785">
        <ele>300</ele>
        <time>2021-02-06T07:43:20Z</time>
      </trkpt>
      <trkpt lat="44.16798" lon="5.01788">
        <ele>300</ele>
        <time>2021-02-06T07:43:21Z</time>
      </trkpt>
      <trkpt lat="44.16798" lon="5.01791">
        <ele>300</ele>
        <time>2021-02-06T07:43:22Z</time>
      </trkpt>
      <trkpt lat="44.16799" lon="5.01794">
        <ele>301</ele>
        <time>2021-02-06T07:43:23Z</time>
      </trkpt>
      <trkpt lat="44.16801" lon="5.01798">
        <ele>302</ele>
        <time>2021-02-06T07:43:25Z</time>
      </trkpt>
      <trkpt lat="44.16801" lon="5.01803">
        <ele>302</ele>
        <time>2021-02-06T07:43:27Z</time>
      </trkpt>
      <trkpt lat="44.16803" lon="5.01807">
        <ele>303</ele>
        <time>2021-02-06T07:43:29Z</time>
      </trkpt>
      <trkpt lat="44.16803" lon="5.0181">
        <ele>303</ele>
        <time>2021-02-06T07:43:30Z</time>
      </trkpt>
      <trkpt lat="44.16804" lon="5.01812">
        <ele>304</ele>
        <time>2021-02-06T07:43:31Z</time>
      </trkpt>
      <trkpt lat="44.16806" lon="5.01814">
        <ele>304</ele>
        <time>2021-02-06T07:43:32Z</time>
      </trkpt>
      <trkpt lat="44.16807" lon="5.01818">
        <ele>305</ele>
        <time>2021-02-06T07:43:34Z</time>
      </trkpt>
      <trkpt lat="44.1681" lon="5.01821">
        <ele>306</ele>
        <time>2021-02-06T07:43:36Z</time>
      </trkpt>
      <trkpt lat="44.16811" lon="5.01825">
        <ele>307</ele>
        <time>2021-02-06T07:43:38Z</time>
      </trkpt>
      <trkpt lat="44.16811" lon="5.01828">
        <ele>307</ele>
        <time>2021-02-06T07:43:39Z</time>
      </trkpt>
      <trkpt lat="44.16811" lon="5.01831">
        <ele>307</ele>
        <time>2021-02-06T07:43:40Z</time>
      </trkpt>
      <trkpt lat="44.16811" lon="5.01836">
        <ele>308</ele>
        <time>2021-02-06T07:43:42Z</time>
      </trkpt>
      <trkpt lat="44.16811" lon="5.01839">
        <ele>308</ele>
        <time>2021-02-06T07:43:43Z</time>
      </trkpt>
      <trkpt lat="44.16812" lon="5.01848">
        <ele>309</ele>
        <time>2021-02-06T07:43:47Z</time>
      </trkpt>
      <trkpt lat="44.16811" lon="5.01852">
        <ele>309</ele>
        <time>2021-02-06T07:43:48Z</time>
      </trkpt>
      <trkpt lat="44.16811" lon="5.01857">
        <ele>309</ele>
        <time>2021-02-06T07:43:50Z</time>
      </trkpt>
      <trkpt lat="44.16812" lon="5.01861">
        <ele>309</ele>
        <time>2021-02-06T07:43:52Z</time>
      </trkpt>
      <trkpt lat="44.16811" lon="5.01864">
        <ele>309</ele>
        <time>2021-02-06T07:43:53Z</time>
      </trkpt>
      <trkpt lat="44.16811" lon="5.01866">
        <ele>310</ele>
        <time>2021-02-06T07:43:54Z</time>
      </trkpt>
      <trkpt lat="44.16811" lon="5.01869">
        <ele>310</ele>
        <time>2021-02-06T07:43:55Z</time>
      </trkpt>
      <trkpt lat="44.16814" lon="5.01881">
        <ele>310</ele>
        <time>2021-02-06T07:43:59Z</time>
      </trkpt>
      <trkpt lat="44.16815" lon="5.01884">
        <ele>310</ele>
        <time>2021-02-06T07:44:00Z</time>
      </trkpt>
      <trkpt lat="44.16816" lon="5.01886">
        <ele>311</ele>
        <time>2021-02-06T07:44:01Z</time>
      </trkpt>
      <trkpt lat="44.16817" lon="5.01889">
        <ele>311</ele>
        <time>2021-02-06T07:44:02Z</time>
      </trkpt>
      <trkpt lat="44.16822" lon="5.01903">
        <ele>312</ele>
        <time>2021-02-06T07:44:07Z</time>
      </trkpt>
      <trkpt lat="44.16819" lon="5.01918">
        <ele>313</ele>
        <time>2021-02-06T07:44:12Z</time>
      </trkpt>
      <trkpt lat="44.1682" lon="5.01932">
        <ele>314</ele>
        <time>2021-02-06T07:44:17Z</time>
      </trkpt>
      <trkpt lat="44.16818" lon="5.01945">
        <ele>315</ele>
        <time>2021-02-06T07:44:21Z</time>
      </trkpt>
      <trkpt lat="44.16815" lon="5.01953">
        <ele>316</ele>
        <time>2021-02-06T07:44:24Z</time>
      </trkpt>
      <trkpt lat="44.16814" lon="5.01956">
        <ele>316</ele>
        <time>2021-02-06T07:44:25Z</time>
      </trkpt>
      <trkpt lat="44.16813" lon="5.01958">
        <ele>316</ele>
        <time>2021-02-06T07:44:26Z</time>
      </trkpt>
      <trkpt lat="44.16812" lon="5.01961">
        <ele>316</ele>
        <time>2021-02-06T07:44:27Z</time>
      </trkpt>
      <trkpt lat="44.16807" lon="5.01973">
        <ele>317</ele>
        <time>2021-02-06T07:44:32Z</time>
      </trkpt>
      <trkpt lat="44.16802" lon="5.01986">
        <ele>317</ele>
        <time>2021-02-06T07:44:37Z</time>
      </trkpt>
      <trkpt lat="44.16795" lon="5.01999">
        <ele>318</ele>
        <time>2021-02-06T07:44:41Z</time>
      </trkpt>
      <trkpt lat="44.16791" lon="5.02012">
        <ele>317</ele>
        <time>2021-02-06T07:44:45Z</time>
      </trkpt>
      <trkpt lat="44.16788" lon="5.02025">
        <ele>316</ele>
        <time>2021-02-06T07:44:49Z</time>
      </trkpt>
      <trkpt lat="44.16787" lon="5.0204">
        <ele>315</ele>
        <time>2021-02-06T07:44:54Z</time>
      </trkpt>
      <trkpt lat="44.16786" lon="5.02052">
        <ele>315</ele>
        <time>2021-02-06T07:44:58Z</time>
      </trkpt>
      <trkpt lat="44.16785" lon="5.02059">
        <ele>315</ele>
        <time>2021-02-06T07:45:00Z</time>
      </trkpt>
      <trkpt lat="44.16784" lon="5.02062">
        <ele>315</ele>
        <time>2021-02-06T07:45:01Z</time>
      </trkpt>
      <trkpt lat="44.16782" lon="5.02074">
        <ele>314</ele>
        <time>2021-02-06T07:45:05Z</time>
      </trkpt>
      <trkpt lat="44.16782" lon="5.0209">
        <ele>315</ele>
        <time>2021-02-06T07:45:10Z</time>
      </trkpt>
      <trkpt lat="44.16782" lon="5.02104">
        <ele>316</ele>
        <time>2021-02-06T07:45:14Z</time>
      </trkpt>
      <trkpt lat="44.16781" lon="5.02118">
        <ele>318</ele>
        <time>2021-02-06T07:45:18Z</time>
      </trkpt>
      <trkpt lat="44.1678" lon="5.02131">
        <ele>319</ele>
        <time>2021-02-06T07:45:22Z</time>
      </trkpt>
      <trkpt lat="44.16778" lon="5.02143">
        <ele>320</ele>
        <time>2021-02-06T07:45:26Z</time>
      </trkpt>
      <trkpt lat="44.16777" lon="5.02156">
        <ele>321</ele>
        <time>2021-02-06T07:45:31Z</time>
      </trkpt>
      <trkpt lat="44.16775" lon="5.02171">
        <ele>322</ele>
        <time>2021-02-06T07:45:36Z</time>
      </trkpt>
      <trkpt lat="44.16774" lon="5.02184">
        <ele>323</ele>
        <time>2021-02-06T07:45:41Z</time>
      </trkpt>
      <trkpt lat="44.16774" lon="5.02196">
        <ele>324</ele>
        <time>2021-02-06T07:45:46Z</time>
      </trkpt>
      <trkpt lat="44.16771" lon="5.0221">
        <ele>326</ele>
        <time>2021-02-06T07:45:52Z</time>
      </trkpt>
      <trkpt lat="44.16767" lon="5.02223">
        <ele>328</ele>
        <time>2021-02-06T07:45:57Z</time>
      </trkpt>
      <trkpt lat="44.16766" lon="5.02236">
        <ele>329</ele>
        <time>2021-02-06T07:46:02Z</time>
      </trkpt>
      <trkpt lat="44.16766" lon="5.0225">
        <ele>328</ele>
        <time>2021-02-06T07:46:07Z</time>
      </trkpt>
      <trkpt lat="44.16767" lon="5.02263">
        <ele>328</ele>
        <time>2021-02-06T07:46:11Z</time>
      </trkpt>
      <trkpt lat="44.16767" lon="5.02279">
        <ele>329</ele>
        <time>2021-02-06T07:46:17Z</time>
      </trkpt>
      <trkpt lat="44.16765" lon="5.02292">
        <ele>330</ele>
        <time>2021-02-06T07:46:21Z</time>
      </trkpt>
      <trkpt lat="44.16762" lon="5.02303">
        <ele>332</ele>
        <time>2021-02-06T07:46:27Z</time>
      </trkpt>
      <trkpt lat="44.16757" lon="5.02316">
        <ele>335</ele>
        <time>2021-02-06T07:46:32Z</time>
      </trkpt>
      <trkpt lat="44.16761" lon="5.0233">
        <ele>335</ele>
        <time>2021-02-06T07:46:37Z</time>
      </trkpt>
      <trkpt lat="44.16763" lon="5.02343">
        <ele>337</ele>
        <time>2021-02-06T07:46:41Z</time>
      </trkpt>
      <trkpt lat="44.16769" lon="5.02353">
        <ele>337</ele>
        <time>2021-02-06T07:46:45Z</time>
      </trkpt>
      <trkpt lat="44.16774" lon="5.02366">
        <ele>337</ele>
        <time>2021-02-06T07:46:50Z</time>
      </trkpt>
      <trkpt lat="44.16777" lon="5.02379">
        <ele>338</ele>
        <time>2021-02-06T07:46:55Z</time>
      </trkpt>
      <trkpt lat="44.16779" lon="5.02393">
        <ele>339</ele>
        <time>2021-02-06T07:47:00Z</time>
      </trkpt>
      <trkpt lat="44.16781" lon="5.02407">
        <ele>340</ele>
        <time>2021-02-06T07:47:05Z</time>
      </trkpt>
      <trkpt lat="44.16783" lon="5.02421">
        <ele>341</ele>
        <time>2021-02-06T07:47:09Z</time>
      </trkpt>
      <trkpt lat="44.16787" lon="5.02433">
        <ele>342</ele>
        <time>2021-02-06T07:47:13Z</time>
      </trkpt>
      <trkpt lat="44.16789" lon="5.02449">
        <ele>343</ele>
        <time>2021-02-06T07:47:18Z</time>
      </trkpt>
      <trkpt lat="44.16789" lon="5.02462">
        <ele>345</ele>
        <time>2021-02-06T07:47:23Z</time>
      </trkpt>
      <trkpt lat="44.16793" lon="5.02477">
        <ele>345</ele>
        <time>2021-02-06T07:47:28Z</time>
      </trkpt>
      <trkpt lat="44.16795" lon="5.0249">
        <ele>345</ele>
        <time>2021-02-06T07:47:33Z</time>
      </trkpt>
      <trkpt lat="44.16795" lon="5.02503">
        <ele>345</ele>
        <time>2021-02-06T07:47:37Z</time>
      </trkpt>
      <trkpt lat="44.16797" lon="5.02517">
        <ele>343</ele>
        <time>2021-02-06T07:47:42Z</time>
      </trkpt>
      <trkpt lat="44.16795" lon="5.02532">
        <ele>342</ele>
        <time>2021-02-06T07:47:48Z</time>
      </trkpt>
      <trkpt lat="44.16789" lon="5.02545">
        <ele>344</ele>
        <time>2021-02-06T07:47:53Z</time>
      </trkpt>
      <trkpt lat="44.16784" lon="5.02556">
        <ele>345</ele>
        <time>2021-02-06T07:47:58Z</time>
      </trkpt>
      <trkpt lat="44.16778" lon="5.02567">
        <ele>346</ele>
        <time>2021-02-06T07:48:03Z</time>
      </trkpt>
      <trkpt lat="44.16769" lon="5.02573">
        <ele>350</ele>
        <time>2021-02-06T07:48:11Z</time>
      </trkpt>
      <trkpt lat="44.1676" lon="5.02576">
        <ele>354</ele>
        <time>2021-02-06T07:48:15Z</time>
      </trkpt>
      <trkpt lat="44.16752" lon="5.02583">
        <ele>356</ele>
        <time>2021-02-06T07:48:19Z</time>
      </trkpt>
      <trkpt lat="44.16746" lon="5.02596">
        <ele>359</ele>
        <time>2021-02-06T07:48:23Z</time>
      </trkpt>
      <trkpt lat="44.16743" lon="5.02609">
        <ele>361</ele>
        <time>2021-02-06T07:48:27Z</time>
      </trkpt>
      <trkpt lat="44.16742" lon="5.02623">
        <ele>364</ele>
        <time>2021-02-06T07:48:31Z</time>
      </trkpt>
      <trkpt lat="44.16748" lon="5.02632">
        <ele>364</ele>
        <time>2021-02-06T07:48:35Z</time>
      </trkpt>
      <trkpt lat="44.16753" lon="5.02643">
        <ele>365</ele>
        <time>2021-02-06T07:48:39Z</time>
      </trkpt>
      <trkpt lat="44.16759" lon="5.02653">
        <ele>365</ele>
        <time>2021-02-06T07:48:44Z</time>
      </trkpt>
      <trkpt lat="44.16767" lon="5.02661">
        <ele>365</ele>
        <time>2021-02-06T07:48:48Z</time>
      </trkpt>
      <trkpt lat="44.16771" lon="5.02674">
        <ele>365</ele>
        <time>2021-02-06T07:48:53Z</time>
      </trkpt>
      <trkpt lat="44.16771" lon="5.02689">
        <ele>366</ele>
        <time>2021-02-06T07:48:58Z</time>
      </trkpt>
      <trkpt lat="44.16771" lon="5.02702">
        <ele>366</ele>
        <time>2021-02-06T07:49:03Z</time>
      </trkpt>
      <trkpt lat="44.16776" lon="5.02714">
        <ele>365</ele>
        <time>2021-02-06T07:49:08Z</time>
      </trkpt>
      <trkpt lat="44.16782" lon="5.02728">
        <ele>363</ele>
        <time>2021-02-06T07:49:12Z</time>
      </trkpt>
      <trkpt lat="44.16783" lon="5.02743">
        <ele>364</ele>
        <time>2021-02-06T07:49:16Z</time>
      </trkpt>
      <trkpt lat="44.16784" lon="5.02756">
        <ele>366</ele>
        <time>2021-02-06T07:49:20Z</time>
      </trkpt>
      <trkpt lat="44.16787" lon="5.02768">
        <ele>366</ele>
        <time>2021-02-06T07:49:24Z</time>
      </trkpt>
      <trkpt lat="44.1679" lon="5.02783">
        <ele>367</ele>
        <time>2021-02-06T07:49:28Z</time>
      </trkpt>
      <trkpt lat="44.16793" lon="5.02794">
        <ele>367</ele>
        <time>2021-02-06T07:49:32Z</time>
      </trkpt>
      <trkpt lat="44.16796" lon="5.02808">
        <ele>368</ele>
        <time>2021-02-06T07:49:36Z</time>
      </trkpt>
      <trkpt lat="44.16796" lon="5.02822">
        <ele>370</ele>
        <time>2021-02-06T07:49:41Z</time>
      </trkpt>
      <trkpt lat="44.16798" lon="5.02834">
        <ele>371</ele>
        <time>2021-02-06T07:49:45Z</time>
      </trkpt>
      <trkpt lat="44.16795" lon="5.02848">
        <ele>373</ele>
        <time>2021-02-06T07:49:50Z</time>
      </trkpt>
      <trkpt lat="44.16794" lon="5.02861">
        <ele>375</ele>
        <time>2021-02-06T07:49:54Z</time>
      </trkpt>
      <trkpt lat="44.16795" lon="5.02876">
        <ele>378</ele>
        <time>2021-02-06T07:50:00Z</time>
      </trkpt>
      <trkpt lat="44.16799" lon="5.02889">
        <ele>379</ele>
        <time>2021-02-06T07:50:05Z</time>
      </trkpt>
      <trkpt lat="44.16801" lon="5.02903">
        <ele>381</ele>
        <time>2021-02-06T07:50:11Z</time>
      </trkpt>
      <trkpt lat="44.16804" lon="5.02915">
        <ele>382</ele>
        <time>2021-02-06T07:50:16Z</time>
      </trkpt>
      <trkpt lat="44.16808" lon="5.02928">
        <ele>384</ele>
        <time>2021-02-06T07:50:21Z</time>
      </trkpt>
      <trkpt lat="44.16812" lon="5.02941">
        <ele>385</ele>
        <time>2021-02-06T07:50:26Z</time>
      </trkpt>
      <trkpt lat="44.16813" lon="5.02955">
        <ele>387</ele>
        <time>2021-02-06T07:50:32Z</time>
      </trkpt>
      <trkpt lat="44.16815" lon="5.0297">
        <ele>389</ele>
        <time>2021-02-06T07:50:38Z</time>
      </trkpt>
      <trkpt lat="44.16817" lon="5.02983">
        <ele>390</ele>
        <time>2021-02-06T07:50:43Z</time>
      </trkpt>
      <trkpt lat="44.16817" lon="5.02997">
        <ele>392</ele>
        <time>2021-02-06T07:50:48Z</time>
      </trkpt>
      <trkpt lat="44.16819" lon="5.03006">
        <ele>393</ele>
        <time>2021-02-06T07:50:51Z</time>
      </trkpt>
      <trkpt lat="44.16817" lon="5.03009">
        <ele>393</ele>
        <time>2021-02-06T07:50:54Z</time>
      </trkpt>
      <trkpt lat="44.16813" lon="5.03012">
        <ele>394</ele>
        <time>2021-02-06T07:51:02Z</time>
      </trkpt>
      <trkpt lat="44.16808" lon="5.03015">
        <ele>395</ele>
        <time>2021-02-06T07:51:05Z</time>
      </trkpt>
      <trkpt lat="44.16805" lon="5.03019">
        <ele>396</ele>
        <time>2021-02-06T07:51:07Z</time>
      </trkpt>
      <trkpt lat="44.16802" lon="5.03023">
        <ele>397</ele>
        <time>2021-02-06T07:51:09Z</time>
      </trkpt>
      <trkpt lat="44.168" lon="5.03027">
        <ele>398</ele>
        <time>2021-02-06T07:51:11Z</time>
      </trkpt>
      <trkpt lat="44.16793" lon="5.03037">
        <ele>401</ele>
        <time>2021-02-06T07:51:16Z</time>
      </trkpt>
      <trkpt lat="44.16785" lon="5.03045">
        <ele>404</ele>
        <time>2021-02-06T07:51:21Z</time>
      </trkpt>
      <trkpt lat="44.16774" lon="5.03042">
        <ele>405</ele>
        <time>2021-02-06T07:51:27Z</time>
      </trkpt>
      <trkpt lat="44.16774" lon="5.03056">
        <ele>408</ele>
        <time>2021-02-06T07:51:38Z</time>
      </trkpt>
      <trkpt lat="44.16783" lon="5.03065">
        <ele>408</ele>
        <time>2021-02-06T07:51:43Z</time>
      </trkpt>
      <trkpt lat="44.16789" lon="5.03074">
        <ele>408</ele>
        <time>2021-02-06T07:51:48Z</time>
      </trkpt>
      <trkpt lat="44.16798" lon="5.03084">
        <ele>408</ele>
        <time>2021-02-06T07:51:53Z</time>
      </trkpt>
      <trkpt lat="44.16805" lon="5.03095">
        <ele>409</ele>
        <time>2021-02-06T07:51:58Z</time>
      </trkpt>
      <trkpt lat="44.16813" lon="5.03103">
        <ele>410</ele>
        <time>2021-02-06T07:52:03Z</time>
      </trkpt>
      <trkpt lat="44.1682" lon="5.03112">
        <ele>411</ele>
        <time>2021-02-06T07:52:08Z</time>
      </trkpt>
      <trkpt lat="44.16827" lon="5.0312">
        <ele>412</ele>
        <time>2021-02-06T07:52:12Z</time>
      </trkpt>
      <trkpt lat="44.16834" lon="5.03131">
        <ele>412</ele>
        <time>2021-02-06T07:52:17Z</time>
      </trkpt>
      <trkpt lat="44.1684" lon="5.03142">
        <ele>415</ele>
        <time>2021-02-06T07:52:22Z</time>
      </trkpt>
      <trkpt lat="44.16847" lon="5.03151">
        <ele>417</ele>
        <time>2021-02-06T07:52:27Z</time>
      </trkpt>
      <trkpt lat="44.16857" lon="5.03159">
        <ele>418</ele>
        <time>2021-02-06T07:52:32Z</time>
      </trkpt>
      <trkpt lat="44.1686" lon="5.03172">
        <ele>420</ele>
        <time>2021-02-06T07:52:37Z</time>
      </trkpt>
      <trkpt lat="44.16866" lon="5.03183">
        <ele>421</ele>
        <time>2021-02-06T07:52:42Z</time>
      </trkpt>
      <trkpt lat="44.16873" lon="5.03195">
        <ele>421</ele>
        <time>2021-02-06T07:52:47Z</time>
      </trkpt>
      <trkpt lat="44.16878" lon="5.03205">
        <ele>422</ele>
        <time>2021-02-06T07:52:51Z</time>
      </trkpt>
      <trkpt lat="44.16882" lon="5.0321">
        <ele>422</ele>
        <time>2021-02-06T07:53:13Z</time>
      </trkpt>
      <trkpt lat="44.16883" lon="5.03215">
        <ele>422</ele>
        <time>2021-02-06T07:53:33Z</time>
      </trkpt>
      <trkpt lat="44.16885" lon="5.03224">
        <ele>423</ele>
        <time>2021-02-06T07:53:42Z</time>
      </trkpt>
      <trkpt lat="44.16889" lon="5.03232">
        <ele>423</ele>
        <time>2021-02-06T07:54:02Z</time>
      </trkpt>
      <trkpt lat="44.1689" lon="5.03237">
        <ele>424</ele>
        <time>2021-02-06T07:54:04Z</time>
      </trkpt>
      <trkpt lat="44.16892" lon="5.0325">
        <ele>425</ele>
        <time>2021-02-06T07:54:09Z</time>
      </trkpt>
      <trkpt lat="44.16896" lon="5.03263">
        <ele>425</ele>
        <time>2021-02-06T07:54:13Z</time>
      </trkpt>
      <trkpt lat="44.16898" lon="5.03277">
        <ele>426</ele>
        <time>2021-02-06T07:54:18Z</time>
      </trkpt>
      <trkpt lat="44.16901" lon="5.03289">
        <ele>427</ele>
        <time>2021-02-06T07:54:23Z</time>
      </trkpt>
      <trkpt lat="44.16905" lon="5.03301">
        <ele>427</ele>
        <time>2021-02-06T07:54:28Z</time>
      </trkpt>
      <trkpt lat="44.1691" lon="5.03314">
        <ele>427</ele>
        <time>2021-02-06T07:54:33Z</time>
      </trkpt>
      <trkpt lat="44.16911" lon="5.03328">
        <ele>428</ele>
        <time>2021-02-06T07:54:37Z</time>
      </trkpt>
      <trkpt lat="44.16916" lon="5.03342">
        <ele>429</ele>
        <time>2021-02-06T07:54:42Z</time>
      </trkpt>
      <trkpt lat="44.16921" lon="5.03352">
        <ele>429</ele>
        <time>2021-02-06T07:54:46Z</time>
      </trkpt>
      <trkpt lat="44.16928" lon="5.0336">
        <ele>429</ele>
        <time>2021-02-06T07:54:50Z</time>
      </trkpt>
      <trkpt lat="44.16935" lon="5.03368">
        <ele>429</ele>
        <time>2021-02-06T07:54:54Z</time>
      </trkpt>
      <trkpt lat="44.16941" lon="5.03377">
        <ele>430</ele>
        <time>2021-02-06T07:54:57Z</time>
      </trkpt>
      <trkpt lat="44.16948" lon="5.03389">
        <ele>431</ele>
        <time>2021-02-06T07:55:02Z</time>
      </trkpt>
      <trkpt lat="44.16953" lon="5.03401">
        <ele>433</ele>
        <time>2021-02-06T07:55:07Z</time>
      </trkpt>
      <trkpt lat="44.16961" lon="5.03412">
        <ele>434</ele>
        <time>2021-02-06T07:55:13Z</time>
      </trkpt>
      <trkpt lat="44.1697" lon="5.03418">
        <ele>434</ele>
        <time>2021-02-06T07:55:17Z</time>
      </trkpt>
      <trkpt lat="44.16979" lon="5.03425">
        <ele>435</ele>
        <time>2021-02-06T07:55:21Z</time>
      </trkpt>
      <trkpt lat="44.16988" lon="5.03434">
        <ele>437</ele>
        <time>2021-02-06T07:55:26Z</time>
      </trkpt>
      <trkpt lat="44.16994" lon="5.03443">
        <ele>439</ele>
        <time>2021-02-06T07:55:30Z</time>
      </trkpt>
      <trkpt lat="44.17002" lon="5.03453">
        <ele>441</ele>
        <time>2021-02-06T07:55:35Z</time>
      </trkpt>
      <trkpt lat="44.1701" lon="5.03462">
        <ele>443</ele>
        <time>2021-02-06T07:55:40Z</time>
      </trkpt>
      <trkpt lat="44.17018" lon="5.03469">
        <ele>444</ele>
        <time>2021-02-06T07:55:44Z</time>
      </trkpt>
      <trkpt lat="44.17025" lon="5.03478">
        <ele>445</ele>
        <time>2021-02-06T07:55:49Z</time>
      </trkpt>
      <trkpt lat="44.17032" lon="5.03485">
        <ele>446</ele>
        <time>2021-02-06T07:55:53Z</time>
      </trkpt>
      <trkpt lat="44.17041" lon="5.03492">
        <ele>447</ele>
        <time>2021-02-06T07:55:58Z</time>
      </trkpt>
      <trkpt lat="44.1705" lon="5.03498">
        <ele>447</ele>
        <time>2021-02-06T07:56:02Z</time>
      </trkpt>
      <trkpt lat="44.17058" lon="5.03506">
        <ele>449</ele>
        <time>2021-02-06T07:56:07Z</time>
      </trkpt>
      <trkpt lat="44.17066" lon="5.03514">
        <ele>452</ele>
        <time>2021-02-06T07:56:11Z</time>
      </trkpt>
      <trkpt lat="44.17075" lon="5.03521">
        <ele>455</ele>
        <time>2021-02-06T07:56:16Z</time>
      </trkpt>
      <trkpt lat="44.17083" lon="5.03526">
        <ele>456</ele>
        <time>2021-02-06T07:56:21Z</time>
      </trkpt>
      <trkpt lat="44.17094" lon="5.03526">
        <ele>455</ele>
        <time>2021-02-06T07:56:27Z</time>
      </trkpt>
      <trkpt lat="44.17104" lon="5.03529">
        <ele>456</ele>
        <time>2021-02-06T07:56:33Z</time>
      </trkpt>
      <trkpt lat="44.17113" lon="5.03531">
        <ele>456</ele>
        <time>2021-02-06T07:56:37Z</time>
      </trkpt>
      <trkpt lat="44.17123" lon="5.03535">
        <ele>457</ele>
        <time>2021-02-06T07:56:42Z</time>
      </trkpt>
      <trkpt lat="44.17132" lon="5.03542">
        <ele>458</ele>
        <time>2021-02-06T07:56:48Z</time>
      </trkpt>
      <trkpt lat="44.17141" lon="5.03548">
        <ele>460</ele>
        <time>2021-02-06T07:56:55Z</time>
      </trkpt>
      <trkpt lat="44.1715" lon="5.03551">
        <ele>460</ele>
        <time>2021-02-06T07:57:01Z</time>
      </trkpt>
      <trkpt lat="44.17159" lon="5.03556">
        <ele>461</ele>
        <time>2021-02-06T07:57:08Z</time>
      </trkpt>
      <trkpt lat="44.17168" lon="5.03561">
        <ele>462</ele>
        <time>2021-02-06T07:57:14Z</time>
      </trkpt>
      <trkpt lat="44.17176" lon="5.03567">
        <ele>463</ele>
        <time>2021-02-06T07:57:23Z</time>
      </trkpt>
      <trkpt lat="44.17187" lon="5.03569">
        <ele>463</ele>
        <time>2021-02-06T07:57:30Z</time>
      </trkpt>
      <trkpt lat="44.17194" lon="5.03576">
        <ele>465</ele>
        <time>2021-02-06T07:57:35Z</time>
      </trkpt>
      <trkpt lat="44.17202" lon="5.03584">
        <ele>466</ele>
        <time>2021-02-06T07:57:41Z</time>
      </trkpt>
      <trkpt lat="44.1721" lon="5.03591">
        <ele>468</ele>
        <time>2021-02-06T07:57:46Z</time>
      </trkpt>
      <trkpt lat="44.17218" lon="5.03598">
        <ele>469</ele>
        <time>2021-02-06T07:57:52Z</time>
      </trkpt>
      <trkpt lat="44.17226" lon="5.03605">
        <ele>470</ele>
        <time>2021-02-06T07:57:58Z</time>
      </trkpt>
      <trkpt lat="44.17233" lon="5.03614">
        <ele>472</ele>
        <time>2021-02-06T07:58:04Z</time>
      </trkpt>
      <trkpt lat="44.17242" lon="5.03623">
        <ele>473</ele>
        <time>2021-02-06T07:58:11Z</time>
      </trkpt>
      <trkpt lat="44.1725" lon="5.03629">
        <ele>473</ele>
        <time>2021-02-06T07:58:15Z</time>
      </trkpt>
      <trkpt lat="44.17258" lon="5.03639">
        <ele>474</ele>
        <time>2021-02-06T07:58:20Z</time>
      </trkpt>
      <trkpt lat="44.17266" lon="5.03648">
        <ele>474</ele>
        <time>2021-02-06T07:58:26Z</time>
      </trkpt>
      <trkpt lat="44.17272" lon="5.03657">
        <ele>474</ele>
        <time>2021-02-06T07:58:31Z</time>
      </trkpt>
      <trkpt lat="44.17282" lon="5.03666">
        <ele>474</ele>
        <time>2021-02-06T07:58:37Z</time>
      </trkpt>
      <trkpt lat="44.17289" lon="5.03673">
        <ele>475</ele>
        <time>2021-02-06T07:58:42Z</time>
      </trkpt>
      <trkpt lat="44.17297" lon="5.03681">
        <ele>475</ele>
        <time>2021-02-06T07:58:47Z</time>
      </trkpt>
      <trkpt lat="44.17307" lon="5.03685">
        <ele>475</ele>
        <time>2021-02-06T07:58:53Z</time>
      </trkpt>
      <trkpt lat="44.17316" lon="5.03691">
        <ele>475</ele>
        <time>2021-02-06T07:58:58Z</time>
      </trkpt>
      <trkpt lat="44.17325" lon="5.03694">
        <ele>474</ele>
        <time>2021-02-06T07:59:02Z</time>
      </trkpt>
      <trkpt lat="44.17336" lon="5.03695">
        <ele>473</ele>
        <time>2021-02-06T07:59:06Z</time>
      </trkpt>
      <trkpt lat="44.17346" lon="5.037">
        <ele>473</ele>
        <time>2021-02-06T07:59:10Z</time>
      </trkpt>
      <trkpt lat="44.17354" lon="5.03706">
        <ele>473</ele>
        <time>2021-02-06T07:59:14Z</time>
      </trkpt>
      <trkpt lat="44.17364" lon="5.03711">
        <ele>473</ele>
        <time>2021-02-06T07:59:18Z</time>
      </trkpt>
      <trkpt lat="44.17373" lon="5.03717">
        <ele>474</ele>
        <time>2021-02-06T07:59:22Z</time>
      </trkpt>
      <trkpt lat="44.17384" lon="5.03722">
        <ele>476</ele>
        <time>2021-02-06T07:59:26Z</time>
      </trkpt>
      <trkpt lat="44.17395" lon="5.03724">
        <ele>477</ele>
        <time>2021-02-06T07:59:30Z</time>
      </trkpt>
      <trkpt lat="44.17405" lon="5.03726">
        <ele>477</ele>
        <time>2021-02-06T07:59:34Z</time>
      </trkpt>
      <trkpt lat="44.17414" lon="5.03724">
        <ele>476</ele>
        <time>2021-02-06T07:59:38Z</time>
      </trkpt>
      <trkpt lat="44.17424" lon="5.03721">
        <ele>475</ele>
        <time>2021-02-06T07:59:42Z</time>
      </trkpt>
      <trkpt lat="44.17433" lon="5.03716">
        <ele>474</ele>
        <time>2021-02-06T07:59:47Z</time>
      </trkpt>
      <trkpt lat="44.17445" lon="5.03716">
        <ele>473</ele>
        <time>2021-02-06T07:59:51Z</time>
      </trkpt>
      <trkpt lat="44.17454" lon="5.0372">
        <ele>470</ele>
        <time>2021-02-06T07:59:54Z</time>
      </trkpt>
      <trkpt lat="44.17463" lon="5.03727">
        <ele>467</ele>
        <time>2021-02-06T07:59:57Z</time>
      </trkpt>
      <trkpt lat="44.17468" lon="5.03739">
        <ele>465</ele>
        <time>2021-02-06T08:00:01Z</time>
      </trkpt>
      <trkpt lat="44.17469" lon="5.03752">
        <ele>465</ele>
        <time>2021-02-06T08:00:04Z</time>
      </trkpt>
      <trkpt lat="44.17471" lon="5.03766">
        <ele>464</ele>
        <time>2021-02-06T08:00:07Z</time>
      </trkpt>
      <trkpt lat="44.17476" lon="5.0378">
        <ele>463</ele>
        <time>2021-02-06T08:00:11Z</time>
      </trkpt>
      <trkpt lat="44.17482" lon="5.03791">
        <ele>462</ele>
        <time>2021-02-06T08:00:15Z</time>
      </trkpt>
      <trkpt lat="44.17489" lon="5.038">
        <ele>461</ele>
        <time>2021-02-06T08:00:19Z</time>
      </trkpt>
      <trkpt lat="44.17495" lon="5.03812">
        <ele>462</ele>
        <time>2021-02-06T08:00:23Z</time>
      </trkpt>
      <trkpt lat="44.17501" lon="5.03822">
        <ele>464</ele>
        <time>2021-02-06T08:00:26Z</time>
      </trkpt>
      <trkpt lat="44.17508" lon="5.03835">
        <ele>465</ele>
        <time>2021-02-06T08:00:30Z</time>
      </trkpt>
      <trkpt lat="44.17513" lon="5.03848">
        <ele>465</ele>
        <time>2021-02-06T08:00:34Z</time>
      </trkpt>
      <trkpt lat="44.17516" lon="5.03862">
        <ele>466</ele>
        <time>2021-02-06T08:00:38Z</time>
      </trkpt>
      <trkpt lat="44.17516" lon="5.03874">
        <ele>466</ele>
        <time>2021-02-06T08:00:41Z</time>
      </trkpt>
      <trkpt lat="44.17515" lon="5.03887">
        <ele>467</ele>
        <time>2021-02-06T08:00:45Z</time>
      </trkpt>
      <trkpt lat="44.17521" lon="5.039">
        <ele>465</ele>
        <time>2021-02-06T08:00:49Z</time>
      </trkpt>
      <trkpt lat="44.1753" lon="5.03911">
        <ele>460</ele>
        <time>2021-02-06T08:00:53Z</time>
      </trkpt>
      <trkpt lat="44.17536" lon="5.03922">
        <ele>456</ele>
        <time>2021-02-06T08:00:56Z</time>
      </trkpt>
      <trkpt lat="44.17545" lon="5.03933">
        <ele>453</ele>
        <time>2021-02-06T08:00:59Z</time>
      </trkpt>
      <trkpt lat="44.17554" lon="5.03946">
        <ele>450</ele>
        <time>2021-02-06T08:01:02Z</time>
      </trkpt>
      <trkpt lat="44.1756" lon="5.03958">
        <ele>451</ele>
        <time>2021-02-06T08:01:05Z</time>
      </trkpt>
      <trkpt lat="44.17565" lon="5.03969">
        <ele>451</ele>
        <time>2021-02-06T08:01:08Z</time>
      </trkpt>
      <trkpt lat="44.1757" lon="5.03981">
        <ele>451</ele>
        <time>2021-02-06T08:01:11Z</time>
      </trkpt>
      <trkpt lat="44.17574" lon="5.03995">
        <ele>453</ele>
        <time>2021-02-06T08:01:15Z</time>
      </trkpt>
      <trkpt lat="44.17576" lon="5.04008">
        <ele>456</ele>
        <time>2021-02-06T08:01:18Z</time>
      </trkpt>
      <trkpt lat="44.17578" lon="5.04023">
        <ele>458</ele>
        <time>2021-02-06T08:01:22Z</time>
      </trkpt>
      <trkpt lat="44.17578" lon="5.04036">
        <ele>461</ele>
        <time>2021-02-06T08:01:25Z</time>
      </trkpt>
      <trkpt lat="44.1758" lon="5.04052">
        <ele>465</ele>
        <time>2021-02-06T08:01:29Z</time>
      </trkpt>
      <trkpt lat="44.17581" lon="5.04068">
        <ele>467</ele>
        <time>2021-02-06T08:01:33Z</time>
      </trkpt>
      <trkpt lat="44.17584" lon="5.04083">
        <ele>469</ele>
        <time>2021-02-06T08:01:37Z</time>
      </trkpt>
      <trkpt lat="44.17589" lon="5.04095">
        <ele>469</ele>
        <time>2021-02-06T08:01:41Z</time>
      </trkpt>
      <trkpt lat="44.17597" lon="5.04102">
        <ele>468</ele>
        <time>2021-02-06T08:01:44Z</time>
      </trkpt>
      <trkpt lat="44.17608" lon="5.04109">
        <ele>465</ele>
        <time>2021-02-06T08:01:47Z</time>
      </trkpt>
      <trkpt lat="44.17617" lon="5.04116">
        <ele>463</ele>
        <time>2021-02-06T08:01:50Z</time>
      </trkpt>
      <trkpt lat="44.17626" lon="5.04123">
        <ele>461</ele>
        <time>2021-02-06T08:01:53Z</time>
      </trkpt>
      <trkpt lat="44.17633" lon="5.04134">
        <ele>462</ele>
        <time>2021-02-06T08:01:57Z</time>
      </trkpt>
      <trkpt lat="44.1764" lon="5.04143">
        <ele>463</ele>
        <time>2021-02-06T08:02:01Z</time>
      </trkpt>
      <trkpt lat="44.17649" lon="5.04152">
        <ele>462</ele>
        <time>2021-02-06T08:02:04Z</time>
      </trkpt>
      <trkpt lat="44.17654" lon="5.04165">
        <ele>464</ele>
        <time>2021-02-06T08:02:08Z</time>
      </trkpt>
      <trkpt lat="44.17662" lon="5.04176">
        <ele>464</ele>
        <time>2021-02-06T08:02:12Z</time>
      </trkpt>
      <trkpt lat="44.17671" lon="5.04184">
        <ele>464</ele>
        <time>2021-02-06T08:02:15Z</time>
      </trkpt>
      <trkpt lat="44.17678" lon="5.04192">
        <ele>464</ele>
        <time>2021-02-06T08:02:18Z</time>
      </trkpt>
      <trkpt lat="44.17683" lon="5.04203">
        <ele>465</ele>
        <time>2021-02-06T08:02:22Z</time>
      </trkpt>
      <trkpt lat="44.17692" lon="5.04213">
        <ele>465</ele>
        <time>2021-02-06T08:02:26Z</time>
      </trkpt>
      <trkpt lat="44.17698" lon="5.04222">
        <ele>466</ele>
        <time>2021-02-06T08:02:30Z</time>
      </trkpt>
      <trkpt lat="44.17706" lon="5.0423">
        <ele>466</ele>
        <time>2021-02-06T08:02:34Z</time>
      </trkpt>
      <trkpt lat="44.17715" lon="5.04237">
        <ele>466</ele>
        <time>2021-02-06T08:02:37Z</time>
      </trkpt>
      <trkpt lat="44.17725" lon="5.04245">
        <ele>465</ele>
        <time>2021-02-06T08:02:41Z</time>
      </trkpt>
      <trkpt lat="44.17733" lon="5.04256">
        <ele>464</ele>
        <time>2021-02-06T08:02:45Z</time>
      </trkpt>
      <trkpt lat="44.17739" lon="5.04268">
        <ele>464</ele>
        <time>2021-02-06T08:02:49Z</time>
      </trkpt>
      <trkpt lat="44.17745" lon="5.04279">
        <ele>464</ele>
        <time>2021-02-06T08:02:53Z</time>
      </trkpt>
      <trkpt lat="44.17751" lon="5.04289">
        <ele>464</ele>
        <time>2021-02-06T08:02:56Z</time>
      </trkpt>
      <trkpt lat="44.17756" lon="5.04301">
        <ele>464</ele>
        <time>2021-02-06T08:03:01Z</time>
      </trkpt>
      <trkpt lat="44.1776" lon="5.04316">
        <ele>466</ele>
        <time>2021-02-06T08:03:07Z</time>
      </trkpt>
      <trkpt lat="44.17766" lon="5.04329">
        <ele>466</ele>
        <time>2021-02-06T08:03:12Z</time>
      </trkpt>
      <trkpt lat="44.17771" lon="5.0434">
        <ele>467</ele>
        <time>2021-02-06T08:03:15Z</time>
      </trkpt>
      <trkpt lat="44.17775" lon="5.04355">
        <ele>469</ele>
        <time>2021-02-06T08:03:19Z</time>
      </trkpt>
      <trkpt lat="44.1778" lon="5.04368">
        <ele>469</ele>
        <time>2021-02-06T08:03:23Z</time>
      </trkpt>
      <trkpt lat="44.17783" lon="5.04381">
        <ele>469</ele>
        <time>2021-02-06T08:03:27Z</time>
      </trkpt>
      <trkpt lat="44.17787" lon="5.04396">
        <ele>468</ele>
        <time>2021-02-06T08:03:31Z</time>
      </trkpt>
      <trkpt lat="44.17788" lon="5.0441">
        <ele>468</ele>
        <time>2021-02-06T08:03:35Z</time>
      </trkpt>
      <trkpt lat="44.17789" lon="5.04425">
        <ele>467</ele>
        <time>2021-02-06T08:03:40Z</time>
      </trkpt>
      <trkpt lat="44.17791" lon="5.04438">
        <ele>465</ele>
        <time>2021-02-06T08:03:44Z</time>
      </trkpt>
      <trkpt lat="44.17791" lon="5.04454">
        <ele>465</ele>
        <time>2021-02-06T08:03:48Z</time>
      </trkpt>
      <trkpt lat="44.17794" lon="5.04468">
        <ele>463</ele>
        <time>2021-02-06T08:03:52Z</time>
      </trkpt>
      <trkpt lat="44.17793" lon="5.04482">
        <ele>463</ele>
        <time>2021-02-06T08:03:56Z</time>
      </trkpt>
      <trkpt lat="44.17789" lon="5.04494">
        <ele>464</ele>
        <time>2021-02-06T08:04:00Z</time>
      </trkpt>
      <trkpt lat="44.17789" lon="5.04508">
        <ele>463</ele>
        <time>2021-02-06T08:04:05Z</time>
      </trkpt>
      <trkpt lat="44.17789" lon="5.04523">
        <ele>463</ele>
        <time>2021-02-06T08:04:09Z</time>
      </trkpt>
      <trkpt lat="44.17788" lon="5.04537">
        <ele>463</ele>
        <time>2021-02-06T08:04:14Z</time>
      </trkpt>
      <trkpt lat="44.17785" lon="5.0455">
        <ele>464</ele>
        <time>2021-02-06T08:04:19Z</time>
      </trkpt>
      <trkpt lat="44.17784" lon="5.04563">
        <ele>465</ele>
        <time>2021-02-06T08:04:24Z</time>
      </trkpt>
      <trkpt lat="44.17783" lon="5.04576">
        <ele>466</ele>
        <time>2021-02-06T08:04:30Z</time>
      </trkpt>
      <trkpt lat="44.17778" lon="5.04586">
        <ele>469</ele>
        <time>2021-02-06T08:04:35Z</time>
      </trkpt>
      <trkpt lat="44.17771" lon="5.04599">
        <ele>475</ele>
        <time>2021-02-06T08:04:41Z</time>
      </trkpt>
      <trkpt lat="44.17767" lon="5.04612">
        <ele>478</ele>
        <time>2021-02-06T08:04:47Z</time>
      </trkpt>
      <trkpt lat="44.17767" lon="5.04625">
        <ele>479</ele>
        <time>2021-02-06T08:04:53Z</time>
      </trkpt>
      <trkpt lat="44.17768" lon="5.04638">
        <ele>478</ele>
        <time>2021-02-06T08:04:59Z</time>
      </trkpt>
      <trkpt lat="44.17767" lon="5.04651">
        <ele>481</ele>
        <time>2021-02-06T08:05:05Z</time>
      </trkpt>
      <trkpt lat="44.17768" lon="5.04665">
        <ele>481</ele>
        <time>2021-02-06T08:05:10Z</time>
      </trkpt>
      <trkpt lat="44.17767" lon="5.0468">
        <ele>484</ele>
        <time>2021-02-06T08:05:16Z</time>
      </trkpt>
      <trkpt lat="44.17768" lon="5.04693">
        <ele>486</ele>
        <time>2021-02-06T08:05:21Z</time>
      </trkpt>
      <trkpt lat="44.17769" lon="5.04706">
        <ele>488</ele>
        <time>2021-02-06T08:05:26Z</time>
      </trkpt>
      <trkpt lat="44.17771" lon="5.0472">
        <ele>489</ele>
        <time>2021-02-06T08:05:32Z</time>
      </trkpt>
      <trkpt lat="44.17773" lon="5.04732">
        <ele>488</ele>
        <time>2021-02-06T08:05:36Z</time>
      </trkpt>
      <trkpt lat="44.1778" lon="5.04743">
        <ele>484</ele>
        <time>2021-02-06T08:05:41Z</time>
      </trkpt>
      <trkpt lat="44.17786" lon="5.04753">
        <ele>479</ele>
        <time>2021-02-06T08:05:46Z</time>
      </trkpt>
      <trkpt lat="44.17786" lon="5.04767">
        <ele>476</ele>
        <time>2021-02-06T08:05:51Z</time>
      </trkpt>
      <trkpt lat="44.17782" lon="5.04779">
        <ele>477</ele>
        <time>2021-02-06T08:05:55Z</time>
      </trkpt>
      <trkpt lat="44.17777" lon="5.0479">
        <ele>480</ele>
        <time>2021-02-06T08:05:58Z</time>
      </trkpt>
      <trkpt lat="44.17773" lon="5.04802">
        <ele>481</ele>
        <time>2021-02-06T08:06:02Z</time>
      </trkpt>
      <trkpt lat="44.17772" lon="5.04817">
        <ele>479</ele>
        <time>2021-02-06T08:06:07Z</time>
      </trkpt>
      <trkpt lat="44.1777" lon="5.0483">
        <ele>478</ele>
        <time>2021-02-06T08:06:11Z</time>
      </trkpt>
      <trkpt lat="44.17771" lon="5.04845">
        <ele>472</ele>
        <time>2021-02-06T08:06:15Z</time>
      </trkpt>
      <trkpt lat="44.1777" lon="5.04858">
        <ele>470</ele>
        <time>2021-02-06T08:06:19Z</time>
      </trkpt>
      <trkpt lat="44.17766" lon="5.0487">
        <ele>472</ele>
        <time>2021-02-06T08:06:23Z</time>
      </trkpt>
      <trkpt lat="44.17762" lon="5.04883">
        <ele>475</ele>
        <time>2021-02-06T08:06:27Z</time>
      </trkpt>
      <trkpt lat="44.17759" lon="5.04896">
        <ele>477</ele>
        <time>2021-02-06T08:06:31Z</time>
      </trkpt>
      <trkpt lat="44.17757" lon="5.04911">
        <ele>478</ele>
        <time>2021-02-06T08:06:35Z</time>
      </trkpt>
      <trkpt lat="44.17747" lon="5.04918">
        <ele>484</ele>
        <time>2021-02-06T08:06:40Z</time>
      </trkpt>
      <trkpt lat="44.17737" lon="5.04919">
        <ele>486</ele>
        <time>2021-02-06T08:06:44Z</time>
      </trkpt>
      <trkpt lat="44.17727" lon="5.04923">
        <ele>486</ele>
        <time>2021-02-06T08:06:48Z</time>
      </trkpt>
      <trkpt lat="44.17718" lon="5.04928">
        <ele>485</ele>
        <time>2021-02-06T08:06:52Z</time>
      </trkpt>
      <trkpt lat="44.1771" lon="5.04933">
        <ele>483</ele>
        <time>2021-02-06T08:06:56Z</time>
      </trkpt>
      <trkpt lat="44.17698" lon="5.04935">
        <ele>482</ele>
        <time>2021-02-06T08:07:01Z</time>
      </trkpt>
      <trkpt lat="44.17689" lon="5.04938">
        <ele>481</ele>
        <time>2021-02-06T08:07:05Z</time>
      </trkpt>
      <trkpt lat="44.17679" lon="5.04937">
        <ele>481</ele>
        <time>2021-02-06T08:07:09Z</time>
      </trkpt>
      <trkpt lat="44.17669" lon="5.0494">
        <ele>479</ele>
        <time>2021-02-06T08:07:13Z</time>
      </trkpt>
      <trkpt lat="44.17664" lon="5.04949">
        <ele>477</ele>
        <time>2021-02-06T08:07:18Z</time>
      </trkpt>
      <trkpt lat="44.17663" lon="5.04952">
        <ele>477</ele>
        <time>2021-02-06T08:07:19Z</time>
      </trkpt>
      <trkpt lat="44.17663" lon="5.04959">
        <ele>475</ele>
        <time>2021-02-06T08:07:21Z</time>
      </trkpt>
      <trkpt lat="44.17664" lon="5.04966">
        <ele>474</ele>
        <time>2021-02-06T08:07:23Z</time>
      </trkpt>
      <trkpt lat="44.17664" lon="5.04974">
        <ele>473</ele>
        <time>2021-02-06T08:07:25Z</time>
      </trkpt>
      <trkpt lat="44.17664" lon="5.04989">
        <ele>469</ele>
        <time>2021-02-06T08:07:30Z</time>
      </trkpt>
      <trkpt lat="44.17664" lon="5.05003">
        <ele>467</ele>
        <time>2021-02-06T08:07:34Z</time>
      </trkpt>
      <trkpt lat="44.17662" lon="5.05018">
        <ele>464</ele>
        <time>2021-02-06T08:07:39Z</time>
      </trkpt>
      <trkpt lat="44.17662" lon="5.0503">
        <ele>461</ele>
        <time>2021-02-06T08:07:43Z</time>
      </trkpt>
      <trkpt lat="44.17662" lon="5.05036">
        <ele>461</ele>
        <time>2021-02-06T08:07:45Z</time>
      </trkpt>
      <trkpt lat="44.17663" lon="5.0504">
        <ele>461</ele>
        <time>2021-02-06T08:07:46Z</time>
      </trkpt>
      <trkpt lat="44.17665" lon="5.05048">
        <ele>460</ele>
        <time>2021-02-06T08:07:48Z</time>
      </trkpt>
      <trkpt lat="44.17667" lon="5.05052">
        <ele>460</ele>
        <time>2021-02-06T08:07:49Z</time>
      </trkpt>
      <trkpt lat="44.1767" lon="5.05059">
        <ele>461</ele>
        <time>2021-02-06T08:07:51Z</time>
      </trkpt>
      <trkpt lat="44.17672" lon="5.05066">
        <ele>461</ele>
        <time>2021-02-06T08:07:53Z</time>
      </trkpt>
      <trkpt lat="44.17675" lon="5.05073">
        <ele>462</ele>
        <time>2021-02-06T08:07:55Z</time>
      </trkpt>
      <trkpt lat="44.17679" lon="5.05078">
        <ele>463</ele>
        <time>2021-02-06T08:07:57Z</time>
      </trkpt>
      <trkpt lat="44.17684" lon="5.05085">
        <ele>464</ele>
        <time>2021-02-06T08:08:00Z</time>
      </trkpt>
      <trkpt lat="44.17686" lon="5.05088">
        <ele>464</ele>
        <time>2021-02-06T08:08:01Z</time>
      </trkpt>
      <trkpt lat="44.17689" lon="5.05092">
        <ele>465</ele>
        <time>2021-02-06T08:08:03Z</time>
      </trkpt>
      <trkpt lat="44.177" lon="5.05098">
        <ele>466</ele>
        <time>2021-02-06T08:08:08Z</time>
      </trkpt>
      <trkpt lat="44.1771" lon="5.05104">
        <ele>468</ele>
        <time>2021-02-06T08:08:13Z</time>
      </trkpt>
      <trkpt lat="44.17717" lon="5.05112">
        <ele>469</ele>
        <time>2021-02-06T08:08:17Z</time>
      </trkpt>
      <trkpt lat="44.17725" lon="5.0512">
        <ele>470</ele>
        <time>2021-02-06T08:08:22Z</time>
      </trkpt>
      <trkpt lat="44.17733" lon="5.05129">
        <ele>470</ele>
        <time>2021-02-06T08:08:27Z</time>
      </trkpt>
      <trkpt lat="44.1774" lon="5.05139">
        <ele>471</ele>
        <time>2021-02-06T08:08:32Z</time>
      </trkpt>
      <trkpt lat="44.17746" lon="5.0515">
        <ele>471</ele>
        <time>2021-02-06T08:08:37Z</time>
      </trkpt>
      <trkpt lat="44.17747" lon="5.05157">
        <ele>472</ele>
        <time>2021-02-06T08:08:40Z</time>
      </trkpt>
      <trkpt lat="44.17745" lon="5.05163">
        <ele>473</ele>
        <time>2021-02-06T08:08:43Z</time>
      </trkpt>
      <trkpt lat="44.17736" lon="5.05165">
        <ele>474</ele>
        <time>2021-02-06T08:08:49Z</time>
      </trkpt>
      <trkpt lat="44.17727" lon="5.05161">
        <ele>474</ele>
        <time>2021-02-06T08:08:54Z</time>
      </trkpt>
      <trkpt lat="44.17725" lon="5.05162">
        <ele>474</ele>
        <time>2021-02-06T08:08:55Z</time>
      </trkpt>
      <trkpt lat="44.17723" lon="5.05165">
        <ele>475</ele>
        <time>2021-02-06T08:08:57Z</time>
      </trkpt>
      <trkpt lat="44.17723" lon="5.0517">
        <ele>475</ele>
        <time>2021-02-06T08:08:59Z</time>
      </trkpt>
      <trkpt lat="44.17724" lon="5.05173">
        <ele>476</ele>
        <time>2021-02-06T08:09:00Z</time>
      </trkpt>
      <trkpt lat="44.17728" lon="5.05186">
        <ele>477</ele>
        <time>2021-02-06T08:09:05Z</time>
      </trkpt>
      <trkpt lat="44.17733" lon="5.05197">
        <ele>478</ele>
        <time>2021-02-06T08:09:09Z</time>
      </trkpt>
      <trkpt lat="44.17737" lon="5.0521">
        <ele>479</ele>
        <time>2021-02-06T08:09:14Z</time>
      </trkpt>
      <trkpt lat="44.17741" lon="5.05222">
        <ele>480</ele>
        <time>2021-02-06T08:09:19Z</time>
      </trkpt>
      <trkpt lat="44.17746" lon="5.05235">
        <ele>481</ele>
        <time>2021-02-06T08:09:24Z</time>
      </trkpt>
      <trkpt lat="44.1775" lon="5.05247">
        <ele>482</ele>
        <time>2021-02-06T08:09:29Z</time>
      </trkpt>
      <trkpt lat="44.17755" lon="5.05259">
        <ele>485</ele>
        <time>2021-02-06T08:09:34Z</time>
      </trkpt>
      <trkpt lat="44.17761" lon="5.05269">
        <ele>487</ele>
        <time>2021-02-06T08:09:39Z</time>
      </trkpt>
      <trkpt lat="44.17767" lon="5.05274">
        <ele>488</ele>
        <time>2021-02-06T08:09:43Z</time>
      </trkpt>
      <trkpt lat="44.17772" lon="5.05277">
        <ele>488</ele>
        <time>2021-02-06T08:09:46Z</time>
      </trkpt>
      <trkpt lat="44.17776" lon="5.05279">
        <ele>488</ele>
        <time>2021-02-06T08:09:48Z</time>
      </trkpt>
      <trkpt lat="44.17779" lon="5.05281">
        <ele>489</ele>
        <time>2021-02-06T08:09:50Z</time>
      </trkpt>
      <trkpt lat="44.17783" lon="5.05283">
        <ele>490</ele>
        <time>2021-02-06T08:09:55Z</time>
      </trkpt>
      <trkpt lat="44.17785" lon="5.05285">
        <ele>490</ele>
        <time>2021-02-06T08:09:57Z</time>
      </trkpt>
      <trkpt lat="44.17787" lon="5.05288">
        <ele>491</ele>
        <time>2021-02-06T08:09:59Z</time>
      </trkpt>
      <trkpt lat="44.17789" lon="5.0529">
        <ele>492</ele>
        <time>2021-02-06T08:10:00Z</time>
      </trkpt>
      <trkpt lat="44.17791" lon="5.05292">
        <ele>492</ele>
        <time>2021-02-06T08:10:01Z</time>
      </trkpt>
      <trkpt lat="44.17792" lon="5.05294">
        <ele>493</ele>
        <time>2021-02-06T08:10:02Z</time>
      </trkpt>
      <trkpt lat="44.17795" lon="5.05298">
        <ele>494</ele>
        <time>2021-02-06T08:10:04Z</time>
      </trkpt>
      <trkpt lat="44.17796" lon="5.05301">
        <ele>494</ele>
        <time>2021-02-06T08:10:06Z</time>
      </trkpt>
      <trkpt lat="44.17798" lon="5.05304">
        <ele>495</ele>
        <time>2021-02-06T08:10:08Z</time>
      </trkpt>
      <trkpt lat="44.17801" lon="5.0531">
        <ele>497</ele>
        <time>2021-02-06T08:10:11Z</time>
      </trkpt>
      <trkpt lat="44.17803" lon="5.05314">
        <ele>498</ele>
        <time>2021-02-06T08:10:13Z</time>
      </trkpt>
      <trkpt lat="44.17805" lon="5.05318">
        <ele>499</ele>
        <time>2021-02-06T08:10:15Z</time>
      </trkpt>
      <trkpt lat="44.17806" lon="5.0532">
        <ele>499</ele>
        <time>2021-02-06T08:10:16Z</time>
      </trkpt>
      <trkpt lat="44.17808" lon="5.05322">
        <ele>500</ele>
        <time>2021-02-06T08:10:17Z</time>
      </trkpt>
      <trkpt lat="44.1781" lon="5.05324">
        <ele>501</ele>
        <time>2021-02-06T08:10:18Z</time>
      </trkpt>
      <trkpt lat="44.17811" lon="5.05326">
        <ele>502</ele>
        <time>2021-02-06T08:10:19Z</time>
      </trkpt>
      <trkpt lat="44.17813" lon="5.05327">
        <ele>502</ele>
        <time>2021-02-06T08:10:20Z</time>
      </trkpt>
      <trkpt lat="44.17815" lon="5.05328">
        <ele>503</ele>
        <time>2021-02-06T08:10:21Z</time>
      </trkpt>
      <trkpt lat="44.17817" lon="5.05328">
        <ele>503</ele>
        <time>2021-02-06T08:10:22Z</time>
      </trkpt>
      <trkpt lat="44.17818" lon="5.05328">
        <ele>504</ele>
        <time>2021-02-06T08:10:23Z</time>
      </trkpt>
      <trkpt lat="44.17821" lon="5.05326">
        <ele>504</ele>
        <time>2021-02-06T08:10:25Z</time>
      </trkpt>
      <trkpt lat="44.17824" lon="5.05323">
        <ele>504</ele>
        <time>2021-02-06T08:10:27Z</time>
      </trkpt>
      <trkpt lat="44.17826" lon="5.05321">
        <ele>504</ele>
        <time>2021-02-06T08:10:29Z</time>
      </trkpt>
      <trkpt lat="44.17828" lon="5.05319">
        <ele>504</ele>
        <time>2021-02-06T08:10:30Z</time>
      </trkpt>
      <trkpt lat="44.1783" lon="5.05317">
        <ele>504</ele>
        <time>2021-02-06T08:10:31Z</time>
      </trkpt>
      <trkpt lat="44.17831" lon="5.05316">
        <ele>504</ele>
        <time>2021-02-06T08:10:32Z</time>
      </trkpt>
      <trkpt lat="44.17832" lon="5.05314">
        <ele>503</ele>
        <time>2021-02-06T08:10:33Z</time>
      </trkpt>
      <trkpt lat="44.17834" lon="5.0531">
        <ele>503</ele>
        <time>2021-02-06T08:10:35Z</time>
      </trkpt>
      <trkpt lat="44.17836" lon="5.05309">
        <ele>503</ele>
        <time>2021-02-06T08:10:36Z</time>
      </trkpt>
      <trkpt lat="44.17838" lon="5.05308">
        <ele>503</ele>
        <time>2021-02-06T08:10:37Z</time>
      </trkpt>
      <trkpt lat="44.1784" lon="5.05307">
        <ele>503</ele>
        <time>2021-02-06T08:10:38Z</time>
      </trkpt>
      <trkpt lat="44.17842" lon="5.05305">
        <ele>503</ele>
        <time>2021-02-06T08:10:39Z</time>
      </trkpt>
      <trkpt lat="44.17844" lon="5.05304">
        <ele>503</ele>
        <time>2021-02-06T08:10:40Z</time>
      </trkpt>
      <trkpt lat="44.17846" lon="5.05303">
        <ele>503</ele>
        <time>2021-02-06T08:10:41Z</time>
      </trkpt>
      <trkpt lat="44.17848" lon="5.05301">
        <ele>503</ele>
        <time>2021-02-06T08:10:42Z</time>
      </trkpt>
      <trkpt lat="44.1785" lon="5.053">
        <ele>503</ele>
        <time>2021-02-06T08:10:43Z</time>
      </trkpt>
      <trkpt lat="44.17851" lon="5.05298">
        <ele>503</ele>
        <time>2021-02-06T08:10:44Z</time>
      </trkpt>
      <trkpt lat="44.17853" lon="5.05296">
        <ele>503</ele>
        <time>2021-02-06T08:10:45Z</time>
      </trkpt>
      <trkpt lat="44.17855" lon="5.05294">
        <ele>503</ele>
        <time>2021-02-06T08:10:46Z</time>
      </trkpt>
      <trkpt lat="44.17856" lon="5.05293">
        <ele>503</ele>
        <time>2021-02-06T08:10:47Z</time>
      </trkpt>
      <trkpt lat="44.17858" lon="5.05291">
        <ele>503</ele>
        <time>2021-02-06T08:10:48Z</time>
      </trkpt>
      <trkpt lat="44.1786" lon="5.0529">
        <ele>504</ele>
        <time>2021-02-06T08:10:49Z</time>
      </trkpt>
      <trkpt lat="44.17863" lon="5.05287">
        <ele>504</ele>
        <time>2021-02-06T08:10:51Z</time>
      </trkpt>
      <trkpt lat="44.17865" lon="5.05286">
        <ele>504</ele>
        <time>2021-02-06T08:10:52Z</time>
      </trkpt>
      <trkpt lat="44.17869" lon="5.05283">
        <ele>504</ele>
        <time>2021-02-06T08:10:54Z</time>
      </trkpt>
      <trkpt lat="44.1787" lon="5.05281">
        <ele>504</ele>
        <time>2021-02-06T08:10:55Z</time>
      </trkpt>
      <trkpt lat="44.17872" lon="5.0528">
        <ele>505</ele>
        <time>2021-02-06T08:10:56Z</time>
      </trkpt>
      <trkpt lat="44.17874" lon="5.05278">
        <ele>505</ele>
        <time>2021-02-06T08:10:57Z</time>
      </trkpt>
      <trkpt lat="44.17876" lon="5.05276">
        <ele>505</ele>
        <time>2021-02-06T08:10:58Z</time>
      </trkpt>
      <trkpt lat="44.17877" lon="5.05275">
        <ele>505</ele>
        <time>2021-02-06T08:10:59Z</time>
      </trkpt>
      <trkpt lat="44.17879" lon="5.05273">
        <ele>506</ele>
        <time>2021-02-06T08:11:00Z</time>
      </trkpt>
      <trkpt lat="44.17881" lon="5.05272">
        <ele>506</ele>
        <time>2021-02-06T08:11:01Z</time>
      </trkpt>
      <trkpt lat="44.17883" lon="5.05272">
        <ele>506</ele>
        <time>2021-02-06T08:11:02Z</time>
      </trkpt>
      <trkpt lat="44.17885" lon="5.05271">
        <ele>507</ele>
        <time>2021-02-06T08:11:03Z</time>
      </trkpt>
      <trkpt lat="44.17887" lon="5.05271">
        <ele>507</ele>
        <time>2021-02-06T08:11:04Z</time>
      </trkpt>
      <trkpt lat="44.17892" lon="5.05273">
        <ele>509</ele>
        <time>2021-02-06T08:11:07Z</time>
      </trkpt>
      <trkpt lat="44.17895" lon="5.05275">
        <ele>510</ele>
        <time>2021-02-06T08:11:09Z</time>
      </trkpt>
      <trkpt lat="44.17897" lon="5.05277">
        <ele>510</ele>
        <time>2021-02-06T08:11:11Z</time>
      </trkpt>
      <trkpt lat="44.17898" lon="5.05279">
        <ele>511</ele>
        <time>2021-02-06T08:11:13Z</time>
      </trkpt>
      <trkpt lat="44.17898" lon="5.05283">
        <ele>511</ele>
        <time>2021-02-06T08:11:15Z</time>
      </trkpt>
      <trkpt lat="44.179" lon="5.05287">
        <ele>512</ele>
        <time>2021-02-06T08:11:17Z</time>
      </trkpt>
      <trkpt lat="44.17902" lon="5.0529">
        <ele>513</ele>
        <time>2021-02-06T08:11:19Z</time>
      </trkpt>
      <trkpt lat="44.17903" lon="5.05292">
        <ele>513</ele>
        <time>2021-02-06T08:11:20Z</time>
      </trkpt>
      <trkpt lat="44.17905" lon="5.05296">
        <ele>514</ele>
        <time>2021-02-06T08:11:22Z</time>
      </trkpt>
      <trkpt lat="44.17908" lon="5.05298">
        <ele>515</ele>
        <time>2021-02-06T08:11:24Z</time>
      </trkpt>
      <trkpt lat="44.17911" lon="5.053">
        <ele>516</ele>
        <time>2021-02-06T08:11:26Z</time>
      </trkpt>
      <trkpt lat="44.17914" lon="5.05302">
        <ele>517</ele>
        <time>2021-02-06T08:11:28Z</time>
      </trkpt>
      <trkpt lat="44.17919" lon="5.05306">
        <ele>518</ele>
        <time>2021-02-06T08:11:31Z</time>
      </trkpt>
      <trkpt lat="44.17922" lon="5.05307">
        <ele>519</ele>
        <time>2021-02-06T08:11:33Z</time>
      </trkpt>
      <trkpt lat="44.17924" lon="5.05308">
        <ele>520</ele>
        <time>2021-02-06T08:11:34Z</time>
      </trkpt>
      <trkpt lat="44.17926" lon="5.05311">
        <ele>521</ele>
        <time>2021-02-06T08:11:36Z</time>
      </trkpt>
      <trkpt lat="44.17929" lon="5.05313">
        <ele>521</ele>
        <time>2021-02-06T08:11:38Z</time>
      </trkpt>
      <trkpt lat="44.17931" lon="5.05317">
        <ele>522</ele>
        <time>2021-02-06T08:11:40Z</time>
      </trkpt>
      <trkpt lat="44.17932" lon="5.05318">
        <ele>522</ele>
        <time>2021-02-06T08:11:41Z</time>
      </trkpt>
      <trkpt lat="44.17934" lon="5.0532">
        <ele>523</ele>
        <time>2021-02-06T08:11:42Z</time>
      </trkpt>
      <trkpt lat="44.17936" lon="5.05324">
        <ele>523</ele>
        <time>2021-02-06T08:11:44Z</time>
      </trkpt>
      <trkpt lat="44.17937" lon="5.05327">
        <ele>524</ele>
        <time>2021-02-06T08:11:45Z</time>
      </trkpt>
      <trkpt lat="44.17938" lon="5.0533">
        <ele>524</ele>
        <time>2021-02-06T08:11:46Z</time>
      </trkpt>
      <trkpt lat="44.17941" lon="5.05333">
        <ele>524</ele>
        <time>2021-02-06T08:11:48Z</time>
      </trkpt>
      <trkpt lat="44.17944" lon="5.05336">
        <ele>525</ele>
        <time>2021-02-06T08:11:50Z</time>
      </trkpt>
      <trkpt lat="44.17946" lon="5.05339">
        <ele>526</ele>
        <time>2021-02-06T08:11:52Z</time>
      </trkpt>
      <trkpt lat="44.17947" lon="5.05341">
        <ele>527</ele>
        <time>2021-02-06T08:11:54Z</time>
      </trkpt>
      <trkpt lat="44.17949" lon="5.05344">
        <ele>527</ele>
        <time>2021-02-06T08:11:56Z</time>
      </trkpt>
      <trkpt lat="44.17952" lon="5.05347">
        <ele>528</ele>
        <time>2021-02-06T08:11:58Z</time>
      </trkpt>
      <trkpt lat="44.17955" lon="5.0535">
        <ele>529</ele>
        <time>2021-02-06T08:12:00Z</time>
      </trkpt>
      <trkpt lat="44.17957" lon="5.05353">
        <ele>529</ele>
        <time>2021-02-06T08:12:02Z</time>
      </trkpt>
      <trkpt lat="44.17959" lon="5.05355">
        <ele>530</ele>
        <time>2021-02-06T08:12:04Z</time>
      </trkpt>
      <trkpt lat="44.1796" lon="5.05358">
        <ele>530</ele>
        <time>2021-02-06T08:12:07Z</time>
      </trkpt>
      <trkpt lat="44.17961" lon="5.05361">
        <ele>531</ele>
        <time>2021-02-06T08:12:09Z</time>
      </trkpt>
      <trkpt lat="44.17962" lon="5.05363">
        <ele>531</ele>
        <time>2021-02-06T08:12:11Z</time>
      </trkpt>
      <trkpt lat="44.17963" lon="5.05366">
        <ele>532</ele>
        <time>2021-02-06T08:12:13Z</time>
      </trkpt>
      <trkpt lat="44.17965" lon="5.05367">
        <ele>532</ele>
        <time>2021-02-06T08:12:15Z</time>
      </trkpt>
      <trkpt lat="44.17966" lon="5.0537">
        <ele>533</ele>
        <time>2021-02-06T08:12:17Z</time>
      </trkpt>
      <trkpt lat="44.17967" lon="5.05373">
        <ele>534</ele>
        <time>2021-02-06T08:12:19Z</time>
      </trkpt>
      <trkpt lat="44.17968" lon="5.05376">
        <ele>534</ele>
        <time>2021-02-06T08:12:21Z</time>
      </trkpt>
      <trkpt lat="44.1797" lon="5.05378">
        <ele>535</ele>
        <time>2021-02-06T08:12:23Z</time>
      </trkpt>
      <trkpt lat="44.17972" lon="5.05379">
        <ele>535</ele>
        <time>2021-02-06T08:12:25Z</time>
      </trkpt>
      <trkpt lat="44.17973" lon="5.0538">
        <ele>535</ele>
        <time>2021-02-06T08:12:27Z</time>
      </trkpt>
      <trkpt lat="44.17975" lon="5.05382">
        <ele>536</ele>
        <time>2021-02-06T08:12:30Z</time>
      </trkpt>
      <trkpt lat="44.17977" lon="5.05384">
        <ele>537</ele>
        <time>2021-02-06T08:12:32Z</time>
      </trkpt>
      <trkpt lat="44.17978" lon="5.05386">
        <ele>537</ele>
        <time>2021-02-06T08:12:34Z</time>
      </trkpt>
      <trkpt lat="44.17979" lon="5.05388">
        <ele>538</ele>
        <time>2021-02-06T08:12:36Z</time>
      </trkpt>
      <trkpt lat="44.17981" lon="5.0539">
        <ele>538</ele>
        <time>2021-02-06T08:12:38Z</time>
      </trkpt>
      <trkpt lat="44.17982" lon="5.05392">
        <ele>539</ele>
        <time>2021-02-06T08:12:40Z</time>
      </trkpt>
      <trkpt lat="44.17983" lon="5.05395">
        <ele>539</ele>
        <time>2021-02-06T08:12:42Z</time>
      </trkpt>
      <trkpt lat="44.17983" lon="5.05399">
        <ele>540</ele>
        <time>2021-02-06T08:12:44Z</time>
      </trkpt>
      <trkpt lat="44.17983" lon="5.05404">
        <ele>541</ele>
        <time>2021-02-06T08:12:46Z</time>
      </trkpt>
      <trkpt lat="44.17981" lon="5.05409">
        <ele>541</ele>
        <time>2021-02-06T08:12:48Z</time>
      </trkpt>
      <trkpt lat="44.1798" lon="5.05418">
        <ele>543</ele>
        <time>2021-02-06T08:12:54Z</time>
      </trkpt>
      <trkpt lat="44.17979" lon="5.05425">
        <ele>544</ele>
        <time>2021-02-06T08:12:58Z</time>
      </trkpt>
      <trkpt lat="44.17978" lon="5.05433">
        <ele>545</ele>
        <time>2021-02-06T08:13:02Z</time>
      </trkpt>
      <trkpt lat="44.17977" lon="5.0544">
        <ele>546</ele>
        <time>2021-02-06T08:13:06Z</time>
      </trkpt>
      <trkpt lat="44.17977" lon="5.05447">
        <ele>547</ele>
        <time>2021-02-06T08:13:14Z</time>
      </trkpt>
      <trkpt lat="44.17979" lon="5.05451">
        <ele>548</ele>
        <time>2021-02-06T08:13:26Z</time>
      </trkpt>
      <trkpt lat="44.17979" lon="5.05455">
        <ele>549</ele>
        <time>2021-02-06T08:14:52Z</time>
      </trkpt>
      <trkpt lat="44.17981" lon="5.05458">
        <ele>550</ele>
        <time>2021-02-06T08:15:05Z</time>
      </trkpt>
      <trkpt lat="44.17983" lon="5.05458">
        <ele>550</ele>
        <time>2021-02-06T08:15:08Z</time>
      </trkpt>
      <trkpt lat="44.17985" lon="5.05457">
        <ele>550</ele>
        <time>2021-02-06T08:15:10Z</time>
      </trkpt>
      <trkpt lat="44.17987" lon="5.05457">
        <ele>550</ele>
        <time>2021-02-06T08:15:12Z</time>
      </trkpt>
      <trkpt lat="44.1799" lon="5.05457">
        <ele>550</ele>
        <time>2021-02-06T08:15:14Z</time>
      </trkpt>
      <trkpt lat="44.17992" lon="5.05458">
        <ele>551</ele>
        <time>2021-02-06T08:15:16Z</time>
      </trkpt>
      <trkpt lat="44.17994" lon="5.05458">
        <ele>551</ele>
        <time>2021-02-06T08:15:18Z</time>
      </trkpt>
      <trkpt lat="44.17996" lon="5.05458">
        <ele>551</ele>
        <time>2021-02-06T08:15:20Z</time>
      </trkpt>
      <trkpt lat="44.17999" lon="5.05458">
        <ele>551</ele>
        <time>2021-02-06T08:15:22Z</time>
      </trkpt>
      <trkpt lat="44.18001" lon="5.05458">
        <ele>551</ele>
        <time>2021-02-06T08:15:24Z</time>
      </trkpt>
      <trkpt lat="44.18004" lon="5.05457">
        <ele>551</ele>
        <time>2021-02-06T08:15:26Z</time>
      </trkpt>
      <trkpt lat="44.18006" lon="5.05457">
        <ele>551</ele>
        <time>2021-02-06T08:15:28Z</time>
      </trkpt>
      <trkpt lat="44.18009" lon="5.05458">
        <ele>552</ele>
        <time>2021-02-06T08:15:30Z</time>
      </trkpt>
      <trkpt lat="44.18011" lon="5.05458">
        <ele>552</ele>
        <time>2021-02-06T08:15:32Z</time>
      </trkpt>
      <trkpt lat="44.18014" lon="5.05457">
        <ele>552</ele>
        <time>2021-02-06T08:15:34Z</time>
      </trkpt>
      <trkpt lat="44.18016" lon="5.05457">
        <ele>552</ele>
        <time>2021-02-06T08:15:36Z</time>
      </trkpt>
      <trkpt lat="44.18019" lon="5.05457">
        <ele>552</ele>
        <time>2021-02-06T08:15:38Z</time>
      </trkpt>
      <trkpt lat="44.18021" lon="5.05457">
        <ele>552</ele>
        <time>2021-02-06T08:15:42Z</time>
      </trkpt>
      <trkpt lat="44.18024" lon="5.05458">
        <ele>552</ele>
        <time>2021-02-06T08:15:44Z</time>
      </trkpt>
      <trkpt lat="44.18027" lon="5.05459">
        <ele>553</ele>
        <time>2021-02-06T08:15:46Z</time>
      </trkpt>
      <trkpt lat="44.18031" lon="5.0546">
        <ele>553</ele>
        <time>2021-02-06T08:15:48Z</time>
      </trkpt>
      <trkpt lat="44.18034" lon="5.05462">
        <ele>553</ele>
        <time>2021-02-06T08:15:50Z</time>
      </trkpt>
      <trkpt lat="44.18037" lon="5.05463">
        <ele>553</ele>
        <time>2021-02-06T08:15:52Z</time>
      </trkpt>
      <trkpt lat="44.1804" lon="5.05465">
        <ele>553</ele>
        <time>2021-02-06T08:15:54Z</time>
      </trkpt>
      <trkpt lat="44.18042" lon="5.05467">
        <ele>554</ele>
        <time>2021-02-06T08:15:56Z</time>
      </trkpt>
      <trkpt lat="44.18044" lon="5.0547">
        <ele>554</ele>
        <time>2021-02-06T08:15:58Z</time>
      </trkpt>
      <trkpt lat="44.18046" lon="5.05472">
        <ele>554</ele>
        <time>2021-02-06T08:16:00Z</time>
      </trkpt>
      <trkpt lat="44.18048" lon="5.05475">
        <ele>554</ele>
        <time>2021-02-06T08:16:02Z</time>
      </trkpt>
      <trkpt lat="44.1805" lon="5.05478">
        <ele>555</ele>
        <time>2021-02-06T08:16:04Z</time>
      </trkpt>
      <trkpt lat="44.18052" lon="5.0548">
        <ele>555</ele>
        <time>2021-02-06T08:16:06Z</time>
      </trkpt>
      <trkpt lat="44.18054" lon="5.05483">
        <ele>555</ele>
        <time>2021-02-06T08:16:08Z</time>
      </trkpt>
      <trkpt lat="44.18056" lon="5.05485">
        <ele>555</ele>
        <time>2021-02-06T08:16:10Z</time>
      </trkpt>
      <trkpt lat="44.18058" lon="5.05488">
        <ele>555</ele>
        <time>2021-02-06T08:16:12Z</time>
      </trkpt>
      <trkpt lat="44.1806" lon="5.05491">
        <ele>556</ele>
        <time>2021-02-06T08:16:14Z</time>
      </trkpt>
      <trkpt lat="44.18062" lon="5.05494">
        <ele>555</ele>
        <time>2021-02-06T08:16:16Z</time>
      </trkpt>
      <trkpt lat="44.18065" lon="5.05496">
        <ele>555</ele>
        <time>2021-02-06T08:16:18Z</time>
      </trkpt>
      <trkpt lat="44.18068" lon="5.05498">
        <ele>555</ele>
        <time>2021-02-06T08:16:20Z</time>
      </trkpt>
      <trkpt lat="44.1807" lon="5.055">
        <ele>555</ele>
        <time>2021-02-06T08:16:22Z</time>
      </trkpt>
      <trkpt lat="44.18072" lon="5.05503">
        <ele>555</ele>
        <time>2021-02-06T08:16:24Z</time>
      </trkpt>
      <trkpt lat="44.18075" lon="5.05505">
        <ele>555</ele>
        <time>2021-02-06T08:16:26Z</time>
      </trkpt>
      <trkpt lat="44.18076" lon="5.05507">
        <ele>555</ele>
        <time>2021-02-06T08:16:28Z</time>
      </trkpt>
      <trkpt lat="44.18078" lon="5.0551">
        <ele>555</ele>
        <time>2021-02-06T08:16:30Z</time>
      </trkpt>
      <trkpt lat="44.1808" lon="5.05513">
        <ele>556</ele>
        <time>2021-02-06T08:16:32Z</time>
      </trkpt>
      <trkpt lat="44.18081" lon="5.05516">
        <ele>556</ele>
        <time>2021-02-06T08:16:35Z</time>
      </trkpt>
      <trkpt lat="44.18082" lon="5.05518">
        <ele>556</ele>
        <time>2021-02-06T08:16:39Z</time>
      </trkpt>
      <trkpt lat="44.18083" lon="5.05521">
        <ele>557</ele>
        <time>2021-02-06T08:16:41Z</time>
      </trkpt>
      <trkpt lat="44.18086" lon="5.05524">
        <ele>557</ele>
        <time>2021-02-06T08:16:43Z</time>
      </trkpt>
      <trkpt lat="44.18087" lon="5.05526">
        <ele>557</ele>
        <time>2021-02-06T08:16:45Z</time>
      </trkpt>
      <trkpt lat="44.18089" lon="5.05529">
        <ele>557</ele>
        <time>2021-02-06T08:16:47Z</time>
      </trkpt>
      <trkpt lat="44.18091" lon="5.05531">
        <ele>557</ele>
        <time>2021-02-06T08:16:48Z</time>
      </trkpt>
      <trkpt lat="44.18094" lon="5.05533">
        <ele>557</ele>
        <time>2021-02-06T08:16:49Z</time>
      </trkpt>
      <trkpt lat="44.18096" lon="5.05535">
        <ele>557</ele>
        <time>2021-02-06T08:16:50Z</time>
      </trkpt>
      <trkpt lat="44.18097" lon="5.05536">
        <ele>557</ele>
        <time>2021-02-06T08:16:51Z</time>
      </trkpt>
      <trkpt lat="44.181" lon="5.05538">
        <ele>557</ele>
        <time>2021-02-06T08:16:53Z</time>
      </trkpt>
      <trkpt lat="44.18103" lon="5.05541">
        <ele>557</ele>
        <time>2021-02-06T08:16:55Z</time>
      </trkpt>
      <trkpt lat="44.18105" lon="5.05542">
        <ele>557</ele>
        <time>2021-02-06T08:16:56Z</time>
      </trkpt>
      <trkpt lat="44.18107" lon="5.05544">
        <ele>556</ele>
        <time>2021-02-06T08:16:57Z</time>
      </trkpt>
      <trkpt lat="44.1811" lon="5.05546">
        <ele>556</ele>
        <time>2021-02-06T08:16:58Z</time>
      </trkpt>
      <trkpt lat="44.18112" lon="5.05547">
        <ele>556</ele>
        <time>2021-02-06T08:16:59Z</time>
      </trkpt>
      <trkpt lat="44.18122" lon="5.05555">
        <ele>555</ele>
        <time>2021-02-06T08:17:03Z</time>
      </trkpt>
      <trkpt lat="44.18128" lon="5.05566">
        <ele>556</ele>
        <time>2021-02-06T08:17:07Z</time>
      </trkpt>
      <trkpt lat="44.18138" lon="5.05572">
        <ele>556</ele>
        <time>2021-02-06T08:17:12Z</time>
      </trkpt>
      <trkpt lat="44.1814" lon="5.05573">
        <ele>556</ele>
        <time>2021-02-06T08:17:13Z</time>
      </trkpt>
      <trkpt lat="44.18145" lon="5.05577">
        <ele>557</ele>
        <time>2021-02-06T08:17:15Z</time>
      </trkpt>
      <trkpt lat="44.18147" lon="5.05579">
        <ele>558</ele>
        <time>2021-02-06T08:17:16Z</time>
      </trkpt>
      <trkpt lat="44.18148" lon="5.05582">
        <ele>559</ele>
        <time>2021-02-06T08:17:17Z</time>
      </trkpt>
      <trkpt lat="44.1815" lon="5.05584">
        <ele>559</ele>
        <time>2021-02-06T08:17:18Z</time>
      </trkpt>
      <trkpt lat="44.18152" lon="5.05586">
        <ele>560</ele>
        <time>2021-02-06T08:17:19Z</time>
      </trkpt>
      <trkpt lat="44.18153" lon="5.05587">
        <ele>560</ele>
        <time>2021-02-06T08:17:20Z</time>
      </trkpt>
      <trkpt lat="44.18156" lon="5.05589">
        <ele>561</ele>
        <time>2021-02-06T08:17:22Z</time>
      </trkpt>
      <trkpt lat="44.18159" lon="5.05588">
        <ele>561</ele>
        <time>2021-02-06T08:17:24Z</time>
      </trkpt>
      <trkpt lat="44.18161" lon="5.05587">
        <ele>560</ele>
        <time>2021-02-06T08:17:26Z</time>
      </trkpt>
      <trkpt lat="44.18164" lon="5.05589">
        <ele>561</ele>
        <time>2021-02-06T08:17:31Z</time>
      </trkpt>
      <trkpt lat="44.18165" lon="5.05592">
        <ele>562</ele>
        <time>2021-02-06T08:17:34Z</time>
      </trkpt>
      <trkpt lat="44.18165" lon="5.05596">
        <ele>563</ele>
        <time>2021-02-06T08:17:37Z</time>
      </trkpt>
      <trkpt lat="44.18165" lon="5.05599">
        <ele>564</ele>
        <time>2021-02-06T08:17:39Z</time>
      </trkpt>
      <trkpt lat="44.18164" lon="5.05601">
        <ele>565</ele>
        <time>2021-02-06T08:17:41Z</time>
      </trkpt>
      <trkpt lat="44.18162" lon="5.05603">
        <ele>566</ele>
        <time>2021-02-06T08:17:45Z</time>
      </trkpt>
      <trkpt lat="44.18161" lon="5.05605">
        <ele>566</ele>
        <time>2021-02-06T08:17:47Z</time>
      </trkpt>
      <trkpt lat="44.18159" lon="5.05607">
        <ele>567</ele>
        <time>2021-02-06T08:17:49Z</time>
      </trkpt>
      <trkpt lat="44.18158" lon="5.05609">
        <ele>567</ele>
        <time>2021-02-06T08:17:51Z</time>
      </trkpt>
      <trkpt lat="44.18158" lon="5.05613">
        <ele>568</ele>
        <time>2021-02-06T08:17:53Z</time>
      </trkpt>
      <trkpt lat="44.18158" lon="5.05616">
        <ele>569</ele>
        <time>2021-02-06T08:17:55Z</time>
      </trkpt>
      <trkpt lat="44.18157" lon="5.0562">
        <ele>570</ele>
        <time>2021-02-06T08:17:57Z</time>
      </trkpt>
      <trkpt lat="44.18157" lon="5.05622">
        <ele>571</ele>
        <time>2021-02-06T08:17:59Z</time>
      </trkpt>
      <trkpt lat="44.18156" lon="5.05625">
        <ele>571</ele>
        <time>2021-02-06T08:18:01Z</time>
      </trkpt>
      <trkpt lat="44.18155" lon="5.05628">
        <ele>572</ele>
        <time>2021-02-06T08:18:03Z</time>
      </trkpt>
      <trkpt lat="44.18155" lon="5.05631">
        <ele>573</ele>
        <time>2021-02-06T08:18:05Z</time>
      </trkpt>
      <trkpt lat="44.18154" lon="5.05633">
        <ele>574</ele>
        <time>2021-02-06T08:18:08Z</time>
      </trkpt>
      <trkpt lat="44.18153" lon="5.05635">
        <ele>574</ele>
        <time>2021-02-06T08:18:11Z</time>
      </trkpt>
      <trkpt lat="44.18152" lon="5.05637">
        <ele>574</ele>
        <time>2021-02-06T08:18:14Z</time>
      </trkpt>
      <trkpt lat="44.18153" lon="5.0564">
        <ele>575</ele>
        <time>2021-02-06T08:18:20Z</time>
      </trkpt>
      <trkpt lat="44.18155" lon="5.05642">
        <ele>576</ele>
        <time>2021-02-06T08:18:22Z</time>
      </trkpt>
      <trkpt lat="44.18156" lon="5.05643">
        <ele>577</ele>
        <time>2021-02-06T08:18:25Z</time>
      </trkpt>
      <trkpt lat="44.18157" lon="5.05646">
        <ele>578</ele>
        <time>2021-02-06T08:18:28Z</time>
      </trkpt>
      <trkpt lat="44.18158" lon="5.05649">
        <ele>579</ele>
        <time>2021-02-06T08:18:31Z</time>
      </trkpt>
      <trkpt lat="44.18157" lon="5.05652">
        <ele>579</ele>
        <time>2021-02-06T08:18:33Z</time>
      </trkpt>
      <trkpt lat="44.18156" lon="5.05655">
        <ele>580</ele>
        <time>2021-02-06T08:18:36Z</time>
      </trkpt>
      <trkpt lat="44.18156" lon="5.05657">
        <ele>581</ele>
        <time>2021-02-06T08:18:39Z</time>
      </trkpt>
      <trkpt lat="44.18156" lon="5.05661">
        <ele>582</ele>
        <time>2021-02-06T08:18:43Z</time>
      </trkpt>
      <trkpt lat="44.18155" lon="5.05663">
        <ele>582</ele>
        <time>2021-02-06T08:18:46Z</time>
      </trkpt>
      <trkpt lat="44.18155" lon="5.05666">
        <ele>583</ele>
        <time>2021-02-06T08:18:48Z</time>
      </trkpt>
      <trkpt lat="44.18156" lon="5.0567">
        <ele>584</ele>
        <time>2021-02-06T08:18:50Z</time>
      </trkpt>
      <trkpt lat="44.18157" lon="5.05672">
        <ele>585</ele>
        <time>2021-02-06T08:18:52Z</time>
      </trkpt>
      <trkpt lat="44.18159" lon="5.05675">
        <ele>586</ele>
        <time>2021-02-06T08:18:55Z</time>
      </trkpt>
      <trkpt lat="44.18161" lon="5.05677">
        <ele>587</ele>
        <time>2021-02-06T08:18:58Z</time>
      </trkpt>
      <trkpt lat="44.18162" lon="5.05678">
        <ele>587</ele>
        <time>2021-02-06T08:19:00Z</time>
      </trkpt>
      <trkpt lat="44.18164" lon="5.05679">
        <ele>588</ele>
        <time>2021-02-06T08:19:03Z</time>
      </trkpt>
      <trkpt lat="44.18166" lon="5.05681">
        <ele>588</ele>
        <time>2021-02-06T08:19:07Z</time>
      </trkpt>
      <trkpt lat="44.18168" lon="5.05683">
        <ele>589</ele>
        <time>2021-02-06T08:19:10Z</time>
      </trkpt>
      <trkpt lat="44.18169" lon="5.05685">
        <ele>590</ele>
        <time>2021-02-06T08:19:13Z</time>
      </trkpt>
      <trkpt lat="44.18171" lon="5.05687">
        <ele>590</ele>
        <time>2021-02-06T08:19:16Z</time>
      </trkpt>
      <trkpt lat="44.18173" lon="5.05689">
        <ele>591</ele>
        <time>2021-02-06T08:19:20Z</time>
      </trkpt>
      <trkpt lat="44.18174" lon="5.05692">
        <ele>591</ele>
        <time>2021-02-06T08:19:23Z</time>
      </trkpt>
      <trkpt lat="44.18174" lon="5.05694">
        <ele>592</ele>
        <time>2021-02-06T08:19:26Z</time>
      </trkpt>
      <trkpt lat="44.18172" lon="5.05696">
        <ele>593</ele>
        <time>2021-02-06T08:19:29Z</time>
      </trkpt>
      <trkpt lat="44.1817" lon="5.05697">
        <ele>593</ele>
        <time>2021-02-06T08:19:32Z</time>
      </trkpt>
      <trkpt lat="44.18168" lon="5.057">
        <ele>594</ele>
        <time>2021-02-06T08:19:35Z</time>
      </trkpt>
      <trkpt lat="44.18167" lon="5.05702">
        <ele>595</ele>
        <time>2021-02-06T08:19:39Z</time>
      </trkpt>
      <trkpt lat="44.18166" lon="5.05704">
        <ele>595</ele>
        <time>2021-02-06T08:19:42Z</time>
      </trkpt>
      <trkpt lat="44.18165" lon="5.05707">
        <ele>596</ele>
        <time>2021-02-06T08:19:45Z</time>
      </trkpt>
      <trkpt lat="44.18164" lon="5.05709">
        <ele>596</ele>
        <time>2021-02-06T08:19:48Z</time>
      </trkpt>
      <trkpt lat="44.18162" lon="5.05711">
        <ele>597</ele>
        <time>2021-02-06T08:19:50Z</time>
      </trkpt>
      <trkpt lat="44.18161" lon="5.05714">
        <ele>597</ele>
        <time>2021-02-06T08:19:52Z</time>
      </trkpt>
      <trkpt lat="44.18159" lon="5.05716">
        <ele>598</ele>
        <time>2021-02-06T08:19:55Z</time>
      </trkpt>
      <trkpt lat="44.18157" lon="5.05718">
        <ele>598</ele>
        <time>2021-02-06T08:19:57Z</time>
      </trkpt>
      <trkpt lat="44.18156" lon="5.0572">
        <ele>599</ele>
        <time>2021-02-06T08:19:59Z</time>
      </trkpt>
      <trkpt lat="44.18155" lon="5.05723">
        <ele>599</ele>
        <time>2021-02-06T08:20:02Z</time>
      </trkpt>
      <trkpt lat="44.18155" lon="5.05725">
        <ele>600</ele>
        <time>2021-02-06T08:20:04Z</time>
      </trkpt>
      <trkpt lat="44.18154" lon="5.05728">
        <ele>600</ele>
        <time>2021-02-06T08:20:07Z</time>
      </trkpt>
      <trkpt lat="44.18154" lon="5.05731">
        <ele>601</ele>
        <time>2021-02-06T08:20:11Z</time>
      </trkpt>
      <trkpt lat="44.18154" lon="5.05734">
        <ele>602</ele>
        <time>2021-02-06T08:20:13Z</time>
      </trkpt>
      <trkpt lat="44.18154" lon="5.05737">
        <ele>603</ele>
        <time>2021-02-06T08:20:16Z</time>
      </trkpt>
      <trkpt lat="44.18155" lon="5.0574">
        <ele>603</ele>
        <time>2021-02-06T08:20:19Z</time>
      </trkpt>
      <trkpt lat="44.18155" lon="5.05743">
        <ele>604</ele>
        <time>2021-02-06T08:20:21Z</time>
      </trkpt>
      <trkpt lat="44.18154" lon="5.05746">
        <ele>605</ele>
        <time>2021-02-06T08:20:23Z</time>
      </trkpt>
      <trkpt lat="44.18153" lon="5.05751">
        <ele>606</ele>
        <time>2021-02-06T08:20:26Z</time>
      </trkpt>
      <trkpt lat="44.18152" lon="5.05753">
        <ele>606</ele>
        <time>2021-02-06T08:20:28Z</time>
      </trkpt>
      <trkpt lat="44.1815" lon="5.05756">
        <ele>606</ele>
        <time>2021-02-06T08:20:31Z</time>
      </trkpt>
      <trkpt lat="44.18149" lon="5.05759">
        <ele>606</ele>
        <time>2021-02-06T08:20:34Z</time>
      </trkpt>
      <trkpt lat="44.18148" lon="5.05762">
        <ele>607</ele>
        <time>2021-02-06T08:20:36Z</time>
      </trkpt>
      <trkpt lat="44.18147" lon="5.05765">
        <ele>607</ele>
        <time>2021-02-06T08:20:39Z</time>
      </trkpt>
      <trkpt lat="44.18146" lon="5.05767">
        <ele>608</ele>
        <time>2021-02-06T08:20:42Z</time>
      </trkpt>
      <trkpt lat="44.18144" lon="5.0577">
        <ele>608</ele>
        <time>2021-02-06T08:20:44Z</time>
      </trkpt>
      <trkpt lat="44.18142" lon="5.05773">
        <ele>608</ele>
        <time>2021-02-06T08:20:46Z</time>
      </trkpt>
      <trkpt lat="44.18141" lon="5.05775">
        <ele>609</ele>
        <time>2021-02-06T08:20:48Z</time>
      </trkpt>
      <trkpt lat="44.1814" lon="5.05778">
        <ele>609</ele>
        <time>2021-02-06T08:20:51Z</time>
      </trkpt>
      <trkpt lat="44.18139" lon="5.05781">
        <ele>609</ele>
        <time>2021-02-06T08:20:53Z</time>
      </trkpt>
      <trkpt lat="44.18138" lon="5.05783">
        <ele>609</ele>
        <time>2021-02-06T08:20:55Z</time>
      </trkpt>
      <trkpt lat="44.18137" lon="5.05786">
        <ele>609</ele>
        <time>2021-02-06T08:20:57Z</time>
      </trkpt>
      <trkpt lat="44.18136" lon="5.05789">
        <ele>609</ele>
        <time>2021-02-06T08:21:00Z</time>
      </trkpt>
      <trkpt lat="44.18135" lon="5.05793">
        <ele>610</ele>
        <time>2021-02-06T08:21:03Z</time>
      </trkpt>
      <trkpt lat="44.18134" lon="5.05796">
        <ele>610</ele>
        <time>2021-02-06T08:21:05Z</time>
      </trkpt>
      <trkpt lat="44.18133" lon="5.05798">
        <ele>610</ele>
        <time>2021-02-06T08:21:07Z</time>
      </trkpt>
      <trkpt lat="44.18132" lon="5.05801">
        <ele>610</ele>
        <time>2021-02-06T08:21:10Z</time>
      </trkpt>
      <trkpt lat="44.18131" lon="5.05804">
        <ele>610</ele>
        <time>2021-02-06T08:21:13Z</time>
      </trkpt>
      <trkpt lat="44.18131" lon="5.05808">
        <ele>611</ele>
        <time>2021-02-06T08:21:16Z</time>
      </trkpt>
      <trkpt lat="44.1813" lon="5.05811">
        <ele>611</ele>
        <time>2021-02-06T08:21:18Z</time>
      </trkpt>
      <trkpt lat="44.18129" lon="5.05814">
        <ele>611</ele>
        <time>2021-02-06T08:21:20Z</time>
      </trkpt>
      <trkpt lat="44.18129" lon="5.05817">
        <ele>611</ele>
        <time>2021-02-06T08:21:22Z</time>
      </trkpt>
      <trkpt lat="44.18129" lon="5.05819">
        <ele>611</ele>
        <time>2021-02-06T08:21:24Z</time>
      </trkpt>
      <trkpt lat="44.18129" lon="5.05823">
        <ele>611</ele>
        <time>2021-02-06T08:21:26Z</time>
      </trkpt>
      <trkpt lat="44.1813" lon="5.05826">
        <ele>611</ele>
        <time>2021-02-06T08:21:29Z</time>
      </trkpt>
      <trkpt lat="44.18129" lon="5.05829">
        <ele>612</ele>
        <time>2021-02-06T08:21:31Z</time>
      </trkpt>
      <trkpt lat="44.18127" lon="5.05831">
        <ele>612</ele>
        <time>2021-02-06T08:21:33Z</time>
      </trkpt>
      <trkpt lat="44.18125" lon="5.05832">
        <ele>612</ele>
        <time>2021-02-06T08:21:35Z</time>
      </trkpt>
      <trkpt lat="44.18123" lon="5.05834">
        <ele>613</ele>
        <time>2021-02-06T08:21:37Z</time>
      </trkpt>
      <trkpt lat="44.18121" lon="5.05835">
        <ele>613</ele>
        <time>2021-02-06T08:21:39Z</time>
      </trkpt>
      <trkpt lat="44.1812" lon="5.05837">
        <ele>614</ele>
        <time>2021-02-06T08:21:41Z</time>
      </trkpt>
      <trkpt lat="44.18119" lon="5.05839">
        <ele>614</ele>
        <time>2021-02-06T08:21:43Z</time>
      </trkpt>
      <trkpt lat="44.18116" lon="5.0584">
        <ele>615</ele>
        <time>2021-02-06T08:21:47Z</time>
      </trkpt>
      <trkpt lat="44.18114" lon="5.05841">
        <ele>615</ele>
        <time>2021-02-06T08:21:50Z</time>
      </trkpt>
      <trkpt lat="44.18112" lon="5.05843">
        <ele>616</ele>
        <time>2021-02-06T08:21:53Z</time>
      </trkpt>
      <trkpt lat="44.18109" lon="5.05845">
        <ele>616</ele>
        <time>2021-02-06T08:21:55Z</time>
      </trkpt>
      <trkpt lat="44.18107" lon="5.05848">
        <ele>617</ele>
        <time>2021-02-06T08:21:58Z</time>
      </trkpt>
      <trkpt lat="44.18106" lon="5.0585">
        <ele>618</ele>
        <time>2021-02-06T08:22:01Z</time>
      </trkpt>
      <trkpt lat="44.18105" lon="5.05852">
        <ele>619</ele>
        <time>2021-02-06T08:22:04Z</time>
      </trkpt>
      <trkpt lat="44.18103" lon="5.05853">
        <ele>619</ele>
        <time>2021-02-06T08:22:08Z</time>
      </trkpt>
      <trkpt lat="44.18101" lon="5.05853">
        <ele>620</ele>
        <time>2021-02-06T08:22:10Z</time>
      </trkpt>
      <trkpt lat="44.18099" lon="5.05853">
        <ele>621</ele>
        <time>2021-02-06T08:22:12Z</time>
      </trkpt>
      <trkpt lat="44.18097" lon="5.05852">
        <ele>621</ele>
        <time>2021-02-06T08:22:14Z</time>
      </trkpt>
      <trkpt lat="44.18095" lon="5.05851">
        <ele>622</ele>
        <time>2021-02-06T08:22:16Z</time>
      </trkpt>
      <trkpt lat="44.18093" lon="5.05851">
        <ele>622</ele>
        <time>2021-02-06T08:22:19Z</time>
      </trkpt>
      <trkpt lat="44.18091" lon="5.05852">
        <ele>623</ele>
        <time>2021-02-06T08:22:21Z</time>
      </trkpt>
      <trkpt lat="44.18082" lon="5.05854">
        <ele>627</ele>
        <time>2021-02-06T08:22:34Z</time>
      </trkpt>
      <trkpt lat="44.18076" lon="5.05862">
        <ele>630</ele>
        <time>2021-02-06T08:22:44Z</time>
      </trkpt>
      <trkpt lat="44.18069" lon="5.05863">
        <ele>633</ele>
        <time>2021-02-06T08:22:56Z</time>
      </trkpt>
      <trkpt lat="44.18061" lon="5.05869">
        <ele>638</ele>
        <time>2021-02-06T08:23:14Z</time>
      </trkpt>
      <trkpt lat="44.18059" lon="5.05874">
        <ele>639</ele>
        <time>2021-02-06T08:23:18Z</time>
      </trkpt>
      <trkpt lat="44.18057" lon="5.05886">
        <ele>642</ele>
        <time>2021-02-06T08:23:28Z</time>
      </trkpt>
      <trkpt lat="44.18051" lon="5.05897">
        <ele>647</ele>
        <time>2021-02-06T08:23:38Z</time>
      </trkpt>
      <trkpt lat="44.18045" lon="5.05907">
        <ele>654</ele>
        <time>2021-02-06T08:23:52Z</time>
      </trkpt>
      <trkpt lat="44.18044" lon="5.0592">
        <ele>658</ele>
        <time>2021-02-06T08:24:05Z</time>
      </trkpt>
      <trkpt lat="44.1804" lon="5.05932">
        <ele>664</ele>
        <time>2021-02-06T08:24:18Z</time>
      </trkpt>
      <trkpt lat="44.18041" lon="5.05945">
        <ele>667</ele>
        <time>2021-02-06T08:24:32Z</time>
      </trkpt>
      <trkpt lat="44.18032" lon="5.05941">
        <ele>672</ele>
        <time>2021-02-06T08:24:48Z</time>
      </trkpt>
      <trkpt lat="44.18028" lon="5.05929">
        <ele>671</ele>
        <time>2021-02-06T08:25:04Z</time>
      </trkpt>
      <trkpt lat="44.18025" lon="5.05916">
        <ele>670</ele>
        <time>2021-02-06T08:25:14Z</time>
      </trkpt>
      <trkpt lat="44.18022" lon="5.05909">
        <ele>670</ele>
        <time>2021-02-06T08:25:22Z</time>
      </trkpt>
      <trkpt lat="44.18021" lon="5.05907">
        <ele>671</ele>
        <time>2021-02-06T08:25:28Z</time>
      </trkpt>
      <trkpt lat="44.18019" lon="5.05906">
        <ele>672</ele>
        <time>2021-02-06T08:25:39Z</time>
      </trkpt>
      <trkpt lat="44.18018" lon="5.05903">
        <ele>672</ele>
        <time>2021-02-06T08:25:48Z</time>
      </trkpt>
      <trkpt lat="44.18017" lon="5.059">
        <ele>672</ele>
        <time>2021-02-06T08:25:52Z</time>
      </trkpt>
      <trkpt lat="44.18017" lon="5.05897">
        <ele>671</ele>
        <time>2021-02-06T08:25:54Z</time>
      </trkpt>
      <trkpt lat="44.18017" lon="5.05894">
        <ele>671</ele>
        <time>2021-02-06T08:25:56Z</time>
      </trkpt>
      <trkpt lat="44.18017" lon="5.05891">
        <ele>670</ele>
        <time>2021-02-06T08:25:58Z</time>
      </trkpt>
      <trkpt lat="44.18016" lon="5.05889">
        <ele>671</ele>
        <time>2021-02-06T08:26:00Z</time>
      </trkpt>
      <trkpt lat="44.18015" lon="5.05886">
        <ele>671</ele>
        <time>2021-02-06T08:26:05Z</time>
      </trkpt>
      <trkpt lat="44.18014" lon="5.05884">
        <ele>670</ele>
        <time>2021-02-06T08:26:08Z</time>
      </trkpt>
      <trkpt lat="44.18013" lon="5.05881">
        <ele>671</ele>
        <time>2021-02-06T08:26:11Z</time>
      </trkpt>
      <trkpt lat="44.18012" lon="5.05878">
        <ele>671</ele>
        <time>2021-02-06T08:26:13Z</time>
      </trkpt>
      <trkpt lat="44.1801" lon="5.05875">
        <ele>671</ele>
        <time>2021-02-06T08:26:17Z</time>
      </trkpt>
      <trkpt lat="44.18009" lon="5.05874">
        <ele>672</ele>
        <time>2021-02-06T08:26:19Z</time>
      </trkpt>
      <trkpt lat="44.18007" lon="5.05872">
        <ele>673</ele>
        <time>2021-02-06T08:26:22Z</time>
      </trkpt>
      <trkpt lat="44.18005" lon="5.05869">
        <ele>673</ele>
        <time>2021-02-06T08:26:25Z</time>
      </trkpt>
      <trkpt lat="44.18003" lon="5.05868">
        <ele>674</ele>
        <time>2021-02-06T08:26:28Z</time>
      </trkpt>
      <trkpt lat="44.18001" lon="5.05867">
        <ele>676</ele>
        <time>2021-02-06T08:26:31Z</time>
      </trkpt>
      <trkpt lat="44.17999" lon="5.05868">
        <ele>677</ele>
        <time>2021-02-06T08:26:36Z</time>
      </trkpt>
      <trkpt lat="44.17997" lon="5.05868">
        <ele>679</ele>
        <time>2021-02-06T08:26:39Z</time>
      </trkpt>
      <trkpt lat="44.17995" lon="5.05866">
        <ele>680</ele>
        <time>2021-02-06T08:26:43Z</time>
      </trkpt>
      <trkpt lat="44.17993" lon="5.05865">
        <ele>681</ele>
        <time>2021-02-06T08:26:46Z</time>
      </trkpt>
      <trkpt lat="44.17991" lon="5.05866">
        <ele>683</ele>
        <time>2021-02-06T08:26:49Z</time>
      </trkpt>
      <trkpt lat="44.17989" lon="5.05865">
        <ele>684</ele>
        <time>2021-02-06T08:26:53Z</time>
      </trkpt>
      <trkpt lat="44.17988" lon="5.05867">
        <ele>686</ele>
        <time>2021-02-06T08:26:56Z</time>
      </trkpt>
      <trkpt lat="44.17985" lon="5.05866">
        <ele>687</ele>
        <time>2021-02-06T08:27:00Z</time>
      </trkpt>
      <trkpt lat="44.17983" lon="5.05866">
        <ele>689</ele>
        <time>2021-02-06T08:27:02Z</time>
      </trkpt>
      <trkpt lat="44.17982" lon="5.05869">
        <ele>690</ele>
        <time>2021-02-06T08:27:04Z</time>
      </trkpt>
      <trkpt lat="44.17982" lon="5.05871">
        <ele>690</ele>
        <time>2021-02-06T08:27:07Z</time>
      </trkpt>
      <trkpt lat="44.17981" lon="5.05874">
        <ele>691</ele>
        <time>2021-02-06T08:27:10Z</time>
      </trkpt>
      <trkpt lat="44.17981" lon="5.05877">
        <ele>692</ele>
        <time>2021-02-06T08:27:13Z</time>
      </trkpt>
      <trkpt lat="44.1798" lon="5.05881">
        <ele>693</ele>
        <time>2021-02-06T08:27:16Z</time>
      </trkpt>
      <trkpt lat="44.1798" lon="5.05883">
        <ele>693</ele>
        <time>2021-02-06T08:27:18Z</time>
      </trkpt>
      <trkpt lat="44.17979" lon="5.05886">
        <ele>694</ele>
        <time>2021-02-06T08:27:21Z</time>
      </trkpt>
      <trkpt lat="44.17977" lon="5.05889">
        <ele>696</ele>
        <time>2021-02-06T08:27:23Z</time>
      </trkpt>
      <trkpt lat="44.17975" lon="5.0589">
        <ele>697</ele>
        <time>2021-02-06T08:27:25Z</time>
      </trkpt>
      <trkpt lat="44.17974" lon="5.05893">
        <ele>698</ele>
        <time>2021-02-06T08:27:27Z</time>
      </trkpt>
      <trkpt lat="44.17972" lon="5.05896">
        <ele>700</ele>
        <time>2021-02-06T08:27:29Z</time>
      </trkpt>
      <trkpt lat="44.17971" lon="5.05899">
        <ele>700</ele>
        <time>2021-02-06T08:27:31Z</time>
      </trkpt>
      <trkpt lat="44.1797" lon="5.05901">
        <ele>701</ele>
        <time>2021-02-06T08:27:33Z</time>
      </trkpt>
      <trkpt lat="44.17969" lon="5.05904">
        <ele>702</ele>
        <time>2021-02-06T08:27:35Z</time>
      </trkpt>
      <trkpt lat="44.17968" lon="5.05906">
        <ele>702</ele>
        <time>2021-02-06T08:27:37Z</time>
      </trkpt>
      <trkpt lat="44.17966" lon="5.05909">
        <ele>703</ele>
        <time>2021-02-06T08:27:39Z</time>
      </trkpt>
      <trkpt lat="44.17965" lon="5.05912">
        <ele>704</ele>
        <time>2021-02-06T08:27:41Z</time>
      </trkpt>
      <trkpt lat="44.17965" lon="5.05916">
        <ele>704</ele>
        <time>2021-02-06T08:27:43Z</time>
      </trkpt>
      <trkpt lat="44.17964" lon="5.05918">
        <ele>705</ele>
        <time>2021-02-06T08:27:45Z</time>
      </trkpt>
      <trkpt lat="44.17964" lon="5.05921">
        <ele>705</ele>
        <time>2021-02-06T08:27:47Z</time>
      </trkpt>
      <trkpt lat="44.17963" lon="5.05924">
        <ele>706</ele>
        <time>2021-02-06T08:27:49Z</time>
      </trkpt>
      <trkpt lat="44.17963" lon="5.05926">
        <ele>706</ele>
        <time>2021-02-06T08:27:51Z</time>
      </trkpt>
      <trkpt lat="44.17962" lon="5.05929">
        <ele>707</ele>
        <time>2021-02-06T08:27:53Z</time>
      </trkpt>
      <trkpt lat="44.17961" lon="5.05932">
        <ele>708</ele>
        <time>2021-02-06T08:27:55Z</time>
      </trkpt>
      <trkpt lat="44.1796" lon="5.05935">
        <ele>708</ele>
        <time>2021-02-06T08:27:58Z</time>
      </trkpt>
      <trkpt lat="44.1796" lon="5.05939">
        <ele>709</ele>
        <time>2021-02-06T08:28:01Z</time>
      </trkpt>
      <trkpt lat="44.1796" lon="5.05942">
        <ele>709</ele>
        <time>2021-02-06T08:28:04Z</time>
      </trkpt>
      <trkpt lat="44.17959" lon="5.05945">
        <ele>710</ele>
        <time>2021-02-06T08:28:06Z</time>
      </trkpt>
      <trkpt lat="44.17958" lon="5.05947">
        <ele>710</ele>
        <time>2021-02-06T08:28:08Z</time>
      </trkpt>
      <trkpt lat="44.17957" lon="5.0595">
        <ele>711</ele>
        <time>2021-02-06T08:28:10Z</time>
      </trkpt>
      <trkpt lat="44.17956" lon="5.05953">
        <ele>712</ele>
        <time>2021-02-06T08:28:13Z</time>
      </trkpt>
      <trkpt lat="44.17955" lon="5.05956">
        <ele>713</ele>
        <time>2021-02-06T08:28:16Z</time>
      </trkpt>
      <trkpt lat="44.17953" lon="5.05955">
        <ele>714</ele>
        <time>2021-02-06T08:28:19Z</time>
      </trkpt>
      <trkpt lat="44.1795" lon="5.05956">
        <ele>715</ele>
        <time>2021-02-06T08:28:22Z</time>
      </trkpt>
      <trkpt lat="44.17948" lon="5.05956">
        <ele>716</ele>
        <time>2021-02-06T08:28:25Z</time>
      </trkpt>
      <trkpt lat="44.17946" lon="5.05957">
        <ele>717</ele>
        <time>2021-02-06T08:28:27Z</time>
      </trkpt>
      <trkpt lat="44.17945" lon="5.05959">
        <ele>718</ele>
        <time>2021-02-06T08:28:29Z</time>
      </trkpt>
      <trkpt lat="44.17943" lon="5.05961">
        <ele>718</ele>
        <time>2021-02-06T08:28:32Z</time>
      </trkpt>
      <trkpt lat="44.17941" lon="5.05964">
        <ele>719</ele>
        <time>2021-02-06T08:28:34Z</time>
      </trkpt>
      <trkpt lat="44.1794" lon="5.05967">
        <ele>719</ele>
        <time>2021-02-06T08:28:37Z</time>
      </trkpt>
      <trkpt lat="44.17938" lon="5.05968">
        <ele>720</ele>
        <time>2021-02-06T08:28:39Z</time>
      </trkpt>
      <trkpt lat="44.17936" lon="5.0597">
        <ele>720</ele>
        <time>2021-02-06T08:28:42Z</time>
      </trkpt>
      <trkpt lat="44.17934" lon="5.05973">
        <ele>721</ele>
        <time>2021-02-06T08:28:45Z</time>
      </trkpt>
      <trkpt lat="44.17934" lon="5.05976">
        <ele>721</ele>
        <time>2021-02-06T08:28:47Z</time>
      </trkpt>
      <trkpt lat="44.17933" lon="5.05978">
        <ele>722</ele>
        <time>2021-02-06T08:28:49Z</time>
      </trkpt>
      <trkpt lat="44.17932" lon="5.05981">
        <ele>722</ele>
        <time>2021-02-06T08:28:51Z</time>
      </trkpt>
      <trkpt lat="44.17931" lon="5.05984">
        <ele>723</ele>
        <time>2021-02-06T08:28:53Z</time>
      </trkpt>
      <trkpt lat="44.17931" lon="5.05987">
        <ele>724</ele>
        <time>2021-02-06T08:28:55Z</time>
      </trkpt>
      <trkpt lat="44.17929" lon="5.05989">
        <ele>724</ele>
        <time>2021-02-06T08:28:57Z</time>
      </trkpt>
      <trkpt lat="44.17927" lon="5.05991">
        <ele>725</ele>
        <time>2021-02-06T08:28:59Z</time>
      </trkpt>
      <trkpt lat="44.17924" lon="5.05996">
        <ele>726</ele>
        <time>2021-02-06T08:29:03Z</time>
      </trkpt>
      <trkpt lat="44.17923" lon="5.05998">
        <ele>727</ele>
        <time>2021-02-06T08:29:05Z</time>
      </trkpt>
      <trkpt lat="44.17919" lon="5.06005">
        <ele>729</ele>
        <time>2021-02-06T08:29:13Z</time>
      </trkpt>
      <trkpt lat="44.17916" lon="5.0601">
        <ele>729</ele>
        <time>2021-02-06T08:29:19Z</time>
      </trkpt>
      <trkpt lat="44.17915" lon="5.06012">
        <ele>729</ele>
        <time>2021-02-06T08:29:21Z</time>
      </trkpt>
      <trkpt lat="44.17916" lon="5.06015">
        <ele>729</ele>
        <time>2021-02-06T08:31:27Z</time>
      </trkpt>
      <trkpt lat="44.17918" lon="5.06014">
        <ele>729</ele>
        <time>2021-02-06T08:31:30Z</time>
      </trkpt>
      <trkpt lat="44.1792" lon="5.06014">
        <ele>729</ele>
        <time>2021-02-06T08:31:32Z</time>
      </trkpt>
      <trkpt lat="44.17922" lon="5.06013">
        <ele>728</ele>
        <time>2021-02-06T08:31:34Z</time>
      </trkpt>
      <trkpt lat="44.17925" lon="5.06013">
        <ele>728</ele>
        <time>2021-02-06T08:31:36Z</time>
      </trkpt>
      <trkpt lat="44.17927" lon="5.06013">
        <ele>728</ele>
        <time>2021-02-06T08:31:38Z</time>
      </trkpt>
      <trkpt lat="44.17929" lon="5.06014">
        <ele>727</ele>
        <time>2021-02-06T08:31:40Z</time>
      </trkpt>
      <trkpt lat="44.17931" lon="5.06014">
        <ele>727</ele>
        <time>2021-02-06T08:31:42Z</time>
      </trkpt>
      <trkpt lat="44.17933" lon="5.06014">
        <ele>727</ele>
        <time>2021-02-06T08:31:44Z</time>
      </trkpt>
      <trkpt lat="44.17935" lon="5.06015">
        <ele>726</ele>
        <time>2021-02-06T08:31:46Z</time>
      </trkpt>
      <trkpt lat="44.17937" lon="5.06017">
        <ele>726</ele>
        <time>2021-02-06T08:31:48Z</time>
      </trkpt>
      <trkpt lat="44.17939" lon="5.0602">
        <ele>726</ele>
        <time>2021-02-06T08:31:50Z</time>
      </trkpt>
      <trkpt lat="44.17941" lon="5.06022">
        <ele>726</ele>
        <time>2021-02-06T08:31:52Z</time>
      </trkpt>
      <trkpt lat="44.17943" lon="5.06024">
        <ele>726</ele>
        <time>2021-02-06T08:31:54Z</time>
      </trkpt>
      <trkpt lat="44.17945" lon="5.06027">
        <ele>726</ele>
        <time>2021-02-06T08:31:56Z</time>
      </trkpt>
      <trkpt lat="44.17946" lon="5.0603">
        <ele>726</ele>
        <time>2021-02-06T08:31:58Z</time>
      </trkpt>
      <trkpt lat="44.17949" lon="5.06033">
        <ele>725</ele>
        <time>2021-02-06T08:32:00Z</time>
      </trkpt>
      <trkpt lat="44.1795" lon="5.06036">
        <ele>725</ele>
        <time>2021-02-06T08:32:01Z</time>
      </trkpt>
      <trkpt lat="44.17951" lon="5.06038">
        <ele>725</ele>
        <time>2021-02-06T08:32:02Z</time>
      </trkpt>
      <trkpt lat="44.17953" lon="5.0604">
        <ele>725</ele>
        <time>2021-02-06T08:32:03Z</time>
      </trkpt>
      <trkpt lat="44.17954" lon="5.06042">
        <ele>725</ele>
        <time>2021-02-06T08:32:04Z</time>
      </trkpt>
      <trkpt lat="44.17955" lon="5.06045">
        <ele>725</ele>
        <time>2021-02-06T08:32:05Z</time>
      </trkpt>
      <trkpt lat="44.17957" lon="5.06047">
        <ele>725</ele>
        <time>2021-02-06T08:32:06Z</time>
      </trkpt>
      <trkpt lat="44.17958" lon="5.0605">
        <ele>725</ele>
        <time>2021-02-06T08:32:07Z</time>
      </trkpt>
      <trkpt lat="44.1796" lon="5.06052">
        <ele>725</ele>
        <time>2021-02-06T08:32:08Z</time>
      </trkpt>
      <trkpt lat="44.17962" lon="5.06054">
        <ele>724</ele>
        <time>2021-02-06T08:32:09Z</time>
      </trkpt>
      <trkpt lat="44.17964" lon="5.06057">
        <ele>724</ele>
        <time>2021-02-06T08:32:10Z</time>
      </trkpt>
      <trkpt lat="44.17966" lon="5.06059">
        <ele>724</ele>
        <time>2021-02-06T08:32:11Z</time>
      </trkpt>
      <trkpt lat="44.17967" lon="5.06061">
        <ele>723</ele>
        <time>2021-02-06T08:32:12Z</time>
      </trkpt>
      <trkpt lat="44.17969" lon="5.06063">
        <ele>723</ele>
        <time>2021-02-06T08:32:13Z</time>
      </trkpt>
      <trkpt lat="44.17971" lon="5.06066">
        <ele>723</ele>
        <time>2021-02-06T08:32:14Z</time>
      </trkpt>
      <trkpt lat="44.17973" lon="5.06069">
        <ele>722</ele>
        <time>2021-02-06T08:32:15Z</time>
      </trkpt>
      <trkpt lat="44.17975" lon="5.06071">
        <ele>722</ele>
        <time>2021-02-06T08:32:16Z</time>
      </trkpt>
      <trkpt lat="44.17977" lon="5.06073">
        <ele>721</ele>
        <time>2021-02-06T08:32:17Z</time>
      </trkpt>
      <trkpt lat="44.17979" lon="5.06075">
        <ele>721</ele>
        <time>2021-02-06T08:32:18Z</time>
      </trkpt>
      <trkpt lat="44.17981" lon="5.06077">
        <ele>721</ele>
        <time>2021-02-06T08:32:19Z</time>
      </trkpt>
      <trkpt lat="44.17982" lon="5.0608">
        <ele>721</ele>
        <time>2021-02-06T08:32:20Z</time>
      </trkpt>
      <trkpt lat="44.17985" lon="5.06082">
        <ele>720</ele>
        <time>2021-02-06T08:32:21Z</time>
      </trkpt>
      <trkpt lat="44.17986" lon="5.06084">
        <ele>720</ele>
        <time>2021-02-06T08:32:22Z</time>
      </trkpt>
      <trkpt lat="44.17988" lon="5.06086">
        <ele>720</ele>
        <time>2021-02-06T08:32:23Z</time>
      </trkpt>
      <trkpt lat="44.1799" lon="5.06089">
        <ele>719</ele>
        <time>2021-02-06T08:32:24Z</time>
      </trkpt>
      <trkpt lat="44.17992" lon="5.06091">
        <ele>719</ele>
        <time>2021-02-06T08:32:25Z</time>
      </trkpt>
      <trkpt lat="44.17993" lon="5.06093">
        <ele>719</ele>
        <time>2021-02-06T08:32:26Z</time>
      </trkpt>
      <trkpt lat="44.17995" lon="5.06095">
        <ele>719</ele>
        <time>2021-02-06T08:32:27Z</time>
      </trkpt>
      <trkpt lat="44.17996" lon="5.06098">
        <ele>719</ele>
        <time>2021-02-06T08:32:28Z</time>
      </trkpt>
      <trkpt lat="44.17998" lon="5.061">
        <ele>719</ele>
        <time>2021-02-06T08:32:29Z</time>
      </trkpt>
      <trkpt lat="44.18" lon="5.06102">
        <ele>719</ele>
        <time>2021-02-06T08:32:30Z</time>
      </trkpt>
      <trkpt lat="44.18002" lon="5.06105">
        <ele>719</ele>
        <time>2021-02-06T08:32:31Z</time>
      </trkpt>
      <trkpt lat="44.18003" lon="5.06107">
        <ele>719</ele>
        <time>2021-02-06T08:32:32Z</time>
      </trkpt>
      <trkpt lat="44.18005" lon="5.06109">
        <ele>719</ele>
        <time>2021-02-06T08:32:33Z</time>
      </trkpt>
      <trkpt lat="44.18007" lon="5.06111">
        <ele>719</ele>
        <time>2021-02-06T08:32:34Z</time>
      </trkpt>
      <trkpt lat="44.18009" lon="5.06114">
        <ele>718</ele>
        <time>2021-02-06T08:32:35Z</time>
      </trkpt>
      <trkpt lat="44.1801" lon="5.06116">
        <ele>718</ele>
        <time>2021-02-06T08:32:36Z</time>
      </trkpt>
      <trkpt lat="44.18012" lon="5.06118">
        <ele>718</ele>
        <time>2021-02-06T08:32:37Z</time>
      </trkpt>
      <trkpt lat="44.18014" lon="5.0612">
        <ele>718</ele>
        <time>2021-02-06T08:32:38Z</time>
      </trkpt>
      <trkpt lat="44.18016" lon="5.06122">
        <ele>717</ele>
        <time>2021-02-06T08:32:39Z</time>
      </trkpt>
      <trkpt lat="44.18018" lon="5.06124">
        <ele>717</ele>
        <time>2021-02-06T08:32:40Z</time>
      </trkpt>
      <trkpt lat="44.18019" lon="5.06126">
        <ele>717</ele>
        <time>2021-02-06T08:32:41Z</time>
      </trkpt>
      <trkpt lat="44.18021" lon="5.06128">
        <ele>717</ele>
        <time>2021-02-06T08:32:42Z</time>
      </trkpt>
      <trkpt lat="44.18023" lon="5.0613">
        <ele>717</ele>
        <time>2021-02-06T08:32:43Z</time>
      </trkpt>
      <trkpt lat="44.18025" lon="5.06132">
        <ele>717</ele>
        <time>2021-02-06T08:32:44Z</time>
      </trkpt>
      <trkpt lat="44.18027" lon="5.06133">
        <ele>717</ele>
        <time>2021-02-06T08:32:45Z</time>
      </trkpt>
      <trkpt lat="44.18029" lon="5.06135">
        <ele>717</ele>
        <time>2021-02-06T08:32:46Z</time>
      </trkpt>
      <trkpt lat="44.1803" lon="5.06137">
        <ele>717</ele>
        <time>2021-02-06T08:32:47Z</time>
      </trkpt>
      <trkpt lat="44.18032" lon="5.06139">
        <ele>717</ele>
        <time>2021-02-06T08:32:48Z</time>
      </trkpt>
      <trkpt lat="44.18033" lon="5.06141">
        <ele>717</ele>
        <time>2021-02-06T08:32:49Z</time>
      </trkpt>
      <trkpt lat="44.18034" lon="5.06144">
        <ele>717</ele>
        <time>2021-02-06T08:32:50Z</time>
      </trkpt>
      <trkpt lat="44.18035" lon="5.06146">
        <ele>716</ele>
        <time>2021-02-06T08:32:51Z</time>
      </trkpt>
      <trkpt lat="44.18036" lon="5.06148">
        <ele>716</ele>
        <time>2021-02-06T08:32:52Z</time>
      </trkpt>
      <trkpt lat="44.18037" lon="5.06151">
        <ele>716</ele>
        <time>2021-02-06T08:32:53Z</time>
      </trkpt>
      <trkpt lat="44.18038" lon="5.06155">
        <ele>716</ele>
        <time>2021-02-06T08:32:55Z</time>
      </trkpt>
      <trkpt lat="44.1804" lon="5.06159">
        <ele>716</ele>
        <time>2021-02-06T08:32:57Z</time>
      </trkpt>
      <trkpt lat="44.1804" lon="5.06161">
        <ele>716</ele>
        <time>2021-02-06T08:32:58Z</time>
      </trkpt>
      <trkpt lat="44.18041" lon="5.06164">
        <ele>716</ele>
        <time>2021-02-06T08:32:59Z</time>
      </trkpt>
      <trkpt lat="44.18042" lon="5.06167">
        <ele>716</ele>
        <time>2021-02-06T08:33:00Z</time>
      </trkpt>
      <trkpt lat="44.18043" lon="5.06169">
        <ele>716</ele>
        <time>2021-02-06T08:33:01Z</time>
      </trkpt>
      <trkpt lat="44.18044" lon="5.06172">
        <ele>716</ele>
        <time>2021-02-06T08:33:02Z</time>
      </trkpt>
      <trkpt lat="44.18045" lon="5.06175">
        <ele>716</ele>
        <time>2021-02-06T08:33:03Z</time>
      </trkpt>
      <trkpt lat="44.18046" lon="5.06177">
        <ele>716</ele>
        <time>2021-02-06T08:33:04Z</time>
      </trkpt>
      <trkpt lat="44.18047" lon="5.0618">
        <ele>715</ele>
        <time>2021-02-06T08:33:05Z</time>
      </trkpt>
      <trkpt lat="44.18049" lon="5.06183">
        <ele>715</ele>
        <time>2021-02-06T08:33:06Z</time>
      </trkpt>
      <trkpt lat="44.1805" lon="5.06186">
        <ele>715</ele>
        <time>2021-02-06T08:33:07Z</time>
      </trkpt>
      <trkpt lat="44.18052" lon="5.06188">
        <ele>715</ele>
        <time>2021-02-06T08:33:08Z</time>
      </trkpt>
      <trkpt lat="44.18053" lon="5.06191">
        <ele>715</ele>
        <time>2021-02-06T08:33:09Z</time>
      </trkpt>
      <trkpt lat="44.18054" lon="5.06194">
        <ele>714</ele>
        <time>2021-02-06T08:33:10Z</time>
      </trkpt>
      <trkpt lat="44.18055" lon="5.06197">
        <ele>714</ele>
        <time>2021-02-06T08:33:11Z</time>
      </trkpt>
      <trkpt lat="44.18056" lon="5.062">
        <ele>713</ele>
        <time>2021-02-06T08:33:12Z</time>
      </trkpt>
      <trkpt lat="44.18058" lon="5.06203">
        <ele>713</ele>
        <time>2021-02-06T08:33:13Z</time>
      </trkpt>
      <trkpt lat="44.18059" lon="5.06206">
        <ele>713</ele>
        <time>2021-02-06T08:33:14Z</time>
      </trkpt>
      <trkpt lat="44.1806" lon="5.06209">
        <ele>712</ele>
        <time>2021-02-06T08:33:15Z</time>
      </trkpt>
      <trkpt lat="44.18061" lon="5.06212">
        <ele>712</ele>
        <time>2021-02-06T08:33:16Z</time>
      </trkpt>
      <trkpt lat="44.18062" lon="5.06215">
        <ele>712</ele>
        <time>2021-02-06T08:33:17Z</time>
      </trkpt>
      <trkpt lat="44.18062" lon="5.06218">
        <ele>712</ele>
        <time>2021-02-06T08:33:18Z</time>
      </trkpt>
      <trkpt lat="44.18063" lon="5.06221">
        <ele>712</ele>
        <time>2021-02-06T08:33:19Z</time>
      </trkpt>
      <trkpt lat="44.18063" lon="5.06224">
        <ele>711</ele>
        <time>2021-02-06T08:33:20Z</time>
      </trkpt>
      <trkpt lat="44.18063" lon="5.06228">
        <ele>711</ele>
        <time>2021-02-06T08:33:21Z</time>
      </trkpt>
      <trkpt lat="44.18064" lon="5.0623">
        <ele>711</ele>
        <time>2021-02-06T08:33:22Z</time>
      </trkpt>
      <trkpt lat="44.18065" lon="5.06233">
        <ele>711</ele>
        <time>2021-02-06T08:33:23Z</time>
      </trkpt>
      <trkpt lat="44.18066" lon="5.06237">
        <ele>711</ele>
        <time>2021-02-06T08:33:24Z</time>
      </trkpt>
      <trkpt lat="44.18067" lon="5.0624">
        <ele>711</ele>
        <time>2021-02-06T08:33:25Z</time>
      </trkpt>
      <trkpt lat="44.18068" lon="5.06243">
        <ele>711</ele>
        <time>2021-02-06T08:33:26Z</time>
      </trkpt>
      <trkpt lat="44.1807" lon="5.06246">
        <ele>711</ele>
        <time>2021-02-06T08:33:27Z</time>
      </trkpt>
      <trkpt lat="44.18072" lon="5.06248">
        <ele>711</ele>
        <time>2021-02-06T08:33:28Z</time>
      </trkpt>
      <trkpt lat="44.18074" lon="5.06251">
        <ele>711</ele>
        <time>2021-02-06T08:33:29Z</time>
      </trkpt>
      <trkpt lat="44.18075" lon="5.06253">
        <ele>711</ele>
        <time>2021-02-06T08:33:30Z</time>
      </trkpt>
      <trkpt lat="44.18077" lon="5.06254">
        <ele>710</ele>
        <time>2021-02-06T08:33:31Z</time>
      </trkpt>
      <trkpt lat="44.18078" lon="5.06257">
        <ele>710</ele>
        <time>2021-02-06T08:33:32Z</time>
      </trkpt>
      <trkpt lat="44.18079" lon="5.06259">
        <ele>710</ele>
        <time>2021-02-06T08:33:33Z</time>
      </trkpt>
      <trkpt lat="44.1808" lon="5.06262">
        <ele>710</ele>
        <time>2021-02-06T08:33:34Z</time>
      </trkpt>
      <trkpt lat="44.18082" lon="5.06265">
        <ele>710</ele>
        <time>2021-02-06T08:33:35Z</time>
      </trkpt>
      <trkpt lat="44.18083" lon="5.06267">
        <ele>710</ele>
        <time>2021-02-06T08:33:36Z</time>
      </trkpt>
      <trkpt lat="44.18084" lon="5.0627">
        <ele>710</ele>
        <time>2021-02-06T08:33:37Z</time>
      </trkpt>
      <trkpt lat="44.18084" lon="5.06273">
        <ele>710</ele>
        <time>2021-02-06T08:33:38Z</time>
      </trkpt>
      <trkpt lat="44.18085" lon="5.06275">
        <ele>710</ele>
        <time>2021-02-06T08:33:39Z</time>
      </trkpt>
      <trkpt lat="44.18086" lon="5.06278">
        <ele>709</ele>
        <time>2021-02-06T08:33:40Z</time>
      </trkpt>
      <trkpt lat="44.18087" lon="5.06281">
        <ele>709</ele>
        <time>2021-02-06T08:33:41Z</time>
      </trkpt>
      <trkpt lat="44.18088" lon="5.06284">
        <ele>709</ele>
        <time>2021-02-06T08:33:42Z</time>
      </trkpt>
      <trkpt lat="44.18089" lon="5.06286">
        <ele>709</ele>
        <time>2021-02-06T08:33:43Z</time>
      </trkpt>
      <trkpt lat="44.18089" lon="5.06289">
        <ele>709</ele>
        <time>2021-02-06T08:33:44Z</time>
      </trkpt>
      <trkpt lat="44.18092" lon="5.06306">
        <ele>709</ele>
        <time>2021-02-06T08:33:48Z</time>
      </trkpt>
      <trkpt lat="44.18095" lon="5.06313">
        <ele>709</ele>
        <time>2021-02-06T08:33:50Z</time>
      </trkpt>
      <trkpt lat="44.18096" lon="5.06317">
        <ele>709</ele>
        <time>2021-02-06T08:33:51Z</time>
      </trkpt>
      <trkpt lat="44.18096" lon="5.0632">
        <ele>709</ele>
        <time>2021-02-06T08:33:52Z</time>
      </trkpt>
      <trkpt lat="44.18098" lon="5.06324">
        <ele>709</ele>
        <time>2021-02-06T08:33:53Z</time>
      </trkpt>
      <trkpt lat="44.18099" lon="5.06328">
        <ele>709</ele>
        <time>2021-02-06T08:33:54Z</time>
      </trkpt>
      <trkpt lat="44.181" lon="5.06332">
        <ele>709</ele>
        <time>2021-02-06T08:33:55Z</time>
      </trkpt>
      <trkpt lat="44.18101" lon="5.06334">
        <ele>709</ele>
        <time>2021-02-06T08:33:56Z</time>
      </trkpt>
      <trkpt lat="44.18103" lon="5.06337">
        <ele>708</ele>
        <time>2021-02-06T08:33:57Z</time>
      </trkpt>
      <trkpt lat="44.18104" lon="5.0634">
        <ele>708</ele>
        <time>2021-02-06T08:33:58Z</time>
      </trkpt>
      <trkpt lat="44.18105" lon="5.06342">
        <ele>708</ele>
        <time>2021-02-06T08:33:59Z</time>
      </trkpt>
      <trkpt lat="44.18107" lon="5.06344">
        <ele>708</ele>
        <time>2021-02-06T08:34:00Z</time>
      </trkpt>
      <trkpt lat="44.18109" lon="5.06347">
        <ele>708</ele>
        <time>2021-02-06T08:34:01Z</time>
      </trkpt>
      <trkpt lat="44.18111" lon="5.06349">
        <ele>708</ele>
        <time>2021-02-06T08:34:02Z</time>
      </trkpt>
      <trkpt lat="44.18113" lon="5.06352">
        <ele>708</ele>
        <time>2021-02-06T08:34:03Z</time>
      </trkpt>
      <trkpt lat="44.18115" lon="5.06354">
        <ele>708</ele>
        <time>2021-02-06T08:34:04Z</time>
      </trkpt>
      <trkpt lat="44.18117" lon="5.06356">
        <ele>708</ele>
        <time>2021-02-06T08:34:05Z</time>
      </trkpt>
      <trkpt lat="44.18118" lon="5.06359">
        <ele>708</ele>
        <time>2021-02-06T08:34:06Z</time>
      </trkpt>
      <trkpt lat="44.18121" lon="5.06359">
        <ele>708</ele>
        <time>2021-02-06T08:34:08Z</time>
      </trkpt>
      <trkpt lat="44.18123" lon="5.06359">
        <ele>707</ele>
        <time>2021-02-06T08:34:10Z</time>
      </trkpt>
      <trkpt lat="44.18125" lon="5.0636">
        <ele>707</ele>
        <time>2021-02-06T08:34:11Z</time>
      </trkpt>
      <trkpt lat="44.18128" lon="5.06361">
        <ele>707</ele>
        <time>2021-02-06T08:34:12Z</time>
      </trkpt>
      <trkpt lat="44.18129" lon="5.06362">
        <ele>707</ele>
        <time>2021-02-06T08:34:13Z</time>
      </trkpt>
      <trkpt lat="44.18131" lon="5.06363">
        <ele>707</ele>
        <time>2021-02-06T08:34:14Z</time>
      </trkpt>
      <trkpt lat="44.18133" lon="5.06365">
        <ele>707</ele>
        <time>2021-02-06T08:34:15Z</time>
      </trkpt>
      <trkpt lat="44.18135" lon="5.06368">
        <ele>708</ele>
        <time>2021-02-06T08:34:16Z</time>
      </trkpt>
      <trkpt lat="44.18137" lon="5.06369">
        <ele>708</ele>
        <time>2021-02-06T08:34:17Z</time>
      </trkpt>
      <trkpt lat="44.18139" lon="5.06371">
        <ele>708</ele>
        <time>2021-02-06T08:34:18Z</time>
      </trkpt>
      <trkpt lat="44.18141" lon="5.06372">
        <ele>708</ele>
        <time>2021-02-06T08:34:19Z</time>
      </trkpt>
      <trkpt lat="44.18143" lon="5.06374">
        <ele>708</ele>
        <time>2021-02-06T08:34:20Z</time>
      </trkpt>
      <trkpt lat="44.18146" lon="5.06378">
        <ele>708</ele>
        <time>2021-02-06T08:34:22Z</time>
      </trkpt>
      <trkpt lat="44.18148" lon="5.0638">
        <ele>708</ele>
        <time>2021-02-06T08:34:23Z</time>
      </trkpt>
      <trkpt lat="44.1815" lon="5.06383">
        <ele>708</ele>
        <time>2021-02-06T08:34:25Z</time>
      </trkpt>
      <trkpt lat="44.1815" lon="5.06388">
        <ele>708</ele>
        <time>2021-02-06T08:34:27Z</time>
      </trkpt>
      <trkpt lat="44.18152" lon="5.06392">
        <ele>709</ele>
        <time>2021-02-06T08:34:29Z</time>
      </trkpt>
      <trkpt lat="44.18154" lon="5.06396">
        <ele>709</ele>
        <time>2021-02-06T08:34:31Z</time>
      </trkpt>
      <trkpt lat="44.18155" lon="5.06398">
        <ele>709</ele>
        <time>2021-02-06T08:34:33Z</time>
      </trkpt>
      <trkpt lat="44.18156" lon="5.06402">
        <ele>710</ele>
        <time>2021-02-06T08:34:35Z</time>
      </trkpt>
      <trkpt lat="44.18156" lon="5.06405">
        <ele>710</ele>
        <time>2021-02-06T08:34:36Z</time>
      </trkpt>
      <trkpt lat="44.18157" lon="5.06409">
        <ele>711</ele>
        <time>2021-02-06T08:34:37Z</time>
      </trkpt>
      <trkpt lat="44.18157" lon="5.06412">
        <ele>711</ele>
        <time>2021-02-06T08:34:38Z</time>
      </trkpt>
      <trkpt lat="44.18158" lon="5.06415">
        <ele>711</ele>
        <time>2021-02-06T08:34:39Z</time>
      </trkpt>
      <trkpt lat="44.1816" lon="5.06417">
        <ele>712</ele>
        <time>2021-02-06T08:34:40Z</time>
      </trkpt>
      <trkpt lat="44.18162" lon="5.0642">
        <ele>712</ele>
        <time>2021-02-06T08:34:42Z</time>
      </trkpt>
      <trkpt lat="44.18164" lon="5.06424">
        <ele>713</ele>
        <time>2021-02-06T08:34:44Z</time>
      </trkpt>
      <trkpt lat="44.18164" lon="5.06428">
        <ele>713</ele>
        <time>2021-02-06T08:34:46Z</time>
      </trkpt>
      <trkpt lat="44.18166" lon="5.06432">
        <ele>714</ele>
        <time>2021-02-06T08:34:48Z</time>
      </trkpt>
      <trkpt lat="44.18167" lon="5.06435">
        <ele>715</ele>
        <time>2021-02-06T08:34:50Z</time>
      </trkpt>
      <trkpt lat="44.18168" lon="5.06437">
        <ele>715</ele>
        <time>2021-02-06T08:34:52Z</time>
      </trkpt>
      <trkpt lat="44.1817" lon="5.06438">
        <ele>715</ele>
        <time>2021-02-06T08:34:54Z</time>
      </trkpt>
      <trkpt lat="44.18172" lon="5.06438">
        <ele>715</ele>
        <time>2021-02-06T08:34:56Z</time>
      </trkpt>
      <trkpt lat="44.18175" lon="5.06441">
        <ele>715</ele>
        <time>2021-02-06T08:34:58Z</time>
      </trkpt>
      <trkpt lat="44.18177" lon="5.06442">
        <ele>715</ele>
        <time>2021-02-06T08:34:59Z</time>
      </trkpt>
      <trkpt lat="44.18179" lon="5.06443">
        <ele>715</ele>
        <time>2021-02-06T08:35:00Z</time>
      </trkpt>
      <trkpt lat="44.18182" lon="5.06445">
        <ele>715</ele>
        <time>2021-02-06T08:35:02Z</time>
      </trkpt>
      <trkpt lat="44.18183" lon="5.06447">
        <ele>715</ele>
        <time>2021-02-06T08:35:03Z</time>
      </trkpt>
      <trkpt lat="44.18185" lon="5.06448">
        <ele>715</ele>
        <time>2021-02-06T08:35:04Z</time>
      </trkpt>
      <trkpt lat="44.18187" lon="5.06451">
        <ele>715</ele>
        <time>2021-02-06T08:35:06Z</time>
      </trkpt>
      <trkpt lat="44.1819" lon="5.06453">
        <ele>715</ele>
        <time>2021-02-06T08:35:08Z</time>
      </trkpt>
      <trkpt lat="44.18192" lon="5.06457">
        <ele>715</ele>
        <time>2021-02-06T08:35:10Z</time>
      </trkpt>
      <trkpt lat="44.18192" lon="5.0646">
        <ele>714</ele>
        <time>2021-02-06T08:35:12Z</time>
      </trkpt>
      <trkpt lat="44.18194" lon="5.06464">
        <ele>714</ele>
        <time>2021-02-06T08:35:14Z</time>
      </trkpt>
      <trkpt lat="44.18198" lon="5.06465">
        <ele>714</ele>
        <time>2021-02-06T08:35:16Z</time>
      </trkpt>
      <trkpt lat="44.182" lon="5.06466">
        <ele>713</ele>
        <time>2021-02-06T08:35:18Z</time>
      </trkpt>
      <trkpt lat="44.18203" lon="5.06468">
        <ele>713</ele>
        <time>2021-02-06T08:35:20Z</time>
      </trkpt>
      <trkpt lat="44.18207" lon="5.0647">
        <ele>713</ele>
        <time>2021-02-06T08:35:22Z</time>
      </trkpt>
      <trkpt lat="44.1821" lon="5.06472">
        <ele>712</ele>
        <time>2021-02-06T08:35:24Z</time>
      </trkpt>
      <trkpt lat="44.18214" lon="5.06475">
        <ele>712</ele>
        <time>2021-02-06T08:35:26Z</time>
      </trkpt>
      <trkpt lat="44.18216" lon="5.06476">
        <ele>712</ele>
        <time>2021-02-06T08:35:27Z</time>
      </trkpt>
      <trkpt lat="44.18218" lon="5.06476">
        <ele>711</ele>
        <time>2021-02-06T08:35:29Z</time>
      </trkpt>
      <trkpt lat="44.18221" lon="5.06475">
        <ele>711</ele>
        <time>2021-02-06T08:35:31Z</time>
      </trkpt>
      <trkpt lat="44.18225" lon="5.06475">
        <ele>711</ele>
        <time>2021-02-06T08:35:33Z</time>
      </trkpt>
      <trkpt lat="44.18229" lon="5.06476">
        <ele>711</ele>
        <time>2021-02-06T08:35:35Z</time>
      </trkpt>
      <trkpt lat="44.1823" lon="5.06477">
        <ele>711</ele>
        <time>2021-02-06T08:35:36Z</time>
      </trkpt>
      <trkpt lat="44.18233" lon="5.0648">
        <ele>710</ele>
        <time>2021-02-06T08:35:38Z</time>
      </trkpt>
      <trkpt lat="44.18236" lon="5.06481">
        <ele>710</ele>
        <time>2021-02-06T08:35:39Z</time>
      </trkpt>
      <trkpt lat="44.18241" lon="5.06482">
        <ele>710</ele>
        <time>2021-02-06T08:35:41Z</time>
      </trkpt>
      <trkpt lat="44.18243" lon="5.06482">
        <ele>710</ele>
        <time>2021-02-06T08:35:43Z</time>
      </trkpt>
      <trkpt lat="44.18246" lon="5.06481">
        <ele>710</ele>
        <time>2021-02-06T08:35:45Z</time>
      </trkpt>
      <trkpt lat="44.18249" lon="5.06479">
        <ele>710</ele>
        <time>2021-02-06T08:35:47Z</time>
      </trkpt>
      <trkpt lat="44.18252" lon="5.06478">
        <ele>710</ele>
        <time>2021-02-06T08:35:49Z</time>
      </trkpt>
      <trkpt lat="44.18254" lon="5.06477">
        <ele>710</ele>
        <time>2021-02-06T08:35:50Z</time>
      </trkpt>
      <trkpt lat="44.18256" lon="5.06475">
        <ele>710</ele>
        <time>2021-02-06T08:35:51Z</time>
      </trkpt>
      <trkpt lat="44.18258" lon="5.06473">
        <ele>710</ele>
        <time>2021-02-06T08:35:53Z</time>
      </trkpt>
      <trkpt lat="44.1826" lon="5.06473">
        <ele>710</ele>
        <time>2021-02-06T08:35:54Z</time>
      </trkpt>
      <trkpt lat="44.18262" lon="5.06474">
        <ele>710</ele>
        <time>2021-02-06T08:35:55Z</time>
      </trkpt>
      <trkpt lat="44.18264" lon="5.06474">
        <ele>710</ele>
        <time>2021-02-06T08:35:56Z</time>
      </trkpt>
      <trkpt lat="44.18266" lon="5.06474">
        <ele>710</ele>
        <time>2021-02-06T08:35:57Z</time>
      </trkpt>
      <trkpt lat="44.18268" lon="5.06473">
        <ele>710</ele>
        <time>2021-02-06T08:35:58Z</time>
      </trkpt>
      <trkpt lat="44.1827" lon="5.06472">
        <ele>710</ele>
        <time>2021-02-06T08:35:59Z</time>
      </trkpt>
      <trkpt lat="44.18272" lon="5.06473">
        <ele>710</ele>
        <time>2021-02-06T08:36:00Z</time>
      </trkpt>
      <trkpt lat="44.18276" lon="5.06473">
        <ele>710</ele>
        <time>2021-02-06T08:36:02Z</time>
      </trkpt>
      <trkpt lat="44.18277" lon="5.06473">
        <ele>710</ele>
        <time>2021-02-06T08:36:03Z</time>
      </trkpt>
      <trkpt lat="44.18279" lon="5.06474">
        <ele>710</ele>
        <time>2021-02-06T08:36:04Z</time>
      </trkpt>
      <trkpt lat="44.18281" lon="5.06475">
        <ele>710</ele>
        <time>2021-02-06T08:36:05Z</time>
      </trkpt>
      <trkpt lat="44.18283" lon="5.06476">
        <ele>710</ele>
        <time>2021-02-06T08:36:06Z</time>
      </trkpt>
      <trkpt lat="44.18286" lon="5.06476">
        <ele>709</ele>
        <time>2021-02-06T08:36:07Z</time>
      </trkpt>
      <trkpt lat="44.18289" lon="5.06476">
        <ele>709</ele>
        <time>2021-02-06T08:36:09Z</time>
      </trkpt>
      <trkpt lat="44.18291" lon="5.06475">
        <ele>709</ele>
        <time>2021-02-06T08:36:11Z</time>
      </trkpt>
      <trkpt lat="44.18294" lon="5.06477">
        <ele>709</ele>
        <time>2021-02-06T08:36:13Z</time>
      </trkpt>
      <trkpt lat="44.18296" lon="5.06478">
        <ele>709</ele>
        <time>2021-02-06T08:36:14Z</time>
      </trkpt>
      <trkpt lat="44.18299" lon="5.06481">
        <ele>709</ele>
        <time>2021-02-06T08:36:16Z</time>
      </trkpt>
      <trkpt lat="44.18301" lon="5.06484">
        <ele>709</ele>
        <time>2021-02-06T08:36:18Z</time>
      </trkpt>
      <trkpt lat="44.18303" lon="5.06486">
        <ele>709</ele>
        <time>2021-02-06T08:36:19Z</time>
      </trkpt>
      <trkpt lat="44.18305" lon="5.0649">
        <ele>709</ele>
        <time>2021-02-06T08:36:21Z</time>
      </trkpt>
      <trkpt lat="44.18305" lon="5.06494">
        <ele>709</ele>
        <time>2021-02-06T08:36:23Z</time>
      </trkpt>
      <trkpt lat="44.18306" lon="5.06499">
        <ele>709</ele>
        <time>2021-02-06T08:36:25Z</time>
      </trkpt>
      <trkpt lat="44.18308" lon="5.06501">
        <ele>708</ele>
        <time>2021-02-06T08:36:26Z</time>
      </trkpt>
      <trkpt lat="44.18309" lon="5.06503">
        <ele>708</ele>
        <time>2021-02-06T08:36:27Z</time>
      </trkpt>
      <trkpt lat="44.18311" lon="5.06504">
        <ele>707</ele>
        <time>2021-02-06T08:36:28Z</time>
      </trkpt>
      <trkpt lat="44.18313" lon="5.06508">
        <ele>707</ele>
        <time>2021-02-06T08:36:30Z</time>
      </trkpt>
      <trkpt lat="44.18314" lon="5.0651">
        <ele>706</ele>
        <time>2021-02-06T08:36:31Z</time>
      </trkpt>
      <trkpt lat="44.18315" lon="5.06513">
        <ele>706</ele>
        <time>2021-02-06T08:36:32Z</time>
      </trkpt>
      <trkpt lat="44.18315" lon="5.06516">
        <ele>706</ele>
        <time>2021-02-06T08:36:33Z</time>
      </trkpt>
      <trkpt lat="44.18316" lon="5.06519">
        <ele>706</ele>
        <time>2021-02-06T08:36:34Z</time>
      </trkpt>
      <trkpt lat="44.18316" lon="5.06522">
        <ele>705</ele>
        <time>2021-02-06T08:36:35Z</time>
      </trkpt>
      <trkpt lat="44.18317" lon="5.06525">
        <ele>705</ele>
        <time>2021-02-06T08:36:36Z</time>
      </trkpt>
      <trkpt lat="44.18318" lon="5.06527">
        <ele>705</ele>
        <time>2021-02-06T08:36:37Z</time>
      </trkpt>
      <trkpt lat="44.18318" lon="5.0653">
        <ele>704</ele>
        <time>2021-02-06T08:36:38Z</time>
      </trkpt>
      <trkpt lat="44.18319" lon="5.06534">
        <ele>704</ele>
        <time>2021-02-06T08:36:39Z</time>
      </trkpt>
      <trkpt lat="44.1832" lon="5.06538">
        <ele>704</ele>
        <time>2021-02-06T08:36:40Z</time>
      </trkpt>
      <trkpt lat="44.18321" lon="5.06541">
        <ele>703</ele>
        <time>2021-02-06T08:36:41Z</time>
      </trkpt>
      <trkpt lat="44.18322" lon="5.06545">
        <ele>703</ele>
        <time>2021-02-06T08:36:42Z</time>
      </trkpt>
      <trkpt lat="44.18323" lon="5.06549">
        <ele>703</ele>
        <time>2021-02-06T08:36:43Z</time>
      </trkpt>
      <trkpt lat="44.18324" lon="5.06553">
        <ele>702</ele>
        <time>2021-02-06T08:36:44Z</time>
      </trkpt>
      <trkpt lat="44.18325" lon="5.06556">
        <ele>702</ele>
        <time>2021-02-06T08:36:45Z</time>
      </trkpt>
      <trkpt lat="44.18326" lon="5.0656">
        <ele>702</ele>
        <time>2021-02-06T08:36:46Z</time>
      </trkpt>
      <trkpt lat="44.18327" lon="5.06563">
        <ele>702</ele>
        <time>2021-02-06T08:36:47Z</time>
      </trkpt>
      <trkpt lat="44.18328" lon="5.06566">
        <ele>702</ele>
        <time>2021-02-06T08:36:48Z</time>
      </trkpt>
      <trkpt lat="44.18329" lon="5.06568">
        <ele>701</ele>
        <time>2021-02-06T08:36:49Z</time>
      </trkpt>
      <trkpt lat="44.1833" lon="5.06571">
        <ele>701</ele>
        <time>2021-02-06T08:36:50Z</time>
      </trkpt>
      <trkpt lat="44.18332" lon="5.06576">
        <ele>701</ele>
        <time>2021-02-06T08:36:52Z</time>
      </trkpt>
      <trkpt lat="44.18333" lon="5.06578">
        <ele>701</ele>
        <time>2021-02-06T08:36:53Z</time>
      </trkpt>
      <trkpt lat="44.18334" lon="5.0658">
        <ele>701</ele>
        <time>2021-02-06T08:36:54Z</time>
      </trkpt>
      <trkpt lat="44.18336" lon="5.06584">
        <ele>701</ele>
        <time>2021-02-06T08:36:56Z</time>
      </trkpt>
      <trkpt lat="44.18337" lon="5.06587">
        <ele>701</ele>
        <time>2021-02-06T08:36:58Z</time>
      </trkpt>
      <trkpt lat="44.18337" lon="5.06591">
        <ele>701</ele>
        <time>2021-02-06T08:37:00Z</time>
      </trkpt>
      <trkpt lat="44.18339" lon="5.06595">
        <ele>700</ele>
        <time>2021-02-06T08:37:02Z</time>
      </trkpt>
      <trkpt lat="44.1834" lon="5.06598">
        <ele>700</ele>
        <time>2021-02-06T08:37:03Z</time>
      </trkpt>
      <trkpt lat="44.18343" lon="5.066">
        <ele>700</ele>
        <time>2021-02-06T08:37:04Z</time>
      </trkpt>
      <trkpt lat="44.18346" lon="5.066">
        <ele>701</ele>
        <time>2021-02-06T08:37:05Z</time>
      </trkpt>
      <trkpt lat="44.18348" lon="5.066">
        <ele>701</ele>
        <time>2021-02-06T08:37:06Z</time>
      </trkpt>
      <trkpt lat="44.1835" lon="5.066">
        <ele>702</ele>
        <time>2021-02-06T08:37:07Z</time>
      </trkpt>
      <trkpt lat="44.18353" lon="5.06601">
        <ele>702</ele>
        <time>2021-02-06T08:37:09Z</time>
      </trkpt>
      <trkpt lat="44.18356" lon="5.06605">
        <ele>702</ele>
        <time>2021-02-06T08:37:11Z</time>
      </trkpt>
      <trkpt lat="44.18357" lon="5.06606">
        <ele>701</ele>
        <time>2021-02-06T08:37:12Z</time>
      </trkpt>
      <trkpt lat="44.18359" lon="5.06607">
        <ele>702</ele>
        <time>2021-02-06T08:37:13Z</time>
      </trkpt>
      <trkpt lat="44.18361" lon="5.06608">
        <ele>702</ele>
        <time>2021-02-06T08:37:14Z</time>
      </trkpt>
      <trkpt lat="44.18363" lon="5.0661">
        <ele>702</ele>
        <time>2021-02-06T08:37:15Z</time>
      </trkpt>
      <trkpt lat="44.18365" lon="5.06612">
        <ele>702</ele>
        <time>2021-02-06T08:37:16Z</time>
      </trkpt>
      <trkpt lat="44.18367" lon="5.06614">
        <ele>702</ele>
        <time>2021-02-06T08:37:17Z</time>
      </trkpt>
      <trkpt lat="44.18369" lon="5.06615">
        <ele>702</ele>
        <time>2021-02-06T08:37:18Z</time>
      </trkpt>
      <trkpt lat="44.1837" lon="5.06618">
        <ele>702</ele>
        <time>2021-02-06T08:37:19Z</time>
      </trkpt>
      <trkpt lat="44.18372" lon="5.0662">
        <ele>701</ele>
        <time>2021-02-06T08:37:20Z</time>
      </trkpt>
      <trkpt lat="44.18374" lon="5.06623">
        <ele>701</ele>
        <time>2021-02-06T08:37:21Z</time>
      </trkpt>
      <trkpt lat="44.18376" lon="5.06626">
        <ele>701</ele>
        <time>2021-02-06T08:37:22Z</time>
      </trkpt>
      <trkpt lat="44.18377" lon="5.06628">
        <ele>701</ele>
        <time>2021-02-06T08:37:23Z</time>
      </trkpt>
      <trkpt lat="44.18379" lon="5.06631">
        <ele>701</ele>
        <time>2021-02-06T08:37:24Z</time>
      </trkpt>
      <trkpt lat="44.1838" lon="5.06633">
        <ele>701</ele>
        <time>2021-02-06T08:37:25Z</time>
      </trkpt>
      <trkpt lat="44.18381" lon="5.06635">
        <ele>701</ele>
        <time>2021-02-06T08:37:26Z</time>
      </trkpt>
      <trkpt lat="44.18383" lon="5.06638">
        <ele>700</ele>
        <time>2021-02-06T08:37:27Z</time>
      </trkpt>
      <trkpt lat="44.18384" lon="5.0664">
        <ele>700</ele>
        <time>2021-02-06T08:37:28Z</time>
      </trkpt>
      <trkpt lat="44.18385" lon="5.06643">
        <ele>700</ele>
        <time>2021-02-06T08:37:29Z</time>
      </trkpt>
      <trkpt lat="44.18387" lon="5.06645">
        <ele>699</ele>
        <time>2021-02-06T08:37:30Z</time>
      </trkpt>
      <trkpt lat="44.18388" lon="5.06647">
        <ele>699</ele>
        <time>2021-02-06T08:37:31Z</time>
      </trkpt>
      <trkpt lat="44.18388" lon="5.0665">
        <ele>698</ele>
        <time>2021-02-06T08:37:32Z</time>
      </trkpt>
      <trkpt lat="44.18389" lon="5.06652">
        <ele>697</ele>
        <time>2021-02-06T08:37:33Z</time>
      </trkpt>
      <trkpt lat="44.1839" lon="5.06655">
        <ele>696</ele>
        <time>2021-02-06T08:37:34Z</time>
      </trkpt>
      <trkpt lat="44.18391" lon="5.06658">
        <ele>696</ele>
        <time>2021-02-06T08:37:35Z</time>
      </trkpt>
      <trkpt lat="44.18393" lon="5.0666">
        <ele>695</ele>
        <time>2021-02-06T08:37:36Z</time>
      </trkpt>
      <trkpt lat="44.18395" lon="5.06662">
        <ele>695</ele>
        <time>2021-02-06T08:37:37Z</time>
      </trkpt>
      <trkpt lat="44.18397" lon="5.06662">
        <ele>696</ele>
        <time>2021-02-06T08:37:38Z</time>
      </trkpt>
      <trkpt lat="44.18399" lon="5.06663">
        <ele>696</ele>
        <time>2021-02-06T08:37:39Z</time>
      </trkpt>
      <trkpt lat="44.18402" lon="5.06663">
        <ele>697</ele>
        <time>2021-02-06T08:37:41Z</time>
      </trkpt>
      <trkpt lat="44.18406" lon="5.06663">
        <ele>698</ele>
        <time>2021-02-06T08:37:43Z</time>
      </trkpt>
      <trkpt lat="44.18408" lon="5.06663">
        <ele>698</ele>
        <time>2021-02-06T08:37:44Z</time>
      </trkpt>
      <trkpt lat="44.1841" lon="5.06663">
        <ele>699</ele>
        <time>2021-02-06T08:37:45Z</time>
      </trkpt>
      <trkpt lat="44.18412" lon="5.06662">
        <ele>699</ele>
        <time>2021-02-06T08:37:47Z</time>
      </trkpt>
      <trkpt lat="44.18415" lon="5.06661">
        <ele>700</ele>
        <time>2021-02-06T08:37:49Z</time>
      </trkpt>
      <trkpt lat="44.18417" lon="5.06661">
        <ele>700</ele>
        <time>2021-02-06T08:37:51Z</time>
      </trkpt>
      <trkpt lat="44.1842" lon="5.0666">
        <ele>700</ele>
        <time>2021-02-06T08:37:53Z</time>
      </trkpt>
      <trkpt lat="44.18423" lon="5.0666">
        <ele>699</ele>
        <time>2021-02-06T08:37:55Z</time>
      </trkpt>
      <trkpt lat="44.18425" lon="5.06662">
        <ele>698</ele>
        <time>2021-02-06T08:37:57Z</time>
      </trkpt>
      <trkpt lat="44.18427" lon="5.06662">
        <ele>698</ele>
        <time>2021-02-06T08:37:59Z</time>
      </trkpt>
      <trkpt lat="44.18429" lon="5.06663">
        <ele>697</ele>
        <time>2021-02-06T08:38:01Z</time>
      </trkpt>
      <trkpt lat="44.18431" lon="5.06665">
        <ele>697</ele>
        <time>2021-02-06T08:38:03Z</time>
      </trkpt>
      <trkpt lat="44.18434" lon="5.06666">
        <ele>697</ele>
        <time>2021-02-06T08:38:05Z</time>
      </trkpt>
      <trkpt lat="44.18436" lon="5.06666">
        <ele>696</ele>
        <time>2021-02-06T08:38:07Z</time>
      </trkpt>
      <trkpt lat="44.18437" lon="5.06668">
        <ele>696</ele>
        <time>2021-02-06T08:38:09Z</time>
      </trkpt>
      <trkpt lat="44.18438" lon="5.06671">
        <ele>695</ele>
        <time>2021-02-06T08:38:12Z</time>
      </trkpt>
      <trkpt lat="44.18438" lon="5.06673">
        <ele>695</ele>
        <time>2021-02-06T08:38:15Z</time>
      </trkpt>
      <trkpt lat="44.18438" lon="5.06676">
        <ele>694</ele>
        <time>2021-02-06T08:38:17Z</time>
      </trkpt>
      <trkpt lat="44.18438" lon="5.06679">
        <ele>694</ele>
        <time>2021-02-06T08:38:19Z</time>
      </trkpt>
      <trkpt lat="44.18439" lon="5.06682">
        <ele>693</ele>
        <time>2021-02-06T08:38:21Z</time>
      </trkpt>
      <trkpt lat="44.1844" lon="5.06685">
        <ele>693</ele>
        <time>2021-02-06T08:38:23Z</time>
      </trkpt>
      <trkpt lat="44.18439" lon="5.06687">
        <ele>692</ele>
        <time>2021-02-06T08:38:27Z</time>
      </trkpt>
      <trkpt lat="44.18438" lon="5.06689">
        <ele>692</ele>
        <time>2021-02-06T08:38:30Z</time>
      </trkpt>
      <trkpt lat="44.18439" lon="5.06691">
        <ele>692</ele>
        <time>2021-02-06T08:38:35Z</time>
      </trkpt>
      <trkpt lat="44.18441" lon="5.06692">
        <ele>691</ele>
        <time>2021-02-06T08:38:41Z</time>
      </trkpt>
      <trkpt lat="44.18442" lon="5.06692">
        <ele>691</ele>
        <time>2021-02-06T08:38:45Z</time>
      </trkpt>
      <trkpt lat="44.18444" lon="5.06691">
        <ele>691</ele>
        <time>2021-02-06T08:38:52Z</time>
      </trkpt>
      <trkpt lat="44.18447" lon="5.06693">
        <ele>690</ele>
        <time>2021-02-06T08:39:09Z</time>
      </trkpt>
      <trkpt lat="44.18448" lon="5.06694">
        <ele>689</ele>
        <time>2021-02-06T08:39:13Z</time>
      </trkpt>
      <trkpt lat="44.1845" lon="5.06697">
        <ele>687</ele>
        <time>2021-02-06T08:39:26Z</time>
      </trkpt>
      <trkpt lat="44.18452" lon="5.06699">
        <ele>686</ele>
        <time>2021-02-06T08:39:29Z</time>
      </trkpt>
      <trkpt lat="44.18454" lon="5.067">
        <ele>684</ele>
        <time>2021-02-06T08:39:31Z</time>
      </trkpt>
      <trkpt lat="44.18457" lon="5.06701">
        <ele>682</ele>
        <time>2021-02-06T08:39:33Z</time>
      </trkpt>
      <trkpt lat="44.18459" lon="5.06703">
        <ele>681</ele>
        <time>2021-02-06T08:39:35Z</time>
      </trkpt>
      <trkpt lat="44.18462" lon="5.06706">
        <ele>679</ele>
        <time>2021-02-06T08:39:37Z</time>
      </trkpt>
      <trkpt lat="44.18465" lon="5.06707">
        <ele>678</ele>
        <time>2021-02-06T08:39:39Z</time>
      </trkpt>
      <trkpt lat="44.18467" lon="5.06708">
        <ele>677</ele>
        <time>2021-02-06T08:39:41Z</time>
      </trkpt>
      <trkpt lat="44.18469" lon="5.06709">
        <ele>676</ele>
        <time>2021-02-06T08:39:43Z</time>
      </trkpt>
      <trkpt lat="44.18471" lon="5.0671">
        <ele>675</ele>
        <time>2021-02-06T08:39:45Z</time>
      </trkpt>
      <trkpt lat="44.18473" lon="5.0671">
        <ele>674</ele>
        <time>2021-02-06T08:39:47Z</time>
      </trkpt>
      <trkpt lat="44.18476" lon="5.06711">
        <ele>673</ele>
        <time>2021-02-06T08:39:49Z</time>
      </trkpt>
      <trkpt lat="44.18478" lon="5.0671">
        <ele>673</ele>
        <time>2021-02-06T08:39:51Z</time>
      </trkpt>
      <trkpt lat="44.1848" lon="5.06712">
        <ele>672</ele>
        <time>2021-02-06T08:39:53Z</time>
      </trkpt>
      <trkpt lat="44.18482" lon="5.06713">
        <ele>672</ele>
        <time>2021-02-06T08:39:55Z</time>
      </trkpt>
      <trkpt lat="44.18483" lon="5.06714">
        <ele>672</ele>
        <time>2021-02-06T08:39:57Z</time>
      </trkpt>
      <trkpt lat="44.18485" lon="5.06716">
        <ele>672</ele>
        <time>2021-02-06T08:39:59Z</time>
      </trkpt>
      <trkpt lat="44.18487" lon="5.06719">
        <ele>671</ele>
        <time>2021-02-06T08:40:01Z</time>
      </trkpt>
      <trkpt lat="44.18489" lon="5.0672">
        <ele>671</ele>
        <time>2021-02-06T08:40:02Z</time>
      </trkpt>
      <trkpt lat="44.18491" lon="5.06721">
        <ele>671</ele>
        <time>2021-02-06T08:40:04Z</time>
      </trkpt>
      <trkpt lat="44.18494" lon="5.06722">
        <ele>671</ele>
        <time>2021-02-06T08:40:06Z</time>
      </trkpt>
      <trkpt lat="44.18495" lon="5.06725">
        <ele>670</ele>
        <time>2021-02-06T08:40:08Z</time>
      </trkpt>
      <trkpt lat="44.18497" lon="5.06727">
        <ele>670</ele>
        <time>2021-02-06T08:40:09Z</time>
      </trkpt>
      <trkpt lat="44.18498" lon="5.06729">
        <ele>670</ele>
        <time>2021-02-06T08:40:10Z</time>
      </trkpt>
      <trkpt lat="44.185" lon="5.0673">
        <ele>670</ele>
        <time>2021-02-06T08:40:11Z</time>
      </trkpt>
      <trkpt lat="44.18502" lon="5.06732">
        <ele>670</ele>
        <time>2021-02-06T08:40:12Z</time>
      </trkpt>
      <trkpt lat="44.18504" lon="5.06734">
        <ele>670</ele>
        <time>2021-02-06T08:40:13Z</time>
      </trkpt>
      <trkpt lat="44.18506" lon="5.06735">
        <ele>670</ele>
        <time>2021-02-06T08:40:14Z</time>
      </trkpt>
      <trkpt lat="44.18508" lon="5.06737">
        <ele>669</ele>
        <time>2021-02-06T08:40:15Z</time>
      </trkpt>
      <trkpt lat="44.18511" lon="5.0674">
        <ele>670</ele>
        <time>2021-02-06T08:40:17Z</time>
      </trkpt>
      <trkpt lat="44.18512" lon="5.06743">
        <ele>670</ele>
        <time>2021-02-06T08:40:19Z</time>
      </trkpt>
      <trkpt lat="44.18513" lon="5.06747">
        <ele>670</ele>
        <time>2021-02-06T08:40:21Z</time>
      </trkpt>
      <trkpt lat="44.18514" lon="5.0675">
        <ele>671</ele>
        <time>2021-02-06T08:40:22Z</time>
      </trkpt>
      <trkpt lat="44.18516" lon="5.06753">
        <ele>671</ele>
        <time>2021-02-06T08:40:23Z</time>
      </trkpt>
      <trkpt lat="44.18519" lon="5.06755">
        <ele>671</ele>
        <time>2021-02-06T08:40:24Z</time>
      </trkpt>
      <trkpt lat="44.18521" lon="5.06757">
        <ele>671</ele>
        <time>2021-02-06T08:40:25Z</time>
      </trkpt>
      <trkpt lat="44.18523" lon="5.06759">
        <ele>671</ele>
        <time>2021-02-06T08:40:26Z</time>
      </trkpt>
      <trkpt lat="44.18524" lon="5.06761">
        <ele>671</ele>
        <time>2021-02-06T08:40:27Z</time>
      </trkpt>
      <trkpt lat="44.18526" lon="5.06765">
        <ele>672</ele>
        <time>2021-02-06T08:40:29Z</time>
      </trkpt>
      <trkpt lat="44.18529" lon="5.06767">
        <ele>672</ele>
        <time>2021-02-06T08:40:31Z</time>
      </trkpt>
      <trkpt lat="44.18532" lon="5.06768">
        <ele>673</ele>
        <time>2021-02-06T08:40:33Z</time>
      </trkpt>
      <trkpt lat="44.18534" lon="5.0677">
        <ele>674</ele>
        <time>2021-02-06T08:40:34Z</time>
      </trkpt>
      <trkpt lat="44.18536" lon="5.06771">
        <ele>674</ele>
        <time>2021-02-06T08:40:36Z</time>
      </trkpt>
      <trkpt lat="44.18539" lon="5.06773">
        <ele>675</ele>
        <time>2021-02-06T08:40:38Z</time>
      </trkpt>
      <trkpt lat="44.18541" lon="5.06775">
        <ele>676</ele>
        <time>2021-02-06T08:40:40Z</time>
      </trkpt>
      <trkpt lat="44.18543" lon="5.06776">
        <ele>676</ele>
        <time>2021-02-06T08:40:42Z</time>
      </trkpt>
      <trkpt lat="44.18546" lon="5.06777">
        <ele>677</ele>
        <time>2021-02-06T08:40:44Z</time>
      </trkpt>
      <trkpt lat="44.1855" lon="5.0678">
        <ele>678</ele>
        <time>2021-02-06T08:40:49Z</time>
      </trkpt>
      <trkpt lat="44.18552" lon="5.06782">
        <ele>678</ele>
        <time>2021-02-06T08:40:52Z</time>
      </trkpt>
      <trkpt lat="44.18554" lon="5.06783">
        <ele>679</ele>
        <time>2021-02-06T08:41:05Z</time>
      </trkpt>
      <trkpt lat="44.18556" lon="5.06784">
        <ele>679</ele>
        <time>2021-02-06T08:41:09Z</time>
      </trkpt>
      <trkpt lat="44.18558" lon="5.06785">
        <ele>680</ele>
        <time>2021-02-06T08:41:13Z</time>
      </trkpt>
      <trkpt lat="44.1856" lon="5.06785">
        <ele>680</ele>
        <time>2021-02-06T08:41:16Z</time>
      </trkpt>
      <trkpt lat="44.18562" lon="5.06786">
        <ele>680</ele>
        <time>2021-02-06T08:41:19Z</time>
      </trkpt>
      <trkpt lat="44.18564" lon="5.06787">
        <ele>680</ele>
        <time>2021-02-06T08:41:21Z</time>
      </trkpt>
      <trkpt lat="44.18566" lon="5.06789">
        <ele>681</ele>
        <time>2021-02-06T08:41:23Z</time>
      </trkpt>
      <trkpt lat="44.18568" lon="5.06789">
        <ele>681</ele>
        <time>2021-02-06T08:41:25Z</time>
      </trkpt>
      <trkpt lat="44.1857" lon="5.0679">
        <ele>682</ele>
        <time>2021-02-06T08:41:27Z</time>
      </trkpt>
      <trkpt lat="44.18572" lon="5.06791">
        <ele>682</ele>
        <time>2021-02-06T08:41:29Z</time>
      </trkpt>
      <trkpt lat="44.18574" lon="5.06793">
        <ele>683</ele>
        <time>2021-02-06T08:41:31Z</time>
      </trkpt>
      <trkpt lat="44.18577" lon="5.06794">
        <ele>683</ele>
        <time>2021-02-06T08:41:33Z</time>
      </trkpt>
      <trkpt lat="44.18579" lon="5.06794">
        <ele>684</ele>
        <time>2021-02-06T08:41:35Z</time>
      </trkpt>
      <trkpt lat="44.18581" lon="5.06796">
        <ele>684</ele>
        <time>2021-02-06T08:41:37Z</time>
      </trkpt>
      <trkpt lat="44.18582" lon="5.06798">
        <ele>685</ele>
        <time>2021-02-06T08:41:39Z</time>
      </trkpt>
      <trkpt lat="44.18584" lon="5.06799">
        <ele>685</ele>
        <time>2021-02-06T08:41:41Z</time>
      </trkpt>
      <trkpt lat="44.18586" lon="5.068">
        <ele>685</ele>
        <time>2021-02-06T08:41:43Z</time>
      </trkpt>
      <trkpt lat="44.18588" lon="5.06802">
        <ele>685</ele>
        <time>2021-02-06T08:41:45Z</time>
      </trkpt>
      <trkpt lat="44.1859" lon="5.06804">
        <ele>686</ele>
        <time>2021-02-06T08:41:48Z</time>
      </trkpt>
      <trkpt lat="44.18591" lon="5.06806">
        <ele>686</ele>
        <time>2021-02-06T08:41:50Z</time>
      </trkpt>
      <trkpt lat="44.18594" lon="5.06806">
        <ele>686</ele>
        <time>2021-02-06T08:41:53Z</time>
      </trkpt>
      <trkpt lat="44.18595" lon="5.06804">
        <ele>685</ele>
        <time>2021-02-06T08:41:57Z</time>
      </trkpt>
      <trkpt lat="44.18598" lon="5.06803">
        <ele>684</ele>
        <time>2021-02-06T08:42:02Z</time>
      </trkpt>
      <trkpt lat="44.186" lon="5.06803">
        <ele>684</ele>
        <time>2021-02-06T08:42:04Z</time>
      </trkpt>
      <trkpt lat="44.18604" lon="5.06805">
        <ele>684</ele>
        <time>2021-02-06T08:42:06Z</time>
      </trkpt>
      <trkpt lat="44.18606" lon="5.06808">
        <ele>684</ele>
        <time>2021-02-06T08:42:07Z</time>
      </trkpt>
      <trkpt lat="44.18607" lon="5.0681">
        <ele>684</ele>
        <time>2021-02-06T08:42:08Z</time>
      </trkpt>
      <trkpt lat="44.18608" lon="5.06814">
        <ele>685</ele>
        <time>2021-02-06T08:42:10Z</time>
      </trkpt>
      <trkpt lat="44.18609" lon="5.06817">
        <ele>686</ele>
        <time>2021-02-06T08:42:11Z</time>
      </trkpt>
      <trkpt lat="44.1861" lon="5.0682">
        <ele>686</ele>
        <time>2021-02-06T08:42:12Z</time>
      </trkpt>
      <trkpt lat="44.18611" lon="5.06824">
        <ele>687</ele>
        <time>2021-02-06T08:42:14Z</time>
      </trkpt>
      <trkpt lat="44.18612" lon="5.06828">
        <ele>687</ele>
        <time>2021-02-06T08:42:16Z</time>
      </trkpt>
      <trkpt lat="44.18614" lon="5.06833">
        <ele>687</ele>
        <time>2021-02-06T08:42:18Z</time>
      </trkpt>
      <trkpt lat="44.18616" lon="5.06835">
        <ele>687</ele>
        <time>2021-02-06T08:42:19Z</time>
      </trkpt>
      <trkpt lat="44.18617" lon="5.06837">
        <ele>687</ele>
        <time>2021-02-06T08:42:20Z</time>
      </trkpt>
      <trkpt lat="44.18618" lon="5.06839">
        <ele>686</ele>
        <time>2021-02-06T08:42:21Z</time>
      </trkpt>
      <trkpt lat="44.1862" lon="5.06841">
        <ele>686</ele>
        <time>2021-02-06T08:42:22Z</time>
      </trkpt>
      <trkpt lat="44.18621" lon="5.06844">
        <ele>686</ele>
        <time>2021-02-06T08:42:23Z</time>
      </trkpt>
      <trkpt lat="44.18622" lon="5.06846">
        <ele>685</ele>
        <time>2021-02-06T08:42:24Z</time>
      </trkpt>
      <trkpt lat="44.18624" lon="5.06848">
        <ele>685</ele>
        <time>2021-02-06T08:42:25Z</time>
      </trkpt>
      <trkpt lat="44.18625" lon="5.0685">
        <ele>685</ele>
        <time>2021-02-06T08:42:26Z</time>
      </trkpt>
      <trkpt lat="44.18627" lon="5.06853">
        <ele>685</ele>
        <time>2021-02-06T08:42:28Z</time>
      </trkpt>
      <trkpt lat="44.1863" lon="5.06857">
        <ele>685</ele>
        <time>2021-02-06T08:42:30Z</time>
      </trkpt>
      <trkpt lat="44.18631" lon="5.06859">
        <ele>685</ele>
        <time>2021-02-06T08:42:31Z</time>
      </trkpt>
      <trkpt lat="44.18632" lon="5.06862">
        <ele>685</ele>
        <time>2021-02-06T08:42:32Z</time>
      </trkpt>
      <trkpt lat="44.18633" lon="5.06866">
        <ele>685</ele>
        <time>2021-02-06T08:42:34Z</time>
      </trkpt>
      <trkpt lat="44.18634" lon="5.06869">
        <ele>685</ele>
        <time>2021-02-06T08:42:35Z</time>
      </trkpt>
      <trkpt lat="44.18636" lon="5.06871">
        <ele>685</ele>
        <time>2021-02-06T08:42:36Z</time>
      </trkpt>
      <trkpt lat="44.18637" lon="5.06873">
        <ele>685</ele>
        <time>2021-02-06T08:42:37Z</time>
      </trkpt>
      <trkpt lat="44.18639" lon="5.06875">
        <ele>685</ele>
        <time>2021-02-06T08:42:38Z</time>
      </trkpt>
      <trkpt lat="44.18642" lon="5.06879">
        <ele>685</ele>
        <time>2021-02-06T08:42:40Z</time>
      </trkpt>
      <trkpt lat="44.18643" lon="5.06881">
        <ele>685</ele>
        <time>2021-02-06T08:42:41Z</time>
      </trkpt>
      <trkpt lat="44.18644" lon="5.06883">
        <ele>685</ele>
        <time>2021-02-06T08:42:42Z</time>
      </trkpt>
      <trkpt lat="44.18645" lon="5.06886">
        <ele>685</ele>
        <time>2021-02-06T08:42:43Z</time>
      </trkpt>
      <trkpt lat="44.18646" lon="5.06888">
        <ele>685</ele>
        <time>2021-02-06T08:42:44Z</time>
      </trkpt>
      <trkpt lat="44.18647" lon="5.06891">
        <ele>685</ele>
        <time>2021-02-06T08:42:45Z</time>
      </trkpt>
      <trkpt lat="44.18648" lon="5.06893">
        <ele>685</ele>
        <time>2021-02-06T08:42:46Z</time>
      </trkpt>
      <trkpt lat="44.18648" lon="5.06896">
        <ele>686</ele>
        <time>2021-02-06T08:42:47Z</time>
      </trkpt>
      <trkpt lat="44.18649" lon="5.06899">
        <ele>686</ele>
        <time>2021-02-06T08:42:48Z</time>
      </trkpt>
      <trkpt lat="44.1865" lon="5.06901">
        <ele>686</ele>
        <time>2021-02-06T08:42:49Z</time>
      </trkpt>
      <trkpt lat="44.18652" lon="5.06903">
        <ele>686</ele>
        <time>2021-02-06T08:42:50Z</time>
      </trkpt>
      <trkpt lat="44.18653" lon="5.06906">
        <ele>686</ele>
        <time>2021-02-06T08:42:51Z</time>
      </trkpt>
      <trkpt lat="44.18654" lon="5.06908">
        <ele>686</ele>
        <time>2021-02-06T08:42:52Z</time>
      </trkpt>
      <trkpt lat="44.18655" lon="5.06911">
        <ele>686</ele>
        <time>2021-02-06T08:42:53Z</time>
      </trkpt>
      <trkpt lat="44.18656" lon="5.06915">
        <ele>687</ele>
        <time>2021-02-06T08:42:54Z</time>
      </trkpt>
      <trkpt lat="44.18657" lon="5.06918">
        <ele>687</ele>
        <time>2021-02-06T08:42:55Z</time>
      </trkpt>
      <trkpt lat="44.18658" lon="5.06921">
        <ele>688</ele>
        <time>2021-02-06T08:42:56Z</time>
      </trkpt>
      <trkpt lat="44.18659" lon="5.06924">
        <ele>688</ele>
        <time>2021-02-06T08:42:57Z</time>
      </trkpt>
      <trkpt lat="44.18659" lon="5.06928">
        <ele>689</ele>
        <time>2021-02-06T08:42:58Z</time>
      </trkpt>
      <trkpt lat="44.1866" lon="5.06931">
        <ele>690</ele>
        <time>2021-02-06T08:42:59Z</time>
      </trkpt>
      <trkpt lat="44.1866" lon="5.06934">
        <ele>691</ele>
        <time>2021-02-06T08:43:00Z</time>
      </trkpt>
      <trkpt lat="44.1866" lon="5.06937">
        <ele>691</ele>
        <time>2021-02-06T08:43:01Z</time>
      </trkpt>
      <trkpt lat="44.18661" lon="5.0694">
        <ele>692</ele>
        <time>2021-02-06T08:43:02Z</time>
      </trkpt>
      <trkpt lat="44.18662" lon="5.06943">
        <ele>693</ele>
        <time>2021-02-06T08:43:03Z</time>
      </trkpt>
      <trkpt lat="44.18663" lon="5.06945">
        <ele>693</ele>
        <time>2021-02-06T08:43:04Z</time>
      </trkpt>
      <trkpt lat="44.18664" lon="5.06948">
        <ele>694</ele>
        <time>2021-02-06T08:43:06Z</time>
      </trkpt>
      <trkpt lat="44.18664" lon="5.06954">
        <ele>695</ele>
        <time>2021-02-06T08:43:08Z</time>
      </trkpt>
      <trkpt lat="44.18665" lon="5.06957">
        <ele>695</ele>
        <time>2021-02-06T08:43:09Z</time>
      </trkpt>
      <trkpt lat="44.18666" lon="5.0696">
        <ele>696</ele>
        <time>2021-02-06T08:43:10Z</time>
      </trkpt>
      <trkpt lat="44.18667" lon="5.06963">
        <ele>697</ele>
        <time>2021-02-06T08:43:11Z</time>
      </trkpt>
      <trkpt lat="44.18668" lon="5.06966">
        <ele>697</ele>
        <time>2021-02-06T08:43:12Z</time>
      </trkpt>
      <trkpt lat="44.18669" lon="5.06969">
        <ele>697</ele>
        <time>2021-02-06T08:43:13Z</time>
      </trkpt>
      <trkpt lat="44.1867" lon="5.06971">
        <ele>697</ele>
        <time>2021-02-06T08:43:14Z</time>
      </trkpt>
      <trkpt lat="44.18671" lon="5.06975">
        <ele>696</ele>
        <time>2021-02-06T08:43:16Z</time>
      </trkpt>
      <trkpt lat="44.18672" lon="5.0698">
        <ele>695</ele>
        <time>2021-02-06T08:43:18Z</time>
      </trkpt>
      <trkpt lat="44.18672" lon="5.06983">
        <ele>694</ele>
        <time>2021-02-06T08:43:19Z</time>
      </trkpt>
      <trkpt lat="44.18672" lon="5.06986">
        <ele>694</ele>
        <time>2021-02-06T08:43:20Z</time>
      </trkpt>
      <trkpt lat="44.18673" lon="5.06989">
        <ele>693</ele>
        <time>2021-02-06T08:43:21Z</time>
      </trkpt>
      <trkpt lat="44.18675" lon="5.06991">
        <ele>693</ele>
        <time>2021-02-06T08:43:22Z</time>
      </trkpt>
      <trkpt lat="44.18676" lon="5.06993">
        <ele>692</ele>
        <time>2021-02-06T08:43:23Z</time>
      </trkpt>
      <trkpt lat="44.18678" lon="5.06996">
        <ele>692</ele>
        <time>2021-02-06T08:43:24Z</time>
      </trkpt>
      <trkpt lat="44.18679" lon="5.07001">
        <ele>691</ele>
        <time>2021-02-06T08:43:26Z</time>
      </trkpt>
      <trkpt lat="44.18679" lon="5.07004">
        <ele>691</ele>
        <time>2021-02-06T08:43:27Z</time>
      </trkpt>
      <trkpt lat="44.18681" lon="5.07007">
        <ele>690</ele>
        <time>2021-02-06T08:43:29Z</time>
      </trkpt>
      <trkpt lat="44.18683" lon="5.07012">
        <ele>690</ele>
        <time>2021-02-06T08:43:31Z</time>
      </trkpt>
      <trkpt lat="44.18684" lon="5.07014">
        <ele>690</ele>
        <time>2021-02-06T08:43:32Z</time>
      </trkpt>
      <trkpt lat="44.18686" lon="5.07016">
        <ele>689</ele>
        <time>2021-02-06T08:43:33Z</time>
      </trkpt>
      <trkpt lat="44.18688" lon="5.07018">
        <ele>690</ele>
        <time>2021-02-06T08:43:34Z</time>
      </trkpt>
      <trkpt lat="44.1869" lon="5.0702">
        <ele>690</ele>
        <time>2021-02-06T08:43:35Z</time>
      </trkpt>
      <trkpt lat="44.18691" lon="5.07022">
        <ele>690</ele>
        <time>2021-02-06T08:43:36Z</time>
      </trkpt>
      <trkpt lat="44.18692" lon="5.07025">
        <ele>690</ele>
        <time>2021-02-06T08:43:37Z</time>
      </trkpt>
      <trkpt lat="44.18693" lon="5.07028">
        <ele>690</ele>
        <time>2021-02-06T08:43:38Z</time>
      </trkpt>
      <trkpt lat="44.18694" lon="5.0703">
        <ele>689</ele>
        <time>2021-02-06T08:43:39Z</time>
      </trkpt>
      <trkpt lat="44.18695" lon="5.07033">
        <ele>689</ele>
        <time>2021-02-06T08:43:40Z</time>
      </trkpt>
      <trkpt lat="44.18695" lon="5.07036">
        <ele>688</ele>
        <time>2021-02-06T08:43:41Z</time>
      </trkpt>
      <trkpt lat="44.18694" lon="5.07039">
        <ele>688</ele>
        <time>2021-02-06T08:43:42Z</time>
      </trkpt>
      <trkpt lat="44.18695" lon="5.07042">
        <ele>687</ele>
        <time>2021-02-06T08:43:43Z</time>
      </trkpt>
      <trkpt lat="44.18697" lon="5.07045">
        <ele>686</ele>
        <time>2021-02-06T08:43:44Z</time>
      </trkpt>
      <trkpt lat="44.18699" lon="5.07048">
        <ele>686</ele>
        <time>2021-02-06T08:43:45Z</time>
      </trkpt>
      <trkpt lat="44.18701" lon="5.0705">
        <ele>685</ele>
        <time>2021-02-06T08:43:46Z</time>
      </trkpt>
      <trkpt lat="44.18703" lon="5.07053">
        <ele>685</ele>
        <time>2021-02-06T08:43:47Z</time>
      </trkpt>
      <trkpt lat="44.18705" lon="5.07055">
        <ele>685</ele>
        <time>2021-02-06T08:43:48Z</time>
      </trkpt>
      <trkpt lat="44.18707" lon="5.07057">
        <ele>685</ele>
        <time>2021-02-06T08:43:49Z</time>
      </trkpt>
      <trkpt lat="44.18709" lon="5.07059">
        <ele>685</ele>
        <time>2021-02-06T08:43:50Z</time>
      </trkpt>
      <trkpt lat="44.18711" lon="5.07062">
        <ele>685</ele>
        <time>2021-02-06T08:43:51Z</time>
      </trkpt>
      <trkpt lat="44.18714" lon="5.07064">
        <ele>684</ele>
        <time>2021-02-06T08:43:52Z</time>
      </trkpt>
      <trkpt lat="44.18715" lon="5.07067">
        <ele>684</ele>
        <time>2021-02-06T08:43:53Z</time>
      </trkpt>
      <trkpt lat="44.18718" lon="5.07069">
        <ele>684</ele>
        <time>2021-02-06T08:43:54Z</time>
      </trkpt>
      <trkpt lat="44.1872" lon="5.07072">
        <ele>684</ele>
        <time>2021-02-06T08:43:55Z</time>
      </trkpt>
      <trkpt lat="44.18722" lon="5.07075">
        <ele>685</ele>
        <time>2021-02-06T08:43:56Z</time>
      </trkpt>
      <trkpt lat="44.18723" lon="5.07078">
        <ele>684</ele>
        <time>2021-02-06T08:43:57Z</time>
      </trkpt>
      <trkpt lat="44.18724" lon="5.0708">
        <ele>684</ele>
        <time>2021-02-06T08:43:58Z</time>
      </trkpt>
      <trkpt lat="44.18725" lon="5.07083">
        <ele>683</ele>
        <time>2021-02-06T08:43:59Z</time>
      </trkpt>
      <trkpt lat="44.18725" lon="5.07086">
        <ele>683</ele>
        <time>2021-02-06T08:44:00Z</time>
      </trkpt>
      <trkpt lat="44.18725" lon="5.07088">
        <ele>683</ele>
        <time>2021-02-06T08:44:01Z</time>
      </trkpt>
      <trkpt lat="44.18726" lon="5.07091">
        <ele>683</ele>
        <time>2021-02-06T08:44:02Z</time>
      </trkpt>
      <trkpt lat="44.18727" lon="5.07094">
        <ele>682</ele>
        <time>2021-02-06T08:44:03Z</time>
      </trkpt>
      <trkpt lat="44.18727" lon="5.07097">
        <ele>682</ele>
        <time>2021-02-06T08:44:04Z</time>
      </trkpt>
      <trkpt lat="44.18728" lon="5.071">
        <ele>682</ele>
        <time>2021-02-06T08:44:05Z</time>
      </trkpt>
      <trkpt lat="44.18728" lon="5.07103">
        <ele>682</ele>
        <time>2021-02-06T08:44:06Z</time>
      </trkpt>
      <trkpt lat="44.18728" lon="5.07106">
        <ele>682</ele>
        <time>2021-02-06T08:44:07Z</time>
      </trkpt>
      <trkpt lat="44.18729" lon="5.07109">
        <ele>682</ele>
        <time>2021-02-06T08:44:08Z</time>
      </trkpt>
      <trkpt lat="44.18729" lon="5.07113">
        <ele>682</ele>
        <time>2021-02-06T08:44:09Z</time>
      </trkpt>
      <trkpt lat="44.1873" lon="5.07116">
        <ele>682</ele>
        <time>2021-02-06T08:44:10Z</time>
      </trkpt>
      <trkpt lat="44.18732" lon="5.07119">
        <ele>682</ele>
        <time>2021-02-06T08:44:11Z</time>
      </trkpt>
      <trkpt lat="44.18733" lon="5.07122">
        <ele>683</ele>
        <time>2021-02-06T08:44:12Z</time>
      </trkpt>
      <trkpt lat="44.18734" lon="5.07126">
        <ele>683</ele>
        <time>2021-02-06T08:44:13Z</time>
      </trkpt>
      <trkpt lat="44.18735" lon="5.07129">
        <ele>683</ele>
        <time>2021-02-06T08:44:14Z</time>
      </trkpt>
      <trkpt lat="44.18735" lon="5.07132">
        <ele>683</ele>
        <time>2021-02-06T08:44:15Z</time>
      </trkpt>
      <trkpt lat="44.18736" lon="5.07135">
        <ele>684</ele>
        <time>2021-02-06T08:44:16Z</time>
      </trkpt>
      <trkpt lat="44.18737" lon="5.07138">
        <ele>684</ele>
        <time>2021-02-06T08:44:17Z</time>
      </trkpt>
      <trkpt lat="44.18737" lon="5.07141">
        <ele>684</ele>
        <time>2021-02-06T08:44:18Z</time>
      </trkpt>
      <trkpt lat="44.18738" lon="5.07144">
        <ele>684</ele>
        <time>2021-02-06T08:44:19Z</time>
      </trkpt>
      <trkpt lat="44.18739" lon="5.07148">
        <ele>684</ele>
        <time>2021-02-06T08:44:20Z</time>
      </trkpt>
      <trkpt lat="44.1874" lon="5.0715">
        <ele>685</ele>
        <time>2021-02-06T08:44:21Z</time>
      </trkpt>
      <trkpt lat="44.1874" lon="5.07153">
        <ele>685</ele>
        <time>2021-02-06T08:44:22Z</time>
      </trkpt>
      <trkpt lat="44.18741" lon="5.07156">
        <ele>685</ele>
        <time>2021-02-06T08:44:23Z</time>
      </trkpt>
      <trkpt lat="44.18741" lon="5.07159">
        <ele>685</ele>
        <time>2021-02-06T08:44:24Z</time>
      </trkpt>
      <trkpt lat="44.18742" lon="5.07161">
        <ele>685</ele>
        <time>2021-02-06T08:44:25Z</time>
      </trkpt>
      <trkpt lat="44.18742" lon="5.07164">
        <ele>685</ele>
        <time>2021-02-06T08:44:26Z</time>
      </trkpt>
      <trkpt lat="44.18741" lon="5.07167">
        <ele>685</ele>
        <time>2021-02-06T08:44:27Z</time>
      </trkpt>
      <trkpt lat="44.18742" lon="5.07171">
        <ele>685</ele>
        <time>2021-02-06T08:44:28Z</time>
      </trkpt>
      <trkpt lat="44.18742" lon="5.07175">
        <ele>685</ele>
        <time>2021-02-06T08:44:29Z</time>
      </trkpt>
      <trkpt lat="44.18742" lon="5.07178">
        <ele>685</ele>
        <time>2021-02-06T08:44:30Z</time>
      </trkpt>
      <trkpt lat="44.18743" lon="5.07182">
        <ele>685</ele>
        <time>2021-02-06T08:44:31Z</time>
      </trkpt>
      <trkpt lat="44.18744" lon="5.07186">
        <ele>685</ele>
        <time>2021-02-06T08:44:32Z</time>
      </trkpt>
      <trkpt lat="44.18745" lon="5.07189">
        <ele>685</ele>
        <time>2021-02-06T08:44:33Z</time>
      </trkpt>
      <trkpt lat="44.18745" lon="5.07193">
        <ele>686</ele>
        <time>2021-02-06T08:44:34Z</time>
      </trkpt>
      <trkpt lat="44.18746" lon="5.07197">
        <ele>686</ele>
        <time>2021-02-06T08:44:35Z</time>
      </trkpt>
      <trkpt lat="44.18748" lon="5.072">
        <ele>686</ele>
        <time>2021-02-06T08:44:36Z</time>
      </trkpt>
      <trkpt lat="44.18749" lon="5.07204">
        <ele>686</ele>
        <time>2021-02-06T08:44:37Z</time>
      </trkpt>
      <trkpt lat="44.1875" lon="5.07207">
        <ele>687</ele>
        <time>2021-02-06T08:44:38Z</time>
      </trkpt>
      <trkpt lat="44.18751" lon="5.07211">
        <ele>687</ele>
        <time>2021-02-06T08:44:39Z</time>
      </trkpt>
      <trkpt lat="44.18753" lon="5.07214">
        <ele>686</ele>
        <time>2021-02-06T08:44:40Z</time>
      </trkpt>
      <trkpt lat="44.18754" lon="5.07217">
        <ele>686</ele>
        <time>2021-02-06T08:44:41Z</time>
      </trkpt>
      <trkpt lat="44.18755" lon="5.07221">
        <ele>685</ele>
        <time>2021-02-06T08:44:42Z</time>
      </trkpt>
      <trkpt lat="44.18756" lon="5.07224">
        <ele>685</ele>
        <time>2021-02-06T08:44:43Z</time>
      </trkpt>
      <trkpt lat="44.18756" lon="5.07228">
        <ele>684</ele>
        <time>2021-02-06T08:44:44Z</time>
      </trkpt>
      <trkpt lat="44.18757" lon="5.07232">
        <ele>684</ele>
        <time>2021-02-06T08:44:45Z</time>
      </trkpt>
      <trkpt lat="44.18758" lon="5.07236">
        <ele>684</ele>
        <time>2021-02-06T08:44:46Z</time>
      </trkpt>
      <trkpt lat="44.18759" lon="5.0724">
        <ele>683</ele>
        <time>2021-02-06T08:44:47Z</time>
      </trkpt>
      <trkpt lat="44.1876" lon="5.07243">
        <ele>683</ele>
        <time>2021-02-06T08:44:48Z</time>
      </trkpt>
      <trkpt lat="44.1876" lon="5.07247">
        <ele>683</ele>
        <time>2021-02-06T08:44:49Z</time>
      </trkpt>
      <trkpt lat="44.18761" lon="5.0725">
        <ele>683</ele>
        <time>2021-02-06T08:44:50Z</time>
      </trkpt>
      <trkpt lat="44.18762" lon="5.07254">
        <ele>683</ele>
        <time>2021-02-06T08:44:51Z</time>
      </trkpt>
      <trkpt lat="44.18763" lon="5.07258">
        <ele>683</ele>
        <time>2021-02-06T08:44:52Z</time>
      </trkpt>
      <trkpt lat="44.18764" lon="5.07261">
        <ele>683</ele>
        <time>2021-02-06T08:44:53Z</time>
      </trkpt>
      <trkpt lat="44.18764" lon="5.07264">
        <ele>683</ele>
        <time>2021-02-06T08:44:54Z</time>
      </trkpt>
      <trkpt lat="44.18765" lon="5.07268">
        <ele>683</ele>
        <time>2021-02-06T08:44:55Z</time>
      </trkpt>
      <trkpt lat="44.18765" lon="5.07271">
        <ele>683</ele>
        <time>2021-02-06T08:44:56Z</time>
      </trkpt>
      <trkpt lat="44.18766" lon="5.07275">
        <ele>683</ele>
        <time>2021-02-06T08:44:57Z</time>
      </trkpt>
      <trkpt lat="44.18766" lon="5.07279">
        <ele>683</ele>
        <time>2021-02-06T08:44:58Z</time>
      </trkpt>
      <trkpt lat="44.18767" lon="5.07282">
        <ele>683</ele>
        <time>2021-02-06T08:44:59Z</time>
      </trkpt>
      <trkpt lat="44.18768" lon="5.07286">
        <ele>683</ele>
        <time>2021-02-06T08:45:00Z</time>
      </trkpt>
      <trkpt lat="44.18769" lon="5.07289">
        <ele>684</ele>
        <time>2021-02-06T08:45:01Z</time>
      </trkpt>
      <trkpt lat="44.18771" lon="5.07293">
        <ele>684</ele>
        <time>2021-02-06T08:45:02Z</time>
      </trkpt>
      <trkpt lat="44.18772" lon="5.07296">
        <ele>684</ele>
        <time>2021-02-06T08:45:03Z</time>
      </trkpt>
      <trkpt lat="44.18772" lon="5.073">
        <ele>684</ele>
        <time>2021-02-06T08:45:04Z</time>
      </trkpt>
      <trkpt lat="44.18773" lon="5.07303">
        <ele>684</ele>
        <time>2021-02-06T08:45:05Z</time>
      </trkpt>
      <trkpt lat="44.18775" lon="5.07306">
        <ele>684</ele>
        <time>2021-02-06T08:45:06Z</time>
      </trkpt>
      <trkpt lat="44.18776" lon="5.07309">
        <ele>685</ele>
        <time>2021-02-06T08:45:07Z</time>
      </trkpt>
      <trkpt lat="44.18777" lon="5.07312">
        <ele>685</ele>
        <time>2021-02-06T08:45:08Z</time>
      </trkpt>
      <trkpt lat="44.18778" lon="5.07315">
        <ele>685</ele>
        <time>2021-02-06T08:45:09Z</time>
      </trkpt>
      <trkpt lat="44.18779" lon="5.07318">
        <ele>684</ele>
        <time>2021-02-06T08:45:10Z</time>
      </trkpt>
      <trkpt lat="44.1878" lon="5.07322">
        <ele>683</ele>
        <time>2021-02-06T08:45:11Z</time>
      </trkpt>
      <trkpt lat="44.18781" lon="5.07325">
        <ele>682</ele>
        <time>2021-02-06T08:45:12Z</time>
      </trkpt>
      <trkpt lat="44.18782" lon="5.07328">
        <ele>681</ele>
        <time>2021-02-06T08:45:13Z</time>
      </trkpt>
      <trkpt lat="44.18783" lon="5.0733">
        <ele>680</ele>
        <time>2021-02-06T08:45:14Z</time>
      </trkpt>
      <trkpt lat="44.18784" lon="5.07333">
        <ele>680</ele>
        <time>2021-02-06T08:45:15Z</time>
      </trkpt>
      <trkpt lat="44.18784" lon="5.07336">
        <ele>680</ele>
        <time>2021-02-06T08:45:16Z</time>
      </trkpt>
      <trkpt lat="44.18784" lon="5.0734">
        <ele>680</ele>
        <time>2021-02-06T08:45:17Z</time>
      </trkpt>
      <trkpt lat="44.18784" lon="5.07344">
        <ele>680</ele>
        <time>2021-02-06T08:45:18Z</time>
      </trkpt>
      <trkpt lat="44.18784" lon="5.07347">
        <ele>679</ele>
        <time>2021-02-06T08:45:19Z</time>
      </trkpt>
      <trkpt lat="44.18785" lon="5.0735">
        <ele>679</ele>
        <time>2021-02-06T08:45:20Z</time>
      </trkpt>
      <trkpt lat="44.18785" lon="5.07353">
        <ele>679</ele>
        <time>2021-02-06T08:45:21Z</time>
      </trkpt>
      <trkpt lat="44.18785" lon="5.07356">
        <ele>679</ele>
        <time>2021-02-06T08:45:22Z</time>
      </trkpt>
      <trkpt lat="44.18785" lon="5.07359">
        <ele>679</ele>
        <time>2021-02-06T08:45:23Z</time>
      </trkpt>
      <trkpt lat="44.18784" lon="5.07362">
        <ele>680</ele>
        <time>2021-02-06T08:45:24Z</time>
      </trkpt>
      <trkpt lat="44.18784" lon="5.07366">
        <ele>680</ele>
        <time>2021-02-06T08:45:25Z</time>
      </trkpt>
      <trkpt lat="44.18784" lon="5.07369">
        <ele>680</ele>
        <time>2021-02-06T08:45:26Z</time>
      </trkpt>
      <trkpt lat="44.18785" lon="5.07374">
        <ele>680</ele>
        <time>2021-02-06T08:45:28Z</time>
      </trkpt>
      <trkpt lat="44.18784" lon="5.07379">
        <ele>681</ele>
        <time>2021-02-06T08:45:30Z</time>
      </trkpt>
      <trkpt lat="44.18784" lon="5.07384">
        <ele>681</ele>
        <time>2021-02-06T08:45:32Z</time>
      </trkpt>
      <trkpt lat="44.18784" lon="5.07387">
        <ele>681</ele>
        <time>2021-02-06T08:45:33Z</time>
      </trkpt>
      <trkpt lat="44.18784" lon="5.0739">
        <ele>681</ele>
        <time>2021-02-06T08:45:34Z</time>
      </trkpt>
      <trkpt lat="44.18785" lon="5.07394">
        <ele>681</ele>
        <time>2021-02-06T08:45:36Z</time>
      </trkpt>
      <trkpt lat="44.18784" lon="5.07397">
        <ele>681</ele>
        <time>2021-02-06T08:45:38Z</time>
      </trkpt>
      <trkpt lat="44.18784" lon="5.074">
        <ele>682</ele>
        <time>2021-02-06T08:45:41Z</time>
      </trkpt>
      <trkpt lat="44.18784" lon="5.07403">
        <ele>681</ele>
        <time>2021-02-06T08:46:06Z</time>
      </trkpt>
      <trkpt lat="44.18785" lon="5.07406">
        <ele>680</ele>
        <time>2021-02-06T08:46:09Z</time>
      </trkpt>
      <trkpt lat="44.18786" lon="5.07409">
        <ele>680</ele>
        <time>2021-02-06T08:46:12Z</time>
      </trkpt>
      <trkpt lat="44.18787" lon="5.07412">
        <ele>680</ele>
        <time>2021-02-06T08:46:15Z</time>
      </trkpt>
      <trkpt lat="44.18787" lon="5.07415">
        <ele>679</ele>
        <time>2021-02-06T08:46:17Z</time>
      </trkpt>
      <trkpt lat="44.18787" lon="5.07418">
        <ele>679</ele>
        <time>2021-02-06T08:46:19Z</time>
      </trkpt>
      <trkpt lat="44.18788" lon="5.07422">
        <ele>679</ele>
        <time>2021-02-06T08:46:21Z</time>
      </trkpt>
      <trkpt lat="44.18789" lon="5.07425">
        <ele>679</ele>
        <time>2021-02-06T08:46:23Z</time>
      </trkpt>
      <trkpt lat="44.18789" lon="5.07429">
        <ele>678</ele>
        <time>2021-02-06T08:46:25Z</time>
      </trkpt>
      <trkpt lat="44.1879" lon="5.07432">
        <ele>678</ele>
        <time>2021-02-06T08:46:26Z</time>
      </trkpt>
      <trkpt lat="44.18791" lon="5.07437">
        <ele>678</ele>
        <time>2021-02-06T08:46:28Z</time>
      </trkpt>
      <trkpt lat="44.18791" lon="5.0744">
        <ele>678</ele>
        <time>2021-02-06T08:46:29Z</time>
      </trkpt>
      <trkpt lat="44.18792" lon="5.07444">
        <ele>678</ele>
        <time>2021-02-06T08:46:31Z</time>
      </trkpt>
      <trkpt lat="44.18792" lon="5.07447">
        <ele>678</ele>
        <time>2021-02-06T08:46:33Z</time>
      </trkpt>
      <trkpt lat="44.18791" lon="5.07452">
        <ele>678</ele>
        <time>2021-02-06T08:46:35Z</time>
      </trkpt>
      <trkpt lat="44.18792" lon="5.07456">
        <ele>677</ele>
        <time>2021-02-06T08:46:37Z</time>
      </trkpt>
      <trkpt lat="44.18792" lon="5.07459">
        <ele>677</ele>
        <time>2021-02-06T08:46:38Z</time>
      </trkpt>
      <trkpt lat="44.18792" lon="5.07462">
        <ele>677</ele>
        <time>2021-02-06T08:46:39Z</time>
      </trkpt>
      <trkpt lat="44.18791" lon="5.07466">
        <ele>677</ele>
        <time>2021-02-06T08:46:41Z</time>
      </trkpt>
      <trkpt lat="44.1879" lon="5.0747">
        <ele>677</ele>
        <time>2021-02-06T08:46:43Z</time>
      </trkpt>
      <trkpt lat="44.18787" lon="5.07473">
        <ele>676</ele>
        <time>2021-02-06T08:46:45Z</time>
      </trkpt>
      <trkpt lat="44.18784" lon="5.07475">
        <ele>676</ele>
        <time>2021-02-06T08:46:47Z</time>
      </trkpt>
      <trkpt lat="44.18782" lon="5.07478">
        <ele>675</ele>
        <time>2021-02-06T08:46:49Z</time>
      </trkpt>
      <trkpt lat="44.18781" lon="5.07482">
        <ele>673</ele>
        <time>2021-02-06T08:46:51Z</time>
      </trkpt>
      <trkpt lat="44.18781" lon="5.07484">
        <ele>673</ele>
        <time>2021-02-06T08:46:52Z</time>
      </trkpt>
      <trkpt lat="44.18782" lon="5.07487">
        <ele>672</ele>
        <time>2021-02-06T08:46:53Z</time>
      </trkpt>
      <trkpt lat="44.18782" lon="5.0749">
        <ele>671</ele>
        <time>2021-02-06T08:46:54Z</time>
      </trkpt>
      <trkpt lat="44.18784" lon="5.07492">
        <ele>671</ele>
        <time>2021-02-06T08:46:55Z</time>
      </trkpt>
      <trkpt lat="44.18785" lon="5.07494">
        <ele>671</ele>
        <time>2021-02-06T08:46:56Z</time>
      </trkpt>
      <trkpt lat="44.18786" lon="5.07496">
        <ele>671</ele>
        <time>2021-02-06T08:46:57Z</time>
      </trkpt>
      <trkpt lat="44.18788" lon="5.07498">
        <ele>671</ele>
        <time>2021-02-06T08:46:58Z</time>
      </trkpt>
      <trkpt lat="44.1879" lon="5.07501">
        <ele>671</ele>
        <time>2021-02-06T08:46:59Z</time>
      </trkpt>
      <trkpt lat="44.18791" lon="5.07502">
        <ele>671</ele>
        <time>2021-02-06T08:47:00Z</time>
      </trkpt>
      <trkpt lat="44.18794" lon="5.07506">
        <ele>670</ele>
        <time>2021-02-06T08:47:02Z</time>
      </trkpt>
      <trkpt lat="44.18795" lon="5.07508">
        <ele>670</ele>
        <time>2021-02-06T08:47:03Z</time>
      </trkpt>
      <trkpt lat="44.18796" lon="5.0751">
        <ele>669</ele>
        <time>2021-02-06T08:47:04Z</time>
      </trkpt>
      <trkpt lat="44.18797" lon="5.07512">
        <ele>669</ele>
        <time>2021-02-06T08:47:05Z</time>
      </trkpt>
      <trkpt lat="44.18798" lon="5.07515">
        <ele>668</ele>
        <time>2021-02-06T08:47:07Z</time>
      </trkpt>
      <trkpt lat="44.18799" lon="5.07519">
        <ele>667</ele>
        <time>2021-02-06T08:47:09Z</time>
      </trkpt>
      <trkpt lat="44.18799" lon="5.07522">
        <ele>666</ele>
        <time>2021-02-06T08:47:11Z</time>
      </trkpt>
      <trkpt lat="44.188" lon="5.07524">
        <ele>666</ele>
        <time>2021-02-06T08:47:13Z</time>
      </trkpt>
      <trkpt lat="44.188" lon="5.07527">
        <ele>665</ele>
        <time>2021-02-06T08:47:16Z</time>
      </trkpt>
      <trkpt lat="44.188" lon="5.0753">
        <ele>664</ele>
        <time>2021-02-06T08:47:20Z</time>
      </trkpt>
      <trkpt lat="44.188" lon="5.07533">
        <ele>662</ele>
        <time>2021-02-06T08:47:24Z</time>
      </trkpt>
      <trkpt lat="44.18802" lon="5.07536">
        <ele>661</ele>
        <time>2021-02-06T08:47:26Z</time>
      </trkpt>
      <trkpt lat="44.18804" lon="5.07539">
        <ele>661</ele>
        <time>2021-02-06T08:47:28Z</time>
      </trkpt>
      <trkpt lat="44.18806" lon="5.07542">
        <ele>660</ele>
        <time>2021-02-06T08:47:30Z</time>
      </trkpt>
      <trkpt lat="44.18808" lon="5.07545">
        <ele>659</ele>
        <time>2021-02-06T08:47:32Z</time>
      </trkpt>
      <trkpt lat="44.1881" lon="5.0755">
        <ele>657</ele>
        <time>2021-02-06T08:47:34Z</time>
      </trkpt>
      <trkpt lat="44.18811" lon="5.07553">
        <ele>656</ele>
        <time>2021-02-06T08:47:35Z</time>
      </trkpt>
      <trkpt lat="44.18812" lon="5.07555">
        <ele>655</ele>
        <time>2021-02-06T08:47:36Z</time>
      </trkpt>
      <trkpt lat="44.18812" lon="5.07559">
        <ele>654</ele>
        <time>2021-02-06T08:47:38Z</time>
      </trkpt>
      <trkpt lat="44.18812" lon="5.07563">
        <ele>652</ele>
        <time>2021-02-06T08:47:40Z</time>
      </trkpt>
      <trkpt lat="44.18813" lon="5.07566">
        <ele>651</ele>
        <time>2021-02-06T08:47:41Z</time>
      </trkpt>
      <trkpt lat="44.18814" lon="5.07569">
        <ele>651</ele>
        <time>2021-02-06T08:47:42Z</time>
      </trkpt>
      <trkpt lat="44.18817" lon="5.07577">
        <ele>649</ele>
        <time>2021-02-06T08:47:46Z</time>
      </trkpt>
      <trkpt lat="44.18817" lon="5.07582">
        <ele>647</ele>
        <time>2021-02-06T08:47:48Z</time>
      </trkpt>
      <trkpt lat="44.18818" lon="5.07586">
        <ele>646</ele>
        <time>2021-02-06T08:47:50Z</time>
      </trkpt>
      <trkpt lat="44.18817" lon="5.07589">
        <ele>646</ele>
        <time>2021-02-06T08:47:51Z</time>
      </trkpt>
      <trkpt lat="44.18818" lon="5.07592">
        <ele>645</ele>
        <time>2021-02-06T08:47:52Z</time>
      </trkpt>
      <trkpt lat="44.18818" lon="5.07595">
        <ele>645</ele>
        <time>2021-02-06T08:47:53Z</time>
      </trkpt>
      <trkpt lat="44.1882" lon="5.07598">
        <ele>644</ele>
        <time>2021-02-06T08:47:54Z</time>
      </trkpt>
      <trkpt lat="44.18822" lon="5.076">
        <ele>644</ele>
        <time>2021-02-06T08:47:55Z</time>
      </trkpt>
      <trkpt lat="44.18823" lon="5.07602">
        <ele>645</ele>
        <time>2021-02-06T08:47:56Z</time>
      </trkpt>
      <trkpt lat="44.18824" lon="5.07605">
        <ele>644</ele>
        <time>2021-02-06T08:47:58Z</time>
      </trkpt>
      <trkpt lat="44.18824" lon="5.0761">
        <ele>643</ele>
        <time>2021-02-06T08:48:00Z</time>
      </trkpt>
      <trkpt lat="44.18825" lon="5.07619">
        <ele>642</ele>
        <time>2021-02-06T08:48:04Z</time>
      </trkpt>
      <trkpt lat="44.18827" lon="5.07625">
        <ele>642</ele>
        <time>2021-02-06T08:48:07Z</time>
      </trkpt>
      <trkpt lat="44.18827" lon="5.07628">
        <ele>641</ele>
        <time>2021-02-06T08:48:08Z</time>
      </trkpt>
      <trkpt lat="44.18828" lon="5.07632">
        <ele>641</ele>
        <time>2021-02-06T08:48:10Z</time>
      </trkpt>
      <trkpt lat="44.18828" lon="5.07635">
        <ele>640</ele>
        <time>2021-02-06T08:48:12Z</time>
      </trkpt>
      <trkpt lat="44.18827" lon="5.07638">
        <ele>639</ele>
        <time>2021-02-06T08:48:13Z</time>
      </trkpt>
      <trkpt lat="44.18828" lon="5.07641">
        <ele>639</ele>
        <time>2021-02-06T08:48:14Z</time>
      </trkpt>
      <trkpt lat="44.18829" lon="5.07647">
        <ele>638</ele>
        <time>2021-02-06T08:48:16Z</time>
      </trkpt>
      <trkpt lat="44.18829" lon="5.0765">
        <ele>638</ele>
        <time>2021-02-06T08:48:17Z</time>
      </trkpt>
      <trkpt lat="44.1883" lon="5.07658">
        <ele>637</ele>
        <time>2021-02-06T08:48:20Z</time>
      </trkpt>
      <trkpt lat="44.1883" lon="5.07662">
        <ele>636</ele>
        <time>2021-02-06T08:48:21Z</time>
      </trkpt>
      <trkpt lat="44.18831" lon="5.07677">
        <ele>634</ele>
        <time>2021-02-06T08:48:27Z</time>
      </trkpt>
      <trkpt lat="44.18833" lon="5.07691">
        <ele>633</ele>
        <time>2021-02-06T08:48:32Z</time>
      </trkpt>
      <trkpt lat="44.18836" lon="5.07699">
        <ele>631</ele>
        <time>2021-02-06T08:48:37Z</time>
      </trkpt>
      <trkpt lat="44.18836" lon="5.07702">
        <ele>631</ele>
        <time>2021-02-06T08:48:39Z</time>
      </trkpt>
      <trkpt lat="44.18835" lon="5.07704">
        <ele>630</ele>
        <time>2021-02-06T08:48:40Z</time>
      </trkpt>
      <trkpt lat="44.18836" lon="5.07707">
        <ele>630</ele>
        <time>2021-02-06T08:48:41Z</time>
      </trkpt>
      <trkpt lat="44.18837" lon="5.07711">
        <ele>629</ele>
        <time>2021-02-06T08:48:43Z</time>
      </trkpt>
      <trkpt lat="44.18838" lon="5.07714">
        <ele>629</ele>
        <time>2021-02-06T08:48:44Z</time>
      </trkpt>
      <trkpt lat="44.18839" lon="5.07716">
        <ele>628</ele>
        <time>2021-02-06T08:48:45Z</time>
      </trkpt>
      <trkpt lat="44.18839" lon="5.0772">
        <ele>628</ele>
        <time>2021-02-06T08:48:47Z</time>
      </trkpt>
      <trkpt lat="44.18839" lon="5.07723">
        <ele>627</ele>
        <time>2021-02-06T08:48:48Z</time>
      </trkpt>
      <trkpt lat="44.18839" lon="5.07726">
        <ele>627</ele>
        <time>2021-02-06T08:48:49Z</time>
      </trkpt>
      <trkpt lat="44.1884" lon="5.07729">
        <ele>626</ele>
        <time>2021-02-06T08:48:50Z</time>
      </trkpt>
      <trkpt lat="44.18841" lon="5.07736">
        <ele>625</ele>
        <time>2021-02-06T08:48:53Z</time>
      </trkpt>
      <trkpt lat="44.18842" lon="5.07739">
        <ele>625</ele>
        <time>2021-02-06T08:48:54Z</time>
      </trkpt>
      <trkpt lat="44.18845" lon="5.07754">
        <ele>624</ele>
        <time>2021-02-06T08:48:59Z</time>
      </trkpt>
      <trkpt lat="44.18846" lon="5.07759">
        <ele>623</ele>
        <time>2021-02-06T08:49:01Z</time>
      </trkpt>
      <trkpt lat="44.18846" lon="5.07762">
        <ele>623</ele>
        <time>2021-02-06T08:49:02Z</time>
      </trkpt>
      <trkpt lat="44.18846" lon="5.07765">
        <ele>622</ele>
        <time>2021-02-06T08:49:03Z</time>
      </trkpt>
      <trkpt lat="44.18846" lon="5.07768">
        <ele>622</ele>
        <time>2021-02-06T08:49:04Z</time>
      </trkpt>
      <trkpt lat="44.18847" lon="5.07771">
        <ele>621</ele>
        <time>2021-02-06T08:49:05Z</time>
      </trkpt>
      <trkpt lat="44.18847" lon="5.07774">
        <ele>621</ele>
        <time>2021-02-06T08:49:06Z</time>
      </trkpt>
      <trkpt lat="44.18848" lon="5.07778">
        <ele>621</ele>
        <time>2021-02-06T08:49:08Z</time>
      </trkpt>
      <trkpt lat="44.18849" lon="5.07781">
        <ele>621</ele>
        <time>2021-02-06T08:49:10Z</time>
      </trkpt>
      <trkpt lat="44.18849" lon="5.07785">
        <ele>620</ele>
        <time>2021-02-06T08:49:12Z</time>
      </trkpt>
      <trkpt lat="44.18849" lon="5.07789">
        <ele>618</ele>
        <time>2021-02-06T08:49:14Z</time>
      </trkpt>
      <trkpt lat="44.18849" lon="5.07792">
        <ele>618</ele>
        <time>2021-02-06T08:49:15Z</time>
      </trkpt>
      <trkpt lat="44.1885" lon="5.07795">
        <ele>618</ele>
        <time>2021-02-06T08:49:17Z</time>
      </trkpt>
      <trkpt lat="44.18849" lon="5.07798">
        <ele>617</ele>
        <time>2021-02-06T08:49:20Z</time>
      </trkpt>
      <trkpt lat="44.18849" lon="5.07801">
        <ele>616</ele>
        <time>2021-02-06T08:49:22Z</time>
      </trkpt>
      <trkpt lat="44.1885" lon="5.07805">
        <ele>615</ele>
        <time>2021-02-06T08:49:24Z</time>
      </trkpt>
      <trkpt lat="44.1885" lon="5.07808">
        <ele>615</ele>
        <time>2021-02-06T08:49:25Z</time>
      </trkpt>
      <trkpt lat="44.18852" lon="5.07817">
        <ele>613</ele>
        <time>2021-02-06T08:49:29Z</time>
      </trkpt>
      <trkpt lat="44.18853" lon="5.0782">
        <ele>613</ele>
        <time>2021-02-06T08:49:30Z</time>
      </trkpt>
      <trkpt lat="44.18854" lon="5.07824">
        <ele>612</ele>
        <time>2021-02-06T08:49:32Z</time>
      </trkpt>
      <trkpt lat="44.18855" lon="5.07827">
        <ele>612</ele>
        <time>2021-02-06T08:49:34Z</time>
      </trkpt>
      <trkpt lat="44.18856" lon="5.0783">
        <ele>612</ele>
        <time>2021-02-06T08:49:36Z</time>
      </trkpt>
      <trkpt lat="44.18858" lon="5.07834">
        <ele>611</ele>
        <time>2021-02-06T08:49:38Z</time>
      </trkpt>
      <trkpt lat="44.18859" lon="5.07836">
        <ele>611</ele>
        <time>2021-02-06T08:49:39Z</time>
      </trkpt>
      <trkpt lat="44.1886" lon="5.07839">
        <ele>611</ele>
        <time>2021-02-06T08:49:40Z</time>
      </trkpt>
      <trkpt lat="44.18862" lon="5.07847">
        <ele>609</ele>
        <time>2021-02-06T08:49:43Z</time>
      </trkpt>
      <trkpt lat="44.18863" lon="5.07851">
        <ele>607</ele>
        <time>2021-02-06T08:49:45Z</time>
      </trkpt>
      <trkpt lat="44.18864" lon="5.07853">
        <ele>607</ele>
        <time>2021-02-06T08:49:46Z</time>
      </trkpt>
      <trkpt lat="44.18865" lon="5.07855">
        <ele>606</ele>
        <time>2021-02-06T08:49:47Z</time>
      </trkpt>
      <trkpt lat="44.18867" lon="5.07859">
        <ele>605</ele>
        <time>2021-02-06T08:49:49Z</time>
      </trkpt>
      <trkpt lat="44.18868" lon="5.07862">
        <ele>604</ele>
        <time>2021-02-06T08:49:51Z</time>
      </trkpt>
      <trkpt lat="44.1887" lon="5.07866">
        <ele>604</ele>
        <time>2021-02-06T08:49:53Z</time>
      </trkpt>
      <trkpt lat="44.18871" lon="5.0787">
        <ele>603</ele>
        <time>2021-02-06T08:49:55Z</time>
      </trkpt>
      <trkpt lat="44.18872" lon="5.07873">
        <ele>602</ele>
        <time>2021-02-06T08:49:57Z</time>
      </trkpt>
      <trkpt lat="44.18874" lon="5.07876">
        <ele>602</ele>
        <time>2021-02-06T08:49:59Z</time>
      </trkpt>
      <trkpt lat="44.18875" lon="5.0788">
        <ele>601</ele>
        <time>2021-02-06T08:50:01Z</time>
      </trkpt>
      <trkpt lat="44.18875" lon="5.07882">
        <ele>601</ele>
        <time>2021-02-06T08:50:02Z</time>
      </trkpt>
      <trkpt lat="44.18877" lon="5.07887">
        <ele>600</ele>
        <time>2021-02-06T08:50:05Z</time>
      </trkpt>
      <trkpt lat="44.18878" lon="5.07891">
        <ele>600</ele>
        <time>2021-02-06T08:50:07Z</time>
      </trkpt>
      <trkpt lat="44.1888" lon="5.07895">
        <ele>599</ele>
        <time>2021-02-06T08:50:10Z</time>
      </trkpt>
      <trkpt lat="44.18882" lon="5.07899">
        <ele>599</ele>
        <time>2021-02-06T08:50:12Z</time>
      </trkpt>
      <trkpt lat="44.18883" lon="5.07904">
        <ele>599</ele>
        <time>2021-02-06T08:50:14Z</time>
      </trkpt>
      <trkpt lat="44.18884" lon="5.07906">
        <ele>599</ele>
        <time>2021-02-06T08:50:15Z</time>
      </trkpt>
      <trkpt lat="44.18885" lon="5.07908">
        <ele>599</ele>
        <time>2021-02-06T08:50:16Z</time>
      </trkpt>
      <trkpt lat="44.18886" lon="5.07911">
        <ele>599</ele>
        <time>2021-02-06T08:50:18Z</time>
      </trkpt>
      <trkpt lat="44.18889" lon="5.07915">
        <ele>599</ele>
        <time>2021-02-06T08:50:20Z</time>
      </trkpt>
      <trkpt lat="44.1889" lon="5.07918">
        <ele>598</ele>
        <time>2021-02-06T08:50:22Z</time>
      </trkpt>
      <trkpt lat="44.18891" lon="5.07923">
        <ele>597</ele>
        <time>2021-02-06T08:50:24Z</time>
      </trkpt>
      <trkpt lat="44.18892" lon="5.07927">
        <ele>595</ele>
        <time>2021-02-06T08:50:26Z</time>
      </trkpt>
      <trkpt lat="44.18894" lon="5.0793">
        <ele>594</ele>
        <time>2021-02-06T08:50:28Z</time>
      </trkpt>
      <trkpt lat="44.18895" lon="5.07934">
        <ele>593</ele>
        <time>2021-02-06T08:50:30Z</time>
      </trkpt>
      <trkpt lat="44.18896" lon="5.07936">
        <ele>592</ele>
        <time>2021-02-06T08:50:31Z</time>
      </trkpt>
      <trkpt lat="44.18897" lon="5.07939">
        <ele>591</ele>
        <time>2021-02-06T08:50:32Z</time>
      </trkpt>
      <trkpt lat="44.18898" lon="5.07948">
        <ele>589</ele>
        <time>2021-02-06T08:50:37Z</time>
      </trkpt>
      <trkpt lat="44.18905" lon="5.0795">
        <ele>587</ele>
        <time>2021-02-06T08:50:44Z</time>
      </trkpt>
      <trkpt lat="44.18908" lon="5.07948">
        <ele>587</ele>
        <time>2021-02-06T08:51:09Z</time>
      </trkpt>
      <trkpt lat="44.1891" lon="5.07946">
        <ele>587</ele>
        <time>2021-02-06T08:51:44Z</time>
      </trkpt>
      <trkpt lat="44.18913" lon="5.07946">
        <ele>587</ele>
        <time>2021-02-06T08:51:52Z</time>
      </trkpt>
      <trkpt lat="44.18915" lon="5.07945">
        <ele>586</ele>
        <time>2021-02-06T08:51:54Z</time>
      </trkpt>
      <trkpt lat="44.18917" lon="5.07943">
        <ele>586</ele>
        <time>2021-02-06T08:51:56Z</time>
      </trkpt>
      <trkpt lat="44.18919" lon="5.07942">
        <ele>584</ele>
        <time>2021-02-06T08:51:58Z</time>
      </trkpt>
      <trkpt lat="44.18921" lon="5.0794">
        <ele>582</ele>
        <time>2021-02-06T08:51:59Z</time>
      </trkpt>
      <trkpt lat="44.18924" lon="5.07936">
        <ele>580</ele>
        <time>2021-02-06T08:52:01Z</time>
      </trkpt>
      <trkpt lat="44.18924" lon="5.07934">
        <ele>580</ele>
        <time>2021-02-06T08:52:02Z</time>
      </trkpt>
      <trkpt lat="44.18925" lon="5.0793">
        <ele>580</ele>
        <time>2021-02-06T08:52:04Z</time>
      </trkpt>
      <trkpt lat="44.18926" lon="5.07925">
        <ele>579</ele>
        <time>2021-02-06T08:52:06Z</time>
      </trkpt>
      <trkpt lat="44.18926" lon="5.07922">
        <ele>579</ele>
        <time>2021-02-06T08:52:07Z</time>
      </trkpt>
      <trkpt lat="44.18927" lon="5.07919">
        <ele>579</ele>
        <time>2021-02-06T08:52:08Z</time>
      </trkpt>
      <trkpt lat="44.18927" lon="5.07916">
        <ele>578</ele>
        <time>2021-02-06T08:52:09Z</time>
      </trkpt>
      <trkpt lat="44.18927" lon="5.07913">
        <ele>578</ele>
        <time>2021-02-06T08:52:10Z</time>
      </trkpt>
      <trkpt lat="44.18931" lon="5.07905">
        <ele>575</ele>
        <time>2021-02-06T08:52:13Z</time>
      </trkpt>
      <trkpt lat="44.18933" lon="5.07902">
        <ele>573</ele>
        <time>2021-02-06T08:52:14Z</time>
      </trkpt>
      <trkpt lat="44.18935" lon="5.079">
        <ele>572</ele>
        <time>2021-02-06T08:52:15Z</time>
      </trkpt>
      <trkpt lat="44.18936" lon="5.07898">
        <ele>571</ele>
        <time>2021-02-06T08:52:16Z</time>
      </trkpt>
      <trkpt lat="44.18938" lon="5.07896">
        <ele>570</ele>
        <time>2021-02-06T08:52:17Z</time>
      </trkpt>
      <trkpt lat="44.18939" lon="5.07893">
        <ele>569</ele>
        <time>2021-02-06T08:52:18Z</time>
      </trkpt>
      <trkpt lat="44.18941" lon="5.07891">
        <ele>568</ele>
        <time>2021-02-06T08:52:19Z</time>
      </trkpt>
      <trkpt lat="44.18942" lon="5.07889">
        <ele>567</ele>
        <time>2021-02-06T08:52:20Z</time>
      </trkpt>
      <trkpt lat="44.18944" lon="5.07886">
        <ele>567</ele>
        <time>2021-02-06T08:52:21Z</time>
      </trkpt>
      <trkpt lat="44.18945" lon="5.07882">
        <ele>566</ele>
        <time>2021-02-06T08:52:23Z</time>
      </trkpt>
      <trkpt lat="44.18946" lon="5.0788">
        <ele>566</ele>
        <time>2021-02-06T08:52:24Z</time>
      </trkpt>
      <trkpt lat="44.18947" lon="5.07877">
        <ele>565</ele>
        <time>2021-02-06T08:52:25Z</time>
      </trkpt>
      <trkpt lat="44.18948" lon="5.07875">
        <ele>565</ele>
        <time>2021-02-06T08:52:26Z</time>
      </trkpt>
      <trkpt lat="44.1895" lon="5.07873">
        <ele>564</ele>
        <time>2021-02-06T08:52:27Z</time>
      </trkpt>
      <trkpt lat="44.18951" lon="5.07871">
        <ele>564</ele>
        <time>2021-02-06T08:52:28Z</time>
      </trkpt>
      <trkpt lat="44.18952" lon="5.07868">
        <ele>563</ele>
        <time>2021-02-06T08:52:29Z</time>
      </trkpt>
      <trkpt lat="44.18953" lon="5.07865">
        <ele>563</ele>
        <time>2021-02-06T08:52:30Z</time>
      </trkpt>
      <trkpt lat="44.18954" lon="5.07863">
        <ele>562</ele>
        <time>2021-02-06T08:52:31Z</time>
      </trkpt>
      <trkpt lat="44.18959" lon="5.0785">
        <ele>561</ele>
        <time>2021-02-06T08:52:35Z</time>
      </trkpt>
      <trkpt lat="44.1896" lon="5.07848">
        <ele>561</ele>
        <time>2021-02-06T08:52:36Z</time>
      </trkpt>
      <trkpt lat="44.18961" lon="5.07846">
        <ele>560</ele>
        <time>2021-02-06T08:52:37Z</time>
      </trkpt>
      <trkpt lat="44.18963" lon="5.07844">
        <ele>560</ele>
        <time>2021-02-06T08:52:38Z</time>
      </trkpt>
      <trkpt lat="44.18964" lon="5.07841">
        <ele>559</ele>
        <time>2021-02-06T08:52:39Z</time>
      </trkpt>
      <trkpt lat="44.18965" lon="5.07839">
        <ele>559</ele>
        <time>2021-02-06T08:52:40Z</time>
      </trkpt>
      <trkpt lat="44.18966" lon="5.07836">
        <ele>559</ele>
        <time>2021-02-06T08:52:41Z</time>
      </trkpt>
      <trkpt lat="44.18967" lon="5.07833">
        <ele>559</ele>
        <time>2021-02-06T08:52:42Z</time>
      </trkpt>
      <trkpt lat="44.18968" lon="5.0783">
        <ele>558</ele>
        <time>2021-02-06T08:52:43Z</time>
      </trkpt>
      <trkpt lat="44.18969" lon="5.07827">
        <ele>558</ele>
        <time>2021-02-06T08:52:44Z</time>
      </trkpt>
      <trkpt lat="44.1897" lon="5.07824">
        <ele>557</ele>
        <time>2021-02-06T08:52:45Z</time>
      </trkpt>
      <trkpt lat="44.18971" lon="5.07822">
        <ele>557</ele>
        <time>2021-02-06T08:52:46Z</time>
      </trkpt>
      <trkpt lat="44.18972" lon="5.07816">
        <ele>556</ele>
        <time>2021-02-06T08:52:48Z</time>
      </trkpt>
      <trkpt lat="44.18976" lon="5.07804">
        <ele>554</ele>
        <time>2021-02-06T08:52:52Z</time>
      </trkpt>
      <trkpt lat="44.18977" lon="5.07791">
        <ele>553</ele>
        <time>2021-02-06T08:52:55Z</time>
      </trkpt>
      <trkpt lat="44.18979" lon="5.07775">
        <ele>552</ele>
        <time>2021-02-06T08:52:59Z</time>
      </trkpt>
      <trkpt lat="44.18981" lon="5.0776">
        <ele>551</ele>
        <time>2021-02-06T08:53:04Z</time>
      </trkpt>
      <trkpt lat="44.18982" lon="5.07749">
        <ele>550</ele>
        <time>2021-02-06T08:53:07Z</time>
      </trkpt>
      <trkpt lat="44.18982" lon="5.07745">
        <ele>550</ele>
        <time>2021-02-06T08:53:08Z</time>
      </trkpt>
      <trkpt lat="44.18982" lon="5.0773">
        <ele>550</ele>
        <time>2021-02-06T08:53:12Z</time>
      </trkpt>
      <trkpt lat="44.18983" lon="5.07721">
        <ele>549</ele>
        <time>2021-02-06T08:53:15Z</time>
      </trkpt>
      <trkpt lat="44.18983" lon="5.07718">
        <ele>549</ele>
        <time>2021-02-06T08:53:16Z</time>
      </trkpt>
      <trkpt lat="44.18983" lon="5.07702">
        <ele>549</ele>
        <time>2021-02-06T08:53:21Z</time>
      </trkpt>
      <trkpt lat="44.18985" lon="5.07688">
        <ele>548</ele>
        <time>2021-02-06T08:53:24Z</time>
      </trkpt>
      <trkpt lat="44.18989" lon="5.07674">
        <ele>546</ele>
        <time>2021-02-06T08:53:28Z</time>
      </trkpt>
      <trkpt lat="44.18991" lon="5.07662">
        <ele>545</ele>
        <time>2021-02-06T08:53:32Z</time>
      </trkpt>
      <trkpt lat="44.18992" lon="5.07653">
        <ele>544</ele>
        <time>2021-02-06T08:53:35Z</time>
      </trkpt>
      <trkpt lat="44.18993" lon="5.0765">
        <ele>544</ele>
        <time>2021-02-06T08:53:36Z</time>
      </trkpt>
      <trkpt lat="44.18994" lon="5.07637">
        <ele>543</ele>
        <time>2021-02-06T08:53:40Z</time>
      </trkpt>
      <trkpt lat="44.18997" lon="5.07624">
        <ele>541</ele>
        <time>2021-02-06T08:53:44Z</time>
      </trkpt>
      <trkpt lat="44.18999" lon="5.07611">
        <ele>540</ele>
        <time>2021-02-06T08:53:48Z</time>
      </trkpt>
      <trkpt lat="44.19" lon="5.07595">
        <ele>540</ele>
        <time>2021-02-06T08:53:53Z</time>
      </trkpt>
      <trkpt lat="44.19001" lon="5.07582">
        <ele>539</ele>
        <time>2021-02-06T08:53:57Z</time>
      </trkpt>
      <trkpt lat="44.19002" lon="5.07569">
        <ele>539</ele>
        <time>2021-02-06T08:54:02Z</time>
      </trkpt>
      <trkpt lat="44.19002" lon="5.07566">
        <ele>539</ele>
        <time>2021-02-06T08:54:03Z</time>
      </trkpt>
      <trkpt lat="44.19002" lon="5.07551">
        <ele>539</ele>
        <time>2021-02-06T08:54:07Z</time>
      </trkpt>
      <trkpt lat="44.19003" lon="5.07536">
        <ele>538</ele>
        <time>2021-02-06T08:54:11Z</time>
      </trkpt>
      <trkpt lat="44.19005" lon="5.07521">
        <ele>538</ele>
        <time>2021-02-06T08:54:15Z</time>
      </trkpt>
      <trkpt lat="44.19006" lon="5.07515">
        <ele>538</ele>
        <time>2021-02-06T08:54:17Z</time>
      </trkpt>
      <trkpt lat="44.19007" lon="5.07505">
        <ele>537</ele>
        <time>2021-02-06T08:54:20Z</time>
      </trkpt>
      <trkpt lat="44.19008" lon="5.0749">
        <ele>538</ele>
        <time>2021-02-06T08:54:24Z</time>
      </trkpt>
      <trkpt lat="44.1901" lon="5.07477">
        <ele>538</ele>
        <time>2021-02-06T08:54:27Z</time>
      </trkpt>
      <trkpt lat="44.19011" lon="5.07463">
        <ele>538</ele>
        <time>2021-02-06T08:54:31Z</time>
      </trkpt>
      <trkpt lat="44.19014" lon="5.07451">
        <ele>538</ele>
        <time>2021-02-06T08:54:35Z</time>
      </trkpt>
      <trkpt lat="44.19017" lon="5.07437">
        <ele>537</ele>
        <time>2021-02-06T08:54:39Z</time>
      </trkpt>
      <trkpt lat="44.19022" lon="5.07423">
        <ele>537</ele>
        <time>2021-02-06T08:54:44Z</time>
      </trkpt>
      <trkpt lat="44.19026" lon="5.0741">
        <ele>536</ele>
        <time>2021-02-06T08:54:48Z</time>
      </trkpt>
      <trkpt lat="44.19032" lon="5.07398">
        <ele>536</ele>
        <time>2021-02-06T08:54:52Z</time>
      </trkpt>
      <trkpt lat="44.19039" lon="5.07387">
        <ele>536</ele>
        <time>2021-02-06T08:54:57Z</time>
      </trkpt>
      <trkpt lat="44.19049" lon="5.0739">
        <ele>535</ele>
        <time>2021-02-06T08:55:00Z</time>
      </trkpt>
      <trkpt lat="44.19056" lon="5.07393">
        <ele>534</ele>
        <time>2021-02-06T08:55:03Z</time>
      </trkpt>
      <trkpt lat="44.19058" lon="5.07394">
        <ele>534</ele>
        <time>2021-02-06T08:55:04Z</time>
      </trkpt>
      <trkpt lat="44.19061" lon="5.07396">
        <ele>534</ele>
        <time>2021-02-06T08:55:05Z</time>
      </trkpt>
      <trkpt lat="44.19063" lon="5.07397">
        <ele>534</ele>
        <time>2021-02-06T08:55:06Z</time>
      </trkpt>
      <trkpt lat="44.19066" lon="5.07398">
        <ele>534</ele>
        <time>2021-02-06T08:55:07Z</time>
      </trkpt>
      <trkpt lat="44.19068" lon="5.07399">
        <ele>534</ele>
        <time>2021-02-06T08:55:08Z</time>
      </trkpt>
      <trkpt lat="44.1907" lon="5.07401">
        <ele>533</ele>
        <time>2021-02-06T08:55:09Z</time>
      </trkpt>
      <trkpt lat="44.19073" lon="5.07403">
        <ele>533</ele>
        <time>2021-02-06T08:55:10Z</time>
      </trkpt>
      <trkpt lat="44.19075" lon="5.07405">
        <ele>533</ele>
        <time>2021-02-06T08:55:11Z</time>
      </trkpt>
      <trkpt lat="44.19077" lon="5.07406">
        <ele>533</ele>
        <time>2021-02-06T08:55:12Z</time>
      </trkpt>
      <trkpt lat="44.1908" lon="5.07407">
        <ele>533</ele>
        <time>2021-02-06T08:55:13Z</time>
      </trkpt>
      <trkpt lat="44.19082" lon="5.07408">
        <ele>533</ele>
        <time>2021-02-06T08:55:14Z</time>
      </trkpt>
      <trkpt lat="44.19085" lon="5.07408">
        <ele>533</ele>
        <time>2021-02-06T08:55:15Z</time>
      </trkpt>
      <trkpt lat="44.19088" lon="5.07409">
        <ele>533</ele>
        <time>2021-02-06T08:55:16Z</time>
      </trkpt>
      <trkpt lat="44.1909" lon="5.07409">
        <ele>533</ele>
        <time>2021-02-06T08:55:17Z</time>
      </trkpt>
      <trkpt lat="44.19094" lon="5.07411">
        <ele>533</ele>
        <time>2021-02-06T08:55:19Z</time>
      </trkpt>
      <trkpt lat="44.19096" lon="5.07412">
        <ele>533</ele>
        <time>2021-02-06T08:55:20Z</time>
      </trkpt>
      <trkpt lat="44.19098" lon="5.07412">
        <ele>533</ele>
        <time>2021-02-06T08:55:21Z</time>
      </trkpt>
      <trkpt lat="44.19101" lon="5.07412">
        <ele>534</ele>
        <time>2021-02-06T08:55:22Z</time>
      </trkpt>
      <trkpt lat="44.19103" lon="5.07412">
        <ele>534</ele>
        <time>2021-02-06T08:55:23Z</time>
      </trkpt>
      <trkpt lat="44.19106" lon="5.07411">
        <ele>535</ele>
        <time>2021-02-06T08:55:24Z</time>
      </trkpt>
      <trkpt lat="44.19108" lon="5.0741">
        <ele>535</ele>
        <time>2021-02-06T08:55:25Z</time>
      </trkpt>
      <trkpt lat="44.1911" lon="5.0741">
        <ele>535</ele>
        <time>2021-02-06T08:55:26Z</time>
      </trkpt>
      <trkpt lat="44.19113" lon="5.0741">
        <ele>535</ele>
        <time>2021-02-06T08:55:28Z</time>
      </trkpt>
      <trkpt lat="44.19115" lon="5.07411">
        <ele>535</ele>
        <time>2021-02-06T08:55:29Z</time>
      </trkpt>
      <trkpt lat="44.19117" lon="5.07413">
        <ele>535</ele>
        <time>2021-02-06T08:55:30Z</time>
      </trkpt>
      <trkpt lat="44.19119" lon="5.07414">
        <ele>535</ele>
        <time>2021-02-06T08:55:31Z</time>
      </trkpt>
      <trkpt lat="44.19122" lon="5.07416">
        <ele>535</ele>
        <time>2021-02-06T08:55:32Z</time>
      </trkpt>
      <trkpt lat="44.19124" lon="5.07418">
        <ele>534</ele>
        <time>2021-02-06T08:55:33Z</time>
      </trkpt>
      <trkpt lat="44.19127" lon="5.07419">
        <ele>534</ele>
        <time>2021-02-06T08:55:34Z</time>
      </trkpt>
      <trkpt lat="44.19129" lon="5.0742">
        <ele>534</ele>
        <time>2021-02-06T08:55:35Z</time>
      </trkpt>
      <trkpt lat="44.19132" lon="5.07422">
        <ele>534</ele>
        <time>2021-02-06T08:55:36Z</time>
      </trkpt>
      <trkpt lat="44.19134" lon="5.07423">
        <ele>534</ele>
        <time>2021-02-06T08:55:37Z</time>
      </trkpt>
      <trkpt lat="44.19137" lon="5.07423">
        <ele>534</ele>
        <time>2021-02-06T08:55:38Z</time>
      </trkpt>
      <trkpt lat="44.1914" lon="5.07424">
        <ele>534</ele>
        <time>2021-02-06T08:55:39Z</time>
      </trkpt>
      <trkpt lat="44.19142" lon="5.07423">
        <ele>533</ele>
        <time>2021-02-06T08:55:40Z</time>
      </trkpt>
      <trkpt lat="44.19144" lon="5.07422">
        <ele>533</ele>
        <time>2021-02-06T08:55:41Z</time>
      </trkpt>
      <trkpt lat="44.19146" lon="5.0742">
        <ele>533</ele>
        <time>2021-02-06T08:55:42Z</time>
      </trkpt>
      <trkpt lat="44.19148" lon="5.07418">
        <ele>532</ele>
        <time>2021-02-06T08:55:43Z</time>
      </trkpt>
      <trkpt lat="44.19149" lon="5.07416">
        <ele>532</ele>
        <time>2021-02-06T08:55:44Z</time>
      </trkpt>
      <trkpt lat="44.1915" lon="5.07413">
        <ele>532</ele>
        <time>2021-02-06T08:55:45Z</time>
      </trkpt>
      <trkpt lat="44.19152" lon="5.07409">
        <ele>531</ele>
        <time>2021-02-06T08:55:47Z</time>
      </trkpt>
      <trkpt lat="44.19153" lon="5.07406">
        <ele>531</ele>
        <time>2021-02-06T08:55:48Z</time>
      </trkpt>
      <trkpt lat="44.19154" lon="5.07404">
        <ele>530</ele>
        <time>2021-02-06T08:55:49Z</time>
      </trkpt>
      <trkpt lat="44.19154" lon="5.07401">
        <ele>530</ele>
        <time>2021-02-06T08:55:50Z</time>
      </trkpt>
      <trkpt lat="44.19155" lon="5.07398">
        <ele>530</ele>
        <time>2021-02-06T08:55:51Z</time>
      </trkpt>
      <trkpt lat="44.19156" lon="5.07396">
        <ele>529</ele>
        <time>2021-02-06T08:55:52Z</time>
      </trkpt>
      <trkpt lat="44.19157" lon="5.07392">
        <ele>529</ele>
        <time>2021-02-06T08:55:54Z</time>
      </trkpt>
      <trkpt lat="44.19158" lon="5.07386">
        <ele>528</ele>
        <time>2021-02-06T08:55:56Z</time>
      </trkpt>
      <trkpt lat="44.19159" lon="5.07383">
        <ele>527</ele>
        <time>2021-02-06T08:55:57Z</time>
      </trkpt>
      <trkpt lat="44.19162" lon="5.0737">
        <ele>525</ele>
        <time>2021-02-06T08:56:01Z</time>
      </trkpt>
      <trkpt lat="44.19165" lon="5.07357">
        <ele>522</ele>
        <time>2021-02-06T08:56:06Z</time>
      </trkpt>
      <trkpt lat="44.19168" lon="5.07344">
        <ele>520</ele>
        <time>2021-02-06T08:56:10Z</time>
      </trkpt>
      <trkpt lat="44.19167" lon="5.07329">
        <ele>519</ele>
        <time>2021-02-06T08:56:14Z</time>
      </trkpt>
      <trkpt lat="44.19165" lon="5.07314">
        <ele>519</ele>
        <time>2021-02-06T08:56:19Z</time>
      </trkpt>
      <trkpt lat="44.19167" lon="5.073">
        <ele>517</ele>
        <time>2021-02-06T08:56:24Z</time>
      </trkpt>
      <trkpt lat="44.19171" lon="5.07287">
        <ele>515</ele>
        <time>2021-02-06T08:56:28Z</time>
      </trkpt>
      <trkpt lat="44.19171" lon="5.07272">
        <ele>514</ele>
        <time>2021-02-06T08:56:33Z</time>
      </trkpt>
      <trkpt lat="44.19174" lon="5.07259">
        <ele>513</ele>
        <time>2021-02-06T08:56:37Z</time>
      </trkpt>
      <trkpt lat="44.19177" lon="5.07247">
        <ele>512</ele>
        <time>2021-02-06T08:56:40Z</time>
      </trkpt>
      <trkpt lat="44.19182" lon="5.07233">
        <ele>511</ele>
        <time>2021-02-06T08:56:44Z</time>
      </trkpt>
      <trkpt lat="44.19187" lon="5.07219">
        <ele>511</ele>
        <time>2021-02-06T08:56:48Z</time>
      </trkpt>
      <trkpt lat="44.1919" lon="5.07207">
        <ele>512</ele>
        <time>2021-02-06T08:56:51Z</time>
      </trkpt>
      <trkpt lat="44.19196" lon="5.07195">
        <ele>513</ele>
        <time>2021-02-06T08:56:55Z</time>
      </trkpt>
      <trkpt lat="44.19199" lon="5.07191">
        <ele>514</ele>
        <time>2021-02-06T08:56:57Z</time>
      </trkpt>
      <trkpt lat="44.19201" lon="5.07189">
        <ele>514</ele>
        <time>2021-02-06T08:56:59Z</time>
      </trkpt>
      <trkpt lat="44.19203" lon="5.07188">
        <ele>514</ele>
        <time>2021-02-06T08:57:01Z</time>
      </trkpt>
      <trkpt lat="44.19205" lon="5.07186">
        <ele>514</ele>
        <time>2021-02-06T08:57:04Z</time>
      </trkpt>
      <trkpt lat="44.19207" lon="5.07185">
        <ele>514</ele>
        <time>2021-02-06T08:57:09Z</time>
      </trkpt>
      <trkpt lat="44.19209" lon="5.07185">
        <ele>515</ele>
        <time>2021-02-06T08:57:11Z</time>
      </trkpt>
      <trkpt lat="44.19211" lon="5.07185">
        <ele>515</ele>
        <time>2021-02-06T08:57:14Z</time>
      </trkpt>
      <trkpt lat="44.19214" lon="5.07185">
        <ele>515</ele>
        <time>2021-02-06T08:57:16Z</time>
      </trkpt>
      <trkpt lat="44.19217" lon="5.07185">
        <ele>515</ele>
        <time>2021-02-06T08:57:18Z</time>
      </trkpt>
      <trkpt lat="44.19221" lon="5.07184">
        <ele>516</ele>
        <time>2021-02-06T08:57:20Z</time>
      </trkpt>
      <trkpt lat="44.19222" lon="5.07183">
        <ele>516</ele>
        <time>2021-02-06T08:57:21Z</time>
      </trkpt>
      <trkpt lat="44.19225" lon="5.07182">
        <ele>516</ele>
        <time>2021-02-06T08:57:23Z</time>
      </trkpt>
      <trkpt lat="44.19228" lon="5.07181">
        <ele>517</ele>
        <time>2021-02-06T08:57:24Z</time>
      </trkpt>
      <trkpt lat="44.1923" lon="5.07179">
        <ele>517</ele>
        <time>2021-02-06T08:57:25Z</time>
      </trkpt>
      <trkpt lat="44.19232" lon="5.07178">
        <ele>517</ele>
        <time>2021-02-06T08:57:26Z</time>
      </trkpt>
      <trkpt lat="44.19235" lon="5.07176">
        <ele>517</ele>
        <time>2021-02-06T08:57:27Z</time>
      </trkpt>
      <trkpt lat="44.19238" lon="5.07175">
        <ele>518</ele>
        <time>2021-02-06T08:57:28Z</time>
      </trkpt>
      <trkpt lat="44.1924" lon="5.07173">
        <ele>518</ele>
        <time>2021-02-06T08:57:29Z</time>
      </trkpt>
      <trkpt lat="44.19242" lon="5.07171">
        <ele>518</ele>
        <time>2021-02-06T08:57:30Z</time>
      </trkpt>
      <trkpt lat="44.19244" lon="5.0717">
        <ele>518</ele>
        <time>2021-02-06T08:57:31Z</time>
      </trkpt>
      <trkpt lat="44.19246" lon="5.07168">
        <ele>519</ele>
        <time>2021-02-06T08:57:32Z</time>
      </trkpt>
      <trkpt lat="44.19248" lon="5.07166">
        <ele>519</ele>
        <time>2021-02-06T08:57:33Z</time>
      </trkpt>
      <trkpt lat="44.19251" lon="5.07164">
        <ele>519</ele>
        <time>2021-02-06T08:57:34Z</time>
      </trkpt>
      <trkpt lat="44.19252" lon="5.07162">
        <ele>518</ele>
        <time>2021-02-06T08:57:35Z</time>
      </trkpt>
      <trkpt lat="44.19254" lon="5.0716">
        <ele>518</ele>
        <time>2021-02-06T08:57:36Z</time>
      </trkpt>
      <trkpt lat="44.19256" lon="5.07158">
        <ele>517</ele>
        <time>2021-02-06T08:57:37Z</time>
      </trkpt>
      <trkpt lat="44.19258" lon="5.07156">
        <ele>517</ele>
        <time>2021-02-06T08:57:38Z</time>
      </trkpt>
      <trkpt lat="44.1926" lon="5.07154">
        <ele>516</ele>
        <time>2021-02-06T08:57:39Z</time>
      </trkpt>
      <trkpt lat="44.19263" lon="5.07152">
        <ele>516</ele>
        <time>2021-02-06T08:57:40Z</time>
      </trkpt>
      <trkpt lat="44.19264" lon="5.07149">
        <ele>516</ele>
        <time>2021-02-06T08:57:41Z</time>
      </trkpt>
      <trkpt lat="44.19266" lon="5.07148">
        <ele>516</ele>
        <time>2021-02-06T08:57:42Z</time>
      </trkpt>
      <trkpt lat="44.19267" lon="5.07145">
        <ele>515</ele>
        <time>2021-02-06T08:57:43Z</time>
      </trkpt>
      <trkpt lat="44.19269" lon="5.07143">
        <ele>515</ele>
        <time>2021-02-06T08:57:44Z</time>
      </trkpt>
      <trkpt lat="44.19272" lon="5.07141">
        <ele>515</ele>
        <time>2021-02-06T08:57:45Z</time>
      </trkpt>
      <trkpt lat="44.19274" lon="5.07139">
        <ele>515</ele>
        <time>2021-02-06T08:57:46Z</time>
      </trkpt>
      <trkpt lat="44.19276" lon="5.07137">
        <ele>515</ele>
        <time>2021-02-06T08:57:47Z</time>
      </trkpt>
      <trkpt lat="44.19278" lon="5.07136">
        <ele>515</ele>
        <time>2021-02-06T08:57:48Z</time>
      </trkpt>
      <trkpt lat="44.19281" lon="5.07134">
        <ele>514</ele>
        <time>2021-02-06T08:57:49Z</time>
      </trkpt>
      <trkpt lat="44.19282" lon="5.07132">
        <ele>514</ele>
        <time>2021-02-06T08:57:50Z</time>
      </trkpt>
      <trkpt lat="44.19284" lon="5.0713">
        <ele>513</ele>
        <time>2021-02-06T08:57:51Z</time>
      </trkpt>
      <trkpt lat="44.19286" lon="5.07127">
        <ele>513</ele>
        <time>2021-02-06T08:57:52Z</time>
      </trkpt>
      <trkpt lat="44.19288" lon="5.07126">
        <ele>512</ele>
        <time>2021-02-06T08:57:53Z</time>
      </trkpt>
      <trkpt lat="44.1929" lon="5.07124">
        <ele>512</ele>
        <time>2021-02-06T08:57:54Z</time>
      </trkpt>
      <trkpt lat="44.19292" lon="5.07123">
        <ele>512</ele>
        <time>2021-02-06T08:57:55Z</time>
      </trkpt>
      <trkpt lat="44.19295" lon="5.07122">
        <ele>511</ele>
        <time>2021-02-06T08:57:56Z</time>
      </trkpt>
      <trkpt lat="44.19297" lon="5.07122">
        <ele>511</ele>
        <time>2021-02-06T08:57:57Z</time>
      </trkpt>
      <trkpt lat="44.19299" lon="5.07122">
        <ele>511</ele>
        <time>2021-02-06T08:57:58Z</time>
      </trkpt>
      <trkpt lat="44.19301" lon="5.07122">
        <ele>510</ele>
        <time>2021-02-06T08:57:59Z</time>
      </trkpt>
      <trkpt lat="44.19304" lon="5.07122">
        <ele>510</ele>
        <time>2021-02-06T08:58:00Z</time>
      </trkpt>
      <trkpt lat="44.19306" lon="5.07122">
        <ele>510</ele>
        <time>2021-02-06T08:58:01Z</time>
      </trkpt>
      <trkpt lat="44.19308" lon="5.07123">
        <ele>510</ele>
        <time>2021-02-06T08:58:02Z</time>
      </trkpt>
      <trkpt lat="44.19311" lon="5.07123">
        <ele>510</ele>
        <time>2021-02-06T08:58:03Z</time>
      </trkpt>
      <trkpt lat="44.19314" lon="5.07123">
        <ele>510</ele>
        <time>2021-02-06T08:58:04Z</time>
      </trkpt>
      <trkpt lat="44.19317" lon="5.07122">
        <ele>510</ele>
        <time>2021-02-06T08:58:05Z</time>
      </trkpt>
      <trkpt lat="44.19319" lon="5.07121">
        <ele>510</ele>
        <time>2021-02-06T08:58:06Z</time>
      </trkpt>
      <trkpt lat="44.19321" lon="5.0712">
        <ele>510</ele>
        <time>2021-02-06T08:58:07Z</time>
      </trkpt>
      <trkpt lat="44.19324" lon="5.07119">
        <ele>510</ele>
        <time>2021-02-06T08:58:08Z</time>
      </trkpt>
      <trkpt lat="44.19326" lon="5.07117">
        <ele>510</ele>
        <time>2021-02-06T08:58:09Z</time>
      </trkpt>
      <trkpt lat="44.19329" lon="5.07116">
        <ele>510</ele>
        <time>2021-02-06T08:58:10Z</time>
      </trkpt>
      <trkpt lat="44.19331" lon="5.07114">
        <ele>510</ele>
        <time>2021-02-06T08:58:11Z</time>
      </trkpt>
      <trkpt lat="44.19333" lon="5.07111">
        <ele>510</ele>
        <time>2021-02-06T08:58:12Z</time>
      </trkpt>
      <trkpt lat="44.19336" lon="5.07109">
        <ele>510</ele>
        <time>2021-02-06T08:58:13Z</time>
      </trkpt>
      <trkpt lat="44.19339" lon="5.07107">
        <ele>510</ele>
        <time>2021-02-06T08:58:14Z</time>
      </trkpt>
      <trkpt lat="44.19342" lon="5.07105">
        <ele>510</ele>
        <time>2021-02-06T08:58:15Z</time>
      </trkpt>
      <trkpt lat="44.19343" lon="5.07103">
        <ele>510</ele>
        <time>2021-02-06T08:58:16Z</time>
      </trkpt>
      <trkpt lat="44.19345" lon="5.071">
        <ele>510</ele>
        <time>2021-02-06T08:58:17Z</time>
      </trkpt>
      <trkpt lat="44.19347" lon="5.07098">
        <ele>510</ele>
        <time>2021-02-06T08:58:18Z</time>
      </trkpt>
      <trkpt lat="44.19348" lon="5.07096">
        <ele>510</ele>
        <time>2021-02-06T08:58:19Z</time>
      </trkpt>
      <trkpt lat="44.1935" lon="5.07094">
        <ele>510</ele>
        <time>2021-02-06T08:58:20Z</time>
      </trkpt>
      <trkpt lat="44.19351" lon="5.07091">
        <ele>510</ele>
        <time>2021-02-06T08:58:21Z</time>
      </trkpt>
      <trkpt lat="44.19352" lon="5.07088">
        <ele>510</ele>
        <time>2021-02-06T08:58:22Z</time>
      </trkpt>
      <trkpt lat="44.19354" lon="5.07085">
        <ele>510</ele>
        <time>2021-02-06T08:58:23Z</time>
      </trkpt>
      <trkpt lat="44.19356" lon="5.07083">
        <ele>510</ele>
        <time>2021-02-06T08:58:24Z</time>
      </trkpt>
      <trkpt lat="44.19359" lon="5.07082">
        <ele>510</ele>
        <time>2021-02-06T08:58:25Z</time>
      </trkpt>
      <trkpt lat="44.19361" lon="5.0708">
        <ele>510</ele>
        <time>2021-02-06T08:58:26Z</time>
      </trkpt>
      <trkpt lat="44.19363" lon="5.07079">
        <ele>510</ele>
        <time>2021-02-06T08:58:27Z</time>
      </trkpt>
      <trkpt lat="44.19365" lon="5.07077">
        <ele>510</ele>
        <time>2021-02-06T08:58:28Z</time>
      </trkpt>
      <trkpt lat="44.19367" lon="5.07076">
        <ele>510</ele>
        <time>2021-02-06T08:58:29Z</time>
      </trkpt>
      <trkpt lat="44.19369" lon="5.07074">
        <ele>510</ele>
        <time>2021-02-06T08:58:30Z</time>
      </trkpt>
      <trkpt lat="44.19371" lon="5.07072">
        <ele>510</ele>
        <time>2021-02-06T08:58:31Z</time>
      </trkpt>
      <trkpt lat="44.19373" lon="5.0707">
        <ele>510</ele>
        <time>2021-02-06T08:58:32Z</time>
      </trkpt>
      <trkpt lat="44.19375" lon="5.07068">
        <ele>510</ele>
        <time>2021-02-06T08:58:33Z</time>
      </trkpt>
      <trkpt lat="44.19377" lon="5.07066">
        <ele>510</ele>
        <time>2021-02-06T08:58:34Z</time>
      </trkpt>
      <trkpt lat="44.19379" lon="5.07065">
        <ele>510</ele>
        <time>2021-02-06T08:58:35Z</time>
      </trkpt>
      <trkpt lat="44.19381" lon="5.07063">
        <ele>510</ele>
        <time>2021-02-06T08:58:36Z</time>
      </trkpt>
      <trkpt lat="44.19383" lon="5.07061">
        <ele>510</ele>
        <time>2021-02-06T08:58:37Z</time>
      </trkpt>
      <trkpt lat="44.19385" lon="5.07059">
        <ele>510</ele>
        <time>2021-02-06T08:58:38Z</time>
      </trkpt>
      <trkpt lat="44.19387" lon="5.07058">
        <ele>510</ele>
        <time>2021-02-06T08:58:39Z</time>
      </trkpt>
      <trkpt lat="44.1939" lon="5.07058">
        <ele>510</ele>
        <time>2021-02-06T08:58:40Z</time>
      </trkpt>
      <trkpt lat="44.19392" lon="5.07057">
        <ele>510</ele>
        <time>2021-02-06T08:58:41Z</time>
      </trkpt>
      <trkpt lat="44.19395" lon="5.07056">
        <ele>510</ele>
        <time>2021-02-06T08:58:42Z</time>
      </trkpt>
      <trkpt lat="44.19397" lon="5.07055">
        <ele>510</ele>
        <time>2021-02-06T08:58:43Z</time>
      </trkpt>
      <trkpt lat="44.194" lon="5.07054">
        <ele>510</ele>
        <time>2021-02-06T08:58:44Z</time>
      </trkpt>
      <trkpt lat="44.19402" lon="5.07053">
        <ele>510</ele>
        <time>2021-02-06T08:58:45Z</time>
      </trkpt>
      <trkpt lat="44.19404" lon="5.07052">
        <ele>510</ele>
        <time>2021-02-06T08:58:46Z</time>
      </trkpt>
      <trkpt lat="44.19405" lon="5.07051">
        <ele>510</ele>
        <time>2021-02-06T08:58:47Z</time>
      </trkpt>
      <trkpt lat="44.19408" lon="5.0705">
        <ele>510</ele>
        <time>2021-02-06T08:58:48Z</time>
      </trkpt>
      <trkpt lat="44.1941" lon="5.07048">
        <ele>510</ele>
        <time>2021-02-06T08:58:49Z</time>
      </trkpt>
      <trkpt lat="44.19418" lon="5.07044">
        <ele>510</ele>
        <time>2021-02-06T08:58:53Z</time>
      </trkpt>
      <trkpt lat="44.19428" lon="5.07038">
        <ele>510</ele>
        <time>2021-02-06T08:58:57Z</time>
      </trkpt>
      <trkpt lat="44.19438" lon="5.07033">
        <ele>510</ele>
        <time>2021-02-06T08:59:01Z</time>
      </trkpt>
      <trkpt lat="44.1945" lon="5.0703">
        <ele>508</ele>
        <time>2021-02-06T08:59:05Z</time>
      </trkpt>
      <trkpt lat="44.1946" lon="5.07023">
        <ele>507</ele>
        <time>2021-02-06T08:59:09Z</time>
      </trkpt>
      <trkpt lat="44.1947" lon="5.07016">
        <ele>506</ele>
        <time>2021-02-06T08:59:13Z</time>
      </trkpt>
      <trkpt lat="44.1948" lon="5.07008">
        <ele>506</ele>
        <time>2021-02-06T08:59:17Z</time>
      </trkpt>
      <trkpt lat="44.1949" lon="5.07001">
        <ele>506</ele>
        <time>2021-02-06T08:59:21Z</time>
      </trkpt>
      <trkpt lat="44.19492" lon="5.07">
        <ele>505</ele>
        <time>2021-02-06T08:59:22Z</time>
      </trkpt>
      <trkpt lat="44.19502" lon="5.06996">
        <ele>505</ele>
        <time>2021-02-06T08:59:26Z</time>
      </trkpt>
      <trkpt lat="44.19511" lon="5.06996">
        <ele>504</ele>
        <time>2021-02-06T08:59:29Z</time>
      </trkpt>
      <trkpt lat="44.19514" lon="5.06996">
        <ele>504</ele>
        <time>2021-02-06T08:59:30Z</time>
      </trkpt>
      <trkpt lat="44.19517" lon="5.06996">
        <ele>504</ele>
        <time>2021-02-06T08:59:31Z</time>
      </trkpt>
      <trkpt lat="44.19519" lon="5.06996">
        <ele>504</ele>
        <time>2021-02-06T08:59:32Z</time>
      </trkpt>
      <trkpt lat="44.19529" lon="5.06996">
        <ele>503</ele>
        <time>2021-02-06T08:59:35Z</time>
      </trkpt>
      <trkpt lat="44.19537" lon="5.06999">
        <ele>503</ele>
        <time>2021-02-06T08:59:38Z</time>
      </trkpt>
      <trkpt lat="44.1954" lon="5.06999">
        <ele>503</ele>
        <time>2021-02-06T08:59:39Z</time>
      </trkpt>
      <trkpt lat="44.19542" lon="5.07001">
        <ele>503</ele>
        <time>2021-02-06T08:59:40Z</time>
      </trkpt>
      <trkpt lat="44.19545" lon="5.07003">
        <ele>503</ele>
        <time>2021-02-06T08:59:41Z</time>
      </trkpt>
      <trkpt lat="44.19548" lon="5.07004">
        <ele>503</ele>
        <time>2021-02-06T08:59:42Z</time>
      </trkpt>
      <trkpt lat="44.19551" lon="5.07006">
        <ele>504</ele>
        <time>2021-02-06T08:59:43Z</time>
      </trkpt>
      <trkpt lat="44.19553" lon="5.07008">
        <ele>504</ele>
        <time>2021-02-06T08:59:44Z</time>
      </trkpt>
      <trkpt lat="44.19555" lon="5.0701">
        <ele>504</ele>
        <time>2021-02-06T08:59:45Z</time>
      </trkpt>
      <trkpt lat="44.19558" lon="5.07012">
        <ele>504</ele>
        <time>2021-02-06T08:59:46Z</time>
      </trkpt>
      <trkpt lat="44.1956" lon="5.07014">
        <ele>504</ele>
        <time>2021-02-06T08:59:47Z</time>
      </trkpt>
      <trkpt lat="44.19563" lon="5.07016">
        <ele>504</ele>
        <time>2021-02-06T08:59:48Z</time>
      </trkpt>
      <trkpt lat="44.19565" lon="5.07017">
        <ele>504</ele>
        <time>2021-02-06T08:59:49Z</time>
      </trkpt>
      <trkpt lat="44.19567" lon="5.0702">
        <ele>504</ele>
        <time>2021-02-06T08:59:50Z</time>
      </trkpt>
      <trkpt lat="44.1957" lon="5.07022">
        <ele>504</ele>
        <time>2021-02-06T08:59:51Z</time>
      </trkpt>
      <trkpt lat="44.19572" lon="5.07024">
        <ele>504</ele>
        <time>2021-02-06T08:59:52Z</time>
      </trkpt>
      <trkpt lat="44.19575" lon="5.07027">
        <ele>504</ele>
        <time>2021-02-06T08:59:53Z</time>
      </trkpt>
      <trkpt lat="44.19578" lon="5.07029">
        <ele>504</ele>
        <time>2021-02-06T08:59:54Z</time>
      </trkpt>
      <trkpt lat="44.1958" lon="5.07031">
        <ele>504</ele>
        <time>2021-02-06T08:59:55Z</time>
      </trkpt>
      <trkpt lat="44.19583" lon="5.07033">
        <ele>504</ele>
        <time>2021-02-06T08:59:56Z</time>
      </trkpt>
      <trkpt lat="44.19585" lon="5.07034">
        <ele>504</ele>
        <time>2021-02-06T08:59:57Z</time>
      </trkpt>
      <trkpt lat="44.19586" lon="5.07036">
        <ele>504</ele>
        <time>2021-02-06T08:59:58Z</time>
      </trkpt>
      <trkpt lat="44.19588" lon="5.07037">
        <ele>504</ele>
        <time>2021-02-06T08:59:59Z</time>
      </trkpt>
      <trkpt lat="44.19593" lon="5.07039">
        <ele>503</ele>
        <time>2021-02-06T09:00:01Z</time>
      </trkpt>
      <trkpt lat="44.19596" lon="5.0704">
        <ele>503</ele>
        <time>2021-02-06T09:00:02Z</time>
      </trkpt>
      <trkpt lat="44.19598" lon="5.0704">
        <ele>503</ele>
        <time>2021-02-06T09:00:03Z</time>
      </trkpt>
      <trkpt lat="44.19601" lon="5.07041">
        <ele>503</ele>
        <time>2021-02-06T09:00:04Z</time>
      </trkpt>
      <trkpt lat="44.19604" lon="5.07041">
        <ele>503</ele>
        <time>2021-02-06T09:00:05Z</time>
      </trkpt>
      <trkpt lat="44.19606" lon="5.0704">
        <ele>503</ele>
        <time>2021-02-06T09:00:06Z</time>
      </trkpt>
      <trkpt lat="44.19608" lon="5.07038">
        <ele>503</ele>
        <time>2021-02-06T09:00:07Z</time>
      </trkpt>
      <trkpt lat="44.1961" lon="5.07036">
        <ele>503</ele>
        <time>2021-02-06T09:00:08Z</time>
      </trkpt>
      <trkpt lat="44.19613" lon="5.07033">
        <ele>504</ele>
        <time>2021-02-06T09:00:09Z</time>
      </trkpt>
      <trkpt lat="44.19614" lon="5.0703">
        <ele>504</ele>
        <time>2021-02-06T09:00:10Z</time>
      </trkpt>
      <trkpt lat="44.19615" lon="5.07026">
        <ele>504</ele>
        <time>2021-02-06T09:00:11Z</time>
      </trkpt>
      <trkpt lat="44.19616" lon="5.07023">
        <ele>504</ele>
        <time>2021-02-06T09:00:12Z</time>
      </trkpt>
      <trkpt lat="44.19617" lon="5.07019">
        <ele>504</ele>
        <time>2021-02-06T09:00:13Z</time>
      </trkpt>
      <trkpt lat="44.19617" lon="5.07016">
        <ele>504</ele>
        <time>2021-02-06T09:00:14Z</time>
      </trkpt>
      <trkpt lat="44.19618" lon="5.07012">
        <ele>505</ele>
        <time>2021-02-06T09:00:15Z</time>
      </trkpt>
      <trkpt lat="44.19618" lon="5.07009">
        <ele>505</ele>
        <time>2021-02-06T09:00:16Z</time>
      </trkpt>
      <trkpt lat="44.19619" lon="5.07006">
        <ele>505</ele>
        <time>2021-02-06T09:00:17Z</time>
      </trkpt>
      <trkpt lat="44.19619" lon="5.07003">
        <ele>505</ele>
        <time>2021-02-06T09:00:18Z</time>
      </trkpt>
      <trkpt lat="44.19619" lon="5.07001">
        <ele>505</ele>
        <time>2021-02-06T09:00:19Z</time>
      </trkpt>
      <trkpt lat="44.19619" lon="5.06998">
        <ele>505</ele>
        <time>2021-02-06T09:00:20Z</time>
      </trkpt>
      <trkpt lat="44.19619" lon="5.06996">
        <ele>505</ele>
        <time>2021-02-06T09:00:21Z</time>
      </trkpt>
      <trkpt lat="44.19619" lon="5.06993">
        <ele>505</ele>
        <time>2021-02-06T09:00:22Z</time>
      </trkpt>
      <trkpt lat="44.19621" lon="5.06981">
        <ele>506</ele>
        <time>2021-02-06T09:00:25Z</time>
      </trkpt>
      <trkpt lat="44.19621" lon="5.06977">
        <ele>506</ele>
        <time>2021-02-06T09:00:26Z</time>
      </trkpt>
      <trkpt lat="44.19621" lon="5.06973">
        <ele>506</ele>
        <time>2021-02-06T09:00:27Z</time>
      </trkpt>
      <trkpt lat="44.19622" lon="5.06965">
        <ele>506</ele>
        <time>2021-02-06T09:00:29Z</time>
      </trkpt>
      <trkpt lat="44.19621" lon="5.0696">
        <ele>506</ele>
        <time>2021-02-06T09:00:30Z</time>
      </trkpt>
      <trkpt lat="44.19622" lon="5.06956">
        <ele>507</ele>
        <time>2021-02-06T09:00:31Z</time>
      </trkpt>
      <trkpt lat="44.19622" lon="5.06952">
        <ele>507</ele>
        <time>2021-02-06T09:00:32Z</time>
      </trkpt>
      <trkpt lat="44.19622" lon="5.06948">
        <ele>507</ele>
        <time>2021-02-06T09:00:33Z</time>
      </trkpt>
      <trkpt lat="44.19621" lon="5.06945">
        <ele>507</ele>
        <time>2021-02-06T09:00:34Z</time>
      </trkpt>
      <trkpt lat="44.19621" lon="5.06941">
        <ele>507</ele>
        <time>2021-02-06T09:00:35Z</time>
      </trkpt>
      <trkpt lat="44.19621" lon="5.06937">
        <ele>507</ele>
        <time>2021-02-06T09:00:36Z</time>
      </trkpt>
      <trkpt lat="44.19621" lon="5.06933">
        <ele>507</ele>
        <time>2021-02-06T09:00:37Z</time>
      </trkpt>
      <trkpt lat="44.19621" lon="5.06929">
        <ele>507</ele>
        <time>2021-02-06T09:00:38Z</time>
      </trkpt>
      <trkpt lat="44.19622" lon="5.06926">
        <ele>507</ele>
        <time>2021-02-06T09:00:39Z</time>
      </trkpt>
      <trkpt lat="44.19622" lon="5.06922">
        <ele>507</ele>
        <time>2021-02-06T09:00:40Z</time>
      </trkpt>
      <trkpt lat="44.19622" lon="5.06918">
        <ele>507</ele>
        <time>2021-02-06T09:00:41Z</time>
      </trkpt>
      <trkpt lat="44.19622" lon="5.06914">
        <ele>507</ele>
        <time>2021-02-06T09:00:42Z</time>
      </trkpt>
      <trkpt lat="44.19621" lon="5.0691">
        <ele>506</ele>
        <time>2021-02-06T09:00:43Z</time>
      </trkpt>
      <trkpt lat="44.1962" lon="5.06906">
        <ele>506</ele>
        <time>2021-02-06T09:00:44Z</time>
      </trkpt>
      <trkpt lat="44.1962" lon="5.06902">
        <ele>506</ele>
        <time>2021-02-06T09:00:45Z</time>
      </trkpt>
      <trkpt lat="44.19619" lon="5.06899">
        <ele>505</ele>
        <time>2021-02-06T09:00:46Z</time>
      </trkpt>
      <trkpt lat="44.19618" lon="5.06895">
        <ele>505</ele>
        <time>2021-02-06T09:00:47Z</time>
      </trkpt>
      <trkpt lat="44.19617" lon="5.06892">
        <ele>505</ele>
        <time>2021-02-06T09:00:48Z</time>
      </trkpt>
      <trkpt lat="44.19615" lon="5.06888">
        <ele>505</ele>
        <time>2021-02-06T09:00:49Z</time>
      </trkpt>
      <trkpt lat="44.19614" lon="5.06885">
        <ele>505</ele>
        <time>2021-02-06T09:00:50Z</time>
      </trkpt>
      <trkpt lat="44.19612" lon="5.06883">
        <ele>504</ele>
        <time>2021-02-06T09:00:51Z</time>
      </trkpt>
      <trkpt lat="44.1961" lon="5.0688">
        <ele>504</ele>
        <time>2021-02-06T09:00:52Z</time>
      </trkpt>
      <trkpt lat="44.19608" lon="5.06878">
        <ele>504</ele>
        <time>2021-02-06T09:00:53Z</time>
      </trkpt>
      <trkpt lat="44.19607" lon="5.06875">
        <ele>504</ele>
        <time>2021-02-06T09:00:54Z</time>
      </trkpt>
      <trkpt lat="44.19604" lon="5.06872">
        <ele>504</ele>
        <time>2021-02-06T09:00:55Z</time>
      </trkpt>
      <trkpt lat="44.19602" lon="5.0687">
        <ele>504</ele>
        <time>2021-02-06T09:00:56Z</time>
      </trkpt>
      <trkpt lat="44.196" lon="5.06867">
        <ele>504</ele>
        <time>2021-02-06T09:00:57Z</time>
      </trkpt>
      <trkpt lat="44.19599" lon="5.06865">
        <ele>504</ele>
        <time>2021-02-06T09:00:58Z</time>
      </trkpt>
      <trkpt lat="44.19597" lon="5.06864">
        <ele>504</ele>
        <time>2021-02-06T09:00:59Z</time>
      </trkpt>
      <trkpt lat="44.19595" lon="5.06863">
        <ele>504</ele>
        <time>2021-02-06T09:01:00Z</time>
      </trkpt>
      <trkpt lat="44.19593" lon="5.06862">
        <ele>504</ele>
        <time>2021-02-06T09:01:01Z</time>
      </trkpt>
      <trkpt lat="44.19591" lon="5.06859">
        <ele>504</ele>
        <time>2021-02-06T09:01:03Z</time>
      </trkpt>
      <trkpt lat="44.19589" lon="5.06857">
        <ele>504</ele>
        <time>2021-02-06T09:01:04Z</time>
      </trkpt>
      <trkpt lat="44.19587" lon="5.06855">
        <ele>504</ele>
        <time>2021-02-06T09:01:05Z</time>
      </trkpt>
      <trkpt lat="44.19582" lon="5.06842">
        <ele>503</ele>
        <time>2021-02-06T09:01:09Z</time>
      </trkpt>
      <trkpt lat="44.19581" lon="5.06829">
        <ele>502</ele>
        <time>2021-02-06T09:01:12Z</time>
      </trkpt>
      <trkpt lat="44.19579" lon="5.06816">
        <ele>503</ele>
        <time>2021-02-06T09:01:15Z</time>
      </trkpt>
      <trkpt lat="44.19579" lon="5.06801">
        <ele>503</ele>
        <time>2021-02-06T09:01:19Z</time>
      </trkpt>
      <trkpt lat="44.19579" lon="5.06785">
        <ele>503</ele>
        <time>2021-02-06T09:01:23Z</time>
      </trkpt>
      <trkpt lat="44.19579" lon="5.0678">
        <ele>504</ele>
        <time>2021-02-06T09:01:24Z</time>
      </trkpt>
      <trkpt lat="44.19579" lon="5.06776">
        <ele>504</ele>
        <time>2021-02-06T09:01:25Z</time>
      </trkpt>
      <trkpt lat="44.19579" lon="5.06772">
        <ele>503</ele>
        <time>2021-02-06T09:01:26Z</time>
      </trkpt>
      <trkpt lat="44.19579" lon="5.06769">
        <ele>503</ele>
        <time>2021-02-06T09:01:27Z</time>
      </trkpt>
      <trkpt lat="44.19579" lon="5.06765">
        <ele>503</ele>
        <time>2021-02-06T09:01:28Z</time>
      </trkpt>
      <trkpt lat="44.19578" lon="5.06761">
        <ele>503</ele>
        <time>2021-02-06T09:01:29Z</time>
      </trkpt>
      <trkpt lat="44.19578" lon="5.06758">
        <ele>503</ele>
        <time>2021-02-06T09:01:30Z</time>
      </trkpt>
      <trkpt lat="44.19577" lon="5.06755">
        <ele>503</ele>
        <time>2021-02-06T09:01:31Z</time>
      </trkpt>
      <trkpt lat="44.19576" lon="5.06752">
        <ele>503</ele>
        <time>2021-02-06T09:01:32Z</time>
      </trkpt>
      <trkpt lat="44.19576" lon="5.06749">
        <ele>503</ele>
        <time>2021-02-06T09:01:33Z</time>
      </trkpt>
      <trkpt lat="44.19575" lon="5.06746">
        <ele>503</ele>
        <time>2021-02-06T09:01:34Z</time>
      </trkpt>
      <trkpt lat="44.19574" lon="5.06742">
        <ele>503</ele>
        <time>2021-02-06T09:01:35Z</time>
      </trkpt>
      <trkpt lat="44.19574" lon="5.06739">
        <ele>503</ele>
        <time>2021-02-06T09:01:36Z</time>
      </trkpt>
      <trkpt lat="44.19573" lon="5.06736">
        <ele>502</ele>
        <time>2021-02-06T09:01:37Z</time>
      </trkpt>
      <trkpt lat="44.19572" lon="5.06733">
        <ele>502</ele>
        <time>2021-02-06T09:01:38Z</time>
      </trkpt>
      <trkpt lat="44.19572" lon="5.0673">
        <ele>502</ele>
        <time>2021-02-06T09:01:39Z</time>
      </trkpt>
      <trkpt lat="44.19571" lon="5.06726">
        <ele>502</ele>
        <time>2021-02-06T09:01:40Z</time>
      </trkpt>
      <trkpt lat="44.1957" lon="5.06723">
        <ele>502</ele>
        <time>2021-02-06T09:01:41Z</time>
      </trkpt>
      <trkpt lat="44.19569" lon="5.0672">
        <ele>502</ele>
        <time>2021-02-06T09:01:42Z</time>
      </trkpt>
      <trkpt lat="44.19568" lon="5.06717">
        <ele>502</ele>
        <time>2021-02-06T09:01:43Z</time>
      </trkpt>
      <trkpt lat="44.19567" lon="5.06714">
        <ele>502</ele>
        <time>2021-02-06T09:01:44Z</time>
      </trkpt>
      <trkpt lat="44.19566" lon="5.06711">
        <ele>502</ele>
        <time>2021-02-06T09:01:45Z</time>
      </trkpt>
      <trkpt lat="44.19565" lon="5.06709">
        <ele>502</ele>
        <time>2021-02-06T09:01:46Z</time>
      </trkpt>
      <trkpt lat="44.19563" lon="5.06705">
        <ele>501</ele>
        <time>2021-02-06T09:01:48Z</time>
      </trkpt>
      <trkpt lat="44.19562" lon="5.06702">
        <ele>501</ele>
        <time>2021-02-06T09:01:49Z</time>
      </trkpt>
      <trkpt lat="44.19561" lon="5.067">
        <ele>501</ele>
        <time>2021-02-06T09:01:50Z</time>
      </trkpt>
      <trkpt lat="44.19559" lon="5.06698">
        <ele>501</ele>
        <time>2021-02-06T09:01:51Z</time>
      </trkpt>
      <trkpt lat="44.19557" lon="5.06695">
        <ele>501</ele>
        <time>2021-02-06T09:01:52Z</time>
      </trkpt>
      <trkpt lat="44.19556" lon="5.06691">
        <ele>501</ele>
        <time>2021-02-06T09:01:53Z</time>
      </trkpt>
      <trkpt lat="44.19554" lon="5.06689">
        <ele>501</ele>
        <time>2021-02-06T09:01:54Z</time>
      </trkpt>
      <trkpt lat="44.19552" lon="5.06686">
        <ele>501</ele>
        <time>2021-02-06T09:01:55Z</time>
      </trkpt>
      <trkpt lat="44.1955" lon="5.06683">
        <ele>501</ele>
        <time>2021-02-06T09:01:56Z</time>
      </trkpt>
      <trkpt lat="44.19548" lon="5.0668">
        <ele>501</ele>
        <time>2021-02-06T09:01:57Z</time>
      </trkpt>
      <trkpt lat="44.19546" lon="5.06676">
        <ele>501</ele>
        <time>2021-02-06T09:01:58Z</time>
      </trkpt>
      <trkpt lat="44.19543" lon="5.06669">
        <ele>501</ele>
        <time>2021-02-06T09:02:00Z</time>
      </trkpt>
      <trkpt lat="44.19541" lon="5.06666">
        <ele>500</ele>
        <time>2021-02-06T09:02:01Z</time>
      </trkpt>
      <trkpt lat="44.19536" lon="5.06653">
        <ele>500</ele>
        <time>2021-02-06T09:02:04Z</time>
      </trkpt>
      <trkpt lat="44.19532" lon="5.06639">
        <ele>499</ele>
        <time>2021-02-06T09:02:08Z</time>
      </trkpt>
      <trkpt lat="44.19532" lon="5.06627">
        <ele>499</ele>
        <time>2021-02-06T09:02:11Z</time>
      </trkpt>
      <trkpt lat="44.19532" lon="5.06612">
        <ele>499</ele>
        <time>2021-02-06T09:02:15Z</time>
      </trkpt>
      <trkpt lat="44.19531" lon="5.06598">
        <ele>499</ele>
        <time>2021-02-06T09:02:19Z</time>
      </trkpt>
      <trkpt lat="44.19537" lon="5.06587">
        <ele>498</ele>
        <time>2021-02-06T09:02:22Z</time>
      </trkpt>
      <trkpt lat="44.19546" lon="5.06579">
        <ele>498</ele>
        <time>2021-02-06T09:02:25Z</time>
      </trkpt>
      <trkpt lat="44.19556" lon="5.06567">
        <ele>497</ele>
        <time>2021-02-06T09:02:29Z</time>
      </trkpt>
      <trkpt lat="44.19564" lon="5.0656">
        <ele>496</ele>
        <time>2021-02-06T09:02:32Z</time>
      </trkpt>
      <trkpt lat="44.19571" lon="5.06552">
        <ele>496</ele>
        <time>2021-02-06T09:02:35Z</time>
      </trkpt>
      <trkpt lat="44.1958" lon="5.06544">
        <ele>495</ele>
        <time>2021-02-06T09:02:38Z</time>
      </trkpt>
      <trkpt lat="44.19587" lon="5.06536">
        <ele>495</ele>
        <time>2021-02-06T09:02:41Z</time>
      </trkpt>
      <trkpt lat="44.19597" lon="5.06526">
        <ele>495</ele>
        <time>2021-02-06T09:02:45Z</time>
      </trkpt>
      <trkpt lat="44.19607" lon="5.06518">
        <ele>494</ele>
        <time>2021-02-06T09:02:49Z</time>
      </trkpt>
      <trkpt lat="44.19615" lon="5.06511">
        <ele>494</ele>
        <time>2021-02-06T09:02:52Z</time>
      </trkpt>
      <trkpt lat="44.19624" lon="5.06503">
        <ele>493</ele>
        <time>2021-02-06T09:02:56Z</time>
      </trkpt>
      <trkpt lat="44.19633" lon="5.06492">
        <ele>492</ele>
        <time>2021-02-06T09:03:00Z</time>
      </trkpt>
      <trkpt lat="44.19641" lon="5.06484">
        <ele>492</ele>
        <time>2021-02-06T09:03:03Z</time>
      </trkpt>
      <trkpt lat="44.19648" lon="5.06475">
        <ele>491</ele>
        <time>2021-02-06T09:03:06Z</time>
      </trkpt>
      <trkpt lat="44.19653" lon="5.06465">
        <ele>491</ele>
        <time>2021-02-06T09:03:09Z</time>
      </trkpt>
      <trkpt lat="44.19659" lon="5.0645">
        <ele>490</ele>
        <time>2021-02-06T09:03:13Z</time>
      </trkpt>
      <trkpt lat="44.19662" lon="5.06438">
        <ele>489</ele>
        <time>2021-02-06T09:03:16Z</time>
      </trkpt>
      <trkpt lat="44.19665" lon="5.06424">
        <ele>488</ele>
        <time>2021-02-06T09:03:20Z</time>
      </trkpt>
      <trkpt lat="44.1967" lon="5.06412">
        <ele>487</ele>
        <time>2021-02-06T09:03:23Z</time>
      </trkpt>
      <trkpt lat="44.19675" lon="5.06398">
        <ele>487</ele>
        <time>2021-02-06T09:03:27Z</time>
      </trkpt>
      <trkpt lat="44.19677" lon="5.06385">
        <ele>487</ele>
        <time>2021-02-06T09:03:30Z</time>
      </trkpt>
      <trkpt lat="44.19679" lon="5.06373">
        <ele>487</ele>
        <time>2021-02-06T09:03:33Z</time>
      </trkpt>
      <trkpt lat="44.19679" lon="5.0636">
        <ele>487</ele>
        <time>2021-02-06T09:03:36Z</time>
      </trkpt>
      <trkpt lat="44.19679" lon="5.06344">
        <ele>487</ele>
        <time>2021-02-06T09:03:40Z</time>
      </trkpt>
      <trkpt lat="44.19677" lon="5.06328">
        <ele>488</ele>
        <time>2021-02-06T09:03:44Z</time>
      </trkpt>
      <trkpt lat="44.19674" lon="5.06315">
        <ele>488</ele>
        <time>2021-02-06T09:03:47Z</time>
      </trkpt>
      <trkpt lat="44.19672" lon="5.06301">
        <ele>489</ele>
        <time>2021-02-06T09:03:51Z</time>
      </trkpt>
      <trkpt lat="44.19669" lon="5.06291">
        <ele>489</ele>
        <time>2021-02-06T09:03:54Z</time>
      </trkpt>
      <trkpt lat="44.19667" lon="5.06283">
        <ele>489</ele>
        <time>2021-02-06T09:03:56Z</time>
      </trkpt>
      <trkpt lat="44.19665" lon="5.06276">
        <ele>490</ele>
        <time>2021-02-06T09:03:58Z</time>
      </trkpt>
      <trkpt lat="44.19665" lon="5.06269">
        <ele>490</ele>
        <time>2021-02-06T09:04:00Z</time>
      </trkpt>
      <trkpt lat="44.19664" lon="5.06262">
        <ele>490</ele>
        <time>2021-02-06T09:04:02Z</time>
      </trkpt>
      <trkpt lat="44.19663" lon="5.06255">
        <ele>490</ele>
        <time>2021-02-06T09:04:04Z</time>
      </trkpt>
      <trkpt lat="44.19661" lon="5.06242">
        <ele>490</ele>
        <time>2021-02-06T09:04:08Z</time>
      </trkpt>
      <trkpt lat="44.19658" lon="5.06227">
        <ele>491</ele>
        <time>2021-02-06T09:04:12Z</time>
      </trkpt>
      <trkpt lat="44.19654" lon="5.06214">
        <ele>492</ele>
        <time>2021-02-06T09:04:16Z</time>
      </trkpt>
      <trkpt lat="44.19652" lon="5.062">
        <ele>491</ele>
        <time>2021-02-06T09:04:20Z</time>
      </trkpt>
      <trkpt lat="44.1965" lon="5.06187">
        <ele>491</ele>
        <time>2021-02-06T09:04:23Z</time>
      </trkpt>
      <trkpt lat="44.19646" lon="5.06171">
        <ele>492</ele>
        <time>2021-02-06T09:04:27Z</time>
      </trkpt>
      <trkpt lat="44.19643" lon="5.06157">
        <ele>492</ele>
        <time>2021-02-06T09:04:31Z</time>
      </trkpt>
      <trkpt lat="44.19642" lon="5.06141">
        <ele>493</ele>
        <time>2021-02-06T09:04:36Z</time>
      </trkpt>
      <trkpt lat="44.19639" lon="5.06128">
        <ele>493</ele>
        <time>2021-02-06T09:04:40Z</time>
      </trkpt>
      <trkpt lat="44.19637" lon="5.06114">
        <ele>494</ele>
        <time>2021-02-06T09:04:44Z</time>
      </trkpt>
      <trkpt lat="44.19637" lon="5.06101">
        <ele>495</ele>
        <time>2021-02-06T09:04:47Z</time>
      </trkpt>
      <trkpt lat="44.19638" lon="5.06085">
        <ele>495</ele>
        <time>2021-02-06T09:04:51Z</time>
      </trkpt>
      <trkpt lat="44.19638" lon="5.06071">
        <ele>496</ele>
        <time>2021-02-06T09:04:55Z</time>
      </trkpt>
      <trkpt lat="44.19636" lon="5.06055">
        <ele>496</ele>
        <time>2021-02-06T09:04:59Z</time>
      </trkpt>
      <trkpt lat="44.19638" lon="5.0604">
        <ele>497</ele>
        <time>2021-02-06T09:05:03Z</time>
      </trkpt>
      <trkpt lat="44.19637" lon="5.06024">
        <ele>497</ele>
        <time>2021-02-06T09:05:07Z</time>
      </trkpt>
      <trkpt lat="44.19637" lon="5.06011">
        <ele>498</ele>
        <time>2021-02-06T09:05:11Z</time>
      </trkpt>
      <trkpt lat="44.19636" lon="5.05995">
        <ele>498</ele>
        <time>2021-02-06T09:05:15Z</time>
      </trkpt>
      <trkpt lat="44.19637" lon="5.05983">
        <ele>499</ele>
        <time>2021-02-06T09:05:19Z</time>
      </trkpt>
      <trkpt lat="44.19637" lon="5.05968">
        <ele>499</ele>
        <time>2021-02-06T09:05:23Z</time>
      </trkpt>
      <trkpt lat="44.19638" lon="5.05952">
        <ele>499</ele>
        <time>2021-02-06T09:05:27Z</time>
      </trkpt>
      <trkpt lat="44.19642" lon="5.05941">
        <ele>499</ele>
        <time>2021-02-06T09:05:31Z</time>
      </trkpt>
      <trkpt lat="44.19645" lon="5.05927">
        <ele>499</ele>
        <time>2021-02-06T09:05:35Z</time>
      </trkpt>
      <trkpt lat="44.19648" lon="5.05914">
        <ele>499</ele>
        <time>2021-02-06T09:05:39Z</time>
      </trkpt>
      <trkpt lat="44.19653" lon="5.05902">
        <ele>499</ele>
        <time>2021-02-06T09:05:43Z</time>
      </trkpt>
      <trkpt lat="44.19658" lon="5.0589">
        <ele>500</ele>
        <time>2021-02-06T09:05:47Z</time>
      </trkpt>
      <trkpt lat="44.19663" lon="5.05878">
        <ele>501</ele>
        <time>2021-02-06T09:05:51Z</time>
      </trkpt>
      <trkpt lat="44.19671" lon="5.05869">
        <ele>502</ele>
        <time>2021-02-06T09:05:55Z</time>
      </trkpt>
      <trkpt lat="44.19678" lon="5.05857">
        <ele>503</ele>
        <time>2021-02-06T09:05:59Z</time>
      </trkpt>
      <trkpt lat="44.19684" lon="5.05845">
        <ele>504</ele>
        <time>2021-02-06T09:06:03Z</time>
      </trkpt>
      <trkpt lat="44.19685" lon="5.05829">
        <ele>504</ele>
        <time>2021-02-06T09:06:07Z</time>
      </trkpt>
      <trkpt lat="44.19684" lon="5.05822">
        <ele>503</ele>
        <time>2021-02-06T09:06:12Z</time>
      </trkpt>
      <trkpt lat="44.19674" lon="5.05824">
        <ele>500</ele>
        <time>2021-02-06T09:06:23Z</time>
      </trkpt>
      <trkpt lat="44.19664" lon="5.05828">
        <ele>496</ele>
        <time>2021-02-06T09:06:28Z</time>
      </trkpt>
      <trkpt lat="44.19654" lon="5.05828">
        <ele>494</ele>
        <time>2021-02-06T09:06:32Z</time>
      </trkpt>
      <trkpt lat="44.19643" lon="5.05827">
        <ele>490</ele>
        <time>2021-02-06T09:06:38Z</time>
      </trkpt>
      <trkpt lat="44.19633" lon="5.05828">
        <ele>488</ele>
        <time>2021-02-06T09:06:43Z</time>
      </trkpt>
      <trkpt lat="44.19624" lon="5.05827">
        <ele>487</ele>
        <time>2021-02-06T09:06:46Z</time>
      </trkpt>
      <trkpt lat="44.19613" lon="5.05825">
        <ele>485</ele>
        <time>2021-02-06T09:06:52Z</time>
      </trkpt>
      <trkpt lat="44.19603" lon="5.05827">
        <ele>485</ele>
        <time>2021-02-06T09:06:55Z</time>
      </trkpt>
      <trkpt lat="44.19599" lon="5.05813">
        <ele>483</ele>
        <time>2021-02-06T09:07:00Z</time>
      </trkpt>
      <trkpt lat="44.19597" lon="5.05801">
        <ele>482</ele>
        <time>2021-02-06T09:07:04Z</time>
      </trkpt>
      <trkpt lat="44.19591" lon="5.0579">
        <ele>481</ele>
        <time>2021-02-06T09:07:08Z</time>
      </trkpt>
      <trkpt lat="44.19586" lon="5.05783">
        <ele>480</ele>
        <time>2021-02-06T09:07:12Z</time>
      </trkpt>
      <trkpt lat="44.19576" lon="5.05778">
        <ele>478</ele>
        <time>2021-02-06T09:07:17Z</time>
      </trkpt>
      <trkpt lat="44.19566" lon="5.05779">
        <ele>477</ele>
        <time>2021-02-06T09:07:20Z</time>
      </trkpt>
      <trkpt lat="44.19556" lon="5.05776">
        <ele>475</ele>
        <time>2021-02-06T09:07:24Z</time>
      </trkpt>
      <trkpt lat="44.19548" lon="5.05767">
        <ele>474</ele>
        <time>2021-02-06T09:07:28Z</time>
      </trkpt>
      <trkpt lat="44.19543" lon="5.05763">
        <ele>473</ele>
        <time>2021-02-06T09:07:30Z</time>
      </trkpt>
      <trkpt lat="44.19539" lon="5.0576">
        <ele>472</ele>
        <time>2021-02-06T09:07:32Z</time>
      </trkpt>
      <trkpt lat="44.19531" lon="5.05755">
        <ele>471</ele>
        <time>2021-02-06T09:07:35Z</time>
      </trkpt>
      <trkpt lat="44.19523" lon="5.05747">
        <ele>470</ele>
        <time>2021-02-06T09:07:39Z</time>
      </trkpt>
      <trkpt lat="44.19515" lon="5.05738">
        <ele>470</ele>
        <time>2021-02-06T09:07:43Z</time>
      </trkpt>
      <trkpt lat="44.19508" lon="5.05725">
        <ele>467</ele>
        <time>2021-02-06T09:07:47Z</time>
      </trkpt>
      <trkpt lat="44.19501" lon="5.05715">
        <ele>465</ele>
        <time>2021-02-06T09:07:50Z</time>
      </trkpt>
      <trkpt lat="44.19493" lon="5.05707">
        <ele>465</ele>
        <time>2021-02-06T09:07:54Z</time>
      </trkpt>
      <trkpt lat="44.19484" lon="5.05702">
        <ele>465</ele>
        <time>2021-02-06T09:07:58Z</time>
      </trkpt>
      <trkpt lat="44.19475" lon="5.05697">
        <ele>466</ele>
        <time>2021-02-06T09:08:02Z</time>
      </trkpt>
      <trkpt lat="44.19466" lon="5.05691">
        <ele>466</ele>
        <time>2021-02-06T09:08:06Z</time>
      </trkpt>
      <trkpt lat="44.19458" lon="5.05684">
        <ele>465</ele>
        <time>2021-02-06T09:08:09Z</time>
      </trkpt>
      <trkpt lat="44.19452" lon="5.05675">
        <ele>465</ele>
        <time>2021-02-06T09:08:12Z</time>
      </trkpt>
      <trkpt lat="44.19444" lon="5.05665">
        <ele>465</ele>
        <time>2021-02-06T09:08:16Z</time>
      </trkpt>
      <trkpt lat="44.19433" lon="5.05664">
        <ele>462</ele>
        <time>2021-02-06T09:08:22Z</time>
      </trkpt>
      <trkpt lat="44.19425" lon="5.05657">
        <ele>460</ele>
        <time>2021-02-06T09:08:26Z</time>
      </trkpt>
      <trkpt lat="44.19417" lon="5.05651">
        <ele>458</ele>
        <time>2021-02-06T09:08:30Z</time>
      </trkpt>
      <trkpt lat="44.19411" lon="5.05649">
        <ele>457</ele>
        <time>2021-02-06T09:08:33Z</time>
      </trkpt>
      <trkpt lat="44.19402" lon="5.05644">
        <ele>455</ele>
        <time>2021-02-06T09:08:37Z</time>
      </trkpt>
      <trkpt lat="44.19391" lon="5.05644">
        <ele>452</ele>
        <time>2021-02-06T09:08:41Z</time>
      </trkpt>
      <trkpt lat="44.19382" lon="5.05649">
        <ele>450</ele>
        <time>2021-02-06T09:08:45Z</time>
      </trkpt>
      <trkpt lat="44.19372" lon="5.05651">
        <ele>446</ele>
        <time>2021-02-06T09:08:50Z</time>
      </trkpt>
      <trkpt lat="44.19362" lon="5.05655">
        <ele>444</ele>
        <time>2021-02-06T09:08:56Z</time>
      </trkpt>
      <trkpt lat="44.19352" lon="5.05661">
        <ele>441</ele>
        <time>2021-02-06T09:09:02Z</time>
      </trkpt>
      <trkpt lat="44.19343" lon="5.05665">
        <ele>438</ele>
        <time>2021-02-06T09:09:06Z</time>
      </trkpt>
      <trkpt lat="44.19332" lon="5.05666">
        <ele>433</ele>
        <time>2021-02-06T09:09:11Z</time>
      </trkpt>
      <trkpt lat="44.19322" lon="5.05665">
        <ele>429</ele>
        <time>2021-02-06T09:09:17Z</time>
      </trkpt>
      <trkpt lat="44.19312" lon="5.05665">
        <ele>426</ele>
        <time>2021-02-06T09:09:22Z</time>
      </trkpt>
      <trkpt lat="44.19304" lon="5.05672">
        <ele>424</ele>
        <time>2021-02-06T09:09:27Z</time>
      </trkpt>
      <trkpt lat="44.19294" lon="5.05673">
        <ele>420</ele>
        <time>2021-02-06T09:09:35Z</time>
      </trkpt>
      <trkpt lat="44.19288" lon="5.05662">
        <ele>415</ele>
        <time>2021-02-06T09:09:40Z</time>
      </trkpt>
      <trkpt lat="44.19285" lon="5.05648">
        <ele>410</ele>
        <time>2021-02-06T09:09:44Z</time>
      </trkpt>
      <trkpt lat="44.1928" lon="5.05636">
        <ele>405</ele>
        <time>2021-02-06T09:09:49Z</time>
      </trkpt>
      <trkpt lat="44.19276" lon="5.05624">
        <ele>402</ele>
        <time>2021-02-06T09:09:55Z</time>
      </trkpt>
      <trkpt lat="44.19267" lon="5.05618">
        <ele>400</ele>
        <time>2021-02-06T09:10:05Z</time>
      </trkpt>
      <trkpt lat="44.19258" lon="5.05615">
        <ele>398</ele>
        <time>2021-02-06T09:10:13Z</time>
      </trkpt>
      <trkpt lat="44.1925" lon="5.05604">
        <ele>396</ele>
        <time>2021-02-06T09:10:18Z</time>
      </trkpt>
      <trkpt lat="44.19229" lon="5.05586">
        <ele>392</ele>
        <time>2021-02-06T09:15:00Z</time>
      </trkpt>
      <trkpt lat="44.19227" lon="5.05574">
        <ele>391</ele>
        <time>2021-02-06T09:15:02Z</time>
      </trkpt>
      <trkpt lat="44.19227" lon="5.05568">
        <ele>391</ele>
        <time>2021-02-06T09:15:04Z</time>
      </trkpt>
      <trkpt lat="44.1923" lon="5.05548">
        <ele>391</ele>
        <time>2021-02-06T19:01:05Z</time>
      </trkpt>
      <trkpt lat="44.19237" lon="5.05538">
        <ele>392</ele>
        <time>2021-02-06T09:15:10Z</time>
      </trkpt>
      <trkpt lat="44.19246" lon="5.05509">
        <ele>389</ele>
        <time>2021-02-06T19:01:15Z</time>
      </trkpt>
      <trkpt lat="44.1927" lon="5.05474">
        <ele>389</ele>
        <time>2021-02-06T19:01:20Z</time>
      </trkpt>
      <trkpt lat="44.19288" lon="5.05455">
        <ele>394</ele>
        <time>2021-02-06T19:01:25Z</time>
      </trkpt>
      <trkpt lat="44.193" lon="5.05436">
        <ele>395</ele>
        <time>2021-02-06T19:01:30Z</time>
      </trkpt>
      <trkpt lat="44.19312" lon="5.05406">
        <ele>392</ele>
        <time>2021-02-06T19:01:35Z</time>
      </trkpt>
      <trkpt lat="44.19322" lon="5.05383">
        <ele>390</ele>
        <time>2021-02-06T19:01:40Z</time>
      </trkpt>
      <trkpt lat="44.1933" lon="5.05378">
        <ele>392</ele>
        <time>2021-02-06T19:01:45Z</time>
      </trkpt>
      <trkpt lat="44.19337" lon="5.05377">
        <ele>396</ele>
        <time>2021-02-06T19:01:50Z</time>
      </trkpt>
      <trkpt lat="44.19338" lon="5.0537">
        <ele>396</ele>
        <time>2021-02-06T19:01:55Z</time>
      </trkpt>
      <trkpt lat="44.1933" lon="5.05349">
        <ele>388</ele>
        <time>2021-02-06T19:02:00Z</time>
      </trkpt>
      <trkpt lat="44.19332" lon="5.05325">
        <ele>389</ele>
        <time>2021-02-06T19:02:05Z</time>
      </trkpt>
      <trkpt lat="44.19336" lon="5.05304">
        <ele>392</ele>
        <time>2021-02-06T19:02:10Z</time>
      </trkpt>
      <trkpt lat="44.19339" lon="5.05272">
        <ele>394</ele>
        <time>2021-02-06T19:02:15Z</time>
      </trkpt>
      <trkpt lat="44.19335" lon="5.0524">
        <ele>391</ele>
        <time>2021-02-06T19:02:20Z</time>
      </trkpt>
      <trkpt lat="44.19328" lon="5.05199">
        <ele>386</ele>
        <time>2021-02-06T19:02:25Z</time>
      </trkpt>
      <trkpt lat="44.19324" lon="5.05138">
        <ele>386</ele>
        <time>2021-02-06T19:02:30Z</time>
      </trkpt>
      <trkpt lat="44.1932" lon="5.05089">
        <ele>387</ele>
        <time>2021-02-06T19:02:35Z</time>
      </trkpt>
      <trkpt lat="44.19317" lon="5.05071">
        <ele>387</ele>
        <time>2021-02-06T19:02:40Z</time>
      </trkpt>
      <trkpt lat="44.1931" lon="5.05046">
        <ele>386</ele>
        <time>2021-02-06T19:02:45Z</time>
      </trkpt>
      <trkpt lat="44.19297" lon="5.05027">
        <ele>382</ele>
        <time>2021-02-06T19:02:50Z</time>
      </trkpt>
      <trkpt lat="44.19277" lon="5.04999">
        <ele>377</ele>
        <time>2021-02-06T19:02:55Z</time>
      </trkpt>
      <trkpt lat="44.19234" lon="5.04959">
        <ele>367</ele>
        <time>2021-02-06T19:03:00Z</time>
      </trkpt>
      <trkpt lat="44.19186" lon="5.04918">
        <ele>362</ele>
        <time>2021-02-06T19:03:05Z</time>
      </trkpt>
      <trkpt lat="44.19075" lon="5.04828">
        <ele>349</ele>
        <time>2021-02-06T19:03:10Z</time>
      </trkpt>
      <trkpt lat="44.19061" lon="5.04817">
        <ele>347</ele>
        <time>2021-02-06T19:03:15Z</time>
      </trkpt>
      <trkpt lat="44.19048" lon="5.04798">
        <ele>345</ele>
        <time>2021-02-06T19:03:20Z</time>
      </trkpt>
      <trkpt lat="44.19042" lon="5.04784">
        <ele>343</ele>
        <time>2021-02-06T19:03:25Z</time>
      </trkpt>
      <trkpt lat="44.19041" lon="5.04764">
        <ele>341</ele>
        <time>2021-02-06T19:03:30Z</time>
      </trkpt>
      <trkpt lat="44.19047" lon="5.04744">
        <ele>340</ele>
        <time>2021-02-06T19:03:35Z</time>
      </trkpt>
      <trkpt lat="44.1906" lon="5.04719">
        <ele>339</ele>
        <time>2021-02-06T19:03:40Z</time>
      </trkpt>
      <trkpt lat="44.1909" lon="5.04671">
        <ele>343</ele>
        <time>2021-02-06T19:03:45Z</time>
      </trkpt>
      <trkpt lat="44.19097" lon="5.04638">
        <ele>341</ele>
        <time>2021-02-06T19:03:50Z</time>
      </trkpt>
      <trkpt lat="44.19102" lon="5.04593">
        <ele>343</ele>
        <time>2021-02-06T19:03:55Z</time>
      </trkpt>
      <trkpt lat="44.19101" lon="5.04554">
        <ele>342</ele>
        <time>2021-02-06T19:04:00Z</time>
      </trkpt>
      <trkpt lat="44.19091" lon="5.04486">
        <ele>334</ele>
        <time>2021-02-06T19:04:05Z</time>
      </trkpt>
      <trkpt lat="44.19088" lon="5.04447">
        <ele>330</ele>
        <time>2021-02-06T19:04:10Z</time>
      </trkpt>
      <trkpt lat="44.19088" lon="5.0442">
        <ele>329</ele>
        <time>2021-02-06T19:04:15Z</time>
      </trkpt>
      <trkpt lat="44.19097" lon="5.04386">
        <ele>331</ele>
        <time>2021-02-06T19:04:20Z</time>
      </trkpt>
      <trkpt lat="44.19116" lon="5.04331">
        <ele>332</ele>
        <time>2021-02-06T19:04:25Z</time>
      </trkpt>
      <trkpt lat="44.19129" lon="5.04294">
        <ele>332</ele>
        <time>2021-02-06T19:04:30Z</time>
      </trkpt>
      <trkpt lat="44.19138" lon="5.04248">
        <ele>331</ele>
        <time>2021-02-06T19:04:35Z</time>
      </trkpt>
      <trkpt lat="44.19142" lon="5.04217">
        <ele>331</ele>
        <time>2021-02-06T19:04:40Z</time>
      </trkpt>
      <trkpt lat="44.19138" lon="5.04183">
        <ele>327</ele>
        <time>2021-02-06T19:04:45Z</time>
      </trkpt>
      <trkpt lat="44.19125" lon="5.04143">
        <ele>323</ele>
        <time>2021-02-06T19:04:50Z</time>
      </trkpt>
      <trkpt lat="44.19106" lon="5.04105">
        <ele>320</ele>
        <time>2021-02-06T19:04:55Z</time>
      </trkpt>
      <trkpt lat="44.19103" lon="5.04089">
        <ele>320</ele>
        <time>2021-02-06T19:05:00Z</time>
      </trkpt>
      <trkpt lat="44.19046" lon="5.04029">
        <ele>315</ele>
        <time>2021-02-06T19:05:05Z</time>
      </trkpt>
      <trkpt lat="44.19035" lon="5.04019">
        <ele>313</ele>
        <time>2021-02-06T19:05:10Z</time>
      </trkpt>
      <trkpt lat="44.19003" lon="5.04009">
        <ele>311</ele>
        <time>2021-02-06T19:05:15Z</time>
      </trkpt>
      <trkpt lat="44.18987" lon="5.03999">
        <ele>310</ele>
        <time>2021-02-06T19:05:20Z</time>
      </trkpt>
      <trkpt lat="44.18981" lon="5.03992">
        <ele>309</ele>
        <time>2021-02-06T19:05:25Z</time>
      </trkpt>
      <trkpt lat="44.18979" lon="5.03968">
        <ele>310</ele>
        <time>2021-02-06T19:05:30Z</time>
      </trkpt>
      <trkpt lat="44.18982" lon="5.03948">
        <ele>310</ele>
        <time>2021-02-06T19:05:35Z</time>
      </trkpt>
      <trkpt lat="44.1899" lon="5.0393">
        <ele>309</ele>
        <time>2021-02-06T19:05:40Z</time>
      </trkpt>
      <trkpt lat="44.19001" lon="5.0392">
        <ele>308</ele>
        <time>2021-02-06T19:05:45Z</time>
      </trkpt>
      <trkpt lat="44.19019" lon="5.03915">
        <ele>307</ele>
        <time>2021-02-06T19:05:50Z</time>
      </trkpt>
      <trkpt lat="44.19027" lon="5.03905">
        <ele>306</ele>
        <time>2021-02-06T19:05:55Z</time>
      </trkpt>
      <trkpt lat="44.19037" lon="5.0388">
        <ele>304</ele>
        <time>2021-02-06T19:06:00Z</time>
      </trkpt>
      <trkpt lat="44.19044" lon="5.03861">
        <ele>302</ele>
        <time>2021-02-06T19:06:05Z</time>
      </trkpt>
      <trkpt lat="44.19046" lon="5.03848">
        <ele>301</ele>
        <time>2021-02-06T19:06:10Z</time>
      </trkpt>
      <trkpt lat="44.19048" lon="5.03834">
        <ele>300</ele>
        <time>2021-02-06T19:06:15Z</time>
      </trkpt>
      <trkpt lat="44.19047" lon="5.03813">
        <ele>300</ele>
        <time>2021-02-06T19:06:20Z</time>
      </trkpt>
      <trkpt lat="44.19042" lon="5.03773">
        <ele>299</ele>
        <time>2021-02-06T19:06:25Z</time>
      </trkpt>
      <trkpt lat="44.19042" lon="5.03731">
        <ele>294</ele>
        <time>2021-02-06T19:06:30Z</time>
      </trkpt>
      <trkpt lat="44.19044" lon="5.037">
        <ele>290</ele>
        <time>2021-02-06T19:06:35Z</time>
      </trkpt>
      <trkpt lat="44.19044" lon="5.03685">
        <ele>288</ele>
        <time>2021-02-06T19:06:40Z</time>
      </trkpt>
      <trkpt lat="44.19037" lon="5.03656">
        <ele>285</ele>
        <time>2021-02-06T19:06:45Z</time>
      </trkpt>
      <trkpt lat="44.1903" lon="5.03615">
        <ele>282</ele>
        <time>2021-02-06T19:06:50Z</time>
      </trkpt>
      <trkpt lat="44.19019" lon="5.03581">
        <ele>280</ele>
        <time>2021-02-06T19:06:55Z</time>
      </trkpt>
      <trkpt lat="44.19014" lon="5.03538">
        <ele>280</ele>
        <time>2021-02-06T19:07:00Z</time>
      </trkpt>
      <trkpt lat="44.18997" lon="5.03486">
        <ele>279</ele>
        <time>2021-02-06T19:07:05Z</time>
      </trkpt>
      <trkpt lat="44.18977" lon="5.03425">
        <ele>279</ele>
        <time>2021-02-06T19:07:10Z</time>
      </trkpt>
      <trkpt lat="44.18972" lon="5.03403">
        <ele>280</ele>
        <time>2021-02-06T19:07:15Z</time>
      </trkpt>
      <trkpt lat="44.18969" lon="5.03379">
        <ele>282</ele>
        <time>2021-02-06T19:07:20Z</time>
      </trkpt>
      <trkpt lat="44.18967" lon="5.03349">
        <ele>285</ele>
        <time>2021-02-06T19:07:25Z</time>
      </trkpt>
      <trkpt lat="44.1896" lon="5.03309">
        <ele>288</ele>
        <time>2021-02-06T19:07:30Z</time>
      </trkpt>
      <trkpt lat="44.18953" lon="5.03291">
        <ele>289</ele>
        <time>2021-02-06T19:07:35Z</time>
      </trkpt>
      <trkpt lat="44.18936" lon="5.03267">
        <ele>287</ele>
        <time>2021-02-06T19:07:40Z</time>
      </trkpt>
      <trkpt lat="44.18926" lon="5.03243">
        <ele>288</ele>
        <time>2021-02-06T19:07:45Z</time>
      </trkpt>
      <trkpt lat="44.18915" lon="5.032">
        <ele>292</ele>
        <time>2021-02-06T19:07:50Z</time>
      </trkpt>
      <trkpt lat="44.18903" lon="5.03179">
        <ele>291</ele>
        <time>2021-02-06T19:07:55Z</time>
      </trkpt>
      <trkpt lat="44.18917" lon="5.03175">
        <ele>297</ele>
        <time>2021-02-06T19:08:00Z</time>
      </trkpt>
      <trkpt lat="44.18944" lon="5.03157">
        <ele>309</ele>
        <time>2021-02-06T19:08:05Z</time>
      </trkpt>
      <trkpt lat="44.1897" lon="5.03147">
        <ele>317</ele>
        <time>2021-02-06T19:08:10Z</time>
      </trkpt>
      <trkpt lat="44.18974" lon="5.03144">
        <ele>319</ele>
        <time>2021-02-06T19:08:15Z</time>
      </trkpt>
      <trkpt lat="44.18977" lon="5.03139">
        <ele>319</ele>
        <time>2021-02-06T19:08:20Z</time>
      </trkpt>
      <trkpt lat="44.18976" lon="5.0313">
        <ele>320</ele>
        <time>2021-02-06T19:08:25Z</time>
      </trkpt>
      <trkpt lat="44.1897" lon="5.03119">
        <ele>319</ele>
        <time>2021-02-06T19:08:30Z</time>
      </trkpt>
      <trkpt lat="44.18951" lon="5.03096">
        <ele>317</ele>
        <time>2021-02-06T19:08:35Z</time>
      </trkpt>
      <trkpt lat="44.18926" lon="5.03072">
        <ele>313</ele>
        <time>2021-02-06T19:08:40Z</time>
      </trkpt>
      <trkpt lat="44.18923" lon="5.03065">
        <ele>313</ele>
        <time>2021-02-06T19:08:45Z</time>
      </trkpt>
      <trkpt lat="44.18926" lon="5.03058">
        <ele>315</ele>
        <time>2021-02-06T19:08:50Z</time>
      </trkpt>
      <trkpt lat="44.18931" lon="5.03059">
        <ele>316</ele>
        <time>2021-02-06T19:08:55Z</time>
      </trkpt>
      <trkpt lat="44.18942" lon="5.03073">
        <ele>318</ele>
        <time>2021-02-06T19:09:00Z</time>
      </trkpt>
      <trkpt lat="44.18966" lon="5.03089">
        <ele>322</ele>
        <time>2021-02-06T19:09:05Z</time>
      </trkpt>
      <trkpt lat="44.18977" lon="5.03095">
        <ele>323</ele>
        <time>2021-02-06T19:09:10Z</time>
      </trkpt>
      <trkpt lat="44.18991" lon="5.031">
        <ele>325</ele>
        <time>2021-02-06T19:09:15Z</time>
      </trkpt>
      <trkpt lat="44.19017" lon="5.03098">
        <ele>329</ele>
        <time>2021-02-06T19:09:20Z</time>
      </trkpt>
      <trkpt lat="44.19045" lon="5.03082">
        <ele>332</ele>
        <time>2021-02-06T19:09:25Z</time>
      </trkpt>
      <trkpt lat="44.19063" lon="5.03073">
        <ele>335</ele>
        <time>2021-02-06T19:09:30Z</time>
      </trkpt>
      <trkpt lat="44.19068" lon="5.03063">
        <ele>335</ele>
        <time>2021-02-06T19:09:35Z</time>
      </trkpt>
      <trkpt lat="44.19065" lon="5.03056">
        <ele>333</ele>
        <time>2021-02-06T19:09:40Z</time>
      </trkpt>
      <trkpt lat="44.19058" lon="5.03056">
        <ele>331</ele>
        <time>2021-02-06T19:09:45Z</time>
      </trkpt>
      <trkpt lat="44.19038" lon="5.0307">
        <ele>331</ele>
        <time>2021-02-06T19:09:50Z</time>
      </trkpt>
      <trkpt lat="44.19028" lon="5.03075">
        <ele>330</ele>
        <time>2021-02-06T19:09:55Z</time>
      </trkpt>
      <trkpt lat="44.19005" lon="5.03074">
        <ele>328</ele>
        <time>2021-02-06T19:10:00Z</time>
      </trkpt>
      <trkpt lat="44.18988" lon="5.03067">
        <ele>327</ele>
        <time>2021-02-06T19:10:05Z</time>
      </trkpt>
      <trkpt lat="44.18964" lon="5.03049">
        <ele>326</ele>
        <time>2021-02-06T19:10:10Z</time>
      </trkpt>
      <trkpt lat="44.18951" lon="5.03036">
        <ele>325</ele>
        <time>2021-02-06T19:10:15Z</time>
      </trkpt>
      <trkpt lat="44.18942" lon="5.03021">
        <ele>326</ele>
        <time>2021-02-06T19:10:20Z</time>
      </trkpt>
      <trkpt lat="44.18916" lon="5.03009">
        <ele>325</ele>
        <time>2021-02-06T19:10:25Z</time>
      </trkpt>
      <trkpt lat="44.18895" lon="5.03011">
        <ele>323</ele>
        <time>2021-02-06T19:10:30Z</time>
      </trkpt>
      <trkpt lat="44.18884" lon="5.03007">
        <ele>323</ele>
        <time>2021-02-06T19:10:35Z</time>
      </trkpt>
      <trkpt lat="44.18872" lon="5.02993">
        <ele>324</ele>
        <time>2021-02-06T19:10:40Z</time>
      </trkpt>
      <trkpt lat="44.18866" lon="5.02983">
        <ele>326</ele>
        <time>2021-02-06T19:10:45Z</time>
      </trkpt>
      <trkpt lat="44.18857" lon="5.02957">
        <ele>330</ele>
        <time>2021-02-06T19:10:50Z</time>
      </trkpt>
      <trkpt lat="44.18849" lon="5.0295">
        <ele>330</ele>
        <time>2021-02-06T19:10:55Z</time>
      </trkpt>
      <trkpt lat="44.18795" lon="5.02937">
        <ele>330</ele>
        <time>2021-02-06T19:11:00Z</time>
      </trkpt>
      <trkpt lat="44.18746" lon="5.02916">
        <ele>334</ele>
        <time>2021-02-06T19:11:05Z</time>
      </trkpt>
      <trkpt lat="44.18721" lon="5.02901">
        <ele>335</ele>
        <time>2021-02-06T19:11:10Z</time>
      </trkpt>
      <trkpt lat="44.18706" lon="5.02882">
        <ele>339</ele>
        <time>2021-02-06T19:11:15Z</time>
      </trkpt>
      <trkpt lat="44.187" lon="5.0286">
        <ele>342</ele>
        <time>2021-02-06T19:11:20Z</time>
      </trkpt>
      <trkpt lat="44.18698" lon="5.02829">
        <ele>348</ele>
        <time>2021-02-06T19:11:25Z</time>
      </trkpt>
      <trkpt lat="44.18698" lon="5.02807">
        <ele>352</ele>
        <time>2021-02-06T19:11:30Z</time>
      </trkpt>
      <trkpt lat="44.18696" lon="5.02795">
        <ele>354</ele>
        <time>2021-02-06T19:11:35Z</time>
      </trkpt>
      <trkpt lat="44.18689" lon="5.02782">
        <ele>354</ele>
        <time>2021-02-06T19:11:40Z</time>
      </trkpt>
      <trkpt lat="44.1867" lon="5.0276">
        <ele>352</ele>
        <time>2021-02-06T19:11:45Z</time>
      </trkpt>
      <trkpt lat="44.18658" lon="5.02729">
        <ele>356</ele>
        <time>2021-02-06T19:11:50Z</time>
      </trkpt>
      <trkpt lat="44.18651" lon="5.02708">
        <ele>359</ele>
        <time>2021-02-06T19:11:55Z</time>
      </trkpt>
      <trkpt lat="44.18626" lon="5.0267">
        <ele>363</ele>
        <time>2021-02-06T19:12:00Z</time>
      </trkpt>
      <trkpt lat="44.18621" lon="5.02645">
        <ele>363</ele>
        <time>2021-02-06T19:12:05Z</time>
      </trkpt>
      <trkpt lat="44.18611" lon="5.02637">
        <ele>362</ele>
        <time>2021-02-06T19:12:10Z</time>
      </trkpt>
      <trkpt lat="44.18586" lon="5.02629">
        <ele>361</ele>
        <time>2021-02-06T19:12:15Z</time>
      </trkpt>
      <trkpt lat="44.18567" lon="5.02631">
        <ele>360</ele>
        <time>2021-02-06T19:12:20Z</time>
      </trkpt>
      <trkpt lat="44.1854" lon="5.02632">
        <ele>359</ele>
        <time>2021-02-06T19:12:25Z</time>
      </trkpt>
      <trkpt lat="44.1852" lon="5.02623">
        <ele>358</ele>
        <time>2021-02-06T19:12:30Z</time>
      </trkpt>
      <trkpt lat="44.18484" lon="5.02617">
        <ele>356</ele>
        <time>2021-02-06T19:12:35Z</time>
      </trkpt>
      <trkpt lat="44.18466" lon="5.02611">
        <ele>354</ele>
        <time>2021-02-06T19:12:40Z</time>
      </trkpt>
      <trkpt lat="44.18445" lon="5.02597">
        <ele>351</ele>
        <time>2021-02-06T19:12:45Z</time>
      </trkpt>
      <trkpt lat="44.18428" lon="5.02594">
        <ele>347</ele>
        <time>2021-02-06T19:12:50Z</time>
      </trkpt>
      <trkpt lat="44.18387" lon="5.02601">
        <ele>327</ele>
        <time>2021-02-06T19:12:55Z</time>
      </trkpt>
      <trkpt lat="44.18357" lon="5.02607">
        <ele>317.6</ele>
        <time>2021-02-06T19:13:00Z</time>
      </trkpt>
      <trkpt lat="44.18349" lon="5.02607">
        <ele>325</ele>
        <time>2021-02-06T19:13:05Z</time>
      </trkpt>
      <trkpt lat="44.18344" lon="5.02613">
        <ele>324</ele>
        <time>2021-02-06T19:13:10Z</time>
      </trkpt>
      <trkpt lat="44.18347" lon="5.02622">
        <ele>323</ele>
        <time>2021-02-06T19:13:15Z</time>
      </trkpt>
      <trkpt lat="44.18349" lon="5.02631">
        <ele>322</ele>
        <time>2021-02-06T19:13:20Z</time>
      </trkpt>
      <trkpt lat="44.18345" lon="5.02637">
        <ele>319</ele>
        <time>2021-02-06T19:13:25Z</time>
      </trkpt>
      <trkpt lat="44.18335" lon="5.02644">
        <ele>315</ele>
        <time>2021-02-06T19:13:30Z</time>
      </trkpt>
      <trkpt lat="44.18324" lon="5.02643">
        <ele>312</ele>
        <time>2021-02-06T19:13:35Z</time>
      </trkpt>
      <trkpt lat="44.18284" lon="5.02651">
        <ele>300</ele>
        <time>2021-02-06T19:13:40Z</time>
      </trkpt>
      <trkpt lat="44.18267" lon="5.02655">
        <ele>294</ele>
        <time>2021-02-06T19:13:45Z</time>
      </trkpt>
      <trkpt lat="44.18258" lon="5.02651">
        <ele>292</ele>
        <time>2021-02-06T19:13:50Z</time>
      </trkpt>
      <trkpt lat="44.1825" lon="5.02643">
        <ele>290</ele>
        <time>2021-02-06T19:13:55Z</time>
      </trkpt>
      <trkpt lat="44.18244" lon="5.02646">
        <ele>287</ele>
        <time>2021-02-06T19:14:00Z</time>
      </trkpt>
      <trkpt lat="44.18238" lon="5.02656">
        <ele>285</ele>
        <time>2021-02-06T19:14:05Z</time>
      </trkpt>
      <trkpt lat="44.18218" lon="5.02676">
        <ele>278</ele>
        <time>2021-02-06T19:14:10Z</time>
      </trkpt>
      <trkpt lat="44.18214" lon="5.02688">
        <ele>276</ele>
        <time>2021-02-06T19:14:15Z</time>
      </trkpt>
      <trkpt lat="44.18215" lon="5.02699">
        <ele>274</ele>
        <time>2021-02-06T19:14:20Z</time>
      </trkpt>
      <trkpt lat="44.18219" lon="5.02714">
        <ele>271</ele>
        <time>2021-02-06T19:14:25Z</time>
      </trkpt>
      <trkpt lat="44.18218" lon="5.02724">
        <ele>268</ele>
        <time>2021-02-06T19:14:30Z</time>
      </trkpt>
      <trkpt lat="44.18212" lon="5.02732">
        <ele>264</ele>
        <time>2021-02-06T19:14:35Z</time>
      </trkpt>
      <trkpt lat="44.18211" lon="5.0274">
        <ele>261</ele>
        <time>2021-02-06T19:14:40Z</time>
      </trkpt>
      <trkpt lat="44.18214" lon="5.02748">
        <ele>258</ele>
        <time>2021-02-06T19:14:45Z</time>
      </trkpt>
      <trkpt lat="44.18226" lon="5.02756">
        <ele>254</ele>
        <time>2021-02-06T19:14:50Z</time>
      </trkpt>
      <trkpt lat="44.18232" lon="5.02774">
        <ele>244</ele>
        <time>2021-02-06T19:14:55Z</time>
      </trkpt>
      <trkpt lat="44.18241" lon="5.02782">
        <ele>240</ele>
        <time>2021-02-06T19:15:00Z</time>
      </trkpt>
      <trkpt lat="44.1826" lon="5.02788">
        <ele>239</ele>
        <time>2021-02-06T19:15:05Z</time>
      </trkpt>
      <trkpt lat="44.1827" lon="5.02797">
        <ele>236</ele>
        <time>2021-02-06T19:15:10Z</time>
      </trkpt>
      <trkpt lat="44.18276" lon="5.02807">
        <ele>234</ele>
        <time>2021-02-06T19:15:15Z</time>
      </trkpt>
      <trkpt lat="44.18277" lon="5.02829">
        <ele>231</ele>
        <time>2021-02-06T19:15:20Z</time>
      </trkpt>
      <trkpt lat="44.18278" lon="5.02839">
        <ele>232</ele>
        <time>2021-02-06T19:15:25Z</time>
      </trkpt>
      <trkpt lat="44.18281" lon="5.0285">
        <ele>236</ele>
        <time>2021-02-06T19:15:30Z</time>
      </trkpt>
      <trkpt lat="44.18299" lon="5.02865">
        <ele>239</ele>
        <time>2021-02-06T19:15:35Z</time>
      </trkpt>
      <trkpt lat="44.18317" lon="5.02876">
        <ele>240</ele>
        <time>2021-02-06T19:15:40Z</time>
      </trkpt>
      <trkpt lat="44.18325" lon="5.02886">
        <ele>240</ele>
        <time>2021-02-06T19:15:45Z</time>
      </trkpt>
      <trkpt lat="44.18327" lon="5.02902">
        <ele>241</ele>
        <time>2021-02-06T19:15:50Z</time>
      </trkpt>
      <trkpt lat="44.18324" lon="5.02962">
        <ele>247</ele>
        <time>2021-02-06T19:15:55Z</time>
      </trkpt>
      <trkpt lat="44.18324" lon="5.02978">
        <ele>249</ele>
        <time>2021-02-06T19:16:00Z</time>
      </trkpt>
      <trkpt lat="44.18317" lon="5.03023">
        <ele>257</ele>
        <time>2021-02-06T19:16:05Z</time>
      </trkpt>
      <trkpt lat="44.18313" lon="5.03038">
        <ele>260</ele>
        <time>2021-02-06T19:16:10Z</time>
      </trkpt>
      <trkpt lat="44.1831" lon="5.03075">
        <ele>265</ele>
        <time>2021-02-06T19:16:15Z</time>
      </trkpt>
      <trkpt lat="44.18314" lon="5.03089">
        <ele>265</ele>
        <time>2021-02-06T19:16:20Z</time>
      </trkpt>
      <trkpt lat="44.18323" lon="5.03111">
        <ele>264</ele>
        <time>2021-02-06T19:16:25Z</time>
      </trkpt>
      <trkpt lat="44.18327" lon="5.03129">
        <ele>262</ele>
        <time>2021-02-06T19:16:30Z</time>
      </trkpt>
      <trkpt lat="44.18326" lon="5.03147">
        <ele>260</ele>
        <time>2021-02-06T19:16:35Z</time>
      </trkpt>
      <trkpt lat="44.1831" lon="5.03165">
        <ele>260</ele>
        <time>2021-02-06T09:52:41Z</time>
      </trkpt>
      <trkpt lat="44.18301" lon="5.03175">
        <ele>260</ele>
        <time>2021-02-06T09:52:43Z</time>
      </trkpt>
      <trkpt lat="44.18296" lon="5.03174">
        <ele>262</ele>
        <time>2021-02-06T09:52:46Z</time>
      </trkpt>
      <trkpt lat="44.18292" lon="5.03175">
        <ele>262</ele>
        <time>2021-02-06T09:52:48Z</time>
      </trkpt>
      <trkpt lat="44.1829" lon="5.03175">
        <ele>263</ele>
        <time>2021-02-06T09:52:49Z</time>
      </trkpt>
      <trkpt lat="44.18286" lon="5.03176">
        <ele>263</ele>
        <time>2021-02-06T09:52:51Z</time>
      </trkpt>
      <trkpt lat="44.18283" lon="5.03176">
        <ele>264</ele>
        <time>2021-02-06T09:52:52Z</time>
      </trkpt>
      <trkpt lat="44.18279" lon="5.03176">
        <ele>265</ele>
        <time>2021-02-06T09:52:54Z</time>
      </trkpt>
      <trkpt lat="44.18273" lon="5.03173">
        <ele>266</ele>
        <time>2021-02-06T09:52:57Z</time>
      </trkpt>
      <trkpt lat="44.18267" lon="5.0317">
        <ele>267</ele>
        <time>2021-02-06T09:53:00Z</time>
      </trkpt>
      <trkpt lat="44.18259" lon="5.03166">
        <ele>268</ele>
        <time>2021-02-06T09:53:04Z</time>
      </trkpt>
      <trkpt lat="44.18254" lon="5.03164">
        <ele>268</ele>
        <time>2021-02-06T09:53:06Z</time>
      </trkpt>
      <trkpt lat="44.18248" lon="5.03162">
        <ele>269</ele>
        <time>2021-02-06T09:53:08Z</time>
      </trkpt>
      <trkpt lat="44.18241" lon="5.0316">
        <ele>270</ele>
        <time>2021-02-06T09:53:11Z</time>
      </trkpt>
      <trkpt lat="44.18234" lon="5.03159">
        <ele>270</ele>
        <time>2021-02-06T09:53:14Z</time>
      </trkpt>
      <trkpt lat="44.1823" lon="5.03157">
        <ele>271</ele>
        <time>2021-02-06T09:53:16Z</time>
      </trkpt>
      <trkpt lat="44.18225" lon="5.03157">
        <ele>271</ele>
        <time>2021-02-06T09:53:18Z</time>
      </trkpt>
      <trkpt lat="44.1822" lon="5.03156">
        <ele>271</ele>
        <time>2021-02-06T09:53:20Z</time>
      </trkpt>
      <trkpt lat="44.18215" lon="5.03155">
        <ele>272</ele>
        <time>2021-02-06T09:53:22Z</time>
      </trkpt>
      <trkpt lat="44.18208" lon="5.03154">
        <ele>272</ele>
        <time>2021-02-06T09:53:25Z</time>
      </trkpt>
      <trkpt lat="44.18203" lon="5.03153">
        <ele>272</ele>
        <time>2021-02-06T09:53:27Z</time>
      </trkpt>
      <trkpt lat="44.18198" lon="5.03153">
        <ele>272</ele>
        <time>2021-02-06T09:53:29Z</time>
      </trkpt>
      <trkpt lat="44.18193" lon="5.03151">
        <ele>272</ele>
        <time>2021-02-06T09:53:31Z</time>
      </trkpt>
      <trkpt lat="44.18187" lon="5.0315">
        <ele>272</ele>
        <time>2021-02-06T09:53:33Z</time>
      </trkpt>
      <trkpt lat="44.18182" lon="5.0315">
        <ele>272</ele>
        <time>2021-02-06T09:53:35Z</time>
      </trkpt>
      <trkpt lat="44.18177" lon="5.03149">
        <ele>271</ele>
        <time>2021-02-06T09:53:37Z</time>
      </trkpt>
      <trkpt lat="44.18172" lon="5.03148">
        <ele>271</ele>
        <time>2021-02-06T09:53:39Z</time>
      </trkpt>
      <trkpt lat="44.18163" lon="5.03147">
        <ele>271</ele>
        <time>2021-02-06T09:53:42Z</time>
      </trkpt>
      <trkpt lat="44.18158" lon="5.03147">
        <ele>270</ele>
        <time>2021-02-06T09:53:44Z</time>
      </trkpt>
      <trkpt lat="44.1815" lon="5.03145">
        <ele>270</ele>
        <time>2021-02-06T09:53:47Z</time>
      </trkpt>
      <trkpt lat="44.18144" lon="5.03144">
        <ele>270</ele>
        <time>2021-02-06T09:53:49Z</time>
      </trkpt>
      <trkpt lat="44.18139" lon="5.03144">
        <ele>270</ele>
        <time>2021-02-06T09:53:51Z</time>
      </trkpt>
      <trkpt lat="44.18134" lon="5.03143">
        <ele>270</ele>
        <time>2021-02-06T09:53:53Z</time>
      </trkpt>
      <trkpt lat="44.18123" lon="5.03142">
        <ele>271</ele>
        <time>2021-02-06T09:53:57Z</time>
      </trkpt>
      <trkpt lat="44.18118" lon="5.03141">
        <ele>272</ele>
        <time>2021-02-06T09:53:59Z</time>
      </trkpt>
      <trkpt lat="44.18114" lon="5.03138">
        <ele>272</ele>
        <time>2021-02-06T09:54:01Z</time>
      </trkpt>
      <trkpt lat="44.1811" lon="5.03134">
        <ele>272</ele>
        <time>2021-02-06T09:54:03Z</time>
      </trkpt>
      <trkpt lat="44.18106" lon="5.03131">
        <ele>272</ele>
        <time>2021-02-06T09:54:05Z</time>
      </trkpt>
      <trkpt lat="44.18102" lon="5.03127">
        <ele>273</ele>
        <time>2021-02-06T09:54:07Z</time>
      </trkpt>
      <trkpt lat="44.18098" lon="5.03125">
        <ele>273</ele>
        <time>2021-02-06T09:54:09Z</time>
      </trkpt>
      <trkpt lat="44.18091" lon="5.03123">
        <ele>274</ele>
        <time>2021-02-06T09:54:12Z</time>
      </trkpt>
      <trkpt lat="44.18085" lon="5.03123">
        <ele>275</ele>
        <time>2021-02-06T09:54:14Z</time>
      </trkpt>
      <trkpt lat="44.18081" lon="5.03123">
        <ele>276</ele>
        <time>2021-02-06T09:54:16Z</time>
      </trkpt>
      <trkpt lat="44.18076" lon="5.03124">
        <ele>276</ele>
        <time>2021-02-06T09:54:19Z</time>
      </trkpt>
      <trkpt lat="44.18071" lon="5.03127">
        <ele>277</ele>
        <time>2021-02-06T09:54:23Z</time>
      </trkpt>
      <trkpt lat="44.18066" lon="5.0313">
        <ele>278</ele>
        <time>2021-02-06T09:54:27Z</time>
      </trkpt>
      <trkpt lat="44.18061" lon="5.03134">
        <ele>279</ele>
        <time>2021-02-06T09:54:31Z</time>
      </trkpt>
      <trkpt lat="44.18056" lon="5.03136">
        <ele>280</ele>
        <time>2021-02-06T09:54:35Z</time>
      </trkpt>
      <trkpt lat="44.1805" lon="5.03137">
        <ele>280</ele>
        <time>2021-02-06T09:54:39Z</time>
      </trkpt>
      <trkpt lat="44.18045" lon="5.03138">
        <ele>280</ele>
        <time>2021-02-06T09:54:43Z</time>
      </trkpt>
      <trkpt lat="44.18042" lon="5.03139">
        <ele>281</ele>
        <time>2021-02-06T09:54:45Z</time>
      </trkpt>
      <trkpt lat="44.18035" lon="5.03142">
        <ele>281</ele>
        <time>2021-02-06T09:54:49Z</time>
      </trkpt>
      <trkpt lat="44.18028" lon="5.03144">
        <ele>281</ele>
        <time>2021-02-06T09:54:53Z</time>
      </trkpt>
      <trkpt lat="44.18024" lon="5.03146">
        <ele>282</ele>
        <time>2021-02-06T09:54:56Z</time>
      </trkpt>
      <trkpt lat="44.1802" lon="5.03147">
        <ele>282</ele>
        <time>2021-02-06T09:54:58Z</time>
      </trkpt>
      <trkpt lat="44.18016" lon="5.0315">
        <ele>283</ele>
        <time>2021-02-06T09:55:00Z</time>
      </trkpt>
      <trkpt lat="44.1801" lon="5.03153">
        <ele>284</ele>
        <time>2021-02-06T09:55:03Z</time>
      </trkpt>
      <trkpt lat="44.18008" lon="5.03153">
        <ele>284</ele>
        <time>2021-02-06T09:55:04Z</time>
      </trkpt>
      <trkpt lat="44.18004" lon="5.03155">
        <ele>285</ele>
        <time>2021-02-06T09:55:06Z</time>
      </trkpt>
      <trkpt lat="44.17998" lon="5.03158">
        <ele>286</ele>
        <time>2021-02-06T09:55:09Z</time>
      </trkpt>
      <trkpt lat="44.17996" lon="5.03159">
        <ele>286</ele>
        <time>2021-02-06T09:55:10Z</time>
      </trkpt>
      <trkpt lat="44.17992" lon="5.03162">
        <ele>287</ele>
        <time>2021-02-06T09:55:12Z</time>
      </trkpt>
      <trkpt lat="44.17987" lon="5.03167">
        <ele>287</ele>
        <time>2021-02-06T09:55:15Z</time>
      </trkpt>
      <trkpt lat="44.17984" lon="5.0317">
        <ele>288</ele>
        <time>2021-02-06T09:55:17Z</time>
      </trkpt>
      <trkpt lat="44.1798" lon="5.03173">
        <ele>288</ele>
        <time>2021-02-06T09:55:19Z</time>
      </trkpt>
      <trkpt lat="44.17978" lon="5.03174">
        <ele>288</ele>
        <time>2021-02-06T09:55:20Z</time>
      </trkpt>
      <trkpt lat="44.17975" lon="5.03177">
        <ele>289</ele>
        <time>2021-02-06T09:55:22Z</time>
      </trkpt>
      <trkpt lat="44.17972" lon="5.0318">
        <ele>289</ele>
        <time>2021-02-06T09:55:24Z</time>
      </trkpt>
      <trkpt lat="44.17968" lon="5.03183">
        <ele>289</ele>
        <time>2021-02-06T09:55:26Z</time>
      </trkpt>
      <trkpt lat="44.17964" lon="5.03185">
        <ele>290</ele>
        <time>2021-02-06T09:55:28Z</time>
      </trkpt>
      <trkpt lat="44.1796" lon="5.03189">
        <ele>290</ele>
        <time>2021-02-06T09:55:30Z</time>
      </trkpt>
      <trkpt lat="44.17957" lon="5.03192">
        <ele>291</ele>
        <time>2021-02-06T09:55:32Z</time>
      </trkpt>
      <trkpt lat="44.17955" lon="5.03194">
        <ele>291</ele>
        <time>2021-02-06T09:55:33Z</time>
      </trkpt>
      <trkpt lat="44.17953" lon="5.03199">
        <ele>291</ele>
        <time>2021-02-06T09:55:35Z</time>
      </trkpt>
      <trkpt lat="44.17951" lon="5.03204">
        <ele>292</ele>
        <time>2021-02-06T09:55:37Z</time>
      </trkpt>
      <trkpt lat="44.17949" lon="5.03209">
        <ele>293</ele>
        <time>2021-02-06T09:55:39Z</time>
      </trkpt>
      <trkpt lat="44.17946" lon="5.03218">
        <ele>293</ele>
        <time>2021-02-06T09:55:42Z</time>
      </trkpt>
      <trkpt lat="44.17945" lon="5.03225">
        <ele>294</ele>
        <time>2021-02-06T09:55:45Z</time>
      </trkpt>
      <trkpt lat="44.17944" lon="5.0323">
        <ele>295</ele>
        <time>2021-02-06T09:55:47Z</time>
      </trkpt>
      <trkpt lat="44.17943" lon="5.03235">
        <ele>295</ele>
        <time>2021-02-06T09:55:49Z</time>
      </trkpt>
      <trkpt lat="44.17942" lon="5.03242">
        <ele>296</ele>
        <time>2021-02-06T09:55:52Z</time>
      </trkpt>
      <trkpt lat="44.1794" lon="5.03247">
        <ele>296</ele>
        <time>2021-02-06T09:55:54Z</time>
      </trkpt>
      <trkpt lat="44.17939" lon="5.03251">
        <ele>297</ele>
        <time>2021-02-06T09:55:56Z</time>
      </trkpt>
      <trkpt lat="44.17937" lon="5.03256">
        <ele>297</ele>
        <time>2021-02-06T09:55:58Z</time>
      </trkpt>
      <trkpt lat="44.17932" lon="5.03264">
        <ele>298</ele>
        <time>2021-02-06T09:56:01Z</time>
      </trkpt>
      <trkpt lat="44.17929" lon="5.03268">
        <ele>298</ele>
        <time>2021-02-06T09:56:03Z</time>
      </trkpt>
      <trkpt lat="44.17925" lon="5.03272">
        <ele>299</ele>
        <time>2021-02-06T09:56:05Z</time>
      </trkpt>
      <trkpt lat="44.17921" lon="5.03273">
        <ele>299</ele>
        <time>2021-02-06T09:56:07Z</time>
      </trkpt>
      <trkpt lat="44.17917" lon="5.03274">
        <ele>300</ele>
        <time>2021-02-06T09:56:09Z</time>
      </trkpt>
      <trkpt lat="44.17911" lon="5.03275">
        <ele>300</ele>
        <time>2021-02-06T09:56:12Z</time>
      </trkpt>
      <trkpt lat="44.17905" lon="5.03276">
        <ele>301</ele>
        <time>2021-02-06T09:56:15Z</time>
      </trkpt>
      <trkpt lat="44.17899" lon="5.03278">
        <ele>302</ele>
        <time>2021-02-06T09:56:18Z</time>
      </trkpt>
      <trkpt lat="44.17893" lon="5.03279">
        <ele>303</ele>
        <time>2021-02-06T09:56:21Z</time>
      </trkpt>
      <trkpt lat="44.17886" lon="5.03278">
        <ele>303</ele>
        <time>2021-02-06T09:56:24Z</time>
      </trkpt>
      <trkpt lat="44.17882" lon="5.03278">
        <ele>304</ele>
        <time>2021-02-06T09:56:26Z</time>
      </trkpt>
      <trkpt lat="44.1788" lon="5.03277">
        <ele>304</ele>
        <time>2021-02-06T09:56:27Z</time>
      </trkpt>
      <trkpt lat="44.17875" lon="5.03276">
        <ele>305</ele>
        <time>2021-02-06T09:56:29Z</time>
      </trkpt>
      <trkpt lat="44.17871" lon="5.03274">
        <ele>305</ele>
        <time>2021-02-06T09:56:31Z</time>
      </trkpt>
      <trkpt lat="44.17867" lon="5.03272">
        <ele>306</ele>
        <time>2021-02-06T09:56:33Z</time>
      </trkpt>
      <trkpt lat="44.17862" lon="5.0327">
        <ele>306</ele>
        <time>2021-02-06T09:56:35Z</time>
      </trkpt>
      <trkpt lat="44.17858" lon="5.03267">
        <ele>307</ele>
        <time>2021-02-06T09:56:37Z</time>
      </trkpt>
      <trkpt lat="44.17854" lon="5.03263">
        <ele>307</ele>
        <time>2021-02-06T09:56:39Z</time>
      </trkpt>
      <trkpt lat="44.17853" lon="5.03261">
        <ele>307</ele>
        <time>2021-02-06T09:56:40Z</time>
      </trkpt>
      <trkpt lat="44.1785" lon="5.03256">
        <ele>307</ele>
        <time>2021-02-06T09:56:42Z</time>
      </trkpt>
      <trkpt lat="44.17849" lon="5.03253">
        <ele>307</ele>
        <time>2021-02-06T09:56:43Z</time>
      </trkpt>
      <trkpt lat="44.17848" lon="5.0325">
        <ele>307</ele>
        <time>2021-02-06T09:56:44Z</time>
      </trkpt>
      <trkpt lat="44.17847" lon="5.03245">
        <ele>307</ele>
        <time>2021-02-06T09:56:46Z</time>
      </trkpt>
      <trkpt lat="44.17846" lon="5.03242">
        <ele>307</ele>
        <time>2021-02-06T09:56:47Z</time>
      </trkpt>
      <trkpt lat="44.17844" lon="5.03236">
        <ele>308</ele>
        <time>2021-02-06T09:56:49Z</time>
      </trkpt>
      <trkpt lat="44.17843" lon="5.03233">
        <ele>308</ele>
        <time>2021-02-06T09:56:50Z</time>
      </trkpt>
      <trkpt lat="44.1784" lon="5.03228">
        <ele>309</ele>
        <time>2021-02-06T09:56:52Z</time>
      </trkpt>
      <trkpt lat="44.17839" lon="5.03225">
        <ele>309</ele>
        <time>2021-02-06T09:56:53Z</time>
      </trkpt>
      <trkpt lat="44.17837" lon="5.0322">
        <ele>309</ele>
        <time>2021-02-06T09:56:55Z</time>
      </trkpt>
      <trkpt lat="44.17835" lon="5.03218">
        <ele>310</ele>
        <time>2021-02-06T09:56:56Z</time>
      </trkpt>
      <trkpt lat="44.17832" lon="5.03213">
        <ele>310</ele>
        <time>2021-02-06T09:56:58Z</time>
      </trkpt>
      <trkpt lat="44.17829" lon="5.03209">
        <ele>311</ele>
        <time>2021-02-06T09:57:00Z</time>
      </trkpt>
      <trkpt lat="44.17826" lon="5.03205">
        <ele>312</ele>
        <time>2021-02-06T09:57:02Z</time>
      </trkpt>
      <trkpt lat="44.17824" lon="5.03203">
        <ele>312</ele>
        <time>2021-02-06T09:57:03Z</time>
      </trkpt>
      <trkpt lat="44.17821" lon="5.03199">
        <ele>313</ele>
        <time>2021-02-06T09:57:05Z</time>
      </trkpt>
      <trkpt lat="44.1782" lon="5.03196">
        <ele>313</ele>
        <time>2021-02-06T09:57:06Z</time>
      </trkpt>
      <trkpt lat="44.17819" lon="5.03194">
        <ele>313</ele>
        <time>2021-02-06T09:57:07Z</time>
      </trkpt>
      <trkpt lat="44.17816" lon="5.0319">
        <ele>313</ele>
        <time>2021-02-06T09:57:09Z</time>
      </trkpt>
      <trkpt lat="44.17815" lon="5.03188">
        <ele>314</ele>
        <time>2021-02-06T09:57:10Z</time>
      </trkpt>
      <trkpt lat="44.17813" lon="5.03186">
        <ele>314</ele>
        <time>2021-02-06T09:57:11Z</time>
      </trkpt>
      <trkpt lat="44.1781" lon="5.03182">
        <ele>314</ele>
        <time>2021-02-06T09:57:13Z</time>
      </trkpt>
      <trkpt lat="44.17809" lon="5.0318">
        <ele>314</ele>
        <time>2021-02-06T09:57:14Z</time>
      </trkpt>
      <trkpt lat="44.17807" lon="5.03178">
        <ele>314</ele>
        <time>2021-02-06T09:57:15Z</time>
      </trkpt>
      <trkpt lat="44.17806" lon="5.03175">
        <ele>315</ele>
        <time>2021-02-06T09:57:16Z</time>
      </trkpt>
      <trkpt lat="44.17804" lon="5.03173">
        <ele>315</ele>
        <time>2021-02-06T09:57:17Z</time>
      </trkpt>
      <trkpt lat="44.17803" lon="5.0317">
        <ele>315</ele>
        <time>2021-02-06T09:57:18Z</time>
      </trkpt>
      <trkpt lat="44.17802" lon="5.03168">
        <ele>315</ele>
        <time>2021-02-06T09:57:19Z</time>
      </trkpt>
      <trkpt lat="44.178" lon="5.03165">
        <ele>315</ele>
        <time>2021-02-06T09:57:20Z</time>
      </trkpt>
      <trkpt lat="44.17799" lon="5.03163">
        <ele>315</ele>
        <time>2021-02-06T09:57:21Z</time>
      </trkpt>
      <trkpt lat="44.17798" lon="5.0316">
        <ele>315</ele>
        <time>2021-02-06T09:57:22Z</time>
      </trkpt>
      <trkpt lat="44.17796" lon="5.03157">
        <ele>315</ele>
        <time>2021-02-06T09:57:23Z</time>
      </trkpt>
      <trkpt lat="44.17795" lon="5.03154">
        <ele>315</ele>
        <time>2021-02-06T09:57:24Z</time>
      </trkpt>
      <trkpt lat="44.17793" lon="5.03153">
        <ele>315</ele>
        <time>2021-02-06T09:57:25Z</time>
      </trkpt>
      <trkpt lat="44.17791" lon="5.03151">
        <ele>315</ele>
        <time>2021-02-06T09:57:26Z</time>
      </trkpt>
      <trkpt lat="44.17789" lon="5.03151">
        <ele>315</ele>
        <time>2021-02-06T09:57:27Z</time>
      </trkpt>
      <trkpt lat="44.17787" lon="5.03151">
        <ele>316</ele>
        <time>2021-02-06T09:57:28Z</time>
      </trkpt>
      <trkpt lat="44.17785" lon="5.03152">
        <ele>316</ele>
        <time>2021-02-06T09:57:29Z</time>
      </trkpt>
      <trkpt lat="44.17783" lon="5.03154">
        <ele>317</ele>
        <time>2021-02-06T09:57:31Z</time>
      </trkpt>
      <trkpt lat="44.17782" lon="5.03156">
        <ele>317</ele>
        <time>2021-02-06T09:57:32Z</time>
      </trkpt>
      <trkpt lat="44.17781" lon="5.03159">
        <ele>318</ele>
        <time>2021-02-06T09:57:33Z</time>
      </trkpt>
      <trkpt lat="44.17781" lon="5.03161">
        <ele>318</ele>
        <time>2021-02-06T09:57:34Z</time>
      </trkpt>
      <trkpt lat="44.17779" lon="5.03166">
        <ele>319</ele>
        <time>2021-02-06T09:57:36Z</time>
      </trkpt>
      <trkpt lat="44.17778" lon="5.03169">
        <ele>319</ele>
        <time>2021-02-06T09:57:37Z</time>
      </trkpt>
      <trkpt lat="44.17778" lon="5.03172">
        <ele>319</ele>
        <time>2021-02-06T09:57:38Z</time>
      </trkpt>
      <trkpt lat="44.17778" lon="5.03175">
        <ele>319</ele>
        <time>2021-02-06T09:57:39Z</time>
      </trkpt>
      <trkpt lat="44.17778" lon="5.03177">
        <ele>319</ele>
        <time>2021-02-06T09:57:40Z</time>
      </trkpt>
      <trkpt lat="44.17777" lon="5.0318">
        <ele>320</ele>
        <time>2021-02-06T09:57:41Z</time>
      </trkpt>
      <trkpt lat="44.17776" lon="5.03183">
        <ele>320</ele>
        <time>2021-02-06T09:57:42Z</time>
      </trkpt>
      <trkpt lat="44.17775" lon="5.03186">
        <ele>320</ele>
        <time>2021-02-06T09:57:43Z</time>
      </trkpt>
      <trkpt lat="44.17774" lon="5.03189">
        <ele>320</ele>
        <time>2021-02-06T09:57:44Z</time>
      </trkpt>
      <trkpt lat="44.17773" lon="5.03192">
        <ele>321</ele>
        <time>2021-02-06T09:57:45Z</time>
      </trkpt>
      <trkpt lat="44.17771" lon="5.03194">
        <ele>321</ele>
        <time>2021-02-06T09:57:46Z</time>
      </trkpt>
      <trkpt lat="44.1777" lon="5.03197">
        <ele>321</ele>
        <time>2021-02-06T09:57:47Z</time>
      </trkpt>
      <trkpt lat="44.17768" lon="5.032">
        <ele>322</ele>
        <time>2021-02-06T09:57:48Z</time>
      </trkpt>
      <trkpt lat="44.17766" lon="5.03203">
        <ele>322</ele>
        <time>2021-02-06T09:57:49Z</time>
      </trkpt>
      <trkpt lat="44.17765" lon="5.03205">
        <ele>322</ele>
        <time>2021-02-06T09:57:50Z</time>
      </trkpt>
      <trkpt lat="44.17763" lon="5.03208">
        <ele>323</ele>
        <time>2021-02-06T09:57:51Z</time>
      </trkpt>
      <trkpt lat="44.17762" lon="5.03211">
        <ele>323</ele>
        <time>2021-02-06T09:57:52Z</time>
      </trkpt>
      <trkpt lat="44.17761" lon="5.03213">
        <ele>324</ele>
        <time>2021-02-06T09:57:53Z</time>
      </trkpt>
      <trkpt lat="44.1776" lon="5.03216">
        <ele>324</ele>
        <time>2021-02-06T09:57:54Z</time>
      </trkpt>
      <trkpt lat="44.17758" lon="5.03218">
        <ele>324</ele>
        <time>2021-02-06T09:57:55Z</time>
      </trkpt>
      <trkpt lat="44.17757" lon="5.0322">
        <ele>325</ele>
        <time>2021-02-06T09:57:56Z</time>
      </trkpt>
      <trkpt lat="44.17756" lon="5.03223">
        <ele>325</ele>
        <time>2021-02-06T09:57:57Z</time>
      </trkpt>
      <trkpt lat="44.17755" lon="5.03225">
        <ele>325</ele>
        <time>2021-02-06T09:57:58Z</time>
      </trkpt>
      <trkpt lat="44.17753" lon="5.03229">
        <ele>326</ele>
        <time>2021-02-06T09:58:00Z</time>
      </trkpt>
      <trkpt lat="44.17751" lon="5.0323">
        <ele>326</ele>
        <time>2021-02-06T09:58:01Z</time>
      </trkpt>
      <trkpt lat="44.17749" lon="5.03234">
        <ele>327</ele>
        <time>2021-02-06T09:58:03Z</time>
      </trkpt>
      <trkpt lat="44.17747" lon="5.03235">
        <ele>327</ele>
        <time>2021-02-06T09:58:04Z</time>
      </trkpt>
      <trkpt lat="44.17745" lon="5.03236">
        <ele>327</ele>
        <time>2021-02-06T09:58:05Z</time>
      </trkpt>
      <trkpt lat="44.17742" lon="5.03237">
        <ele>328</ele>
        <time>2021-02-06T09:58:07Z</time>
      </trkpt>
      <trkpt lat="44.1774" lon="5.03236">
        <ele>328</ele>
        <time>2021-02-06T09:58:09Z</time>
      </trkpt>
      <trkpt lat="44.17737" lon="5.03236">
        <ele>329</ele>
        <time>2021-02-06T09:58:11Z</time>
      </trkpt>
      <trkpt lat="44.17734" lon="5.03234">
        <ele>329</ele>
        <time>2021-02-06T09:58:13Z</time>
      </trkpt>
      <trkpt lat="44.17732" lon="5.03232">
        <ele>330</ele>
        <time>2021-02-06T09:58:15Z</time>
      </trkpt>
      <trkpt lat="44.1773" lon="5.03231">
        <ele>330</ele>
        <time>2021-02-06T09:58:16Z</time>
      </trkpt>
      <trkpt lat="44.17728" lon="5.03228">
        <ele>330</ele>
        <time>2021-02-06T09:58:18Z</time>
      </trkpt>
      <trkpt lat="44.17726" lon="5.03225">
        <ele>330</ele>
        <time>2021-02-06T09:58:20Z</time>
      </trkpt>
      <trkpt lat="44.17724" lon="5.03223">
        <ele>331</ele>
        <time>2021-02-06T09:58:22Z</time>
      </trkpt>
      <trkpt lat="44.17721" lon="5.0322">
        <ele>331</ele>
        <time>2021-02-06T09:58:24Z</time>
      </trkpt>
      <trkpt lat="44.17719" lon="5.03217">
        <ele>331</ele>
        <time>2021-02-06T09:58:26Z</time>
      </trkpt>
      <trkpt lat="44.17717" lon="5.03214">
        <ele>332</ele>
        <time>2021-02-06T09:58:28Z</time>
      </trkpt>
      <trkpt lat="44.17715" lon="5.03212">
        <ele>332</ele>
        <time>2021-02-06T09:58:29Z</time>
      </trkpt>
      <trkpt lat="44.17714" lon="5.03211">
        <ele>332</ele>
        <time>2021-02-06T09:58:30Z</time>
      </trkpt>
      <trkpt lat="44.17712" lon="5.03209">
        <ele>333</ele>
        <time>2021-02-06T09:58:31Z</time>
      </trkpt>
      <trkpt lat="44.1771" lon="5.03208">
        <ele>333</ele>
        <time>2021-02-06T09:58:32Z</time>
      </trkpt>
      <trkpt lat="44.17708" lon="5.03207">
        <ele>333</ele>
        <time>2021-02-06T09:58:33Z</time>
      </trkpt>
      <trkpt lat="44.17706" lon="5.03206">
        <ele>334</ele>
        <time>2021-02-06T09:58:34Z</time>
      </trkpt>
      <trkpt lat="44.17703" lon="5.03207">
        <ele>334</ele>
        <time>2021-02-06T09:58:35Z</time>
      </trkpt>
      <trkpt lat="44.17701" lon="5.03207">
        <ele>335</ele>
        <time>2021-02-06T09:58:36Z</time>
      </trkpt>
      <trkpt lat="44.17699" lon="5.03208">
        <ele>335</ele>
        <time>2021-02-06T09:58:37Z</time>
      </trkpt>
      <trkpt lat="44.17697" lon="5.03209">
        <ele>336</ele>
        <time>2021-02-06T09:58:38Z</time>
      </trkpt>
      <trkpt lat="44.17695" lon="5.0321">
        <ele>336</ele>
        <time>2021-02-06T09:58:39Z</time>
      </trkpt>
      <trkpt lat="44.17693" lon="5.0321">
        <ele>336</ele>
        <time>2021-02-06T09:58:40Z</time>
      </trkpt>
      <trkpt lat="44.17689" lon="5.03211">
        <ele>337</ele>
        <time>2021-02-06T09:58:42Z</time>
      </trkpt>
      <trkpt lat="44.17688" lon="5.03212">
        <ele>338</ele>
        <time>2021-02-06T09:58:43Z</time>
      </trkpt>
      <trkpt lat="44.17685" lon="5.03213">
        <ele>338</ele>
        <time>2021-02-06T09:58:45Z</time>
      </trkpt>
      <trkpt lat="44.17681" lon="5.03214">
        <ele>339</ele>
        <time>2021-02-06T09:58:47Z</time>
      </trkpt>
      <trkpt lat="44.17677" lon="5.03215">
        <ele>340</ele>
        <time>2021-02-06T09:58:49Z</time>
      </trkpt>
      <trkpt lat="44.17675" lon="5.03215">
        <ele>341</ele>
        <time>2021-02-06T09:58:50Z</time>
      </trkpt>
      <trkpt lat="44.17671" lon="5.03216">
        <ele>342</ele>
        <time>2021-02-06T09:58:52Z</time>
      </trkpt>
      <trkpt lat="44.17667" lon="5.03217">
        <ele>343</ele>
        <time>2021-02-06T09:58:54Z</time>
      </trkpt>
      <trkpt lat="44.17663" lon="5.03218">
        <ele>343</ele>
        <time>2021-02-06T09:58:56Z</time>
      </trkpt>
      <trkpt lat="44.17661" lon="5.03218">
        <ele>344</ele>
        <time>2021-02-06T09:58:57Z</time>
      </trkpt>
      <trkpt lat="44.17657" lon="5.03218">
        <ele>344</ele>
        <time>2021-02-06T09:58:59Z</time>
      </trkpt>
      <trkpt lat="44.17653" lon="5.03219">
        <ele>345</ele>
        <time>2021-02-06T09:59:01Z</time>
      </trkpt>
      <trkpt lat="44.17649" lon="5.0322">
        <ele>345</ele>
        <time>2021-02-06T09:59:03Z</time>
      </trkpt>
      <trkpt lat="44.17642" lon="5.03221">
        <ele>346</ele>
        <time>2021-02-06T09:59:06Z</time>
      </trkpt>
      <trkpt lat="44.17635" lon="5.03222">
        <ele>348</ele>
        <time>2021-02-06T09:59:10Z</time>
      </trkpt>
      <trkpt lat="44.17633" lon="5.03223">
        <ele>348</ele>
        <time>2021-02-06T09:59:11Z</time>
      </trkpt>
      <trkpt lat="44.17628" lon="5.03224">
        <ele>350</ele>
        <time>2021-02-06T09:59:14Z</time>
      </trkpt>
      <trkpt lat="44.17625" lon="5.03225">
        <ele>351</ele>
        <time>2021-02-06T09:59:16Z</time>
      </trkpt>
      <trkpt lat="44.1762" lon="5.03226">
        <ele>352</ele>
        <time>2021-02-06T09:59:20Z</time>
      </trkpt>
      <trkpt lat="44.17615" lon="5.03229">
        <ele>354</ele>
        <time>2021-02-06T09:59:24Z</time>
      </trkpt>
      <trkpt lat="44.17611" lon="5.03229">
        <ele>355</ele>
        <time>2021-02-06T09:59:28Z</time>
      </trkpt>
      <trkpt lat="44.17608" lon="5.03228">
        <ele>356</ele>
        <time>2021-02-06T09:59:31Z</time>
      </trkpt>
      <trkpt lat="44.17607" lon="5.03225">
        <ele>356</ele>
        <time>2021-02-06T09:59:35Z</time>
      </trkpt>
      <trkpt lat="44.17607" lon="5.03223">
        <ele>355</ele>
        <time>2021-02-06T09:59:52Z</time>
      </trkpt>
      <trkpt lat="44.17606" lon="5.03218">
        <ele>355</ele>
        <time>2021-02-06T10:00:02Z</time>
      </trkpt>
      <trkpt lat="44.17607" lon="5.03212">
        <ele>355</ele>
        <time>2021-02-06T10:00:43Z</time>
      </trkpt>
      <trkpt lat="44.17606" lon="5.03204">
        <ele>354</ele>
        <time>2021-02-06T10:01:01Z</time>
      </trkpt>
      <trkpt lat="44.17605" lon="5.03201">
        <ele>354</ele>
        <time>2021-02-06T10:01:03Z</time>
      </trkpt>
      <trkpt lat="44.17605" lon="5.03198">
        <ele>354</ele>
        <time>2021-02-06T10:01:05Z</time>
      </trkpt>
      <trkpt lat="44.17604" lon="5.03193">
        <ele>354</ele>
        <time>2021-02-06T10:01:07Z</time>
      </trkpt>
      <trkpt lat="44.17603" lon="5.0319">
        <ele>354</ele>
        <time>2021-02-06T10:01:09Z</time>
      </trkpt>
      <trkpt lat="44.17602" lon="5.03186">
        <ele>354</ele>
        <time>2021-02-06T10:01:11Z</time>
      </trkpt>
      <trkpt lat="44.17601" lon="5.03182">
        <ele>354</ele>
        <time>2021-02-06T10:01:13Z</time>
      </trkpt>
      <trkpt lat="44.17601" lon="5.03178">
        <ele>354</ele>
        <time>2021-02-06T10:01:15Z</time>
      </trkpt>
      <trkpt lat="44.17601" lon="5.03174">
        <ele>354</ele>
        <time>2021-02-06T10:01:17Z</time>
      </trkpt>
      <trkpt lat="44.176" lon="5.0317">
        <ele>354</ele>
        <time>2021-02-06T10:01:19Z</time>
      </trkpt>
      <trkpt lat="44.176" lon="5.03166">
        <ele>354</ele>
        <time>2021-02-06T10:01:21Z</time>
      </trkpt>
      <trkpt lat="44.176" lon="5.03163">
        <ele>353</ele>
        <time>2021-02-06T10:01:23Z</time>
      </trkpt>
      <trkpt lat="44.17599" lon="5.03159">
        <ele>353</ele>
        <time>2021-02-06T10:01:25Z</time>
      </trkpt>
      <trkpt lat="44.17599" lon="5.03155">
        <ele>353</ele>
        <time>2021-02-06T10:01:27Z</time>
      </trkpt>
      <trkpt lat="44.17598" lon="5.03151">
        <ele>353</ele>
        <time>2021-02-06T10:01:29Z</time>
      </trkpt>
      <trkpt lat="44.17598" lon="5.03147">
        <ele>353</ele>
        <time>2021-02-06T10:01:31Z</time>
      </trkpt>
      <trkpt lat="44.17597" lon="5.03142">
        <ele>353</ele>
        <time>2021-02-06T10:01:33Z</time>
      </trkpt>
      <trkpt lat="44.17597" lon="5.0314">
        <ele>353</ele>
        <time>2021-02-06T10:01:34Z</time>
      </trkpt>
      <trkpt lat="44.17595" lon="5.03135">
        <ele>353</ele>
        <time>2021-02-06T10:01:36Z</time>
      </trkpt>
      <trkpt lat="44.17594" lon="5.03132">
        <ele>353</ele>
        <time>2021-02-06T10:01:37Z</time>
      </trkpt>
      <trkpt lat="44.17593" lon="5.0313">
        <ele>353</ele>
        <time>2021-02-06T10:01:38Z</time>
      </trkpt>
      <trkpt lat="44.17592" lon="5.03127">
        <ele>353</ele>
        <time>2021-02-06T10:01:39Z</time>
      </trkpt>
      <trkpt lat="44.1759" lon="5.03125">
        <ele>353</ele>
        <time>2021-02-06T10:01:40Z</time>
      </trkpt>
      <trkpt lat="44.17589" lon="5.03122">
        <ele>353</ele>
        <time>2021-02-06T10:01:41Z</time>
      </trkpt>
      <trkpt lat="44.17589" lon="5.03119">
        <ele>353</ele>
        <time>2021-02-06T10:01:42Z</time>
      </trkpt>
      <trkpt lat="44.17587" lon="5.03117">
        <ele>353</ele>
        <time>2021-02-06T10:01:43Z</time>
      </trkpt>
      <trkpt lat="44.17586" lon="5.03114">
        <ele>353</ele>
        <time>2021-02-06T10:01:44Z</time>
      </trkpt>
      <trkpt lat="44.17585" lon="5.0311">
        <ele>353</ele>
        <time>2021-02-06T10:01:45Z</time>
      </trkpt>
      <trkpt lat="44.17584" lon="5.03107">
        <ele>353</ele>
        <time>2021-02-06T10:01:46Z</time>
      </trkpt>
      <trkpt lat="44.17582" lon="5.03105">
        <ele>353</ele>
        <time>2021-02-06T10:01:47Z</time>
      </trkpt>
      <trkpt lat="44.17581" lon="5.03102">
        <ele>353</ele>
        <time>2021-02-06T10:01:48Z</time>
      </trkpt>
      <trkpt lat="44.17579" lon="5.03098">
        <ele>353</ele>
        <time>2021-02-06T10:01:49Z</time>
      </trkpt>
      <trkpt lat="44.17577" lon="5.03095">
        <ele>353</ele>
        <time>2021-02-06T10:01:50Z</time>
      </trkpt>
      <trkpt lat="44.17575" lon="5.03092">
        <ele>354</ele>
        <time>2021-02-06T10:01:51Z</time>
      </trkpt>
      <trkpt lat="44.17574" lon="5.03089">
        <ele>354</ele>
        <time>2021-02-06T10:01:52Z</time>
      </trkpt>
      <trkpt lat="44.17572" lon="5.03085">
        <ele>354</ele>
        <time>2021-02-06T10:01:53Z</time>
      </trkpt>
      <trkpt lat="44.1757" lon="5.03081">
        <ele>354</ele>
        <time>2021-02-06T10:01:54Z</time>
      </trkpt>
      <trkpt lat="44.17569" lon="5.03078">
        <ele>354</ele>
        <time>2021-02-06T10:01:55Z</time>
      </trkpt>
      <trkpt lat="44.17567" lon="5.03075">
        <ele>354</ele>
        <time>2021-02-06T10:01:56Z</time>
      </trkpt>
      <trkpt lat="44.17566" lon="5.03072">
        <ele>354</ele>
        <time>2021-02-06T10:01:57Z</time>
      </trkpt>
      <trkpt lat="44.17565" lon="5.03069">
        <ele>354</ele>
        <time>2021-02-06T10:01:58Z</time>
      </trkpt>
      <trkpt lat="44.17563" lon="5.03065">
        <ele>354</ele>
        <time>2021-02-06T10:01:59Z</time>
      </trkpt>
      <trkpt lat="44.17562" lon="5.03062">
        <ele>354</ele>
        <time>2021-02-06T10:02:00Z</time>
      </trkpt>
      <trkpt lat="44.17561" lon="5.03059">
        <ele>353</ele>
        <time>2021-02-06T10:02:01Z</time>
      </trkpt>
      <trkpt lat="44.1756" lon="5.03056">
        <ele>353</ele>
        <time>2021-02-06T10:02:02Z</time>
      </trkpt>
      <trkpt lat="44.17559" lon="5.03053">
        <ele>353</ele>
        <time>2021-02-06T10:02:03Z</time>
      </trkpt>
      <trkpt lat="44.17558" lon="5.0305">
        <ele>353</ele>
        <time>2021-02-06T10:02:04Z</time>
      </trkpt>
      <trkpt lat="44.17557" lon="5.03048">
        <ele>353</ele>
        <time>2021-02-06T10:02:05Z</time>
      </trkpt>
      <trkpt lat="44.17556" lon="5.03045">
        <ele>353</ele>
        <time>2021-02-06T10:02:06Z</time>
      </trkpt>
      <trkpt lat="44.17555" lon="5.03042">
        <ele>353</ele>
        <time>2021-02-06T10:02:07Z</time>
      </trkpt>
      <trkpt lat="44.17554" lon="5.03039">
        <ele>353</ele>
        <time>2021-02-06T10:02:08Z</time>
      </trkpt>
      <trkpt lat="44.17552" lon="5.03035">
        <ele>353</ele>
        <time>2021-02-06T10:02:09Z</time>
      </trkpt>
      <trkpt lat="44.17551" lon="5.03033">
        <ele>353</ele>
        <time>2021-02-06T10:02:10Z</time>
      </trkpt>
      <trkpt lat="44.1755" lon="5.0303">
        <ele>353</ele>
        <time>2021-02-06T10:02:11Z</time>
      </trkpt>
      <trkpt lat="44.17549" lon="5.03027">
        <ele>353</ele>
        <time>2021-02-06T10:02:12Z</time>
      </trkpt>
      <trkpt lat="44.17548" lon="5.03024">
        <ele>353</ele>
        <time>2021-02-06T10:02:13Z</time>
      </trkpt>
      <trkpt lat="44.17547" lon="5.03021">
        <ele>353</ele>
        <time>2021-02-06T10:02:14Z</time>
      </trkpt>
      <trkpt lat="44.17546" lon="5.03018">
        <ele>353</ele>
        <time>2021-02-06T10:02:15Z</time>
      </trkpt>
      <trkpt lat="44.17545" lon="5.03015">
        <ele>353</ele>
        <time>2021-02-06T10:02:16Z</time>
      </trkpt>
      <trkpt lat="44.17544" lon="5.03012">
        <ele>353</ele>
        <time>2021-02-06T10:02:17Z</time>
      </trkpt>
      <trkpt lat="44.17544" lon="5.03008">
        <ele>353</ele>
        <time>2021-02-06T10:02:18Z</time>
      </trkpt>
      <trkpt lat="44.17542" lon="5.03005">
        <ele>353</ele>
        <time>2021-02-06T10:02:19Z</time>
      </trkpt>
      <trkpt lat="44.17541" lon="5.03002">
        <ele>353</ele>
        <time>2021-02-06T10:02:20Z</time>
      </trkpt>
      <trkpt lat="44.1754" lon="5.02999">
        <ele>353</ele>
        <time>2021-02-06T10:02:21Z</time>
      </trkpt>
      <trkpt lat="44.17539" lon="5.02996">
        <ele>353</ele>
        <time>2021-02-06T10:02:22Z</time>
      </trkpt>
      <trkpt lat="44.17538" lon="5.02993">
        <ele>353</ele>
        <time>2021-02-06T10:02:23Z</time>
      </trkpt>
      <trkpt lat="44.17537" lon="5.02989">
        <ele>353</ele>
        <time>2021-02-06T10:02:24Z</time>
      </trkpt>
      <trkpt lat="44.17536" lon="5.02986">
        <ele>353</ele>
        <time>2021-02-06T10:02:25Z</time>
      </trkpt>
      <trkpt lat="44.17535" lon="5.02983">
        <ele>353</ele>
        <time>2021-02-06T10:02:26Z</time>
      </trkpt>
      <trkpt lat="44.17534" lon="5.0298">
        <ele>353</ele>
        <time>2021-02-06T10:02:27Z</time>
      </trkpt>
      <trkpt lat="44.17533" lon="5.02976">
        <ele>353</ele>
        <time>2021-02-06T10:02:28Z</time>
      </trkpt>
      <trkpt lat="44.17532" lon="5.02973">
        <ele>353</ele>
        <time>2021-02-06T10:02:29Z</time>
      </trkpt>
      <trkpt lat="44.1753" lon="5.0297">
        <ele>353</ele>
        <time>2021-02-06T10:02:30Z</time>
      </trkpt>
      <trkpt lat="44.17529" lon="5.02966">
        <ele>353</ele>
        <time>2021-02-06T10:02:31Z</time>
      </trkpt>
      <trkpt lat="44.17527" lon="5.02963">
        <ele>353</ele>
        <time>2021-02-06T10:02:32Z</time>
      </trkpt>
      <trkpt lat="44.17526" lon="5.0296">
        <ele>353</ele>
        <time>2021-02-06T10:02:33Z</time>
      </trkpt>
      <trkpt lat="44.17524" lon="5.02957">
        <ele>353</ele>
        <time>2021-02-06T10:02:34Z</time>
      </trkpt>
      <trkpt lat="44.17523" lon="5.02953">
        <ele>353</ele>
        <time>2021-02-06T10:02:35Z</time>
      </trkpt>
      <trkpt lat="44.17521" lon="5.0295">
        <ele>353</ele>
        <time>2021-02-06T10:02:36Z</time>
      </trkpt>
      <trkpt lat="44.17519" lon="5.02946">
        <ele>353</ele>
        <time>2021-02-06T10:02:37Z</time>
      </trkpt>
      <trkpt lat="44.17518" lon="5.02942">
        <ele>353</ele>
        <time>2021-02-06T10:02:38Z</time>
      </trkpt>
      <trkpt lat="44.17518" lon="5.02939">
        <ele>353</ele>
        <time>2021-02-06T10:02:39Z</time>
      </trkpt>
      <trkpt lat="44.17517" lon="5.02937">
        <ele>353</ele>
        <time>2021-02-06T10:02:40Z</time>
      </trkpt>
      <trkpt lat="44.17515" lon="5.02934">
        <ele>353</ele>
        <time>2021-02-06T10:02:41Z</time>
      </trkpt>
      <trkpt lat="44.17514" lon="5.02932">
        <ele>353</ele>
        <time>2021-02-06T10:02:42Z</time>
      </trkpt>
      <trkpt lat="44.17512" lon="5.0293">
        <ele>354</ele>
        <time>2021-02-06T10:02:43Z</time>
      </trkpt>
      <trkpt lat="44.17511" lon="5.02928">
        <ele>354</ele>
        <time>2021-02-06T10:02:44Z</time>
      </trkpt>
      <trkpt lat="44.17509" lon="5.02924">
        <ele>354</ele>
        <time>2021-02-06T10:02:45Z</time>
      </trkpt>
      <trkpt lat="44.17509" lon="5.02922">
        <ele>354</ele>
        <time>2021-02-06T10:02:46Z</time>
      </trkpt>
      <trkpt lat="44.17508" lon="5.02918">
        <ele>353</ele>
        <time>2021-02-06T10:02:47Z</time>
      </trkpt>
      <trkpt lat="44.17508" lon="5.02915">
        <ele>353</ele>
        <time>2021-02-06T10:02:48Z</time>
      </trkpt>
      <trkpt lat="44.17507" lon="5.02911">
        <ele>353</ele>
        <time>2021-02-06T10:02:49Z</time>
      </trkpt>
      <trkpt lat="44.17507" lon="5.02908">
        <ele>353</ele>
        <time>2021-02-06T10:02:50Z</time>
      </trkpt>
      <trkpt lat="44.17506" lon="5.02905">
        <ele>353</ele>
        <time>2021-02-06T10:02:51Z</time>
      </trkpt>
      <trkpt lat="44.17505" lon="5.02902">
        <ele>352</ele>
        <time>2021-02-06T10:02:52Z</time>
      </trkpt>
      <trkpt lat="44.17504" lon="5.02899">
        <ele>352</ele>
        <time>2021-02-06T10:02:53Z</time>
      </trkpt>
      <trkpt lat="44.17502" lon="5.02896">
        <ele>352</ele>
        <time>2021-02-06T10:02:54Z</time>
      </trkpt>
      <trkpt lat="44.17501" lon="5.02893">
        <ele>352</ele>
        <time>2021-02-06T10:02:55Z</time>
      </trkpt>
      <trkpt lat="44.175" lon="5.0289">
        <ele>352</ele>
        <time>2021-02-06T10:02:56Z</time>
      </trkpt>
      <trkpt lat="44.17499" lon="5.02887">
        <ele>352</ele>
        <time>2021-02-06T10:02:57Z</time>
      </trkpt>
      <trkpt lat="44.17497" lon="5.02883">
        <ele>352</ele>
        <time>2021-02-06T10:02:59Z</time>
      </trkpt>
      <trkpt lat="44.17495" lon="5.02879">
        <ele>352</ele>
        <time>2021-02-06T10:03:01Z</time>
      </trkpt>
      <trkpt lat="44.17493" lon="5.02875">
        <ele>353</ele>
        <time>2021-02-06T10:03:03Z</time>
      </trkpt>
      <trkpt lat="44.17492" lon="5.02872">
        <ele>353</ele>
        <time>2021-02-06T10:03:04Z</time>
      </trkpt>
      <trkpt lat="44.17491" lon="5.02869">
        <ele>353</ele>
        <time>2021-02-06T10:03:05Z</time>
      </trkpt>
      <trkpt lat="44.1749" lon="5.02866">
        <ele>353</ele>
        <time>2021-02-06T10:03:06Z</time>
      </trkpt>
      <trkpt lat="44.17489" lon="5.02863">
        <ele>353</ele>
        <time>2021-02-06T10:03:07Z</time>
      </trkpt>
      <trkpt lat="44.17488" lon="5.02859">
        <ele>352</ele>
        <time>2021-02-06T10:03:08Z</time>
      </trkpt>
      <trkpt lat="44.17487" lon="5.02856">
        <ele>353</ele>
        <time>2021-02-06T10:03:09Z</time>
      </trkpt>
      <trkpt lat="44.17486" lon="5.02852">
        <ele>353</ele>
        <time>2021-02-06T10:03:10Z</time>
      </trkpt>
      <trkpt lat="44.17485" lon="5.02849">
        <ele>353</ele>
        <time>2021-02-06T10:03:11Z</time>
      </trkpt>
      <trkpt lat="44.17484" lon="5.02845">
        <ele>353</ele>
        <time>2021-02-06T10:03:12Z</time>
      </trkpt>
      <trkpt lat="44.17483" lon="5.02841">
        <ele>353</ele>
        <time>2021-02-06T10:03:13Z</time>
      </trkpt>
      <trkpt lat="44.17482" lon="5.02838">
        <ele>352</ele>
        <time>2021-02-06T10:03:14Z</time>
      </trkpt>
      <trkpt lat="44.17482" lon="5.02834">
        <ele>352</ele>
        <time>2021-02-06T10:03:15Z</time>
      </trkpt>
      <trkpt lat="44.17481" lon="5.02831">
        <ele>352</ele>
        <time>2021-02-06T10:03:16Z</time>
      </trkpt>
      <trkpt lat="44.1748" lon="5.02828">
        <ele>352</ele>
        <time>2021-02-06T10:03:17Z</time>
      </trkpt>
      <trkpt lat="44.17479" lon="5.02824">
        <ele>352</ele>
        <time>2021-02-06T10:03:18Z</time>
      </trkpt>
      <trkpt lat="44.17478" lon="5.02821">
        <ele>352</ele>
        <time>2021-02-06T10:03:19Z</time>
      </trkpt>
      <trkpt lat="44.17477" lon="5.02818">
        <ele>352</ele>
        <time>2021-02-06T10:03:20Z</time>
      </trkpt>
      <trkpt lat="44.17476" lon="5.02815">
        <ele>353</ele>
        <time>2021-02-06T10:03:21Z</time>
      </trkpt>
      <trkpt lat="44.17476" lon="5.02812">
        <ele>353</ele>
        <time>2021-02-06T10:03:22Z</time>
      </trkpt>
      <trkpt lat="44.17475" lon="5.02809">
        <ele>353</ele>
        <time>2021-02-06T10:03:23Z</time>
      </trkpt>
      <trkpt lat="44.17474" lon="5.02806">
        <ele>353</ele>
        <time>2021-02-06T10:03:24Z</time>
      </trkpt>
      <trkpt lat="44.17473" lon="5.02803">
        <ele>353</ele>
        <time>2021-02-06T10:03:25Z</time>
      </trkpt>
      <trkpt lat="44.17469" lon="5.0279">
        <ele>353</ele>
        <time>2021-02-06T10:03:29Z</time>
      </trkpt>
      <trkpt lat="44.17467" lon="5.02786">
        <ele>353</ele>
        <time>2021-02-06T10:03:30Z</time>
      </trkpt>
      <trkpt lat="44.17466" lon="5.02783">
        <ele>353</ele>
        <time>2021-02-06T10:03:31Z</time>
      </trkpt>
      <trkpt lat="44.17464" lon="5.02779">
        <ele>353</ele>
        <time>2021-02-06T10:03:32Z</time>
      </trkpt>
      <trkpt lat="44.17462" lon="5.02776">
        <ele>354</ele>
        <time>2021-02-06T10:03:33Z</time>
      </trkpt>
      <trkpt lat="44.17461" lon="5.02773">
        <ele>354</ele>
        <time>2021-02-06T10:03:34Z</time>
      </trkpt>
      <trkpt lat="44.1746" lon="5.0277">
        <ele>354</ele>
        <time>2021-02-06T10:03:35Z</time>
      </trkpt>
      <trkpt lat="44.17459" lon="5.02767">
        <ele>354</ele>
        <time>2021-02-06T10:03:36Z</time>
      </trkpt>
      <trkpt lat="44.17457" lon="5.02765">
        <ele>355</ele>
        <time>2021-02-06T10:03:37Z</time>
      </trkpt>
      <trkpt lat="44.17455" lon="5.02762">
        <ele>355</ele>
        <time>2021-02-06T10:03:39Z</time>
      </trkpt>
      <trkpt lat="44.17453" lon="5.0276">
        <ele>356</ele>
        <time>2021-02-06T10:03:40Z</time>
      </trkpt>
      <trkpt lat="44.17451" lon="5.02758">
        <ele>356</ele>
        <time>2021-02-06T10:03:41Z</time>
      </trkpt>
      <trkpt lat="44.17449" lon="5.02757">
        <ele>357</ele>
        <time>2021-02-06T10:03:42Z</time>
      </trkpt>
      <trkpt lat="44.17448" lon="5.02755">
        <ele>357</ele>
        <time>2021-02-06T10:03:43Z</time>
      </trkpt>
      <trkpt lat="44.17447" lon="5.02753">
        <ele>357</ele>
        <time>2021-02-06T10:03:44Z</time>
      </trkpt>
      <trkpt lat="44.17446" lon="5.0275">
        <ele>358</ele>
        <time>2021-02-06T10:03:45Z</time>
      </trkpt>
      <trkpt lat="44.17445" lon="5.02747">
        <ele>358</ele>
        <time>2021-02-06T10:03:46Z</time>
      </trkpt>
      <trkpt lat="44.17443" lon="5.02744">
        <ele>358</ele>
        <time>2021-02-06T10:03:47Z</time>
      </trkpt>
      <trkpt lat="44.17442" lon="5.02741">
        <ele>358</ele>
        <time>2021-02-06T10:03:48Z</time>
      </trkpt>
      <trkpt lat="44.17441" lon="5.02739">
        <ele>358</ele>
        <time>2021-02-06T10:03:49Z</time>
      </trkpt>
      <trkpt lat="44.17439" lon="5.02737">
        <ele>359</ele>
        <time>2021-02-06T10:03:50Z</time>
      </trkpt>
      <trkpt lat="44.17438" lon="5.02734">
        <ele>359</ele>
        <time>2021-02-06T10:03:51Z</time>
      </trkpt>
      <trkpt lat="44.17437" lon="5.02731">
        <ele>359</ele>
        <time>2021-02-06T10:03:52Z</time>
      </trkpt>
      <trkpt lat="44.17436" lon="5.02726">
        <ele>359</ele>
        <time>2021-02-06T10:03:54Z</time>
      </trkpt>
      <trkpt lat="44.17435" lon="5.02723">
        <ele>359</ele>
        <time>2021-02-06T10:03:55Z</time>
      </trkpt>
      <trkpt lat="44.17433" lon="5.02718">
        <ele>359</ele>
        <time>2021-02-06T10:03:57Z</time>
      </trkpt>
      <trkpt lat="44.17432" lon="5.02716">
        <ele>360</ele>
        <time>2021-02-06T10:03:58Z</time>
      </trkpt>
      <trkpt lat="44.17432" lon="5.02713">
        <ele>360</ele>
        <time>2021-02-06T10:03:59Z</time>
      </trkpt>
      <trkpt lat="44.1743" lon="5.0271">
        <ele>360</ele>
        <time>2021-02-06T10:04:00Z</time>
      </trkpt>
      <trkpt lat="44.17429" lon="5.02707">
        <ele>360</ele>
        <time>2021-02-06T10:04:01Z</time>
      </trkpt>
      <trkpt lat="44.17428" lon="5.02704">
        <ele>360</ele>
        <time>2021-02-06T10:04:02Z</time>
      </trkpt>
      <trkpt lat="44.17427" lon="5.02702">
        <ele>361</ele>
        <time>2021-02-06T10:04:03Z</time>
      </trkpt>
      <trkpt lat="44.17426" lon="5.02699">
        <ele>361</ele>
        <time>2021-02-06T10:04:04Z</time>
      </trkpt>
      <trkpt lat="44.17425" lon="5.02697">
        <ele>361</ele>
        <time>2021-02-06T10:04:05Z</time>
      </trkpt>
      <trkpt lat="44.17424" lon="5.02695">
        <ele>361</ele>
        <time>2021-02-06T10:04:06Z</time>
      </trkpt>
      <trkpt lat="44.17423" lon="5.02692">
        <ele>362</ele>
        <time>2021-02-06T10:04:07Z</time>
      </trkpt>
      <trkpt lat="44.17422" lon="5.02687">
        <ele>362</ele>
        <time>2021-02-06T10:04:09Z</time>
      </trkpt>
      <trkpt lat="44.17421" lon="5.02684">
        <ele>362</ele>
        <time>2021-02-06T10:04:10Z</time>
      </trkpt>
      <trkpt lat="44.17419" lon="5.0268">
        <ele>363</ele>
        <time>2021-02-06T10:04:12Z</time>
      </trkpt>
      <trkpt lat="44.17418" lon="5.02678">
        <ele>363</ele>
        <time>2021-02-06T10:04:13Z</time>
      </trkpt>
      <trkpt lat="44.17416" lon="5.02674">
        <ele>363</ele>
        <time>2021-02-06T10:04:15Z</time>
      </trkpt>
      <trkpt lat="44.17415" lon="5.02672">
        <ele>364</ele>
        <time>2021-02-06T10:04:16Z</time>
      </trkpt>
      <trkpt lat="44.17412" lon="5.02669">
        <ele>365</ele>
        <time>2021-02-06T10:04:18Z</time>
      </trkpt>
      <trkpt lat="44.1741" lon="5.02667">
        <ele>365</ele>
        <time>2021-02-06T10:04:19Z</time>
      </trkpt>
      <trkpt lat="44.17408" lon="5.02666">
        <ele>366</ele>
        <time>2021-02-06T10:04:20Z</time>
      </trkpt>
      <trkpt lat="44.17404" lon="5.02664">
        <ele>367</ele>
        <time>2021-02-06T10:04:22Z</time>
      </trkpt>
      <trkpt lat="44.17401" lon="5.02661">
        <ele>368</ele>
        <time>2021-02-06T10:04:24Z</time>
      </trkpt>
      <trkpt lat="44.17399" lon="5.0266">
        <ele>368</ele>
        <time>2021-02-06T10:04:25Z</time>
      </trkpt>
      <trkpt lat="44.17397" lon="5.02658">
        <ele>369</ele>
        <time>2021-02-06T10:04:27Z</time>
      </trkpt>
      <trkpt lat="44.17395" lon="5.02655">
        <ele>370</ele>
        <time>2021-02-06T10:04:29Z</time>
      </trkpt>
      <trkpt lat="44.17392" lon="5.02652">
        <ele>370</ele>
        <time>2021-02-06T10:04:31Z</time>
      </trkpt>
      <trkpt lat="44.17391" lon="5.02651">
        <ele>371</ele>
        <time>2021-02-06T10:04:32Z</time>
      </trkpt>
      <trkpt lat="44.17389" lon="5.02646">
        <ele>371</ele>
        <time>2021-02-06T10:04:34Z</time>
      </trkpt>
      <trkpt lat="44.17388" lon="5.02643">
        <ele>372</ele>
        <time>2021-02-06T10:04:36Z</time>
      </trkpt>
      <trkpt lat="44.17387" lon="5.0264">
        <ele>372</ele>
        <time>2021-02-06T10:04:37Z</time>
      </trkpt>
      <trkpt lat="44.17387" lon="5.02636">
        <ele>372</ele>
        <time>2021-02-06T10:04:39Z</time>
      </trkpt>
      <trkpt lat="44.17386" lon="5.02632">
        <ele>372</ele>
        <time>2021-02-06T10:04:41Z</time>
      </trkpt>
      <trkpt lat="44.17386" lon="5.02629">
        <ele>372</ele>
        <time>2021-02-06T10:04:44Z</time>
      </trkpt>
      <trkpt lat="44.17385" lon="5.02625">
        <ele>373</ele>
        <time>2021-02-06T10:04:46Z</time>
      </trkpt>
      <trkpt lat="44.17385" lon="5.02618">
        <ele>373</ele>
        <time>2021-02-06T10:04:49Z</time>
      </trkpt>
      <trkpt lat="44.17384" lon="5.02615">
        <ele>373</ele>
        <time>2021-02-06T10:04:51Z</time>
      </trkpt>
      <trkpt lat="44.17383" lon="5.02612">
        <ele>374</ele>
        <time>2021-02-06T10:04:53Z</time>
      </trkpt>
      <trkpt lat="44.17382" lon="5.02608">
        <ele>374</ele>
        <time>2021-02-06T10:04:56Z</time>
      </trkpt>
      <trkpt lat="44.17381" lon="5.02605">
        <ele>374</ele>
        <time>2021-02-06T10:04:58Z</time>
      </trkpt>
      <trkpt lat="44.1738" lon="5.02603">
        <ele>375</ele>
        <time>2021-02-06T10:05:00Z</time>
      </trkpt>
      <trkpt lat="44.17378" lon="5.026">
        <ele>376</ele>
        <time>2021-02-06T10:05:02Z</time>
      </trkpt>
      <trkpt lat="44.17375" lon="5.026">
        <ele>376</ele>
        <time>2021-02-06T10:05:05Z</time>
      </trkpt>
      <trkpt lat="44.17374" lon="5.02603">
        <ele>377</ele>
        <time>2021-02-06T10:05:07Z</time>
      </trkpt>
      <trkpt lat="44.17373" lon="5.02607">
        <ele>377</ele>
        <time>2021-02-06T10:05:09Z</time>
      </trkpt>
      <trkpt lat="44.17372" lon="5.0261">
        <ele>377</ele>
        <time>2021-02-06T10:05:11Z</time>
      </trkpt>
      <trkpt lat="44.17372" lon="5.02612">
        <ele>377</ele>
        <time>2021-02-06T10:05:13Z</time>
      </trkpt>
      <trkpt lat="44.1737" lon="5.02616">
        <ele>377</ele>
        <time>2021-02-06T10:05:15Z</time>
      </trkpt>
      <trkpt lat="44.17369" lon="5.02629">
        <ele>378</ele>
        <time>2021-02-06T10:05:20Z</time>
      </trkpt>
      <trkpt lat="44.17364" lon="5.02642">
        <ele>380</ele>
        <time>2021-02-06T10:05:27Z</time>
      </trkpt>
      <trkpt lat="44.17355" lon="5.02645">
        <ele>385</ele>
        <time>2021-02-06T10:05:33Z</time>
      </trkpt>
      <trkpt lat="44.17353" lon="5.02641">
        <ele>386</ele>
        <time>2021-02-06T10:05:35Z</time>
      </trkpt>
      <trkpt lat="44.17353" lon="5.02638">
        <ele>387</ele>
        <time>2021-02-06T10:05:36Z</time>
      </trkpt>
      <trkpt lat="44.17352" lon="5.02635">
        <ele>387</ele>
        <time>2021-02-06T10:05:37Z</time>
      </trkpt>
      <trkpt lat="44.17351" lon="5.02633">
        <ele>387</ele>
        <time>2021-02-06T10:05:38Z</time>
      </trkpt>
      <trkpt lat="44.1735" lon="5.02631">
        <ele>388</ele>
        <time>2021-02-06T10:05:39Z</time>
      </trkpt>
      <trkpt lat="44.17349" lon="5.02627">
        <ele>388</ele>
        <time>2021-02-06T10:05:41Z</time>
      </trkpt>
      <trkpt lat="44.17348" lon="5.02623">
        <ele>388</ele>
        <time>2021-02-06T10:05:43Z</time>
      </trkpt>
      <trkpt lat="44.17348" lon="5.02618">
        <ele>388</ele>
        <time>2021-02-06T10:05:45Z</time>
      </trkpt>
      <trkpt lat="44.17347" lon="5.02615">
        <ele>388</ele>
        <time>2021-02-06T10:05:47Z</time>
      </trkpt>
      <trkpt lat="44.17347" lon="5.02611">
        <ele>388</ele>
        <time>2021-02-06T10:05:49Z</time>
      </trkpt>
      <trkpt lat="44.17346" lon="5.02607">
        <ele>388</ele>
        <time>2021-02-06T10:05:51Z</time>
      </trkpt>
      <trkpt lat="44.17346" lon="5.02604">
        <ele>389</ele>
        <time>2021-02-06T10:05:53Z</time>
      </trkpt>
      <trkpt lat="44.17344" lon="5.02601">
        <ele>389</ele>
        <time>2021-02-06T10:05:55Z</time>
      </trkpt>
      <trkpt lat="44.17343" lon="5.02597">
        <ele>390</ele>
        <time>2021-02-06T10:05:57Z</time>
      </trkpt>
      <trkpt lat="44.17341" lon="5.02593">
        <ele>390</ele>
        <time>2021-02-06T10:05:59Z</time>
      </trkpt>
      <trkpt lat="44.1734" lon="5.02591">
        <ele>391</ele>
        <time>2021-02-06T10:06:00Z</time>
      </trkpt>
      <trkpt lat="44.17339" lon="5.02587">
        <ele>391</ele>
        <time>2021-02-06T10:06:02Z</time>
      </trkpt>
      <trkpt lat="44.17339" lon="5.02583">
        <ele>391</ele>
        <time>2021-02-06T10:06:04Z</time>
      </trkpt>
      <trkpt lat="44.17339" lon="5.02578">
        <ele>390</ele>
        <time>2021-02-06T10:06:06Z</time>
      </trkpt>
      <trkpt lat="44.17339" lon="5.02574">
        <ele>390</ele>
        <time>2021-02-06T10:06:08Z</time>
      </trkpt>
      <trkpt lat="44.17338" lon="5.02569">
        <ele>391</ele>
        <time>2021-02-06T10:06:10Z</time>
      </trkpt>
      <trkpt lat="44.17338" lon="5.02565">
        <ele>391</ele>
        <time>2021-02-06T10:06:12Z</time>
      </trkpt>
      <trkpt lat="44.17338" lon="5.0256">
        <ele>390</ele>
        <time>2021-02-06T10:06:14Z</time>
      </trkpt>
      <trkpt lat="44.17337" lon="5.02556">
        <ele>390</ele>
        <time>2021-02-06T10:06:16Z</time>
      </trkpt>
      <trkpt lat="44.17337" lon="5.02552">
        <ele>391</ele>
        <time>2021-02-06T10:06:18Z</time>
      </trkpt>
      <trkpt lat="44.17338" lon="5.02548">
        <ele>391</ele>
        <time>2021-02-06T10:06:20Z</time>
      </trkpt>
      <trkpt lat="44.17337" lon="5.02546">
        <ele>391</ele>
        <time>2021-02-06T10:06:22Z</time>
      </trkpt>
      <trkpt lat="44.17338" lon="5.02542">
        <ele>391</ele>
        <time>2021-02-06T10:06:24Z</time>
      </trkpt>
      <trkpt lat="44.17338" lon="5.02538">
        <ele>392</ele>
        <time>2021-02-06T10:06:26Z</time>
      </trkpt>
      <trkpt lat="44.17339" lon="5.02534">
        <ele>391</ele>
        <time>2021-02-06T10:06:28Z</time>
      </trkpt>
      <trkpt lat="44.17339" lon="5.0253">
        <ele>392</ele>
        <time>2021-02-06T10:06:30Z</time>
      </trkpt>
      <trkpt lat="44.1734" lon="5.02526">
        <ele>392</ele>
        <time>2021-02-06T10:06:32Z</time>
      </trkpt>
      <trkpt lat="44.17341" lon="5.02521">
        <ele>392</ele>
        <time>2021-02-06T10:06:34Z</time>
      </trkpt>
      <trkpt lat="44.17341" lon="5.02516">
        <ele>392</ele>
        <time>2021-02-06T10:06:36Z</time>
      </trkpt>
      <trkpt lat="44.17342" lon="5.02513">
        <ele>393</ele>
        <time>2021-02-06T10:06:38Z</time>
      </trkpt>
      <trkpt lat="44.17342" lon="5.0251">
        <ele>393</ele>
        <time>2021-02-06T10:07:00Z</time>
      </trkpt>
      <trkpt lat="44.17345" lon="5.0251">
        <ele>392</ele>
        <time>2021-02-06T10:07:09Z</time>
      </trkpt>
      <trkpt lat="44.17347" lon="5.0251">
        <ele>391</ele>
        <time>2021-02-06T10:07:11Z</time>
      </trkpt>
      <trkpt lat="44.1735" lon="5.02511">
        <ele>390</ele>
        <time>2021-02-06T10:07:13Z</time>
      </trkpt>
      <trkpt lat="44.17353" lon="5.02512">
        <ele>389</ele>
        <time>2021-02-06T10:07:15Z</time>
      </trkpt>
      <trkpt lat="44.17355" lon="5.02512">
        <ele>388</ele>
        <time>2021-02-06T10:07:16Z</time>
      </trkpt>
      <trkpt lat="44.17357" lon="5.02513">
        <ele>387</ele>
        <time>2021-02-06T10:07:17Z</time>
      </trkpt>
      <trkpt lat="44.17359" lon="5.02514">
        <ele>386</ele>
        <time>2021-02-06T10:07:18Z</time>
      </trkpt>
      <trkpt lat="44.17361" lon="5.02515">
        <ele>385</ele>
        <time>2021-02-06T10:07:19Z</time>
      </trkpt>
      <trkpt lat="44.17363" lon="5.02515">
        <ele>385</ele>
        <time>2021-02-06T10:07:20Z</time>
      </trkpt>
      <trkpt lat="44.17365" lon="5.02516">
        <ele>385</ele>
        <time>2021-02-06T10:07:21Z</time>
      </trkpt>
      <trkpt lat="44.17368" lon="5.02517">
        <ele>385</ele>
        <time>2021-02-06T10:07:22Z</time>
      </trkpt>
      <trkpt lat="44.17371" lon="5.02516">
        <ele>384</ele>
        <time>2021-02-06T10:07:23Z</time>
      </trkpt>
      <trkpt lat="44.17374" lon="5.02516">
        <ele>384</ele>
        <time>2021-02-06T10:07:24Z</time>
      </trkpt>
      <trkpt lat="44.17377" lon="5.02515">
        <ele>384</ele>
        <time>2021-02-06T10:07:25Z</time>
      </trkpt>
      <trkpt lat="44.1738" lon="5.02514">
        <ele>384</ele>
        <time>2021-02-06T10:07:26Z</time>
      </trkpt>
      <trkpt lat="44.17383" lon="5.02512">
        <ele>384</ele>
        <time>2021-02-06T10:07:27Z</time>
      </trkpt>
      <trkpt lat="44.17385" lon="5.0251">
        <ele>384</ele>
        <time>2021-02-06T10:07:28Z</time>
      </trkpt>
      <trkpt lat="44.17387" lon="5.02508">
        <ele>384</ele>
        <time>2021-02-06T10:07:29Z</time>
      </trkpt>
      <trkpt lat="44.17388" lon="5.02506">
        <ele>385</ele>
        <time>2021-02-06T10:07:30Z</time>
      </trkpt>
      <trkpt lat="44.17389" lon="5.02504">
        <ele>385</ele>
        <time>2021-02-06T10:07:31Z</time>
      </trkpt>
      <trkpt lat="44.17389" lon="5.02501">
        <ele>386</ele>
        <time>2021-02-06T10:07:32Z</time>
      </trkpt>
      <trkpt lat="44.17389" lon="5.02498">
        <ele>386</ele>
        <time>2021-02-06T10:07:33Z</time>
      </trkpt>
      <trkpt lat="44.1739" lon="5.02495">
        <ele>387</ele>
        <time>2021-02-06T10:07:34Z</time>
      </trkpt>
      <trkpt lat="44.1739" lon="5.02492">
        <ele>387</ele>
        <time>2021-02-06T10:07:35Z</time>
      </trkpt>
      <trkpt lat="44.1739" lon="5.02489">
        <ele>387</ele>
        <time>2021-02-06T10:07:36Z</time>
      </trkpt>
      <trkpt lat="44.17391" lon="5.02485">
        <ele>388</ele>
        <time>2021-02-06T10:07:37Z</time>
      </trkpt>
      <trkpt lat="44.17392" lon="5.02482">
        <ele>388</ele>
        <time>2021-02-06T10:07:38Z</time>
      </trkpt>
      <trkpt lat="44.17393" lon="5.02478">
        <ele>389</ele>
        <time>2021-02-06T10:07:39Z</time>
      </trkpt>
      <trkpt lat="44.17394" lon="5.02474">
        <ele>389</ele>
        <time>2021-02-06T10:07:40Z</time>
      </trkpt>
      <trkpt lat="44.17395" lon="5.0247">
        <ele>389</ele>
        <time>2021-02-06T10:07:41Z</time>
      </trkpt>
      <trkpt lat="44.17397" lon="5.02467">
        <ele>389</ele>
        <time>2021-02-06T10:07:42Z</time>
      </trkpt>
      <trkpt lat="44.17398" lon="5.02464">
        <ele>389</ele>
        <time>2021-02-06T10:07:43Z</time>
      </trkpt>
      <trkpt lat="44.17399" lon="5.02461">
        <ele>389</ele>
        <time>2021-02-06T10:07:44Z</time>
      </trkpt>
      <trkpt lat="44.174" lon="5.02458">
        <ele>389</ele>
        <time>2021-02-06T10:07:45Z</time>
      </trkpt>
      <trkpt lat="44.17401" lon="5.02454">
        <ele>388</ele>
        <time>2021-02-06T10:07:46Z</time>
      </trkpt>
      <trkpt lat="44.17402" lon="5.02451">
        <ele>388</ele>
        <time>2021-02-06T10:07:47Z</time>
      </trkpt>
      <trkpt lat="44.17404" lon="5.02447">
        <ele>387</ele>
        <time>2021-02-06T10:07:48Z</time>
      </trkpt>
      <trkpt lat="44.17406" lon="5.02444">
        <ele>387</ele>
        <time>2021-02-06T10:07:49Z</time>
      </trkpt>
      <trkpt lat="44.17407" lon="5.02441">
        <ele>386</ele>
        <time>2021-02-06T10:07:50Z</time>
      </trkpt>
      <trkpt lat="44.17408" lon="5.02437">
        <ele>385</ele>
        <time>2021-02-06T10:07:51Z</time>
      </trkpt>
      <trkpt lat="44.17409" lon="5.02434">
        <ele>385</ele>
        <time>2021-02-06T10:07:52Z</time>
      </trkpt>
      <trkpt lat="44.1741" lon="5.0243">
        <ele>384</ele>
        <time>2021-02-06T10:07:53Z</time>
      </trkpt>
      <trkpt lat="44.1741" lon="5.02426">
        <ele>383</ele>
        <time>2021-02-06T10:07:54Z</time>
      </trkpt>
      <trkpt lat="44.17409" lon="5.02422">
        <ele>383</ele>
        <time>2021-02-06T10:07:55Z</time>
      </trkpt>
      <trkpt lat="44.17408" lon="5.02419">
        <ele>382</ele>
        <time>2021-02-06T10:07:56Z</time>
      </trkpt>
      <trkpt lat="44.17406" lon="5.02417">
        <ele>382</ele>
        <time>2021-02-06T10:07:57Z</time>
      </trkpt>
      <trkpt lat="44.17405" lon="5.02415">
        <ele>382</ele>
        <time>2021-02-06T10:07:58Z</time>
      </trkpt>
      <trkpt lat="44.17403" lon="5.02412">
        <ele>382</ele>
        <time>2021-02-06T10:07:59Z</time>
      </trkpt>
      <trkpt lat="44.17401" lon="5.0241">
        <ele>382</ele>
        <time>2021-02-06T10:08:00Z</time>
      </trkpt>
      <trkpt lat="44.17399" lon="5.02408">
        <ele>382</ele>
        <time>2021-02-06T10:08:01Z</time>
      </trkpt>
      <trkpt lat="44.17397" lon="5.02406">
        <ele>382</ele>
        <time>2021-02-06T10:08:02Z</time>
      </trkpt>
      <trkpt lat="44.17395" lon="5.02404">
        <ele>382</ele>
        <time>2021-02-06T10:08:03Z</time>
      </trkpt>
      <trkpt lat="44.17393" lon="5.02402">
        <ele>382</ele>
        <time>2021-02-06T10:08:04Z</time>
      </trkpt>
      <trkpt lat="44.17391" lon="5.024">
        <ele>382</ele>
        <time>2021-02-06T10:08:05Z</time>
      </trkpt>
      <trkpt lat="44.17389" lon="5.02398">
        <ele>382</ele>
        <time>2021-02-06T10:08:06Z</time>
      </trkpt>
      <trkpt lat="44.17387" lon="5.02396">
        <ele>383</ele>
        <time>2021-02-06T10:08:07Z</time>
      </trkpt>
      <trkpt lat="44.17385" lon="5.02394">
        <ele>383</ele>
        <time>2021-02-06T10:08:08Z</time>
      </trkpt>
      <trkpt lat="44.17383" lon="5.02393">
        <ele>383</ele>
        <time>2021-02-06T10:08:09Z</time>
      </trkpt>
      <trkpt lat="44.17381" lon="5.02391">
        <ele>383</ele>
        <time>2021-02-06T10:08:10Z</time>
      </trkpt>
      <trkpt lat="44.17379" lon="5.02389">
        <ele>383</ele>
        <time>2021-02-06T10:08:11Z</time>
      </trkpt>
      <trkpt lat="44.17377" lon="5.02387">
        <ele>383</ele>
        <time>2021-02-06T10:08:12Z</time>
      </trkpt>
      <trkpt lat="44.17375" lon="5.02384">
        <ele>383</ele>
        <time>2021-02-06T10:08:13Z</time>
      </trkpt>
      <trkpt lat="44.17373" lon="5.02381">
        <ele>383</ele>
        <time>2021-02-06T10:08:14Z</time>
      </trkpt>
      <trkpt lat="44.17371" lon="5.02378">
        <ele>383</ele>
        <time>2021-02-06T10:08:15Z</time>
      </trkpt>
      <trkpt lat="44.17369" lon="5.02375">
        <ele>383</ele>
        <time>2021-02-06T10:08:16Z</time>
      </trkpt>
      <trkpt lat="44.17367" lon="5.02372">
        <ele>384</ele>
        <time>2021-02-06T10:08:17Z</time>
      </trkpt>
      <trkpt lat="44.17365" lon="5.02369">
        <ele>384</ele>
        <time>2021-02-06T10:08:18Z</time>
      </trkpt>
      <trkpt lat="44.17363" lon="5.02366">
        <ele>384</ele>
        <time>2021-02-06T10:08:19Z</time>
      </trkpt>
      <trkpt lat="44.17361" lon="5.02364">
        <ele>384</ele>
        <time>2021-02-06T10:08:20Z</time>
      </trkpt>
      <trkpt lat="44.17359" lon="5.02361">
        <ele>384</ele>
        <time>2021-02-06T10:08:21Z</time>
      </trkpt>
      <trkpt lat="44.17357" lon="5.02358">
        <ele>384</ele>
        <time>2021-02-06T10:08:22Z</time>
      </trkpt>
      <trkpt lat="44.17355" lon="5.02355">
        <ele>383</ele>
        <time>2021-02-06T10:08:23Z</time>
      </trkpt>
      <trkpt lat="44.17354" lon="5.02353">
        <ele>383</ele>
        <time>2021-02-06T10:08:24Z</time>
      </trkpt>
      <trkpt lat="44.17354" lon="5.02348">
        <ele>382</ele>
        <time>2021-02-06T10:08:26Z</time>
      </trkpt>
      <trkpt lat="44.17356" lon="5.02345">
        <ele>381</ele>
        <time>2021-02-06T10:08:28Z</time>
      </trkpt>
      <trkpt lat="44.17356" lon="5.02342">
        <ele>381</ele>
        <time>2021-02-06T10:08:29Z</time>
      </trkpt>
      <trkpt lat="44.17358" lon="5.0234">
        <ele>380</ele>
        <time>2021-02-06T10:08:31Z</time>
      </trkpt>
      <trkpt lat="44.17361" lon="5.02336">
        <ele>379</ele>
        <time>2021-02-06T10:08:33Z</time>
      </trkpt>
      <trkpt lat="44.17362" lon="5.02334">
        <ele>378</ele>
        <time>2021-02-06T10:08:34Z</time>
      </trkpt>
      <trkpt lat="44.17363" lon="5.02332">
        <ele>377</ele>
        <time>2021-02-06T10:08:35Z</time>
      </trkpt>
      <trkpt lat="44.17363" lon="5.02329">
        <ele>377</ele>
        <time>2021-02-06T10:08:36Z</time>
      </trkpt>
      <trkpt lat="44.17364" lon="5.02326">
        <ele>376</ele>
        <time>2021-02-06T10:08:37Z</time>
      </trkpt>
      <trkpt lat="44.17364" lon="5.02324">
        <ele>376</ele>
        <time>2021-02-06T10:08:38Z</time>
      </trkpt>
      <trkpt lat="44.17364" lon="5.02321">
        <ele>375</ele>
        <time>2021-02-06T10:08:39Z</time>
      </trkpt>
      <trkpt lat="44.17365" lon="5.02319">
        <ele>375</ele>
        <time>2021-02-06T10:08:40Z</time>
      </trkpt>
      <trkpt lat="44.17365" lon="5.02316">
        <ele>374</ele>
        <time>2021-02-06T10:08:41Z</time>
      </trkpt>
      <trkpt lat="44.17365" lon="5.02313">
        <ele>374</ele>
        <time>2021-02-06T10:08:42Z</time>
      </trkpt>
      <trkpt lat="44.17365" lon="5.0231">
        <ele>374</ele>
        <time>2021-02-06T10:08:43Z</time>
      </trkpt>
      <trkpt lat="44.17365" lon="5.02308">
        <ele>374</ele>
        <time>2021-02-06T10:08:44Z</time>
      </trkpt>
      <trkpt lat="44.17365" lon="5.02305">
        <ele>373</ele>
        <time>2021-02-06T10:08:45Z</time>
      </trkpt>
      <trkpt lat="44.17366" lon="5.02303">
        <ele>373</ele>
        <time>2021-02-06T10:08:46Z</time>
      </trkpt>
      <trkpt lat="44.17365" lon="5.02299">
        <ele>373</ele>
        <time>2021-02-06T10:08:47Z</time>
      </trkpt>
      <trkpt lat="44.17366" lon="5.02296">
        <ele>372</ele>
        <time>2021-02-06T10:08:48Z</time>
      </trkpt>
      <trkpt lat="44.17366" lon="5.02292">
        <ele>372</ele>
        <time>2021-02-06T10:08:49Z</time>
      </trkpt>
      <trkpt lat="44.17366" lon="5.02289">
        <ele>372</ele>
        <time>2021-02-06T10:08:50Z</time>
      </trkpt>
      <trkpt lat="44.17366" lon="5.02286">
        <ele>372</ele>
        <time>2021-02-06T10:08:51Z</time>
      </trkpt>
      <trkpt lat="44.17366" lon="5.02283">
        <ele>372</ele>
        <time>2021-02-06T10:08:52Z</time>
      </trkpt>
      <trkpt lat="44.17366" lon="5.0228">
        <ele>372</ele>
        <time>2021-02-06T10:08:53Z</time>
      </trkpt>
      <trkpt lat="44.17365" lon="5.02276">
        <ele>372</ele>
        <time>2021-02-06T10:08:54Z</time>
      </trkpt>
      <trkpt lat="44.17365" lon="5.02274">
        <ele>372</ele>
        <time>2021-02-06T10:08:55Z</time>
      </trkpt>
      <trkpt lat="44.17365" lon="5.0227">
        <ele>372</ele>
        <time>2021-02-06T10:08:56Z</time>
      </trkpt>
      <trkpt lat="44.17365" lon="5.02267">
        <ele>372</ele>
        <time>2021-02-06T10:08:57Z</time>
      </trkpt>
      <trkpt lat="44.17365" lon="5.02264">
        <ele>371</ele>
        <time>2021-02-06T10:08:58Z</time>
      </trkpt>
      <trkpt lat="44.17366" lon="5.02261">
        <ele>371</ele>
        <time>2021-02-06T10:08:59Z</time>
      </trkpt>
      <trkpt lat="44.17369" lon="5.0226">
        <ele>370</ele>
        <time>2021-02-06T10:09:01Z</time>
      </trkpt>
      <trkpt lat="44.17372" lon="5.02263">
        <ele>369</ele>
        <time>2021-02-06T10:09:03Z</time>
      </trkpt>
      <trkpt lat="44.17374" lon="5.02265">
        <ele>368</ele>
        <time>2021-02-06T10:09:05Z</time>
      </trkpt>
      <trkpt lat="44.17375" lon="5.02268">
        <ele>367</ele>
        <time>2021-02-06T10:09:06Z</time>
      </trkpt>
      <trkpt lat="44.17376" lon="5.0227">
        <ele>367</ele>
        <time>2021-02-06T10:09:07Z</time>
      </trkpt>
      <trkpt lat="44.17378" lon="5.02274">
        <ele>366</ele>
        <time>2021-02-06T10:09:09Z</time>
      </trkpt>
      <trkpt lat="44.17378" lon="5.02277">
        <ele>365</ele>
        <time>2021-02-06T10:09:10Z</time>
      </trkpt>
      <trkpt lat="44.17379" lon="5.02279">
        <ele>365</ele>
        <time>2021-02-06T10:09:11Z</time>
      </trkpt>
      <trkpt lat="44.1738" lon="5.02282">
        <ele>364</ele>
        <time>2021-02-06T10:09:12Z</time>
      </trkpt>
      <trkpt lat="44.1738" lon="5.02285">
        <ele>364</ele>
        <time>2021-02-06T10:09:13Z</time>
      </trkpt>
      <trkpt lat="44.17381" lon="5.02288">
        <ele>363</ele>
        <time>2021-02-06T10:09:14Z</time>
      </trkpt>
      <trkpt lat="44.17382" lon="5.02293">
        <ele>363</ele>
        <time>2021-02-06T10:09:16Z</time>
      </trkpt>
      <trkpt lat="44.17382" lon="5.02296">
        <ele>362</ele>
        <time>2021-02-06T10:09:17Z</time>
      </trkpt>
      <trkpt lat="44.17383" lon="5.02298">
        <ele>361</ele>
        <time>2021-02-06T10:09:18Z</time>
      </trkpt>
      <trkpt lat="44.17386" lon="5.02299">
        <ele>360</ele>
        <time>2021-02-06T10:09:19Z</time>
      </trkpt>
      <trkpt lat="44.17388" lon="5.02299">
        <ele>358</ele>
        <time>2021-02-06T10:09:20Z</time>
      </trkpt>
      <trkpt lat="44.17389" lon="5.02297">
        <ele>358</ele>
        <time>2021-02-06T10:09:21Z</time>
      </trkpt>
      <trkpt lat="44.17391" lon="5.02295">
        <ele>357</ele>
        <time>2021-02-06T10:09:22Z</time>
      </trkpt>
      <trkpt lat="44.17392" lon="5.02292">
        <ele>356</ele>
        <time>2021-02-06T10:09:23Z</time>
      </trkpt>
      <trkpt lat="44.17393" lon="5.0229">
        <ele>356</ele>
        <time>2021-02-06T10:09:24Z</time>
      </trkpt>
      <trkpt lat="44.17393" lon="5.02287">
        <ele>356</ele>
        <time>2021-02-06T10:09:25Z</time>
      </trkpt>
      <trkpt lat="44.17393" lon="5.02284">
        <ele>356</ele>
        <time>2021-02-06T10:09:26Z</time>
      </trkpt>
      <trkpt lat="44.17394" lon="5.02282">
        <ele>356</ele>
        <time>2021-02-06T10:09:27Z</time>
      </trkpt>
      <trkpt lat="44.17394" lon="5.02279">
        <ele>356</ele>
        <time>2021-02-06T10:09:28Z</time>
      </trkpt>
      <trkpt lat="44.17395" lon="5.02277">
        <ele>355</ele>
        <time>2021-02-06T10:09:29Z</time>
      </trkpt>
      <trkpt lat="44.17396" lon="5.02274">
        <ele>355</ele>
        <time>2021-02-06T10:09:30Z</time>
      </trkpt>
      <trkpt lat="44.17396" lon="5.02269">
        <ele>355</ele>
        <time>2021-02-06T10:09:32Z</time>
      </trkpt>
      <trkpt lat="44.17397" lon="5.02267">
        <ele>355</ele>
        <time>2021-02-06T10:09:33Z</time>
      </trkpt>
      <trkpt lat="44.17397" lon="5.02264">
        <ele>355</ele>
        <time>2021-02-06T10:09:34Z</time>
      </trkpt>
      <trkpt lat="44.17397" lon="5.02261">
        <ele>356</ele>
        <time>2021-02-06T10:09:35Z</time>
      </trkpt>
      <trkpt lat="44.17398" lon="5.02258">
        <ele>355</ele>
        <time>2021-02-06T10:09:36Z</time>
      </trkpt>
      <trkpt lat="44.17399" lon="5.02254">
        <ele>355</ele>
        <time>2021-02-06T10:09:37Z</time>
      </trkpt>
      <trkpt lat="44.174" lon="5.02251">
        <ele>355</ele>
        <time>2021-02-06T10:09:38Z</time>
      </trkpt>
      <trkpt lat="44.17401" lon="5.02247">
        <ele>355</ele>
        <time>2021-02-06T10:09:39Z</time>
      </trkpt>
      <trkpt lat="44.17402" lon="5.02244">
        <ele>354</ele>
        <time>2021-02-06T10:09:40Z</time>
      </trkpt>
      <trkpt lat="44.17403" lon="5.0224">
        <ele>354</ele>
        <time>2021-02-06T10:09:41Z</time>
      </trkpt>
      <trkpt lat="44.17404" lon="5.02236">
        <ele>354</ele>
        <time>2021-02-06T10:09:42Z</time>
      </trkpt>
      <trkpt lat="44.17404" lon="5.02231">
        <ele>354</ele>
        <time>2021-02-06T10:09:43Z</time>
      </trkpt>
      <trkpt lat="44.17405" lon="5.02228">
        <ele>354</ele>
        <time>2021-02-06T10:09:44Z</time>
      </trkpt>
      <trkpt lat="44.17405" lon="5.02224">
        <ele>355</ele>
        <time>2021-02-06T10:09:45Z</time>
      </trkpt>
      <trkpt lat="44.17405" lon="5.0222">
        <ele>355</ele>
        <time>2021-02-06T10:09:46Z</time>
      </trkpt>
      <trkpt lat="44.17405" lon="5.02216">
        <ele>355</ele>
        <time>2021-02-06T10:09:47Z</time>
      </trkpt>
      <trkpt lat="44.17404" lon="5.02213">
        <ele>355</ele>
        <time>2021-02-06T10:09:48Z</time>
      </trkpt>
      <trkpt lat="44.17404" lon="5.0221">
        <ele>355</ele>
        <time>2021-02-06T10:09:49Z</time>
      </trkpt>
      <trkpt lat="44.17403" lon="5.02207">
        <ele>355</ele>
        <time>2021-02-06T10:09:50Z</time>
      </trkpt>
      <trkpt lat="44.17403" lon="5.02204">
        <ele>356</ele>
        <time>2021-02-06T10:09:51Z</time>
      </trkpt>
      <trkpt lat="44.17402" lon="5.02201">
        <ele>356</ele>
        <time>2021-02-06T10:09:52Z</time>
      </trkpt>
      <trkpt lat="44.17401" lon="5.02197">
        <ele>356</ele>
        <time>2021-02-06T10:09:53Z</time>
      </trkpt>
      <trkpt lat="44.174" lon="5.02194">
        <ele>357</ele>
        <time>2021-02-06T10:09:54Z</time>
      </trkpt>
      <trkpt lat="44.17398" lon="5.02192">
        <ele>357</ele>
        <time>2021-02-06T10:09:56Z</time>
      </trkpt>
      <trkpt lat="44.17398" lon="5.02189">
        <ele>357</ele>
        <time>2021-02-06T10:10:18Z</time>
      </trkpt>
      <trkpt lat="44.17399" lon="5.02186">
        <ele>356</ele>
        <time>2021-02-06T10:10:20Z</time>
      </trkpt>
      <trkpt lat="44.174" lon="5.02183">
        <ele>355</ele>
        <time>2021-02-06T10:10:22Z</time>
      </trkpt>
      <trkpt lat="44.17402" lon="5.02181">
        <ele>354</ele>
        <time>2021-02-06T10:10:24Z</time>
      </trkpt>
      <trkpt lat="44.17405" lon="5.02182">
        <ele>353</ele>
        <time>2021-02-06T10:10:26Z</time>
      </trkpt>
      <trkpt lat="44.17406" lon="5.02183">
        <ele>353</ele>
        <time>2021-02-06T10:10:27Z</time>
      </trkpt>
      <trkpt lat="44.17408" lon="5.02185">
        <ele>353</ele>
        <time>2021-02-06T10:10:28Z</time>
      </trkpt>
      <trkpt lat="44.17409" lon="5.02188">
        <ele>353</ele>
        <time>2021-02-06T10:10:29Z</time>
      </trkpt>
      <trkpt lat="44.17409" lon="5.02191">
        <ele>353</ele>
        <time>2021-02-06T10:10:30Z</time>
      </trkpt>
      <trkpt lat="44.17411" lon="5.02194">
        <ele>352</ele>
        <time>2021-02-06T10:10:31Z</time>
      </trkpt>
      <trkpt lat="44.17411" lon="5.02196">
        <ele>352</ele>
        <time>2021-02-06T10:10:32Z</time>
      </trkpt>
      <trkpt lat="44.17412" lon="5.02199">
        <ele>352</ele>
        <time>2021-02-06T10:10:33Z</time>
      </trkpt>
      <trkpt lat="44.17413" lon="5.02201">
        <ele>351</ele>
        <time>2021-02-06T10:10:34Z</time>
      </trkpt>
      <trkpt lat="44.17414" lon="5.02204">
        <ele>350</ele>
        <time>2021-02-06T10:10:35Z</time>
      </trkpt>
      <trkpt lat="44.17415" lon="5.02206">
        <ele>350</ele>
        <time>2021-02-06T10:10:36Z</time>
      </trkpt>
      <trkpt lat="44.17416" lon="5.02209">
        <ele>349</ele>
        <time>2021-02-06T10:10:37Z</time>
      </trkpt>
      <trkpt lat="44.17417" lon="5.02211">
        <ele>348</ele>
        <time>2021-02-06T10:10:38Z</time>
      </trkpt>
      <trkpt lat="44.17418" lon="5.02214">
        <ele>348</ele>
        <time>2021-02-06T10:10:39Z</time>
      </trkpt>
      <trkpt lat="44.17418" lon="5.02217">
        <ele>347</ele>
        <time>2021-02-06T10:10:40Z</time>
      </trkpt>
      <trkpt lat="44.17419" lon="5.02221">
        <ele>346</ele>
        <time>2021-02-06T10:10:41Z</time>
      </trkpt>
      <trkpt lat="44.1742" lon="5.02225">
        <ele>345</ele>
        <time>2021-02-06T10:10:42Z</time>
      </trkpt>
      <trkpt lat="44.1742" lon="5.02228">
        <ele>345</ele>
        <time>2021-02-06T10:10:43Z</time>
      </trkpt>
      <trkpt lat="44.1742" lon="5.02232">
        <ele>344</ele>
        <time>2021-02-06T10:10:44Z</time>
      </trkpt>
      <trkpt lat="44.1742" lon="5.02236">
        <ele>343</ele>
        <time>2021-02-06T10:10:45Z</time>
      </trkpt>
      <trkpt lat="44.1742" lon="5.0224">
        <ele>343</ele>
        <time>2021-02-06T10:10:46Z</time>
      </trkpt>
      <trkpt lat="44.17419" lon="5.02244">
        <ele>343</ele>
        <time>2021-02-06T10:10:47Z</time>
      </trkpt>
      <trkpt lat="44.17417" lon="5.02247">
        <ele>343</ele>
        <time>2021-02-06T10:10:48Z</time>
      </trkpt>
      <trkpt lat="44.17416" lon="5.02249">
        <ele>344</ele>
        <time>2021-02-06T10:10:49Z</time>
      </trkpt>
      <trkpt lat="44.17414" lon="5.02257">
        <ele>344</ele>
        <time>2021-02-06T10:10:51Z</time>
      </trkpt>
      <trkpt lat="44.17415" lon="5.0226">
        <ele>343</ele>
        <time>2021-02-06T10:10:52Z</time>
      </trkpt>
      <trkpt lat="44.17417" lon="5.02265">
        <ele>341</ele>
        <time>2021-02-06T10:10:54Z</time>
      </trkpt>
      <trkpt lat="44.17424" lon="5.02253">
        <ele>338</ele>
        <time>2021-02-06T10:10:59Z</time>
      </trkpt>
      <trkpt lat="44.17426" lon="5.02247">
        <ele>337</ele>
        <time>2021-02-06T10:11:01Z</time>
      </trkpt>
      <trkpt lat="44.17427" lon="5.02244">
        <ele>337</ele>
        <time>2021-02-06T10:11:02Z</time>
      </trkpt>
      <trkpt lat="44.17428" lon="5.0224">
        <ele>337</ele>
        <time>2021-02-06T10:11:03Z</time>
      </trkpt>
      <trkpt lat="44.17429" lon="5.02237">
        <ele>337</ele>
        <time>2021-02-06T10:11:04Z</time>
      </trkpt>
      <trkpt lat="44.1743" lon="5.02233">
        <ele>337</ele>
        <time>2021-02-06T10:11:05Z</time>
      </trkpt>
      <trkpt lat="44.1743" lon="5.0223">
        <ele>338</ele>
        <time>2021-02-06T10:11:06Z</time>
      </trkpt>
      <trkpt lat="44.17431" lon="5.02226">
        <ele>338</ele>
        <time>2021-02-06T10:11:07Z</time>
      </trkpt>
      <trkpt lat="44.17433" lon="5.02224">
        <ele>337</ele>
        <time>2021-02-06T10:11:08Z</time>
      </trkpt>
      <trkpt lat="44.17434" lon="5.02221">
        <ele>337</ele>
        <time>2021-02-06T10:11:09Z</time>
      </trkpt>
      <trkpt lat="44.17435" lon="5.02217">
        <ele>337</ele>
        <time>2021-02-06T10:11:10Z</time>
      </trkpt>
      <trkpt lat="44.17435" lon="5.02213">
        <ele>338</ele>
        <time>2021-02-06T10:11:11Z</time>
      </trkpt>
      <trkpt lat="44.17436" lon="5.02209">
        <ele>338</ele>
        <time>2021-02-06T10:11:12Z</time>
      </trkpt>
      <trkpt lat="44.17436" lon="5.02206">
        <ele>339</ele>
        <time>2021-02-06T10:11:13Z</time>
      </trkpt>
      <trkpt lat="44.17437" lon="5.02202">
        <ele>339</ele>
        <time>2021-02-06T10:11:14Z</time>
      </trkpt>
      <trkpt lat="44.17437" lon="5.02199">
        <ele>340</ele>
        <time>2021-02-06T10:11:15Z</time>
      </trkpt>
      <trkpt lat="44.17438" lon="5.02195">
        <ele>340</ele>
        <time>2021-02-06T10:11:16Z</time>
      </trkpt>
      <trkpt lat="44.17439" lon="5.02192">
        <ele>340</ele>
        <time>2021-02-06T10:11:17Z</time>
      </trkpt>
      <trkpt lat="44.1744" lon="5.02189">
        <ele>340</ele>
        <time>2021-02-06T10:11:18Z</time>
      </trkpt>
      <trkpt lat="44.17442" lon="5.02185">
        <ele>339</ele>
        <time>2021-02-06T10:11:19Z</time>
      </trkpt>
      <trkpt lat="44.17443" lon="5.02182">
        <ele>339</ele>
        <time>2021-02-06T10:11:20Z</time>
      </trkpt>
      <trkpt lat="44.17445" lon="5.02178">
        <ele>339</ele>
        <time>2021-02-06T10:11:21Z</time>
      </trkpt>
      <trkpt lat="44.17446" lon="5.02175">
        <ele>339</ele>
        <time>2021-02-06T10:11:22Z</time>
      </trkpt>
      <trkpt lat="44.17447" lon="5.02172">
        <ele>339</ele>
        <time>2021-02-06T10:11:23Z</time>
      </trkpt>
      <trkpt lat="44.17448" lon="5.02169">
        <ele>339</ele>
        <time>2021-02-06T10:11:24Z</time>
      </trkpt>
      <trkpt lat="44.17449" lon="5.02166">
        <ele>339</ele>
        <time>2021-02-06T10:11:25Z</time>
      </trkpt>
      <trkpt lat="44.17449" lon="5.02163">
        <ele>339</ele>
        <time>2021-02-06T10:11:26Z</time>
      </trkpt>
      <trkpt lat="44.1745" lon="5.02157">
        <ele>340</ele>
        <time>2021-02-06T10:11:28Z</time>
      </trkpt>
      <trkpt lat="44.1745" lon="5.02154">
        <ele>340</ele>
        <time>2021-02-06T10:11:29Z</time>
      </trkpt>
      <trkpt lat="44.17451" lon="5.02151">
        <ele>340</ele>
        <time>2021-02-06T10:11:30Z</time>
      </trkpt>
      <trkpt lat="44.17454" lon="5.02149">
        <ele>339</ele>
        <time>2021-02-06T10:11:32Z</time>
      </trkpt>
      <trkpt lat="44.17456" lon="5.02149">
        <ele>338</ele>
        <time>2021-02-06T10:11:34Z</time>
      </trkpt>
      <trkpt lat="44.17457" lon="5.02153">
        <ele>337</ele>
        <time>2021-02-06T10:11:36Z</time>
      </trkpt>
      <trkpt lat="44.17456" lon="5.02157">
        <ele>337</ele>
        <time>2021-02-06T10:11:38Z</time>
      </trkpt>
      <trkpt lat="44.17456" lon="5.0216">
        <ele>337</ele>
        <time>2021-02-06T10:11:39Z</time>
      </trkpt>
      <trkpt lat="44.17454" lon="5.02165">
        <ele>337</ele>
        <time>2021-02-06T10:11:41Z</time>
      </trkpt>
      <trkpt lat="44.17453" lon="5.02168">
        <ele>337</ele>
        <time>2021-02-06T10:11:42Z</time>
      </trkpt>
      <trkpt lat="44.17449" lon="5.02176">
        <ele>337</ele>
        <time>2021-02-06T10:11:45Z</time>
      </trkpt>
      <trkpt lat="44.17448" lon="5.02179">
        <ele>338</ele>
        <time>2021-02-06T10:11:46Z</time>
      </trkpt>
      <trkpt lat="44.17447" lon="5.02184">
        <ele>337</ele>
        <time>2021-02-06T10:11:47Z</time>
      </trkpt>
      <trkpt lat="44.17446" lon="5.02188">
        <ele>337</ele>
        <time>2021-02-06T10:11:48Z</time>
      </trkpt>
      <trkpt lat="44.17447" lon="5.02202">
        <ele>334</ele>
        <time>2021-02-06T10:11:52Z</time>
      </trkpt>
      <trkpt lat="44.17447" lon="5.02208">
        <ele>332</ele>
        <time>2021-02-06T10:11:54Z</time>
      </trkpt>
      <trkpt lat="44.17449" lon="5.02221">
        <ele>328</ele>
        <time>2021-02-06T10:11:57Z</time>
      </trkpt>
      <trkpt lat="44.17449" lon="5.02234">
        <ele>325</ele>
        <time>2021-02-06T10:12:00Z</time>
      </trkpt>
      <trkpt lat="44.17451" lon="5.02233">
        <ele>325</ele>
        <time>2021-02-06T10:12:10Z</time>
      </trkpt>
      <trkpt lat="44.17452" lon="5.0223">
        <ele>325</ele>
        <time>2021-02-06T10:12:11Z</time>
      </trkpt>
      <trkpt lat="44.17453" lon="5.02224">
        <ele>325</ele>
        <time>2021-02-06T10:12:13Z</time>
      </trkpt>
      <trkpt lat="44.17455" lon="5.02221">
        <ele>325</ele>
        <time>2021-02-06T10:12:14Z</time>
      </trkpt>
      <trkpt lat="44.17455" lon="5.02219">
        <ele>326</ele>
        <time>2021-02-06T10:12:15Z</time>
      </trkpt>
      <trkpt lat="44.17456" lon="5.02216">
        <ele>326</ele>
        <time>2021-02-06T10:12:16Z</time>
      </trkpt>
      <trkpt lat="44.17457" lon="5.02213">
        <ele>326</ele>
        <time>2021-02-06T10:12:17Z</time>
      </trkpt>
      <trkpt lat="44.17459" lon="5.0221">
        <ele>326</ele>
        <time>2021-02-06T10:12:18Z</time>
      </trkpt>
      <trkpt lat="44.1746" lon="5.02209">
        <ele>326</ele>
        <time>2021-02-06T10:12:19Z</time>
      </trkpt>
      <trkpt lat="44.17461" lon="5.02206">
        <ele>326</ele>
        <time>2021-02-06T10:12:20Z</time>
      </trkpt>
      <trkpt lat="44.17462" lon="5.02203">
        <ele>326</ele>
        <time>2021-02-06T10:12:21Z</time>
      </trkpt>
      <trkpt lat="44.17464" lon="5.02199">
        <ele>326</ele>
        <time>2021-02-06T10:12:22Z</time>
      </trkpt>
      <trkpt lat="44.17466" lon="5.02196">
        <ele>326</ele>
        <time>2021-02-06T10:12:23Z</time>
      </trkpt>
      <trkpt lat="44.17467" lon="5.02192">
        <ele>326</ele>
        <time>2021-02-06T10:12:24Z</time>
      </trkpt>
      <trkpt lat="44.17469" lon="5.02188">
        <ele>326</ele>
        <time>2021-02-06T10:12:25Z</time>
      </trkpt>
      <trkpt lat="44.17472" lon="5.02185">
        <ele>325</ele>
        <time>2021-02-06T10:12:26Z</time>
      </trkpt>
      <trkpt lat="44.17473" lon="5.02181">
        <ele>325</ele>
        <time>2021-02-06T10:12:27Z</time>
      </trkpt>
      <trkpt lat="44.17475" lon="5.02178">
        <ele>325</ele>
        <time>2021-02-06T10:12:28Z</time>
      </trkpt>
      <trkpt lat="44.17479" lon="5.02171">
        <ele>325</ele>
        <time>2021-02-06T10:12:30Z</time>
      </trkpt>
      <trkpt lat="44.17481" lon="5.02168">
        <ele>324</ele>
        <time>2021-02-06T10:12:31Z</time>
      </trkpt>
      <trkpt lat="44.17483" lon="5.02165">
        <ele>324</ele>
        <time>2021-02-06T10:12:32Z</time>
      </trkpt>
      <trkpt lat="44.17487" lon="5.02152">
        <ele>324</ele>
        <time>2021-02-06T10:12:35Z</time>
      </trkpt>
      <trkpt lat="44.17493" lon="5.0214">
        <ele>324</ele>
        <time>2021-02-06T10:12:39Z</time>
      </trkpt>
      <trkpt lat="44.17495" lon="5.02143">
        <ele>322</ele>
        <time>2021-02-06T10:12:41Z</time>
      </trkpt>
      <trkpt lat="44.17496" lon="5.02146">
        <ele>321</ele>
        <time>2021-02-06T10:12:42Z</time>
      </trkpt>
      <trkpt lat="44.17496" lon="5.02148">
        <ele>320</ele>
        <time>2021-02-06T10:12:43Z</time>
      </trkpt>
      <trkpt lat="44.17496" lon="5.02151">
        <ele>319</ele>
        <time>2021-02-06T10:12:44Z</time>
      </trkpt>
      <trkpt lat="44.17496" lon="5.02154">
        <ele>319</ele>
        <time>2021-02-06T10:12:45Z</time>
      </trkpt>
      <trkpt lat="44.17493" lon="5.02169">
        <ele>317</ele>
        <time>2021-02-06T10:12:50Z</time>
      </trkpt>
      <trkpt lat="44.17487" lon="5.02181">
        <ele>318</ele>
        <time>2021-02-06T10:12:54Z</time>
      </trkpt>
      <trkpt lat="44.1748" lon="5.02192">
        <ele>319</ele>
        <time>2021-02-06T10:12:57Z</time>
      </trkpt>
      <trkpt lat="44.1748" lon="5.02208">
        <ele>316</ele>
        <time>2021-02-06T10:13:01Z</time>
      </trkpt>
      <trkpt lat="44.17481" lon="5.02225">
        <ele>313</ele>
        <time>2021-02-06T10:13:05Z</time>
      </trkpt>
      <trkpt lat="44.17483" lon="5.02213">
        <ele>313</ele>
        <time>2021-02-06T10:13:12Z</time>
      </trkpt>
      <trkpt lat="44.17488" lon="5.02201">
        <ele>313</ele>
        <time>2021-02-06T10:13:16Z</time>
      </trkpt>
      <trkpt lat="44.17495" lon="5.02188">
        <ele>312</ele>
        <time>2021-02-06T10:13:20Z</time>
      </trkpt>
      <trkpt lat="44.17501" lon="5.02181">
        <ele>311</ele>
        <time>2021-02-06T10:13:23Z</time>
      </trkpt>
      <trkpt lat="44.17503" lon="5.02174">
        <ele>311</ele>
        <time>2021-02-06T10:13:25Z</time>
      </trkpt>
      <trkpt lat="44.17505" lon="5.02171">
        <ele>310</ele>
        <time>2021-02-06T10:13:26Z</time>
      </trkpt>
      <trkpt lat="44.17511" lon="5.02161">
        <ele>309</ele>
        <time>2021-02-06T10:13:29Z</time>
      </trkpt>
      <trkpt lat="44.17513" lon="5.02158">
        <ele>309</ele>
        <time>2021-02-06T10:13:30Z</time>
      </trkpt>
      <trkpt lat="44.17514" lon="5.02155">
        <ele>309</ele>
        <time>2021-02-06T10:13:31Z</time>
      </trkpt>
      <trkpt lat="44.17515" lon="5.02152">
        <ele>309</ele>
        <time>2021-02-06T10:13:32Z</time>
      </trkpt>
      <trkpt lat="44.17516" lon="5.02156">
        <ele>307</ele>
        <time>2021-02-06T10:13:36Z</time>
      </trkpt>
      <trkpt lat="44.17517" lon="5.0216">
        <ele>306</ele>
        <time>2021-02-06T10:13:38Z</time>
      </trkpt>
      <trkpt lat="44.17513" lon="5.02175">
        <ele>305</ele>
        <time>2021-02-06T10:13:44Z</time>
      </trkpt>
      <trkpt lat="44.17509" lon="5.02188">
        <ele>305</ele>
        <time>2021-02-06T10:13:49Z</time>
      </trkpt>
      <trkpt lat="44.17509" lon="5.02191">
        <ele>304</ele>
        <time>2021-02-06T10:13:50Z</time>
      </trkpt>
      <trkpt lat="44.17512" lon="5.02206">
        <ele>300</ele>
        <time>2021-02-06T10:13:54Z</time>
      </trkpt>
      <trkpt lat="44.17521" lon="5.02206">
        <ele>296</ele>
        <time>2021-02-06T10:14:01Z</time>
      </trkpt>
      <trkpt lat="44.17528" lon="5.02196">
        <ele>294</ele>
        <time>2021-02-06T10:14:05Z</time>
      </trkpt>
      <trkpt lat="44.17536" lon="5.02185">
        <ele>292</ele>
        <time>2021-02-06T10:14:09Z</time>
      </trkpt>
      <trkpt lat="44.1754" lon="5.02171">
        <ele>292</ele>
        <time>2021-02-06T10:14:13Z</time>
      </trkpt>
      <trkpt lat="44.17543" lon="5.02165">
        <ele>291</ele>
        <time>2021-02-06T10:14:16Z</time>
      </trkpt>
      <trkpt lat="44.17545" lon="5.02168">
        <ele>290</ele>
        <time>2021-02-06T10:14:18Z</time>
      </trkpt>
      <trkpt lat="44.17546" lon="5.02175">
        <ele>289</ele>
        <time>2021-02-06T10:14:21Z</time>
      </trkpt>
      <trkpt lat="44.17547" lon="5.02184">
        <ele>288</ele>
        <time>2021-02-06T10:14:25Z</time>
      </trkpt>
      <trkpt lat="44.17548" lon="5.02188">
        <ele>288</ele>
        <time>2021-02-06T10:14:26Z</time>
      </trkpt>
      <trkpt lat="44.17558" lon="5.02194">
        <ele>285</ele>
        <time>2021-02-06T10:14:31Z</time>
      </trkpt>
      <trkpt lat="44.17565" lon="5.02185">
        <ele>283</ele>
        <time>2021-02-06T10:14:35Z</time>
      </trkpt>
      <trkpt lat="44.17573" lon="5.02174">
        <ele>281</ele>
        <time>2021-02-06T10:14:39Z</time>
      </trkpt>
      <trkpt lat="44.17574" lon="5.02161">
        <ele>280</ele>
        <time>2021-02-06T10:14:43Z</time>
      </trkpt>
      <trkpt lat="44.17579" lon="5.02154">
        <ele>278</ele>
        <time>2021-02-06T10:14:47Z</time>
      </trkpt>
      <trkpt lat="44.17588" lon="5.02162">
        <ele>276</ele>
        <time>2021-02-06T10:14:52Z</time>
      </trkpt>
      <trkpt lat="44.17588" lon="5.02152">
        <ele>275</ele>
        <time>2021-02-06T10:14:56Z</time>
      </trkpt>
      <trkpt lat="44.17586" lon="5.02149">
        <ele>276</ele>
        <time>2021-02-06T10:14:57Z</time>
      </trkpt>
      <trkpt lat="44.17584" lon="5.02146">
        <ele>276</ele>
        <time>2021-02-06T10:14:58Z</time>
      </trkpt>
      <trkpt lat="44.17581" lon="5.02143">
        <ele>277</ele>
        <time>2021-02-06T10:14:59Z</time>
      </trkpt>
      <trkpt lat="44.17579" lon="5.0214">
        <ele>278</ele>
        <time>2021-02-06T10:15:00Z</time>
      </trkpt>
      <trkpt lat="44.17577" lon="5.02138">
        <ele>278</ele>
        <time>2021-02-06T10:15:01Z</time>
      </trkpt>
      <trkpt lat="44.17575" lon="5.02135">
        <ele>279</ele>
        <time>2021-02-06T10:15:02Z</time>
      </trkpt>
      <trkpt lat="44.17573" lon="5.02133">
        <ele>279</ele>
        <time>2021-02-06T10:15:03Z</time>
      </trkpt>
      <trkpt lat="44.17571" lon="5.0213">
        <ele>279</ele>
        <time>2021-02-06T10:15:04Z</time>
      </trkpt>
      <trkpt lat="44.17569" lon="5.02128">
        <ele>280</ele>
        <time>2021-02-06T10:15:05Z</time>
      </trkpt>
      <trkpt lat="44.17567" lon="5.02125">
        <ele>280</ele>
        <time>2021-02-06T10:15:06Z</time>
      </trkpt>
      <trkpt lat="44.17565" lon="5.02122">
        <ele>280</ele>
        <time>2021-02-06T10:15:07Z</time>
      </trkpt>
      <trkpt lat="44.17564" lon="5.02119">
        <ele>280</ele>
        <time>2021-02-06T10:15:08Z</time>
      </trkpt>
      <trkpt lat="44.17562" lon="5.02116">
        <ele>281</ele>
        <time>2021-02-06T10:15:09Z</time>
      </trkpt>
      <trkpt lat="44.1756" lon="5.02114">
        <ele>281</ele>
        <time>2021-02-06T10:15:10Z</time>
      </trkpt>
      <trkpt lat="44.17558" lon="5.02112">
        <ele>281</ele>
        <time>2021-02-06T10:15:11Z</time>
      </trkpt>
      <trkpt lat="44.17557" lon="5.02109">
        <ele>281</ele>
        <time>2021-02-06T10:15:12Z</time>
      </trkpt>
      <trkpt lat="44.17555" lon="5.02106">
        <ele>281</ele>
        <time>2021-02-06T10:15:13Z</time>
      </trkpt>
      <trkpt lat="44.17553" lon="5.02104">
        <ele>282</ele>
        <time>2021-02-06T10:15:14Z</time>
      </trkpt>
      <trkpt lat="44.17551" lon="5.02102">
        <ele>283</ele>
        <time>2021-02-06T10:15:15Z</time>
      </trkpt>
      <trkpt lat="44.17549" lon="5.021">
        <ele>283</ele>
        <time>2021-02-06T10:15:16Z</time>
      </trkpt>
      <trkpt lat="44.17547" lon="5.02097">
        <ele>284</ele>
        <time>2021-02-06T10:15:17Z</time>
      </trkpt>
      <trkpt lat="44.17545" lon="5.02095">
        <ele>285</ele>
        <time>2021-02-06T10:15:18Z</time>
      </trkpt>
      <trkpt lat="44.17543" lon="5.02093">
        <ele>285</ele>
        <time>2021-02-06T10:15:19Z</time>
      </trkpt>
      <trkpt lat="44.17541" lon="5.0209">
        <ele>286</ele>
        <time>2021-02-06T10:15:20Z</time>
      </trkpt>
      <trkpt lat="44.17539" lon="5.02088">
        <ele>286</ele>
        <time>2021-02-06T10:15:21Z</time>
      </trkpt>
      <trkpt lat="44.17538" lon="5.02085">
        <ele>286</ele>
        <time>2021-02-06T10:15:22Z</time>
      </trkpt>
      <trkpt lat="44.17536" lon="5.02083">
        <ele>287</ele>
        <time>2021-02-06T10:15:23Z</time>
      </trkpt>
      <trkpt lat="44.17533" lon="5.02077">
        <ele>286</ele>
        <time>2021-02-06T10:15:25Z</time>
      </trkpt>
      <trkpt lat="44.17531" lon="5.02074">
        <ele>286</ele>
        <time>2021-02-06T10:15:26Z</time>
      </trkpt>
      <trkpt lat="44.17529" lon="5.02071">
        <ele>286</ele>
        <time>2021-02-06T10:15:27Z</time>
      </trkpt>
      <trkpt lat="44.17527" lon="5.02068">
        <ele>286</ele>
        <time>2021-02-06T10:15:28Z</time>
      </trkpt>
      <trkpt lat="44.17525" lon="5.02066">
        <ele>286</ele>
        <time>2021-02-06T10:15:29Z</time>
      </trkpt>
      <trkpt lat="44.17524" lon="5.02063">
        <ele>285</ele>
        <time>2021-02-06T10:15:30Z</time>
      </trkpt>
      <trkpt lat="44.17522" lon="5.02061">
        <ele>285</ele>
        <time>2021-02-06T10:15:31Z</time>
      </trkpt>
      <trkpt lat="44.1752" lon="5.02059">
        <ele>285</ele>
        <time>2021-02-06T10:15:32Z</time>
      </trkpt>
      <trkpt lat="44.17518" lon="5.02057">
        <ele>286</ele>
        <time>2021-02-06T10:15:33Z</time>
      </trkpt>
      <trkpt lat="44.17516" lon="5.02055">
        <ele>286</ele>
        <time>2021-02-06T10:15:34Z</time>
      </trkpt>
      <trkpt lat="44.17514" lon="5.02053">
        <ele>286</ele>
        <time>2021-02-06T10:15:35Z</time>
      </trkpt>
      <trkpt lat="44.17506" lon="5.02042">
        <ele>285</ele>
        <time>2021-02-06T10:15:39Z</time>
      </trkpt>
      <trkpt lat="44.17502" lon="5.02037">
        <ele>284</ele>
        <time>2021-02-06T10:15:41Z</time>
      </trkpt>
      <trkpt lat="44.175" lon="5.02036">
        <ele>284</ele>
        <time>2021-02-06T10:15:42Z</time>
      </trkpt>
      <trkpt lat="44.17497" lon="5.02033">
        <ele>284</ele>
        <time>2021-02-06T10:15:43Z</time>
      </trkpt>
      <trkpt lat="44.17495" lon="5.02031">
        <ele>284</ele>
        <time>2021-02-06T10:15:44Z</time>
      </trkpt>
      <trkpt lat="44.17493" lon="5.02029">
        <ele>284</ele>
        <time>2021-02-06T10:15:45Z</time>
      </trkpt>
      <trkpt lat="44.17491" lon="5.02027">
        <ele>284</ele>
        <time>2021-02-06T10:15:46Z</time>
      </trkpt>
      <trkpt lat="44.17489" lon="5.02026">
        <ele>284</ele>
        <time>2021-02-06T10:15:47Z</time>
      </trkpt>
      <trkpt lat="44.17487" lon="5.02024">
        <ele>285</ele>
        <time>2021-02-06T10:15:48Z</time>
      </trkpt>
      <trkpt lat="44.17486" lon="5.02023">
        <ele>285</ele>
        <time>2021-02-06T10:15:49Z</time>
      </trkpt>
      <trkpt lat="44.17484" lon="5.02021">
        <ele>285</ele>
        <time>2021-02-06T10:15:50Z</time>
      </trkpt>
      <trkpt lat="44.17482" lon="5.02019">
        <ele>285</ele>
        <time>2021-02-06T10:15:52Z</time>
      </trkpt>
      <trkpt lat="44.17481" lon="5.02016">
        <ele>284</ele>
        <time>2021-02-06T10:15:55Z</time>
      </trkpt>
      <trkpt lat="44.17479" lon="5.02013">
        <ele>284</ele>
        <time>2021-02-06T10:15:58Z</time>
      </trkpt>
      <trkpt lat="44.17477" lon="5.02011">
        <ele>283</ele>
        <time>2021-02-06T10:16:00Z</time>
      </trkpt>
      <trkpt lat="44.17475" lon="5.02009">
        <ele>283</ele>
        <time>2021-02-06T10:16:02Z</time>
      </trkpt>
      <trkpt lat="44.17471" lon="5.02007">
        <ele>283</ele>
        <time>2021-02-06T10:16:04Z</time>
      </trkpt>
      <trkpt lat="44.17469" lon="5.02006">
        <ele>283</ele>
        <time>2021-02-06T10:16:05Z</time>
      </trkpt>
      <trkpt lat="44.17468" lon="5.02005">
        <ele>283</ele>
        <time>2021-02-06T10:16:06Z</time>
      </trkpt>
      <trkpt lat="44.17466" lon="5.02004">
        <ele>283</ele>
        <time>2021-02-06T10:16:07Z</time>
      </trkpt>
      <trkpt lat="44.17464" lon="5.02002">
        <ele>283</ele>
        <time>2021-02-06T10:16:08Z</time>
      </trkpt>
      <trkpt lat="44.17462" lon="5.02">
        <ele>283</ele>
        <time>2021-02-06T10:16:09Z</time>
      </trkpt>
      <trkpt lat="44.1746" lon="5.01999">
        <ele>283</ele>
        <time>2021-02-06T10:16:10Z</time>
      </trkpt>
      <trkpt lat="44.17458" lon="5.01998">
        <ele>283</ele>
        <time>2021-02-06T10:16:11Z</time>
      </trkpt>
      <trkpt lat="44.17456" lon="5.01996">
        <ele>283</ele>
        <time>2021-02-06T10:16:12Z</time>
      </trkpt>
      <trkpt lat="44.17454" lon="5.01995">
        <ele>283</ele>
        <time>2021-02-06T10:16:13Z</time>
      </trkpt>
      <trkpt lat="44.17452" lon="5.01993">
        <ele>283</ele>
        <time>2021-02-06T10:16:14Z</time>
      </trkpt>
      <trkpt lat="44.1745" lon="5.01992">
        <ele>283</ele>
        <time>2021-02-06T10:16:15Z</time>
      </trkpt>
      <trkpt lat="44.17448" lon="5.0199">
        <ele>283</ele>
        <time>2021-02-06T10:16:16Z</time>
      </trkpt>
      <trkpt lat="44.17446" lon="5.01988">
        <ele>282</ele>
        <time>2021-02-06T10:16:17Z</time>
      </trkpt>
      <trkpt lat="44.17444" lon="5.01986">
        <ele>282</ele>
        <time>2021-02-06T10:16:18Z</time>
      </trkpt>
      <trkpt lat="44.17441" lon="5.01983">
        <ele>282</ele>
        <time>2021-02-06T10:16:19Z</time>
      </trkpt>
      <trkpt lat="44.17439" lon="5.0198">
        <ele>281</ele>
        <time>2021-02-06T10:16:20Z</time>
      </trkpt>
      <trkpt lat="44.17437" lon="5.01977">
        <ele>281</ele>
        <time>2021-02-06T10:16:21Z</time>
      </trkpt>
      <trkpt lat="44.17435" lon="5.01975">
        <ele>280</ele>
        <time>2021-02-06T10:16:22Z</time>
      </trkpt>
      <trkpt lat="44.17433" lon="5.01972">
        <ele>280</ele>
        <time>2021-02-06T10:16:23Z</time>
      </trkpt>
      <trkpt lat="44.17431" lon="5.01969">
        <ele>280</ele>
        <time>2021-02-06T10:16:24Z</time>
      </trkpt>
      <trkpt lat="44.1743" lon="5.01966">
        <ele>280</ele>
        <time>2021-02-06T10:16:25Z</time>
      </trkpt>
      <trkpt lat="44.17428" lon="5.01964">
        <ele>279</ele>
        <time>2021-02-06T10:16:26Z</time>
      </trkpt>
      <trkpt lat="44.17426" lon="5.01961">
        <ele>279</ele>
        <time>2021-02-06T10:16:27Z</time>
      </trkpt>
      <trkpt lat="44.17424" lon="5.01958">
        <ele>279</ele>
        <time>2021-02-06T10:16:28Z</time>
      </trkpt>
      <trkpt lat="44.17422" lon="5.01955">
        <ele>279</ele>
        <time>2021-02-06T10:16:29Z</time>
      </trkpt>
      <trkpt lat="44.1742" lon="5.01951">
        <ele>278</ele>
        <time>2021-02-06T10:16:30Z</time>
      </trkpt>
      <trkpt lat="44.17419" lon="5.01948">
        <ele>277</ele>
        <time>2021-02-06T10:16:31Z</time>
      </trkpt>
      <trkpt lat="44.17417" lon="5.01944">
        <ele>277</ele>
        <time>2021-02-06T10:16:32Z</time>
      </trkpt>
      <trkpt lat="44.17416" lon="5.01941">
        <ele>276</ele>
        <time>2021-02-06T10:16:33Z</time>
      </trkpt>
      <trkpt lat="44.17414" lon="5.01938">
        <ele>275</ele>
        <time>2021-02-06T10:16:34Z</time>
      </trkpt>
      <trkpt lat="44.17412" lon="5.01935">
        <ele>275</ele>
        <time>2021-02-06T10:16:35Z</time>
      </trkpt>
      <trkpt lat="44.1741" lon="5.01932">
        <ele>274</ele>
        <time>2021-02-06T10:16:36Z</time>
      </trkpt>
      <trkpt lat="44.17409" lon="5.0193">
        <ele>273</ele>
        <time>2021-02-06T10:16:37Z</time>
      </trkpt>
      <trkpt lat="44.17407" lon="5.01927">
        <ele>273</ele>
        <time>2021-02-06T10:16:38Z</time>
      </trkpt>
      <trkpt lat="44.17405" lon="5.01925">
        <ele>273</ele>
        <time>2021-02-06T10:16:39Z</time>
      </trkpt>
      <trkpt lat="44.17403" lon="5.01923">
        <ele>273</ele>
        <time>2021-02-06T10:16:40Z</time>
      </trkpt>
      <trkpt lat="44.17401" lon="5.0192">
        <ele>272</ele>
        <time>2021-02-06T10:16:41Z</time>
      </trkpt>
      <trkpt lat="44.17399" lon="5.01918">
        <ele>272</ele>
        <time>2021-02-06T10:16:42Z</time>
      </trkpt>
      <trkpt lat="44.17396" lon="5.01917">
        <ele>272</ele>
        <time>2021-02-06T10:16:43Z</time>
      </trkpt>
      <trkpt lat="44.17394" lon="5.01915">
        <ele>271</ele>
        <time>2021-02-06T10:16:44Z</time>
      </trkpt>
      <trkpt lat="44.17392" lon="5.01914">
        <ele>271</ele>
        <time>2021-02-06T10:16:45Z</time>
      </trkpt>
      <trkpt lat="44.1739" lon="5.01913">
        <ele>271</ele>
        <time>2021-02-06T10:16:46Z</time>
      </trkpt>
      <trkpt lat="44.17388" lon="5.01912">
        <ele>271</ele>
        <time>2021-02-06T10:16:47Z</time>
      </trkpt>
      <trkpt lat="44.17385" lon="5.01911">
        <ele>271</ele>
        <time>2021-02-06T10:16:48Z</time>
      </trkpt>
      <trkpt lat="44.17383" lon="5.01911">
        <ele>271</ele>
        <time>2021-02-06T10:16:49Z</time>
      </trkpt>
      <trkpt lat="44.17381" lon="5.01911">
        <ele>271</ele>
        <time>2021-02-06T10:16:50Z</time>
      </trkpt>
      <trkpt lat="44.17378" lon="5.01912">
        <ele>271</ele>
        <time>2021-02-06T10:16:51Z</time>
      </trkpt>
      <trkpt lat="44.17376" lon="5.01911">
        <ele>271</ele>
        <time>2021-02-06T10:16:52Z</time>
      </trkpt>
      <trkpt lat="44.17374" lon="5.01911">
        <ele>271</ele>
        <time>2021-02-06T10:16:53Z</time>
      </trkpt>
      <trkpt lat="44.17372" lon="5.0191">
        <ele>270</ele>
        <time>2021-02-06T10:16:54Z</time>
      </trkpt>
      <trkpt lat="44.1737" lon="5.0191">
        <ele>270</ele>
        <time>2021-02-06T10:16:55Z</time>
      </trkpt>
      <trkpt lat="44.17368" lon="5.01909">
        <ele>270</ele>
        <time>2021-02-06T10:16:56Z</time>
      </trkpt>
      <trkpt lat="44.17366" lon="5.01908">
        <ele>270</ele>
        <time>2021-02-06T10:16:57Z</time>
      </trkpt>
      <trkpt lat="44.17364" lon="5.01907">
        <ele>269</ele>
        <time>2021-02-06T10:16:58Z</time>
      </trkpt>
      <trkpt lat="44.17361" lon="5.01906">
        <ele>269</ele>
        <time>2021-02-06T10:16:59Z</time>
      </trkpt>
      <trkpt lat="44.17359" lon="5.01906">
        <ele>268</ele>
        <time>2021-02-06T10:17:00Z</time>
      </trkpt>
      <trkpt lat="44.17357" lon="5.01905">
        <ele>268</ele>
        <time>2021-02-06T10:17:01Z</time>
      </trkpt>
      <trkpt lat="44.17355" lon="5.01905">
        <ele>267</ele>
        <time>2021-02-06T10:17:02Z</time>
      </trkpt>
      <trkpt lat="44.17353" lon="5.01905">
        <ele>266</ele>
        <time>2021-02-06T10:17:03Z</time>
      </trkpt>
      <trkpt lat="44.17344" lon="5.01904">
        <ele>264</ele>
        <time>2021-02-06T10:17:07Z</time>
      </trkpt>
      <trkpt lat="44.1734" lon="5.01893">
        <ele>259</ele>
        <time>2021-02-06T10:17:13Z</time>
      </trkpt>
      <trkpt lat="44.17342" lon="5.01891">
        <ele>258</ele>
        <time>2021-02-06T10:17:14Z</time>
      </trkpt>
      <trkpt lat="44.17343" lon="5.0189">
        <ele>258</ele>
        <time>2021-02-06T10:17:15Z</time>
      </trkpt>
      <trkpt lat="44.17347" lon="5.01887">
        <ele>257</ele>
        <time>2021-02-06T10:17:17Z</time>
      </trkpt>
      <trkpt lat="44.17348" lon="5.01885">
        <ele>257</ele>
        <time>2021-02-06T10:17:18Z</time>
      </trkpt>
      <trkpt lat="44.17349" lon="5.01883">
        <ele>256</ele>
        <time>2021-02-06T10:17:19Z</time>
      </trkpt>
      <trkpt lat="44.17352" lon="5.0188">
        <ele>256</ele>
        <time>2021-02-06T10:17:21Z</time>
      </trkpt>
      <trkpt lat="44.17354" lon="5.01878">
        <ele>255</ele>
        <time>2021-02-06T10:17:22Z</time>
      </trkpt>
      <trkpt lat="44.17356" lon="5.01874">
        <ele>254</ele>
        <time>2021-02-06T10:17:24Z</time>
      </trkpt>
      <trkpt lat="44.17358" lon="5.01873">
        <ele>254</ele>
        <time>2021-02-06T10:17:25Z</time>
      </trkpt>
      <trkpt lat="44.17359" lon="5.01871">
        <ele>253</ele>
        <time>2021-02-06T10:17:26Z</time>
      </trkpt>
      <trkpt lat="44.17361" lon="5.01869">
        <ele>252</ele>
        <time>2021-02-06T10:17:27Z</time>
      </trkpt>
      <trkpt lat="44.17362" lon="5.01867">
        <ele>252</ele>
        <time>2021-02-06T10:17:28Z</time>
      </trkpt>
      <trkpt lat="44.17364" lon="5.01865">
        <ele>251</ele>
        <time>2021-02-06T10:17:29Z</time>
      </trkpt>
      <trkpt lat="44.17366" lon="5.01863">
        <ele>250</ele>
        <time>2021-02-06T10:17:30Z</time>
      </trkpt>
      <trkpt lat="44.17369" lon="5.01861">
        <ele>249</ele>
        <time>2021-02-06T10:17:31Z</time>
      </trkpt>
      <trkpt lat="44.17371" lon="5.01859">
        <ele>249</ele>
        <time>2021-02-06T10:17:32Z</time>
      </trkpt>
      <trkpt lat="44.17373" lon="5.01857">
        <ele>248</ele>
        <time>2021-02-06T10:17:33Z</time>
      </trkpt>
      <trkpt lat="44.17375" lon="5.01855">
        <ele>247</ele>
        <time>2021-02-06T10:17:34Z</time>
      </trkpt>
      <trkpt lat="44.17377" lon="5.01853">
        <ele>247</ele>
        <time>2021-02-06T10:17:35Z</time>
      </trkpt>
      <trkpt lat="44.17379" lon="5.01851">
        <ele>246</ele>
        <time>2021-02-06T10:17:36Z</time>
      </trkpt>
      <trkpt lat="44.17381" lon="5.01848">
        <ele>245</ele>
        <time>2021-02-06T10:17:37Z</time>
      </trkpt>
      <trkpt lat="44.17383" lon="5.01846">
        <ele>244</ele>
        <time>2021-02-06T10:17:38Z</time>
      </trkpt>
      <trkpt lat="44.17385" lon="5.01845">
        <ele>244</ele>
        <time>2021-02-06T10:17:39Z</time>
      </trkpt>
      <trkpt lat="44.17388" lon="5.01843">
        <ele>243</ele>
        <time>2021-02-06T10:17:40Z</time>
      </trkpt>
      <trkpt lat="44.17389" lon="5.01841">
        <ele>243</ele>
        <time>2021-02-06T10:17:41Z</time>
      </trkpt>
      <trkpt lat="44.1739" lon="5.01839">
        <ele>242</ele>
        <time>2021-02-06T10:17:42Z</time>
      </trkpt>
      <trkpt lat="44.17387" lon="5.01836">
        <ele>241</ele>
        <time>2021-02-06T10:17:44Z</time>
      </trkpt>
      <trkpt lat="44.17384" lon="5.01836">
        <ele>241</ele>
        <time>2021-02-06T10:17:45Z</time>
      </trkpt>
      <trkpt lat="44.17381" lon="5.01836">
        <ele>241</ele>
        <time>2021-02-06T10:17:46Z</time>
      </trkpt>
      <trkpt lat="44.17379" lon="5.01836">
        <ele>241</ele>
        <time>2021-02-06T10:17:47Z</time>
      </trkpt>
      <trkpt lat="44.17377" lon="5.01837">
        <ele>241</ele>
        <time>2021-02-06T10:17:48Z</time>
      </trkpt>
      <trkpt lat="44.17374" lon="5.01837">
        <ele>241</ele>
        <time>2021-02-06T10:17:49Z</time>
      </trkpt>
      <trkpt lat="44.17372" lon="5.01838">
        <ele>241</ele>
        <time>2021-02-06T10:17:50Z</time>
      </trkpt>
      <trkpt lat="44.17369" lon="5.01838">
        <ele>241</ele>
        <time>2021-02-06T10:17:51Z</time>
      </trkpt>
      <trkpt lat="44.17366" lon="5.01838">
        <ele>241</ele>
        <time>2021-02-06T10:17:52Z</time>
      </trkpt>
      <trkpt lat="44.17364" lon="5.01838">
        <ele>241</ele>
        <time>2021-02-06T10:17:53Z</time>
      </trkpt>
      <trkpt lat="44.17361" lon="5.01838">
        <ele>241</ele>
        <time>2021-02-06T10:17:54Z</time>
      </trkpt>
      <trkpt lat="44.17359" lon="5.01839">
        <ele>241</ele>
        <time>2021-02-06T10:17:55Z</time>
      </trkpt>
      <trkpt lat="44.17356" lon="5.01839">
        <ele>241</ele>
        <time>2021-02-06T10:17:56Z</time>
      </trkpt>
      <trkpt lat="44.17353" lon="5.0184">
        <ele>241</ele>
        <time>2021-02-06T10:17:57Z</time>
      </trkpt>
      <trkpt lat="44.17351" lon="5.01842">
        <ele>241</ele>
        <time>2021-02-06T10:17:58Z</time>
      </trkpt>
      <trkpt lat="44.17348" lon="5.01843">
        <ele>242</ele>
        <time>2021-02-06T10:17:59Z</time>
      </trkpt>
      <trkpt lat="44.17345" lon="5.01844">
        <ele>242</ele>
        <time>2021-02-06T10:18:00Z</time>
      </trkpt>
      <trkpt lat="44.17343" lon="5.01845">
        <ele>242</ele>
        <time>2021-02-06T10:18:01Z</time>
      </trkpt>
      <trkpt lat="44.17341" lon="5.01846">
        <ele>242</ele>
        <time>2021-02-06T10:18:02Z</time>
      </trkpt>
      <trkpt lat="44.17338" lon="5.01847">
        <ele>242</ele>
        <time>2021-02-06T10:18:03Z</time>
      </trkpt>
      <trkpt lat="44.17336" lon="5.01848">
        <ele>242</ele>
        <time>2021-02-06T10:18:04Z</time>
      </trkpt>
      <trkpt lat="44.17333" lon="5.01848">
        <ele>242</ele>
        <time>2021-02-06T10:18:05Z</time>
      </trkpt>
      <trkpt lat="44.17331" lon="5.01849">
        <ele>242</ele>
        <time>2021-02-06T10:18:06Z</time>
      </trkpt>
      <trkpt lat="44.17329" lon="5.01849">
        <ele>242</ele>
        <time>2021-02-06T10:18:07Z</time>
      </trkpt>
      <trkpt lat="44.17326" lon="5.01849">
        <ele>241</ele>
        <time>2021-02-06T10:18:08Z</time>
      </trkpt>
      <trkpt lat="44.17324" lon="5.01849">
        <ele>241</ele>
        <time>2021-02-06T10:18:09Z</time>
      </trkpt>
      <trkpt lat="44.17321" lon="5.0185">
        <ele>241</ele>
        <time>2021-02-06T10:18:10Z</time>
      </trkpt>
      <trkpt lat="44.17318" lon="5.0185">
        <ele>241</ele>
        <time>2021-02-06T10:18:11Z</time>
      </trkpt>
      <trkpt lat="44.17315" lon="5.01851">
        <ele>241</ele>
        <time>2021-02-06T10:18:12Z</time>
      </trkpt>
      <trkpt lat="44.17309" lon="5.0185">
        <ele>240</ele>
        <time>2021-02-06T10:18:14Z</time>
      </trkpt>
      <trkpt lat="44.17303" lon="5.01849">
        <ele>240</ele>
        <time>2021-02-06T10:18:16Z</time>
      </trkpt>
      <trkpt lat="44.17301" lon="5.01849">
        <ele>240</ele>
        <time>2021-02-06T10:18:17Z</time>
      </trkpt>
      <trkpt lat="44.17298" lon="5.01848">
        <ele>240</ele>
        <time>2021-02-06T10:18:18Z</time>
      </trkpt>
      <trkpt lat="44.17291" lon="5.01837">
        <ele>239</ele>
        <time>2021-02-06T10:18:22Z</time>
      </trkpt>
      <trkpt lat="44.17295" lon="5.01825">
        <ele>239</ele>
        <time>2021-02-06T10:18:26Z</time>
      </trkpt>
      <trkpt lat="44.17301" lon="5.01816">
        <ele>239</ele>
        <time>2021-02-06T10:18:30Z</time>
      </trkpt>
      <trkpt lat="44.17308" lon="5.01807">
        <ele>239</ele>
        <time>2021-02-06T10:18:34Z</time>
      </trkpt>
      <trkpt lat="44.17312" lon="5.01803">
        <ele>239</ele>
        <time>2021-02-06T10:18:36Z</time>
      </trkpt>
      <trkpt lat="44.17314" lon="5.018">
        <ele>238</ele>
        <time>2021-02-06T10:18:38Z</time>
      </trkpt>
      <trkpt lat="44.17316" lon="5.01797">
        <ele>238</ele>
        <time>2021-02-06T10:18:40Z</time>
      </trkpt>
      <trkpt lat="44.17326" lon="5.0179">
        <ele>237</ele>
        <time>2021-02-06T10:18:46Z</time>
      </trkpt>
      <trkpt lat="44.17334" lon="5.01783">
        <ele>235</ele>
        <time>2021-02-06T10:18:51Z</time>
      </trkpt>
      <trkpt lat="44.17335" lon="5.01781">
        <ele>235</ele>
        <time>2021-02-06T10:18:52Z</time>
      </trkpt>
      <trkpt lat="44.17336" lon="5.01779">
        <ele>235</ele>
        <time>2021-02-06T10:18:53Z</time>
      </trkpt>
      <trkpt lat="44.17337" lon="5.01777">
        <ele>235</ele>
        <time>2021-02-06T10:18:54Z</time>
      </trkpt>
      <trkpt lat="44.17339" lon="5.01775">
        <ele>234</ele>
        <time>2021-02-06T10:18:55Z</time>
      </trkpt>
      <trkpt lat="44.1734" lon="5.01773">
        <ele>234</ele>
        <time>2021-02-06T10:18:56Z</time>
      </trkpt>
      <trkpt lat="44.17342" lon="5.01771">
        <ele>234</ele>
        <time>2021-02-06T10:18:57Z</time>
      </trkpt>
      <trkpt lat="44.17344" lon="5.01766">
        <ele>234</ele>
        <time>2021-02-06T10:18:59Z</time>
      </trkpt>
      <trkpt lat="44.17344" lon="5.01764">
        <ele>234</ele>
        <time>2021-02-06T10:19:00Z</time>
      </trkpt>
      <trkpt lat="44.17341" lon="5.0176">
        <ele>235</ele>
        <time>2021-02-06T10:19:02Z</time>
      </trkpt>
      <trkpt lat="44.17339" lon="5.0176">
        <ele>235</ele>
        <time>2021-02-06T10:19:03Z</time>
      </trkpt>
      <trkpt lat="44.17337" lon="5.0176">
        <ele>236</ele>
        <time>2021-02-06T10:19:04Z</time>
      </trkpt>
      <trkpt lat="44.17334" lon="5.01761">
        <ele>236</ele>
        <time>2021-02-06T10:19:06Z</time>
      </trkpt>
      <trkpt lat="44.17332" lon="5.01762">
        <ele>237</ele>
        <time>2021-02-06T10:19:07Z</time>
      </trkpt>
      <trkpt lat="44.1733" lon="5.01763">
        <ele>237</ele>
        <time>2021-02-06T10:19:08Z</time>
      </trkpt>
      <trkpt lat="44.17327" lon="5.01765">
        <ele>238</ele>
        <time>2021-02-06T10:19:10Z</time>
      </trkpt>
      <trkpt lat="44.17325" lon="5.01766">
        <ele>238</ele>
        <time>2021-02-06T10:19:11Z</time>
      </trkpt>
      <trkpt lat="44.17322" lon="5.01766">
        <ele>239</ele>
        <time>2021-02-06T10:19:12Z</time>
      </trkpt>
      <trkpt lat="44.1732" lon="5.01766">
        <ele>239</ele>
        <time>2021-02-06T10:19:13Z</time>
      </trkpt>
      <trkpt lat="44.17318" lon="5.01766">
        <ele>240</ele>
        <time>2021-02-06T10:19:14Z</time>
      </trkpt>
      <trkpt lat="44.17316" lon="5.01766">
        <ele>240</ele>
        <time>2021-02-06T10:19:15Z</time>
      </trkpt>
      <trkpt lat="44.17313" lon="5.01765">
        <ele>241</ele>
        <time>2021-02-06T10:19:17Z</time>
      </trkpt>
      <trkpt lat="44.1731" lon="5.01764">
        <ele>242</ele>
        <time>2021-02-06T10:19:19Z</time>
      </trkpt>
      <trkpt lat="44.17308" lon="5.01763">
        <ele>243</ele>
        <time>2021-02-06T10:19:21Z</time>
      </trkpt>
      <trkpt lat="44.17305" lon="5.01762">
        <ele>244</ele>
        <time>2021-02-06T10:19:23Z</time>
      </trkpt>
      <trkpt lat="44.17302" lon="5.01762">
        <ele>245</ele>
        <time>2021-02-06T10:19:25Z</time>
      </trkpt>
      <trkpt lat="44.173" lon="5.01762">
        <ele>246</ele>
        <time>2021-02-06T10:19:27Z</time>
      </trkpt>
      <trkpt lat="44.17298" lon="5.01763">
        <ele>246</ele>
        <time>2021-02-06T10:19:29Z</time>
      </trkpt>
      <trkpt lat="44.17295" lon="5.01765">
        <ele>246</ele>
        <time>2021-02-06T10:19:31Z</time>
      </trkpt>
      <trkpt lat="44.17293" lon="5.01766">
        <ele>247</ele>
        <time>2021-02-06T10:19:33Z</time>
      </trkpt>
      <trkpt lat="44.17292" lon="5.01767">
        <ele>247</ele>
        <time>2021-02-06T10:19:35Z</time>
      </trkpt>
      <trkpt lat="44.17289" lon="5.01768">
        <ele>247</ele>
        <time>2021-02-06T10:19:38Z</time>
      </trkpt>
      <trkpt lat="44.17287" lon="5.01769">
        <ele>248</ele>
        <time>2021-02-06T10:19:41Z</time>
      </trkpt>
      <trkpt lat="44.17285" lon="5.0177">
        <ele>248</ele>
        <time>2021-02-06T10:19:43Z</time>
      </trkpt>
      <trkpt lat="44.17283" lon="5.0177">
        <ele>249</ele>
        <time>2021-02-06T10:19:45Z</time>
      </trkpt>
      <trkpt lat="44.17281" lon="5.0177">
        <ele>250</ele>
        <time>2021-02-06T10:19:47Z</time>
      </trkpt>
      <trkpt lat="44.17278" lon="5.01771">
        <ele>250</ele>
        <time>2021-02-06T10:19:49Z</time>
      </trkpt>
      <trkpt lat="44.17276" lon="5.01773">
        <ele>250</ele>
        <time>2021-02-06T10:19:51Z</time>
      </trkpt>
      <trkpt lat="44.17274" lon="5.01774">
        <ele>251</ele>
        <time>2021-02-06T10:19:53Z</time>
      </trkpt>
      <trkpt lat="44.17266" lon="5.01778">
        <ele>252</ele>
        <time>2021-02-06T10:20:00Z</time>
      </trkpt>
      <trkpt lat="44.17256" lon="5.01782">
        <ele>253</ele>
        <time>2021-02-06T10:20:09Z</time>
      </trkpt>
      <trkpt lat="44.17247" lon="5.01779">
        <ele>257</ele>
        <time>2021-02-06T10:20:19Z</time>
      </trkpt>
      <trkpt lat="44.17247" lon="5.01775">
        <ele>258</ele>
        <time>2021-02-06T10:20:22Z</time>
      </trkpt>
      <trkpt lat="44.17244" lon="5.01762">
        <ele>262</ele>
        <time>2021-02-06T10:20:31Z</time>
      </trkpt>
      <trkpt lat="44.17245" lon="5.01756">
        <ele>262</ele>
        <time>2021-02-06T10:20:35Z</time>
      </trkpt>
      <trkpt lat="44.17245" lon="5.01752">
        <ele>263</ele>
        <time>2021-02-06T10:20:37Z</time>
      </trkpt>
      <trkpt lat="44.17245" lon="5.01749">
        <ele>263</ele>
        <time>2021-02-06T10:20:39Z</time>
      </trkpt>
      <trkpt lat="44.17245" lon="5.01747">
        <ele>264</ele>
        <time>2021-02-06T10:20:41Z</time>
      </trkpt>
      <trkpt lat="44.17246" lon="5.01743">
        <ele>264</ele>
        <time>2021-02-06T10:20:43Z</time>
      </trkpt>
      <trkpt lat="44.17246" lon="5.0174">
        <ele>265</ele>
        <time>2021-02-06T10:20:45Z</time>
      </trkpt>
      <trkpt lat="44.17246" lon="5.01737">
        <ele>265</ele>
        <time>2021-02-06T10:20:47Z</time>
      </trkpt>
      <trkpt lat="44.17246" lon="5.01734">
        <ele>266</ele>
        <time>2021-02-06T10:20:52Z</time>
      </trkpt>
      <trkpt lat="44.17245" lon="5.01731">
        <ele>267</ele>
        <time>2021-02-06T10:20:54Z</time>
      </trkpt>
      <trkpt lat="44.17245" lon="5.01728">
        <ele>267</ele>
        <time>2021-02-06T10:20:56Z</time>
      </trkpt>
      <trkpt lat="44.17244" lon="5.01725">
        <ele>268</ele>
        <time>2021-02-06T10:20:58Z</time>
      </trkpt>
      <trkpt lat="44.17244" lon="5.01722">
        <ele>269</ele>
        <time>2021-02-06T10:21:02Z</time>
      </trkpt>
      <trkpt lat="44.17244" lon="5.01718">
        <ele>269</ele>
        <time>2021-02-06T10:21:04Z</time>
      </trkpt>
      <trkpt lat="44.17243" lon="5.01714">
        <ele>270</ele>
        <time>2021-02-06T10:21:06Z</time>
      </trkpt>
      <trkpt lat="44.17243" lon="5.01711">
        <ele>271</ele>
        <time>2021-02-06T10:21:08Z</time>
      </trkpt>
      <trkpt lat="44.17243" lon="5.01708">
        <ele>271</ele>
        <time>2021-02-06T10:21:10Z</time>
      </trkpt>
      <trkpt lat="44.17242" lon="5.01704">
        <ele>272</ele>
        <time>2021-02-06T10:21:12Z</time>
      </trkpt>
      <trkpt lat="44.17242" lon="5.01701">
        <ele>273</ele>
        <time>2021-02-06T10:21:14Z</time>
      </trkpt>
      <trkpt lat="44.17241" lon="5.01697">
        <ele>274</ele>
        <time>2021-02-06T10:21:16Z</time>
      </trkpt>
      <trkpt lat="44.17241" lon="5.01694">
        <ele>274</ele>
        <time>2021-02-06T10:21:18Z</time>
      </trkpt>
      <trkpt lat="44.1724" lon="5.01691">
        <ele>275</ele>
        <time>2021-02-06T10:21:20Z</time>
      </trkpt>
      <trkpt lat="44.1724" lon="5.01688">
        <ele>276</ele>
        <time>2021-02-06T10:21:22Z</time>
      </trkpt>
      <trkpt lat="44.17239" lon="5.01685">
        <ele>277</ele>
        <time>2021-02-06T10:21:24Z</time>
      </trkpt>
      <trkpt lat="44.17239" lon="5.01682">
        <ele>277</ele>
        <time>2021-02-06T10:21:26Z</time>
      </trkpt>
      <trkpt lat="44.17239" lon="5.01679">
        <ele>278</ele>
        <time>2021-02-06T10:21:28Z</time>
      </trkpt>
      <trkpt lat="44.17239" lon="5.01676">
        <ele>279</ele>
        <time>2021-02-06T10:21:30Z</time>
      </trkpt>
      <trkpt lat="44.17239" lon="5.01673">
        <ele>279</ele>
        <time>2021-02-06T10:21:32Z</time>
      </trkpt>
      <trkpt lat="44.17239" lon="5.0167">
        <ele>279</ele>
        <time>2021-02-06T10:21:34Z</time>
      </trkpt>
      <trkpt lat="44.1724" lon="5.01667">
        <ele>280</ele>
        <time>2021-02-06T10:21:38Z</time>
      </trkpt>
      <trkpt lat="44.17241" lon="5.01664">
        <ele>280</ele>
        <time>2021-02-06T10:21:40Z</time>
      </trkpt>
      <trkpt lat="44.17242" lon="5.01662">
        <ele>280</ele>
        <time>2021-02-06T10:21:42Z</time>
      </trkpt>
      <trkpt lat="44.17242" lon="5.01659">
        <ele>280</ele>
        <time>2021-02-06T10:21:44Z</time>
      </trkpt>
      <trkpt lat="44.17242" lon="5.01656">
        <ele>281</ele>
        <time>2021-02-06T10:21:46Z</time>
      </trkpt>
      <trkpt lat="44.17242" lon="5.01653">
        <ele>282</ele>
        <time>2021-02-06T10:21:48Z</time>
      </trkpt>
      <trkpt lat="44.1724" lon="5.01652">
        <ele>283</ele>
        <time>2021-02-06T10:21:51Z</time>
      </trkpt>
      <trkpt lat="44.17238" lon="5.01654">
        <ele>283</ele>
        <time>2021-02-06T10:21:58Z</time>
      </trkpt>
      <trkpt lat="44.17236" lon="5.01654">
        <ele>284</ele>
        <time>2021-02-06T10:22:02Z</time>
      </trkpt>
      <trkpt lat="44.17233" lon="5.01654">
        <ele>285</ele>
        <time>2021-02-06T10:22:07Z</time>
      </trkpt>
      <trkpt lat="44.17233" lon="5.0165">
        <ele>286</ele>
        <time>2021-02-06T10:22:11Z</time>
      </trkpt>
      <trkpt lat="44.17232" lon="5.01648">
        <ele>287</ele>
        <time>2021-02-06T10:22:14Z</time>
      </trkpt>
      <trkpt lat="44.1723" lon="5.01646">
        <ele>289</ele>
        <time>2021-02-06T10:22:16Z</time>
      </trkpt>
      <trkpt lat="44.1723" lon="5.01643">
        <ele>289</ele>
        <time>2021-02-06T10:22:18Z</time>
      </trkpt>
      <trkpt lat="44.17231" lon="5.0164">
        <ele>289</ele>
        <time>2021-02-06T10:22:20Z</time>
      </trkpt>
      <trkpt lat="44.17231" lon="5.01637">
        <ele>290</ele>
        <time>2021-02-06T10:22:22Z</time>
      </trkpt>
      <trkpt lat="44.1723" lon="5.01634">
        <ele>291</ele>
        <time>2021-02-06T10:22:25Z</time>
      </trkpt>
      <trkpt lat="44.17225" lon="5.01623">
        <ele>296</ele>
        <time>2021-02-06T10:22:37Z</time>
      </trkpt>
      <trkpt lat="44.17221" lon="5.01612">
        <ele>301</ele>
        <time>2021-02-06T10:22:49Z</time>
      </trkpt>
      <trkpt lat="44.17222" lon="5.01599">
        <ele>303</ele>
        <time>2021-02-06T10:23:02Z</time>
      </trkpt>
      <trkpt lat="44.17222" lon="5.01586">
        <ele>307</ele>
        <time>2021-02-06T10:23:14Z</time>
      </trkpt>
      <trkpt lat="44.17223" lon="5.0158">
        <ele>307</ele>
        <time>2021-02-06T10:23:24Z</time>
      </trkpt>
      <trkpt lat="44.17222" lon="5.01577">
        <ele>308</ele>
        <time>2021-02-06T10:23:27Z</time>
      </trkpt>
      <trkpt lat="44.17223" lon="5.01574">
        <ele>309</ele>
        <time>2021-02-06T10:23:30Z</time>
      </trkpt>
      <trkpt lat="44.17223" lon="5.01572">
        <ele>309</ele>
        <time>2021-02-06T10:23:34Z</time>
      </trkpt>
      <trkpt lat="44.17221" lon="5.01571">
        <ele>310</ele>
        <time>2021-02-06T10:23:42Z</time>
      </trkpt>
      <trkpt lat="44.17219" lon="5.0157">
        <ele>311</ele>
        <time>2021-02-06T10:23:46Z</time>
      </trkpt>
      <trkpt lat="44.17217" lon="5.01572">
        <ele>312</ele>
        <time>2021-02-06T10:23:50Z</time>
      </trkpt>
      <trkpt lat="44.17214" lon="5.01573">
        <ele>313</ele>
        <time>2021-02-06T10:23:52Z</time>
      </trkpt>
      <trkpt lat="44.17212" lon="5.01576">
        <ele>314</ele>
        <time>2021-02-06T10:23:54Z</time>
      </trkpt>
      <trkpt lat="44.1721" lon="5.01578">
        <ele>314</ele>
        <time>2021-02-06T10:23:56Z</time>
      </trkpt>
      <trkpt lat="44.17204" lon="5.01588">
        <ele>315</ele>
        <time>2021-02-06T10:24:07Z</time>
      </trkpt>
      <trkpt lat="44.17198" lon="5.01597">
        <ele>317</ele>
        <time>2021-02-06T10:24:20Z</time>
      </trkpt>
      <trkpt lat="44.17188" lon="5.016">
        <ele>322</ele>
        <time>2021-02-06T10:24:25Z</time>
      </trkpt>
      <trkpt lat="44.17179" lon="5.01605">
        <ele>328</ele>
        <time>2021-02-06T10:24:36Z</time>
      </trkpt>
      <trkpt lat="44.17178" lon="5.01601">
        <ele>329</ele>
        <time>2021-02-06T10:24:45Z</time>
      </trkpt>
      <trkpt lat="44.17177" lon="5.01598">
        <ele>330</ele>
        <time>2021-02-06T10:24:48Z</time>
      </trkpt>
      <trkpt lat="44.17176" lon="5.01596">
        <ele>330</ele>
        <time>2021-02-06T10:24:51Z</time>
      </trkpt>
      <trkpt lat="44.17176" lon="5.01593">
        <ele>331</ele>
        <time>2021-02-06T10:24:55Z</time>
      </trkpt>
      <trkpt lat="44.17175" lon="5.0159">
        <ele>332</ele>
        <time>2021-02-06T10:24:58Z</time>
      </trkpt>
      <trkpt lat="44.17174" lon="5.01587">
        <ele>333</ele>
        <time>2021-02-06T10:25:02Z</time>
      </trkpt>
      <trkpt lat="44.17173" lon="5.01585">
        <ele>334</ele>
        <time>2021-02-06T10:25:05Z</time>
      </trkpt>
      <trkpt lat="44.17173" lon="5.01582">
        <ele>334</ele>
        <time>2021-02-06T10:25:07Z</time>
      </trkpt>
      <trkpt lat="44.17174" lon="5.01579">
        <ele>334</ele>
        <time>2021-02-06T10:25:09Z</time>
      </trkpt>
      <trkpt lat="44.17174" lon="5.01576">
        <ele>334</ele>
        <time>2021-02-06T10:25:12Z</time>
      </trkpt>
      <trkpt lat="44.17174" lon="5.01573">
        <ele>335</ele>
        <time>2021-02-06T10:25:16Z</time>
      </trkpt>
      <trkpt lat="44.17175" lon="5.01569">
        <ele>334</ele>
        <time>2021-02-06T10:25:19Z</time>
      </trkpt>
      <trkpt lat="44.17175" lon="5.01566">
        <ele>334</ele>
        <time>2021-02-06T10:25:21Z</time>
      </trkpt>
      <trkpt lat="44.17175" lon="5.01563">
        <ele>335</ele>
        <time>2021-02-06T10:25:24Z</time>
      </trkpt>
      <trkpt lat="44.17174" lon="5.0156">
        <ele>336</ele>
        <time>2021-02-06T10:25:29Z</time>
      </trkpt>
      <trkpt lat="44.17173" lon="5.01557">
        <ele>336</ele>
        <time>2021-02-06T10:25:33Z</time>
      </trkpt>
      <trkpt lat="44.17171" lon="5.01555">
        <ele>338</ele>
        <time>2021-02-06T10:25:42Z</time>
      </trkpt>
      <trkpt lat="44.17171" lon="5.01552">
        <ele>338</ele>
        <time>2021-02-06T10:25:46Z</time>
      </trkpt>
      <trkpt lat="44.1717" lon="5.01549">
        <ele>339</ele>
        <time>2021-02-06T10:25:49Z</time>
      </trkpt>
      <trkpt lat="44.1717" lon="5.01546">
        <ele>339</ele>
        <time>2021-02-06T10:25:51Z</time>
      </trkpt>
      <trkpt lat="44.1717" lon="5.01544">
        <ele>339</ele>
        <time>2021-02-06T10:25:53Z</time>
      </trkpt>
      <trkpt lat="44.17171" lon="5.0154">
        <ele>339</ele>
        <time>2021-02-06T10:25:55Z</time>
      </trkpt>
      <trkpt lat="44.17171" lon="5.01537">
        <ele>340</ele>
        <time>2021-02-06T10:25:57Z</time>
      </trkpt>
      <trkpt lat="44.17169" lon="5.01535">
        <ele>341</ele>
        <time>2021-02-06T10:26:01Z</time>
      </trkpt>
      <trkpt lat="44.17167" lon="5.01536">
        <ele>342</ele>
        <time>2021-02-06T10:26:05Z</time>
      </trkpt>
      <trkpt lat="44.17165" lon="5.01537">
        <ele>343</ele>
        <time>2021-02-06T10:26:09Z</time>
      </trkpt>
      <trkpt lat="44.17159" lon="5.0154">
        <ele>346</ele>
        <time>2021-02-06T10:26:17Z</time>
      </trkpt>
      <trkpt lat="44.17158" lon="5.01538">
        <ele>348</ele>
        <time>2021-02-06T10:26:26Z</time>
      </trkpt>
      <trkpt lat="44.17156" lon="5.01538">
        <ele>349</ele>
        <time>2021-02-06T10:26:29Z</time>
      </trkpt>
      <trkpt lat="44.17153" lon="5.01538">
        <ele>350</ele>
        <time>2021-02-06T10:26:34Z</time>
      </trkpt>
      <trkpt lat="44.17152" lon="5.01536">
        <ele>351</ele>
        <time>2021-02-06T10:26:38Z</time>
      </trkpt>
      <trkpt lat="44.17151" lon="5.01533">
        <ele>352</ele>
        <time>2021-02-06T10:26:42Z</time>
      </trkpt>
      <trkpt lat="44.17149" lon="5.01533">
        <ele>353</ele>
        <time>2021-02-06T10:26:46Z</time>
      </trkpt>
      <trkpt lat="44.17149" lon="5.01535">
        <ele>353</ele>
        <time>2021-02-06T10:27:09Z</time>
      </trkpt>
      <trkpt lat="44.17149" lon="5.01538">
        <ele>353</ele>
        <time>2021-02-06T10:28:45Z</time>
      </trkpt>
      <trkpt lat="44.17148" lon="5.01541">
        <ele>353</ele>
        <time>2021-02-06T10:28:48Z</time>
      </trkpt>
      <trkpt lat="44.17147" lon="5.01543">
        <ele>354</ele>
        <time>2021-02-06T10:28:50Z</time>
      </trkpt>
      <trkpt lat="44.17146" lon="5.01547">
        <ele>354</ele>
        <time>2021-02-06T10:28:53Z</time>
      </trkpt>
      <trkpt lat="44.17145" lon="5.01549">
        <ele>355</ele>
        <time>2021-02-06T10:28:55Z</time>
      </trkpt>
      <trkpt lat="44.17144" lon="5.01552">
        <ele>355</ele>
        <time>2021-02-06T10:28:57Z</time>
      </trkpt>
      <trkpt lat="44.17143" lon="5.01554">
        <ele>355</ele>
        <time>2021-02-06T10:28:59Z</time>
      </trkpt>
      <trkpt lat="44.17142" lon="5.01556">
        <ele>356</ele>
        <time>2021-02-06T10:29:04Z</time>
      </trkpt>
      <trkpt lat="44.1714" lon="5.01559">
        <ele>357</ele>
        <time>2021-02-06T10:29:07Z</time>
      </trkpt>
      <trkpt lat="44.17138" lon="5.01562">
        <ele>358</ele>
        <time>2021-02-06T10:29:09Z</time>
      </trkpt>
      <trkpt lat="44.17136" lon="5.01565">
        <ele>359</ele>
        <time>2021-02-06T10:29:11Z</time>
      </trkpt>
      <trkpt lat="44.17134" lon="5.01577">
        <ele>360</ele>
        <time>2021-02-06T10:29:22Z</time>
      </trkpt>
      <trkpt lat="44.17134" lon="5.01581">
        <ele>359</ele>
        <time>2021-02-06T10:29:24Z</time>
      </trkpt>
      <trkpt lat="44.17132" lon="5.01584">
        <ele>361</ele>
        <time>2021-02-06T10:29:26Z</time>
      </trkpt>
      <trkpt lat="44.17127" lon="5.01595">
        <ele>363</ele>
        <time>2021-02-06T10:29:34Z</time>
      </trkpt>
      <trkpt lat="44.17121" lon="5.01606">
        <ele>365</ele>
        <time>2021-02-06T10:29:42Z</time>
      </trkpt>
      <trkpt lat="44.17121" lon="5.01619">
        <ele>365</ele>
        <time>2021-02-06T10:29:49Z</time>
      </trkpt>
      <trkpt lat="44.17122" lon="5.01622">
        <ele>364</ele>
        <time>2021-02-06T10:29:51Z</time>
      </trkpt>
      <trkpt lat="44.17119" lon="5.01627">
        <ele>365</ele>
        <time>2021-02-06T10:29:54Z</time>
      </trkpt>
      <trkpt lat="44.17118" lon="5.0163">
        <ele>366</ele>
        <time>2021-02-06T10:29:56Z</time>
      </trkpt>
      <trkpt lat="44.17118" lon="5.01633">
        <ele>366</ele>
        <time>2021-02-06T10:29:58Z</time>
      </trkpt>
      <trkpt lat="44.17117" lon="5.01635">
        <ele>366</ele>
        <time>2021-02-06T10:30:00Z</time>
      </trkpt>
      <trkpt lat="44.17115" lon="5.01639">
        <ele>367</ele>
        <time>2021-02-06T10:30:02Z</time>
      </trkpt>
      <trkpt lat="44.17114" lon="5.01641">
        <ele>368</ele>
        <time>2021-02-06T10:30:04Z</time>
      </trkpt>
      <trkpt lat="44.17114" lon="5.01644">
        <ele>368</ele>
        <time>2021-02-06T10:30:08Z</time>
      </trkpt>
      <trkpt lat="44.17112" lon="5.01645">
        <ele>369</ele>
        <time>2021-02-06T10:30:11Z</time>
      </trkpt>
      <trkpt lat="44.1711" lon="5.01646">
        <ele>370</ele>
        <time>2021-02-06T10:30:16Z</time>
      </trkpt>
      <trkpt lat="44.17109" lon="5.01643">
        <ele>371</ele>
        <time>2021-02-06T10:30:27Z</time>
      </trkpt>
      <trkpt lat="44.17107" lon="5.01642">
        <ele>372</ele>
        <time>2021-02-06T10:30:30Z</time>
      </trkpt>
      <trkpt lat="44.17106" lon="5.01639">
        <ele>373</ele>
        <time>2021-02-06T10:30:33Z</time>
      </trkpt>
      <trkpt lat="44.17105" lon="5.01637">
        <ele>373</ele>
        <time>2021-02-06T10:30:36Z</time>
      </trkpt>
      <trkpt lat="44.17105" lon="5.01634">
        <ele>374</ele>
        <time>2021-02-06T10:30:39Z</time>
      </trkpt>
      <trkpt lat="44.17103" lon="5.01631">
        <ele>375</ele>
        <time>2021-02-06T10:30:43Z</time>
      </trkpt>
      <trkpt lat="44.17101" lon="5.0163">
        <ele>377</ele>
        <time>2021-02-06T10:30:46Z</time>
      </trkpt>
      <trkpt lat="44.17101" lon="5.01628">
        <ele>377</ele>
        <time>2021-02-06T10:30:52Z</time>
      </trkpt>
      <trkpt lat="44.171" lon="5.01626">
        <ele>378</ele>
        <time>2021-02-06T10:30:55Z</time>
      </trkpt>
      <trkpt lat="44.17098" lon="5.01624">
        <ele>379</ele>
        <time>2021-02-06T10:30:58Z</time>
      </trkpt>
      <trkpt lat="44.17096" lon="5.01624">
        <ele>380</ele>
        <time>2021-02-06T10:31:04Z</time>
      </trkpt>
      <trkpt lat="44.17096" lon="5.01621">
        <ele>381</ele>
        <time>2021-02-06T10:31:17Z</time>
      </trkpt>
      <trkpt lat="44.17094" lon="5.0162">
        <ele>382</ele>
        <time>2021-02-06T10:31:22Z</time>
      </trkpt>
      <trkpt lat="44.17092" lon="5.01619">
        <ele>383</ele>
        <time>2021-02-06T10:31:25Z</time>
      </trkpt>
      <trkpt lat="44.17091" lon="5.01617">
        <ele>384</ele>
        <time>2021-02-06T10:31:33Z</time>
      </trkpt>
      <trkpt lat="44.1709" lon="5.01614">
        <ele>385</ele>
        <time>2021-02-06T10:31:36Z</time>
      </trkpt>
      <trkpt lat="44.1709" lon="5.01611">
        <ele>386</ele>
        <time>2021-02-06T10:31:39Z</time>
      </trkpt>
      <trkpt lat="44.17089" lon="5.01609">
        <ele>387</ele>
        <time>2021-02-06T10:31:43Z</time>
      </trkpt>
      <trkpt lat="44.17088" lon="5.01612">
        <ele>387</ele>
        <time>2021-02-06T10:31:59Z</time>
      </trkpt>
      <trkpt lat="44.17087" lon="5.01613">
        <ele>388</ele>
        <time>2021-02-06T10:32:04Z</time>
      </trkpt>
      <trkpt lat="44.17085" lon="5.01616">
        <ele>388</ele>
        <time>2021-02-06T10:32:07Z</time>
      </trkpt>
      <trkpt lat="44.17086" lon="5.0162">
        <ele>387</ele>
        <time>2021-02-06T10:32:10Z</time>
      </trkpt>
      <trkpt lat="44.17086" lon="5.01622">
        <ele>387</ele>
        <time>2021-02-06T10:32:12Z</time>
      </trkpt>
      <trkpt lat="44.17085" lon="5.01625">
        <ele>387</ele>
        <time>2021-02-06T10:32:15Z</time>
      </trkpt>
      <trkpt lat="44.17083" lon="5.01625">
        <ele>388</ele>
        <time>2021-02-06T10:32:21Z</time>
      </trkpt>
      <trkpt lat="44.17081" lon="5.01627">
        <ele>389</ele>
        <time>2021-02-06T10:32:25Z</time>
      </trkpt>
      <trkpt lat="44.17079" lon="5.01628">
        <ele>389</ele>
        <time>2021-02-06T10:32:30Z</time>
      </trkpt>
      <trkpt lat="44.17077" lon="5.01628">
        <ele>390</ele>
        <time>2021-02-06T10:32:34Z</time>
      </trkpt>
      <trkpt lat="44.17075" lon="5.0163">
        <ele>391</ele>
        <time>2021-02-06T10:32:40Z</time>
      </trkpt>
      <trkpt lat="44.17074" lon="5.01631">
        <ele>391</ele>
        <time>2021-02-06T10:32:43Z</time>
      </trkpt>
      <trkpt lat="44.17072" lon="5.01632">
        <ele>392</ele>
        <time>2021-02-06T10:32:46Z</time>
      </trkpt>
      <trkpt lat="44.1707" lon="5.01634">
        <ele>392</ele>
        <time>2021-02-06T10:32:49Z</time>
      </trkpt>
      <trkpt lat="44.17068" lon="5.01634">
        <ele>393</ele>
        <time>2021-02-06T10:32:54Z</time>
      </trkpt>
      <trkpt lat="44.17066" lon="5.01633">
        <ele>394</ele>
        <time>2021-02-06T10:32:57Z</time>
      </trkpt>
      <trkpt lat="44.17064" lon="5.01632">
        <ele>395</ele>
        <time>2021-02-06T10:33:00Z</time>
      </trkpt>
      <trkpt lat="44.17063" lon="5.01631">
        <ele>396</ele>
        <time>2021-02-06T10:33:04Z</time>
      </trkpt>
      <trkpt lat="44.17061" lon="5.01631">
        <ele>397</ele>
        <time>2021-02-06T10:33:08Z</time>
      </trkpt>
      <trkpt lat="44.17059" lon="5.01629">
        <ele>398</ele>
        <time>2021-02-06T10:33:28Z</time>
      </trkpt>
      <trkpt lat="44.17057" lon="5.01627">
        <ele>399</ele>
        <time>2021-02-06T10:33:31Z</time>
      </trkpt>
      <trkpt lat="44.17056" lon="5.01625">
        <ele>400</ele>
        <time>2021-02-06T10:33:36Z</time>
      </trkpt>
      <trkpt lat="44.17054" lon="5.01623">
        <ele>400</ele>
        <time>2021-02-06T10:33:39Z</time>
      </trkpt>
      <trkpt lat="44.17054" lon="5.0162">
        <ele>401</ele>
        <time>2021-02-06T10:33:41Z</time>
      </trkpt>
      <trkpt lat="44.17055" lon="5.01617">
        <ele>401</ele>
        <time>2021-02-06T10:33:43Z</time>
      </trkpt>
      <trkpt lat="44.17054" lon="5.01614">
        <ele>401</ele>
        <time>2021-02-06T10:33:45Z</time>
      </trkpt>
      <trkpt lat="44.17053" lon="5.01612">
        <ele>401</ele>
        <time>2021-02-06T10:33:48Z</time>
      </trkpt>
      <trkpt lat="44.17052" lon="5.01609">
        <ele>402</ele>
        <time>2021-02-06T10:33:51Z</time>
      </trkpt>
      <trkpt lat="44.17052" lon="5.01607">
        <ele>402</ele>
        <time>2021-02-06T10:33:53Z</time>
      </trkpt>
      <trkpt lat="44.17051" lon="5.01604">
        <ele>402</ele>
        <time>2021-02-06T10:33:55Z</time>
      </trkpt>
      <trkpt lat="44.1705" lon="5.01602">
        <ele>403</ele>
        <time>2021-02-06T10:33:57Z</time>
      </trkpt>
      <trkpt lat="44.17049" lon="5.01599">
        <ele>403</ele>
        <time>2021-02-06T10:34:00Z</time>
      </trkpt>
      <trkpt lat="44.17048" lon="5.01596">
        <ele>403</ele>
        <time>2021-02-06T10:34:08Z</time>
      </trkpt>
      <trkpt lat="44.17047" lon="5.01593">
        <ele>404</ele>
        <time>2021-02-06T10:34:10Z</time>
      </trkpt>
      <trkpt lat="44.17045" lon="5.01591">
        <ele>404</ele>
        <time>2021-02-06T10:34:12Z</time>
      </trkpt>
      <trkpt lat="44.17044" lon="5.01589">
        <ele>404</ele>
        <time>2021-02-06T10:34:14Z</time>
      </trkpt>
      <trkpt lat="44.17043" lon="5.01586">
        <ele>405</ele>
        <time>2021-02-06T10:34:17Z</time>
      </trkpt>
      <trkpt lat="44.17042" lon="5.01583">
        <ele>405</ele>
        <time>2021-02-06T10:34:19Z</time>
      </trkpt>
      <trkpt lat="44.17042" lon="5.0158">
        <ele>405</ele>
        <time>2021-02-06T10:34:21Z</time>
      </trkpt>
      <trkpt lat="44.17042" lon="5.01577">
        <ele>406</ele>
        <time>2021-02-06T10:34:25Z</time>
      </trkpt>
      <trkpt lat="44.17043" lon="5.01575">
        <ele>406</ele>
        <time>2021-02-06T10:34:28Z</time>
      </trkpt>
      <trkpt lat="44.17045" lon="5.01572">
        <ele>406</ele>
        <time>2021-02-06T10:34:30Z</time>
      </trkpt>
      <trkpt lat="44.17046" lon="5.01569">
        <ele>407</ele>
        <time>2021-02-06T10:34:32Z</time>
      </trkpt>
      <trkpt lat="44.17047" lon="5.01567">
        <ele>407</ele>
        <time>2021-02-06T10:34:34Z</time>
      </trkpt>
      <trkpt lat="44.17048" lon="5.01564">
        <ele>407</ele>
        <time>2021-02-06T10:34:36Z</time>
      </trkpt>
      <trkpt lat="44.17048" lon="5.01561">
        <ele>408</ele>
        <time>2021-02-06T10:34:39Z</time>
      </trkpt>
      <trkpt lat="44.17047" lon="5.01559">
        <ele>408</ele>
        <time>2021-02-06T10:34:42Z</time>
      </trkpt>
      <trkpt lat="44.17045" lon="5.01558">
        <ele>408</ele>
        <time>2021-02-06T10:34:45Z</time>
      </trkpt>
      <trkpt lat="44.17044" lon="5.01555">
        <ele>408</ele>
        <time>2021-02-06T10:34:59Z</time>
      </trkpt>
      <trkpt lat="44.17042" lon="5.01555">
        <ele>408</ele>
        <time>2021-02-06T10:35:02Z</time>
      </trkpt>
      <trkpt lat="44.1704" lon="5.01555">
        <ele>408</ele>
        <time>2021-02-06T10:35:05Z</time>
      </trkpt>
      <trkpt lat="44.17038" lon="5.01553">
        <ele>408</ele>
        <time>2021-02-06T10:35:15Z</time>
      </trkpt>
      <trkpt lat="44.17036" lon="5.01552">
        <ele>408</ele>
        <time>2021-02-06T10:35:18Z</time>
      </trkpt>
      <trkpt lat="44.17034" lon="5.01554">
        <ele>408</ele>
        <time>2021-02-06T10:35:21Z</time>
      </trkpt>
      <trkpt lat="44.17033" lon="5.01556">
        <ele>408</ele>
        <time>2021-02-06T10:35:24Z</time>
      </trkpt>
      <trkpt lat="44.17031" lon="5.01558">
        <ele>408</ele>
        <time>2021-02-06T10:35:47Z</time>
      </trkpt>
      <trkpt lat="44.1703" lon="5.0156">
        <ele>407</ele>
        <time>2021-02-06T10:35:50Z</time>
      </trkpt>
      <trkpt lat="44.17028" lon="5.01561">
        <ele>407</ele>
        <time>2021-02-06T10:35:53Z</time>
      </trkpt>
      <trkpt lat="44.17026" lon="5.01562">
        <ele>406</ele>
        <time>2021-02-06T10:35:56Z</time>
      </trkpt>
      <trkpt lat="44.17023" lon="5.01563">
        <ele>405</ele>
        <time>2021-02-06T10:35:59Z</time>
      </trkpt>
      <trkpt lat="44.17021" lon="5.01563">
        <ele>404</ele>
        <time>2021-02-06T10:36:01Z</time>
      </trkpt>
      <trkpt lat="44.17018" lon="5.0156">
        <ele>403</ele>
        <time>2021-02-06T10:36:03Z</time>
      </trkpt>
      <trkpt lat="44.17016" lon="5.01559">
        <ele>403</ele>
        <time>2021-02-06T10:36:05Z</time>
      </trkpt>
      <trkpt lat="44.17014" lon="5.0156">
        <ele>401</ele>
        <time>2021-02-06T10:36:07Z</time>
      </trkpt>
      <trkpt lat="44.17012" lon="5.01562">
        <ele>400</ele>
        <time>2021-02-06T10:36:09Z</time>
      </trkpt>
      <trkpt lat="44.1701" lon="5.01564">
        <ele>399</ele>
        <time>2021-02-06T10:36:11Z</time>
      </trkpt>
      <trkpt lat="44.17009" lon="5.01567">
        <ele>398</ele>
        <time>2021-02-06T10:36:13Z</time>
      </trkpt>
      <trkpt lat="44.17007" lon="5.0157">
        <ele>397</ele>
        <time>2021-02-06T10:36:15Z</time>
      </trkpt>
      <trkpt lat="44.17004" lon="5.01569">
        <ele>396</ele>
        <time>2021-02-06T10:36:17Z</time>
      </trkpt>
      <trkpt lat="44.17003" lon="5.01567">
        <ele>396</ele>
        <time>2021-02-06T10:36:18Z</time>
      </trkpt>
      <trkpt lat="44.17001" lon="5.01565">
        <ele>396</ele>
        <time>2021-02-06T10:36:19Z</time>
      </trkpt>
      <trkpt lat="44.17" lon="5.01563">
        <ele>395</ele>
        <time>2021-02-06T10:36:20Z</time>
      </trkpt>
      <trkpt lat="44.16998" lon="5.01562">
        <ele>394</ele>
        <time>2021-02-06T10:36:21Z</time>
      </trkpt>
      <trkpt lat="44.16997" lon="5.0156">
        <ele>394</ele>
        <time>2021-02-06T10:36:22Z</time>
      </trkpt>
      <trkpt lat="44.16995" lon="5.01558">
        <ele>394</ele>
        <time>2021-02-06T10:36:23Z</time>
      </trkpt>
      <trkpt lat="44.16993" lon="5.01556">
        <ele>393</ele>
        <time>2021-02-06T10:36:25Z</time>
      </trkpt>
      <trkpt lat="44.16991" lon="5.01557">
        <ele>392</ele>
        <time>2021-02-06T10:36:27Z</time>
      </trkpt>
      <trkpt lat="44.16989" lon="5.01556">
        <ele>391</ele>
        <time>2021-02-06T10:36:29Z</time>
      </trkpt>
      <trkpt lat="44.16987" lon="5.01554">
        <ele>390</ele>
        <time>2021-02-06T10:36:31Z</time>
      </trkpt>
      <trkpt lat="44.16984" lon="5.01555">
        <ele>389</ele>
        <time>2021-02-06T10:36:33Z</time>
      </trkpt>
      <trkpt lat="44.16982" lon="5.01557">
        <ele>388</ele>
        <time>2021-02-06T10:36:34Z</time>
      </trkpt>
      <trkpt lat="44.1698" lon="5.01559">
        <ele>387</ele>
        <time>2021-02-06T10:36:35Z</time>
      </trkpt>
      <trkpt lat="44.16979" lon="5.01561">
        <ele>386</ele>
        <time>2021-02-06T10:36:36Z</time>
      </trkpt>
      <trkpt lat="44.16977" lon="5.01563">
        <ele>385</ele>
        <time>2021-02-06T10:36:37Z</time>
      </trkpt>
      <trkpt lat="44.16976" lon="5.01567">
        <ele>384</ele>
        <time>2021-02-06T10:36:39Z</time>
      </trkpt>
      <trkpt lat="44.16973" lon="5.01567">
        <ele>383</ele>
        <time>2021-02-06T10:36:41Z</time>
      </trkpt>
      <trkpt lat="44.16971" lon="5.01567">
        <ele>382</ele>
        <time>2021-02-06T10:36:43Z</time>
      </trkpt>
      <trkpt lat="44.16968" lon="5.01567">
        <ele>381</ele>
        <time>2021-02-06T10:36:45Z</time>
      </trkpt>
      <trkpt lat="44.16965" lon="5.01565">
        <ele>379</ele>
        <time>2021-02-06T10:36:47Z</time>
      </trkpt>
      <trkpt lat="44.16962" lon="5.01563">
        <ele>379</ele>
        <time>2021-02-06T10:36:49Z</time>
      </trkpt>
      <trkpt lat="44.1696" lon="5.01561">
        <ele>378</ele>
        <time>2021-02-06T10:36:51Z</time>
      </trkpt>
      <trkpt lat="44.16956" lon="5.01561">
        <ele>376</ele>
        <time>2021-02-06T10:36:53Z</time>
      </trkpt>
      <trkpt lat="44.16954" lon="5.01563">
        <ele>375</ele>
        <time>2021-02-06T10:36:55Z</time>
      </trkpt>
      <trkpt lat="44.16952" lon="5.01565">
        <ele>374</ele>
        <time>2021-02-06T10:36:57Z</time>
      </trkpt>
      <trkpt lat="44.16949" lon="5.01564">
        <ele>373</ele>
        <time>2021-02-06T10:36:59Z</time>
      </trkpt>
      <trkpt lat="44.16946" lon="5.01563">
        <ele>372</ele>
        <time>2021-02-06T10:37:01Z</time>
      </trkpt>
      <trkpt lat="44.16944" lon="5.01564">
        <ele>370</ele>
        <time>2021-02-06T10:37:03Z</time>
      </trkpt>
      <trkpt lat="44.16942" lon="5.01563">
        <ele>370</ele>
        <time>2021-02-06T10:37:04Z</time>
      </trkpt>
      <trkpt lat="44.16941" lon="5.01561">
        <ele>369</ele>
        <time>2021-02-06T10:37:05Z</time>
      </trkpt>
      <trkpt lat="44.16938" lon="5.01559">
        <ele>369</ele>
        <time>2021-02-06T10:37:07Z</time>
      </trkpt>
      <trkpt lat="44.16936" lon="5.01561">
        <ele>368</ele>
        <time>2021-02-06T10:37:09Z</time>
      </trkpt>
      <trkpt lat="44.16934" lon="5.01562">
        <ele>366</ele>
        <time>2021-02-06T10:37:11Z</time>
      </trkpt>
      <trkpt lat="44.16931" lon="5.01561">
        <ele>365</ele>
        <time>2021-02-06T10:37:13Z</time>
      </trkpt>
      <trkpt lat="44.16928" lon="5.01559">
        <ele>364</ele>
        <time>2021-02-06T10:37:15Z</time>
      </trkpt>
      <trkpt lat="44.16924" lon="5.01557">
        <ele>363</ele>
        <time>2021-02-06T10:37:17Z</time>
      </trkpt>
      <trkpt lat="44.16923" lon="5.01556">
        <ele>362</ele>
        <time>2021-02-06T10:37:18Z</time>
      </trkpt>
      <trkpt lat="44.16921" lon="5.01552">
        <ele>362</ele>
        <time>2021-02-06T10:37:20Z</time>
      </trkpt>
      <trkpt lat="44.16918" lon="5.01549">
        <ele>361</ele>
        <time>2021-02-06T10:37:22Z</time>
      </trkpt>
      <trkpt lat="44.16915" lon="5.01547">
        <ele>360</ele>
        <time>2021-02-06T10:37:24Z</time>
      </trkpt>
      <trkpt lat="44.16914" lon="5.01546">
        <ele>359</ele>
        <time>2021-02-06T10:37:25Z</time>
      </trkpt>
      <trkpt lat="44.16912" lon="5.01544">
        <ele>359</ele>
        <time>2021-02-06T10:37:26Z</time>
      </trkpt>
      <trkpt lat="44.16911" lon="5.01541">
        <ele>359</ele>
        <time>2021-02-06T10:37:28Z</time>
      </trkpt>
      <trkpt lat="44.16907" lon="5.0154">
        <ele>358</ele>
        <time>2021-02-06T10:37:30Z</time>
      </trkpt>
      <trkpt lat="44.16904" lon="5.01541">
        <ele>357</ele>
        <time>2021-02-06T10:37:32Z</time>
      </trkpt>
      <trkpt lat="44.16901" lon="5.01542">
        <ele>356</ele>
        <time>2021-02-06T10:37:34Z</time>
      </trkpt>
      <trkpt lat="44.16899" lon="5.01541">
        <ele>355</ele>
        <time>2021-02-06T10:37:36Z</time>
      </trkpt>
      <trkpt lat="44.16895" lon="5.0154">
        <ele>354</ele>
        <time>2021-02-06T10:37:38Z</time>
      </trkpt>
      <trkpt lat="44.16894" lon="5.01539">
        <ele>354</ele>
        <time>2021-02-06T10:37:39Z</time>
      </trkpt>
      <trkpt lat="44.16892" lon="5.01538">
        <ele>353</ele>
        <time>2021-02-06T10:37:40Z</time>
      </trkpt>
      <trkpt lat="44.1689" lon="5.01537">
        <ele>353</ele>
        <time>2021-02-06T10:37:41Z</time>
      </trkpt>
      <trkpt lat="44.16888" lon="5.01535">
        <ele>352</ele>
        <time>2021-02-06T10:37:42Z</time>
      </trkpt>
      <trkpt lat="44.16886" lon="5.01534">
        <ele>352</ele>
        <time>2021-02-06T10:37:43Z</time>
      </trkpt>
      <trkpt lat="44.16884" lon="5.01533">
        <ele>351</ele>
        <time>2021-02-06T10:37:44Z</time>
      </trkpt>
      <trkpt lat="44.16883" lon="5.01531">
        <ele>351</ele>
        <time>2021-02-06T10:37:45Z</time>
      </trkpt>
      <trkpt lat="44.16882" lon="5.01526">
        <ele>351</ele>
        <time>2021-02-06T10:37:47Z</time>
      </trkpt>
      <trkpt lat="44.16882" lon="5.01523">
        <ele>351</ele>
        <time>2021-02-06T10:37:48Z</time>
      </trkpt>
      <trkpt lat="44.16882" lon="5.0152">
        <ele>350</ele>
        <time>2021-02-06T10:37:49Z</time>
      </trkpt>
      <trkpt lat="44.16883" lon="5.01515">
        <ele>350</ele>
        <time>2021-02-06T10:37:51Z</time>
      </trkpt>
      <trkpt lat="44.16884" lon="5.01513">
        <ele>351</ele>
        <time>2021-02-06T10:37:52Z</time>
      </trkpt>
      <trkpt lat="44.16885" lon="5.0151">
        <ele>351</ele>
        <time>2021-02-06T10:37:54Z</time>
      </trkpt>
      <trkpt lat="44.16888" lon="5.01507">
        <ele>351</ele>
        <time>2021-02-06T10:37:56Z</time>
      </trkpt>
      <trkpt lat="44.16889" lon="5.01505">
        <ele>352</ele>
        <time>2021-02-06T10:37:57Z</time>
      </trkpt>
      <trkpt lat="44.16891" lon="5.01503">
        <ele>352</ele>
        <time>2021-02-06T10:37:58Z</time>
      </trkpt>
      <trkpt lat="44.16892" lon="5.01501">
        <ele>352</ele>
        <time>2021-02-06T10:37:59Z</time>
      </trkpt>
      <trkpt lat="44.16894" lon="5.015">
        <ele>352</ele>
        <time>2021-02-06T10:38:00Z</time>
      </trkpt>
      <trkpt lat="44.16896" lon="5.01498">
        <ele>352</ele>
        <time>2021-02-06T10:38:02Z</time>
      </trkpt>
      <trkpt lat="44.16897" lon="5.01494">
        <ele>351</ele>
        <time>2021-02-06T10:38:04Z</time>
      </trkpt>
      <trkpt lat="44.16899" lon="5.01489">
        <ele>350</ele>
        <time>2021-02-06T10:38:06Z</time>
      </trkpt>
      <trkpt lat="44.169" lon="5.01486">
        <ele>349</ele>
        <time>2021-02-06T10:38:07Z</time>
      </trkpt>
      <trkpt lat="44.16903" lon="5.01485">
        <ele>349</ele>
        <time>2021-02-06T10:38:09Z</time>
      </trkpt>
      <trkpt lat="44.16905" lon="5.01483">
        <ele>349</ele>
        <time>2021-02-06T10:38:10Z</time>
      </trkpt>
      <trkpt lat="44.16906" lon="5.0148">
        <ele>349</ele>
        <time>2021-02-06T10:38:11Z</time>
      </trkpt>
      <trkpt lat="44.16907" lon="5.01478">
        <ele>348</ele>
        <time>2021-02-06T10:38:12Z</time>
      </trkpt>
      <trkpt lat="44.16908" lon="5.01475">
        <ele>348</ele>
        <time>2021-02-06T10:38:13Z</time>
      </trkpt>
      <trkpt lat="44.16909" lon="5.01473">
        <ele>347</ele>
        <time>2021-02-06T10:38:14Z</time>
      </trkpt>
      <trkpt lat="44.16909" lon="5.0147">
        <ele>346</ele>
        <time>2021-02-06T10:38:15Z</time>
      </trkpt>
      <trkpt lat="44.1691" lon="5.01467">
        <ele>346</ele>
        <time>2021-02-06T10:38:16Z</time>
      </trkpt>
      <trkpt lat="44.1691" lon="5.01464">
        <ele>345</ele>
        <time>2021-02-06T10:38:17Z</time>
      </trkpt>
      <trkpt lat="44.1691" lon="5.01461">
        <ele>344</ele>
        <time>2021-02-06T10:38:18Z</time>
      </trkpt>
      <trkpt lat="44.16909" lon="5.01457">
        <ele>343</ele>
        <time>2021-02-06T10:38:19Z</time>
      </trkpt>
      <trkpt lat="44.16909" lon="5.01454">
        <ele>343</ele>
        <time>2021-02-06T10:38:20Z</time>
      </trkpt>
      <trkpt lat="44.1691" lon="5.01451">
        <ele>342</ele>
        <time>2021-02-06T10:38:21Z</time>
      </trkpt>
      <trkpt lat="44.16911" lon="5.01447">
        <ele>341</ele>
        <time>2021-02-06T10:38:22Z</time>
      </trkpt>
      <trkpt lat="44.16912" lon="5.01443">
        <ele>340</ele>
        <time>2021-02-06T10:38:23Z</time>
      </trkpt>
      <trkpt lat="44.16912" lon="5.01438">
        <ele>339</ele>
        <time>2021-02-06T10:38:24Z</time>
      </trkpt>
      <trkpt lat="44.16911" lon="5.01434">
        <ele>338</ele>
        <time>2021-02-06T10:38:25Z</time>
      </trkpt>
      <trkpt lat="44.16911" lon="5.01432">
        <ele>338</ele>
        <time>2021-02-06T10:38:26Z</time>
      </trkpt>
      <trkpt lat="44.16911" lon="5.01429">
        <ele>337</ele>
        <time>2021-02-06T10:38:27Z</time>
      </trkpt>
      <trkpt lat="44.16911" lon="5.01426">
        <ele>336</ele>
        <time>2021-02-06T10:38:28Z</time>
      </trkpt>
      <trkpt lat="44.16911" lon="5.01423">
        <ele>336</ele>
        <time>2021-02-06T10:38:29Z</time>
      </trkpt>
      <trkpt lat="44.16913" lon="5.0141">
        <ele>333</ele>
        <time>2021-02-06T10:38:32Z</time>
      </trkpt>
      <trkpt lat="44.16916" lon="5.014">
        <ele>332</ele>
        <time>2021-02-06T10:38:34Z</time>
      </trkpt>
      <trkpt lat="44.16917" lon="5.01397">
        <ele>331</ele>
        <time>2021-02-06T10:38:35Z</time>
      </trkpt>
      <trkpt lat="44.16919" lon="5.01394">
        <ele>331</ele>
        <time>2021-02-06T10:38:36Z</time>
      </trkpt>
      <trkpt lat="44.1692" lon="5.0139">
        <ele>331</ele>
        <time>2021-02-06T10:38:37Z</time>
      </trkpt>
      <trkpt lat="44.16922" lon="5.01387">
        <ele>330</ele>
        <time>2021-02-06T10:38:38Z</time>
      </trkpt>
      <trkpt lat="44.16923" lon="5.01384">
        <ele>330</ele>
        <time>2021-02-06T10:38:39Z</time>
      </trkpt>
      <trkpt lat="44.16924" lon="5.01381">
        <ele>330</ele>
        <time>2021-02-06T10:38:40Z</time>
      </trkpt>
      <trkpt lat="44.16926" lon="5.01377">
        <ele>330</ele>
        <time>2021-02-06T10:38:41Z</time>
      </trkpt>
      <trkpt lat="44.16928" lon="5.01375">
        <ele>330</ele>
        <time>2021-02-06T10:38:42Z</time>
      </trkpt>
      <trkpt lat="44.16931" lon="5.01372">
        <ele>330</ele>
        <time>2021-02-06T10:38:43Z</time>
      </trkpt>
      <trkpt lat="44.16933" lon="5.0137">
        <ele>330</ele>
        <time>2021-02-06T10:38:44Z</time>
      </trkpt>
      <trkpt lat="44.16935" lon="5.01367">
        <ele>330</ele>
        <time>2021-02-06T10:38:45Z</time>
      </trkpt>
      <trkpt lat="44.16937" lon="5.01364">
        <ele>330</ele>
        <time>2021-02-06T10:38:46Z</time>
      </trkpt>
      <trkpt lat="44.1694" lon="5.01361">
        <ele>330</ele>
        <time>2021-02-06T10:38:47Z</time>
      </trkpt>
      <trkpt lat="44.16943" lon="5.01357">
        <ele>330</ele>
        <time>2021-02-06T10:38:48Z</time>
      </trkpt>
      <trkpt lat="44.16945" lon="5.01353">
        <ele>330</ele>
        <time>2021-02-06T10:38:49Z</time>
      </trkpt>
      <trkpt lat="44.16947" lon="5.0135">
        <ele>330</ele>
        <time>2021-02-06T10:38:50Z</time>
      </trkpt>
      <trkpt lat="44.16949" lon="5.01346">
        <ele>329</ele>
        <time>2021-02-06T10:38:51Z</time>
      </trkpt>
      <trkpt lat="44.16952" lon="5.01343">
        <ele>329</ele>
        <time>2021-02-06T10:38:52Z</time>
      </trkpt>
      <trkpt lat="44.16954" lon="5.0134">
        <ele>329</ele>
        <time>2021-02-06T10:38:53Z</time>
      </trkpt>
      <trkpt lat="44.16956" lon="5.01337">
        <ele>329</ele>
        <time>2021-02-06T10:38:54Z</time>
      </trkpt>
      <trkpt lat="44.16958" lon="5.01334">
        <ele>329</ele>
        <time>2021-02-06T10:38:55Z</time>
      </trkpt>
      <trkpt lat="44.1696" lon="5.01331">
        <ele>329</ele>
        <time>2021-02-06T10:38:56Z</time>
      </trkpt>
      <trkpt lat="44.16962" lon="5.01329">
        <ele>330</ele>
        <time>2021-02-06T10:38:57Z</time>
      </trkpt>
      <trkpt lat="44.16964" lon="5.01326">
        <ele>329</ele>
        <time>2021-02-06T10:38:58Z</time>
      </trkpt>
      <trkpt lat="44.16966" lon="5.01322">
        <ele>329</ele>
        <time>2021-02-06T10:38:59Z</time>
      </trkpt>
      <trkpt lat="44.16967" lon="5.01319">
        <ele>329</ele>
        <time>2021-02-06T10:39:00Z</time>
      </trkpt>
      <trkpt lat="44.16969" lon="5.01316">
        <ele>329</ele>
        <time>2021-02-06T10:39:01Z</time>
      </trkpt>
      <trkpt lat="44.1697" lon="5.01313">
        <ele>329</ele>
        <time>2021-02-06T10:39:02Z</time>
      </trkpt>
      <trkpt lat="44.16971" lon="5.0131">
        <ele>329</ele>
        <time>2021-02-06T10:39:03Z</time>
      </trkpt>
      <trkpt lat="44.16972" lon="5.01307">
        <ele>328</ele>
        <time>2021-02-06T10:39:04Z</time>
      </trkpt>
      <trkpt lat="44.16974" lon="5.01304">
        <ele>328</ele>
        <time>2021-02-06T10:39:05Z</time>
      </trkpt>
      <trkpt lat="44.16976" lon="5.01301">
        <ele>328</ele>
        <time>2021-02-06T10:39:06Z</time>
      </trkpt>
      <trkpt lat="44.16978" lon="5.01298">
        <ele>327</ele>
        <time>2021-02-06T10:39:07Z</time>
      </trkpt>
      <trkpt lat="44.1698" lon="5.01295">
        <ele>327</ele>
        <time>2021-02-06T10:39:08Z</time>
      </trkpt>
      <trkpt lat="44.16982" lon="5.01293">
        <ele>327</ele>
        <time>2021-02-06T10:39:09Z</time>
      </trkpt>
      <trkpt lat="44.16983" lon="5.0129">
        <ele>326</ele>
        <time>2021-02-06T10:39:10Z</time>
      </trkpt>
      <trkpt lat="44.16984" lon="5.01287">
        <ele>326</ele>
        <time>2021-02-06T10:39:11Z</time>
      </trkpt>
      <trkpt lat="44.16986" lon="5.01284">
        <ele>325</ele>
        <time>2021-02-06T10:39:12Z</time>
      </trkpt>
      <trkpt lat="44.16987" lon="5.01281">
        <ele>325</ele>
        <time>2021-02-06T10:39:13Z</time>
      </trkpt>
      <trkpt lat="44.16989" lon="5.01277">
        <ele>324</ele>
        <time>2021-02-06T10:39:14Z</time>
      </trkpt>
      <trkpt lat="44.16991" lon="5.01274">
        <ele>324</ele>
        <time>2021-02-06T10:39:15Z</time>
      </trkpt>
      <trkpt lat="44.16993" lon="5.01271">
        <ele>323</ele>
        <time>2021-02-06T10:39:16Z</time>
      </trkpt>
      <trkpt lat="44.16995" lon="5.01269">
        <ele>323</ele>
        <time>2021-02-06T10:39:17Z</time>
      </trkpt>
      <trkpt lat="44.16997" lon="5.01266">
        <ele>323</ele>
        <time>2021-02-06T10:39:18Z</time>
      </trkpt>
      <trkpt lat="44.16999" lon="5.01264">
        <ele>323</ele>
        <time>2021-02-06T10:39:19Z</time>
      </trkpt>
      <trkpt lat="44.17001" lon="5.01262">
        <ele>323</ele>
        <time>2021-02-06T10:39:20Z</time>
      </trkpt>
      <trkpt lat="44.17003" lon="5.0126">
        <ele>323</ele>
        <time>2021-02-06T10:39:21Z</time>
      </trkpt>
      <trkpt lat="44.17005" lon="5.01258">
        <ele>324</ele>
        <time>2021-02-06T10:39:22Z</time>
      </trkpt>
      <trkpt lat="44.17008" lon="5.01257">
        <ele>324</ele>
        <time>2021-02-06T10:39:23Z</time>
      </trkpt>
      <trkpt lat="44.1701" lon="5.01255">
        <ele>324</ele>
        <time>2021-02-06T10:39:24Z</time>
      </trkpt>
      <trkpt lat="44.17012" lon="5.01253">
        <ele>324</ele>
        <time>2021-02-06T10:39:25Z</time>
      </trkpt>
      <trkpt lat="44.17014" lon="5.01252">
        <ele>324</ele>
        <time>2021-02-06T10:39:26Z</time>
      </trkpt>
      <trkpt lat="44.17017" lon="5.0125">
        <ele>324</ele>
        <time>2021-02-06T10:39:27Z</time>
      </trkpt>
      <trkpt lat="44.17019" lon="5.01248">
        <ele>324</ele>
        <time>2021-02-06T10:39:28Z</time>
      </trkpt>
      <trkpt lat="44.17021" lon="5.01246">
        <ele>324</ele>
        <time>2021-02-06T10:39:29Z</time>
      </trkpt>
      <trkpt lat="44.17023" lon="5.01244">
        <ele>324</ele>
        <time>2021-02-06T10:39:30Z</time>
      </trkpt>
      <trkpt lat="44.17025" lon="5.01242">
        <ele>324</ele>
        <time>2021-02-06T10:39:31Z</time>
      </trkpt>
      <trkpt lat="44.17027" lon="5.0124">
        <ele>324</ele>
        <time>2021-02-06T10:39:32Z</time>
      </trkpt>
      <trkpt lat="44.1703" lon="5.01238">
        <ele>324</ele>
        <time>2021-02-06T10:39:33Z</time>
      </trkpt>
      <trkpt lat="44.17032" lon="5.01235">
        <ele>324</ele>
        <time>2021-02-06T10:39:34Z</time>
      </trkpt>
      <trkpt lat="44.17034" lon="5.01234">
        <ele>323</ele>
        <time>2021-02-06T10:39:35Z</time>
      </trkpt>
      <trkpt lat="44.17036" lon="5.01232">
        <ele>323</ele>
        <time>2021-02-06T10:39:36Z</time>
      </trkpt>
      <trkpt lat="44.17038" lon="5.01231">
        <ele>323</ele>
        <time>2021-02-06T10:39:37Z</time>
      </trkpt>
      <trkpt lat="44.1704" lon="5.01229">
        <ele>323</ele>
        <time>2021-02-06T10:39:38Z</time>
      </trkpt>
      <trkpt lat="44.17042" lon="5.01226">
        <ele>323</ele>
        <time>2021-02-06T10:39:39Z</time>
      </trkpt>
      <trkpt lat="44.17044" lon="5.01223">
        <ele>322</ele>
        <time>2021-02-06T10:39:40Z</time>
      </trkpt>
      <trkpt lat="44.17046" lon="5.0122">
        <ele>322</ele>
        <time>2021-02-06T10:39:41Z</time>
      </trkpt>
      <trkpt lat="44.17048" lon="5.01217">
        <ele>321</ele>
        <time>2021-02-06T10:39:42Z</time>
      </trkpt>
      <trkpt lat="44.1705" lon="5.01215">
        <ele>321</ele>
        <time>2021-02-06T10:39:43Z</time>
      </trkpt>
      <trkpt lat="44.17052" lon="5.01212">
        <ele>321</ele>
        <time>2021-02-06T10:39:44Z</time>
      </trkpt>
      <trkpt lat="44.17054" lon="5.0121">
        <ele>321</ele>
        <time>2021-02-06T10:39:45Z</time>
      </trkpt>
      <trkpt lat="44.17056" lon="5.01207">
        <ele>320</ele>
        <time>2021-02-06T10:39:46Z</time>
      </trkpt>
      <trkpt lat="44.17058" lon="5.01204">
        <ele>319</ele>
        <time>2021-02-06T10:39:47Z</time>
      </trkpt>
      <trkpt lat="44.1706" lon="5.01201">
        <ele>319</ele>
        <time>2021-02-06T10:39:48Z</time>
      </trkpt>
      <trkpt lat="44.17062" lon="5.01198">
        <ele>318</ele>
        <time>2021-02-06T10:39:49Z</time>
      </trkpt>
      <trkpt lat="44.17064" lon="5.01194">
        <ele>317</ele>
        <time>2021-02-06T10:39:50Z</time>
      </trkpt>
      <trkpt lat="44.17065" lon="5.01191">
        <ele>316</ele>
        <time>2021-02-06T10:39:51Z</time>
      </trkpt>
      <trkpt lat="44.17065" lon="5.01188">
        <ele>315</ele>
        <time>2021-02-06T10:39:52Z</time>
      </trkpt>
      <trkpt lat="44.17063" lon="5.01185">
        <ele>315</ele>
        <time>2021-02-06T10:39:53Z</time>
      </trkpt>
      <trkpt lat="44.17062" lon="5.01183">
        <ele>314</ele>
        <time>2021-02-06T10:39:54Z</time>
      </trkpt>
      <trkpt lat="44.1706" lon="5.0118">
        <ele>314</ele>
        <time>2021-02-06T10:39:55Z</time>
      </trkpt>
      <trkpt lat="44.17058" lon="5.01177">
        <ele>313</ele>
        <time>2021-02-06T10:39:56Z</time>
      </trkpt>
      <trkpt lat="44.17056" lon="5.01174">
        <ele>313</ele>
        <time>2021-02-06T10:39:57Z</time>
      </trkpt>
      <trkpt lat="44.17054" lon="5.01171">
        <ele>312</ele>
        <time>2021-02-06T10:39:58Z</time>
      </trkpt>
      <trkpt lat="44.17052" lon="5.01166">
        <ele>311</ele>
        <time>2021-02-06T10:39:59Z</time>
      </trkpt>
      <trkpt lat="44.17051" lon="5.01162">
        <ele>311</ele>
        <time>2021-02-06T10:40:00Z</time>
      </trkpt>
      <trkpt lat="44.1705" lon="5.01158">
        <ele>310</ele>
        <time>2021-02-06T10:40:01Z</time>
      </trkpt>
      <trkpt lat="44.17048" lon="5.01155">
        <ele>310</ele>
        <time>2021-02-06T10:40:02Z</time>
      </trkpt>
      <trkpt lat="44.17046" lon="5.01153">
        <ele>310</ele>
        <time>2021-02-06T10:40:03Z</time>
      </trkpt>
      <trkpt lat="44.17045" lon="5.01152">
        <ele>310</ele>
        <time>2021-02-06T10:40:04Z</time>
      </trkpt>
      <trkpt lat="44.17043" lon="5.0115">
        <ele>310</ele>
        <time>2021-02-06T10:40:05Z</time>
      </trkpt>
      <trkpt lat="44.17042" lon="5.01147">
        <ele>310</ele>
        <time>2021-02-06T10:40:06Z</time>
      </trkpt>
      <trkpt lat="44.1704" lon="5.01144">
        <ele>310</ele>
        <time>2021-02-06T10:40:07Z</time>
      </trkpt>
      <trkpt lat="44.17039" lon="5.01141">
        <ele>309</ele>
        <time>2021-02-06T10:40:08Z</time>
      </trkpt>
      <trkpt lat="44.17038" lon="5.01139">
        <ele>309</ele>
        <time>2021-02-06T10:40:09Z</time>
      </trkpt>
      <trkpt lat="44.17036" lon="5.01136">
        <ele>309</ele>
        <time>2021-02-06T10:40:10Z</time>
      </trkpt>
      <trkpt lat="44.17034" lon="5.01134">
        <ele>310</ele>
        <time>2021-02-06T10:40:11Z</time>
      </trkpt>
      <trkpt lat="44.17032" lon="5.01131">
        <ele>310</ele>
        <time>2021-02-06T10:40:12Z</time>
      </trkpt>
      <trkpt lat="44.1703" lon="5.01128">
        <ele>310</ele>
        <time>2021-02-06T10:40:13Z</time>
      </trkpt>
      <trkpt lat="44.17028" lon="5.01125">
        <ele>311</ele>
        <time>2021-02-06T10:40:14Z</time>
      </trkpt>
      <trkpt lat="44.17026" lon="5.01122">
        <ele>311</ele>
        <time>2021-02-06T10:40:15Z</time>
      </trkpt>
      <trkpt lat="44.17025" lon="5.01121">
        <ele>310</ele>
        <time>2021-02-06T10:40:16Z</time>
      </trkpt>
      <trkpt lat="44.17023" lon="5.01118">
        <ele>310</ele>
        <time>2021-02-06T10:40:17Z</time>
      </trkpt>
      <trkpt lat="44.17021" lon="5.01116">
        <ele>310</ele>
        <time>2021-02-06T10:40:18Z</time>
      </trkpt>
      <trkpt lat="44.1702" lon="5.01113">
        <ele>310</ele>
        <time>2021-02-06T10:40:19Z</time>
      </trkpt>
      <trkpt lat="44.17018" lon="5.01111">
        <ele>310</ele>
        <time>2021-02-06T10:40:20Z</time>
      </trkpt>
      <trkpt lat="44.17016" lon="5.01108">
        <ele>310</ele>
        <time>2021-02-06T10:40:21Z</time>
      </trkpt>
      <trkpt lat="44.17014" lon="5.01106">
        <ele>311</ele>
        <time>2021-02-06T10:40:22Z</time>
      </trkpt>
      <trkpt lat="44.17011" lon="5.01103">
        <ele>311</ele>
        <time>2021-02-06T10:40:23Z</time>
      </trkpt>
      <trkpt lat="44.1701" lon="5.011">
        <ele>311</ele>
        <time>2021-02-06T10:40:24Z</time>
      </trkpt>
      <trkpt lat="44.17008" lon="5.01098">
        <ele>311</ele>
        <time>2021-02-06T10:40:25Z</time>
      </trkpt>
      <trkpt lat="44.17006" lon="5.01095">
        <ele>311</ele>
        <time>2021-02-06T10:40:26Z</time>
      </trkpt>
      <trkpt lat="44.17004" lon="5.01093">
        <ele>311</ele>
        <time>2021-02-06T10:40:27Z</time>
      </trkpt>
      <trkpt lat="44.17002" lon="5.01091">
        <ele>311</ele>
        <time>2021-02-06T10:40:28Z</time>
      </trkpt>
      <trkpt lat="44.17" lon="5.01089">
        <ele>311</ele>
        <time>2021-02-06T10:40:29Z</time>
      </trkpt>
      <trkpt lat="44.16998" lon="5.01086">
        <ele>311</ele>
        <time>2021-02-06T10:40:30Z</time>
      </trkpt>
      <trkpt lat="44.16996" lon="5.01084">
        <ele>311</ele>
        <time>2021-02-06T10:40:31Z</time>
      </trkpt>
      <trkpt lat="44.16994" lon="5.01082">
        <ele>310</ele>
        <time>2021-02-06T10:40:32Z</time>
      </trkpt>
      <trkpt lat="44.16992" lon="5.01081">
        <ele>310</ele>
        <time>2021-02-06T10:40:33Z</time>
      </trkpt>
      <trkpt lat="44.16989" lon="5.01079">
        <ele>310</ele>
        <time>2021-02-06T10:40:34Z</time>
      </trkpt>
      <trkpt lat="44.16987" lon="5.01077">
        <ele>309</ele>
        <time>2021-02-06T10:40:35Z</time>
      </trkpt>
      <trkpt lat="44.16985" lon="5.01076">
        <ele>309</ele>
        <time>2021-02-06T10:40:36Z</time>
      </trkpt>
      <trkpt lat="44.16983" lon="5.01074">
        <ele>309</ele>
        <time>2021-02-06T10:40:37Z</time>
      </trkpt>
      <trkpt lat="44.16981" lon="5.01071">
        <ele>308</ele>
        <time>2021-02-06T10:40:38Z</time>
      </trkpt>
      <trkpt lat="44.16979" lon="5.01068">
        <ele>308</ele>
        <time>2021-02-06T10:40:39Z</time>
      </trkpt>
      <trkpt lat="44.16977" lon="5.01065">
        <ele>308</ele>
        <time>2021-02-06T10:40:40Z</time>
      </trkpt>
      <trkpt lat="44.16975" lon="5.01062">
        <ele>307</ele>
        <time>2021-02-06T10:40:41Z</time>
      </trkpt>
      <trkpt lat="44.16972" lon="5.01059">
        <ele>307</ele>
        <time>2021-02-06T10:40:42Z</time>
      </trkpt>
      <trkpt lat="44.1697" lon="5.01057">
        <ele>306</ele>
        <time>2021-02-06T10:40:43Z</time>
      </trkpt>
      <trkpt lat="44.16968" lon="5.01054">
        <ele>305</ele>
        <time>2021-02-06T10:40:44Z</time>
      </trkpt>
      <trkpt lat="44.16964" lon="5.01048">
        <ele>305</ele>
        <time>2021-02-06T10:40:46Z</time>
      </trkpt>
      <trkpt lat="44.16956" lon="5.0104">
        <ele>303</ele>
        <time>2021-02-06T10:40:49Z</time>
      </trkpt>
      <trkpt lat="44.16954" lon="5.01037">
        <ele>302</ele>
        <time>2021-02-06T10:40:50Z</time>
      </trkpt>
      <trkpt lat="44.16949" lon="5.01032">
        <ele>301</ele>
        <time>2021-02-06T10:40:52Z</time>
      </trkpt>
      <trkpt lat="44.16946" lon="5.0103">
        <ele>300</ele>
        <time>2021-02-06T10:40:53Z</time>
      </trkpt>
      <trkpt lat="44.16943" lon="5.01028">
        <ele>300</ele>
        <time>2021-02-06T10:40:54Z</time>
      </trkpt>
      <trkpt lat="44.16941" lon="5.01024">
        <ele>299</ele>
        <time>2021-02-06T10:40:55Z</time>
      </trkpt>
      <trkpt lat="44.16939" lon="5.01021">
        <ele>299</ele>
        <time>2021-02-06T10:40:56Z</time>
      </trkpt>
      <trkpt lat="44.16937" lon="5.01018">
        <ele>299</ele>
        <time>2021-02-06T10:40:57Z</time>
      </trkpt>
      <trkpt lat="44.16935" lon="5.01014">
        <ele>298</ele>
        <time>2021-02-06T10:40:58Z</time>
      </trkpt>
      <trkpt lat="44.16933" lon="5.01011">
        <ele>298</ele>
        <time>2021-02-06T10:40:59Z</time>
      </trkpt>
      <trkpt lat="44.1693" lon="5.01008">
        <ele>298</ele>
        <time>2021-02-06T10:41:00Z</time>
      </trkpt>
      <trkpt lat="44.16928" lon="5.01006">
        <ele>297</ele>
        <time>2021-02-06T10:41:01Z</time>
      </trkpt>
      <trkpt lat="44.16926" lon="5.01003">
        <ele>297</ele>
        <time>2021-02-06T10:41:02Z</time>
      </trkpt>
      <trkpt lat="44.16924" lon="5.00999">
        <ele>297</ele>
        <time>2021-02-06T10:41:03Z</time>
      </trkpt>
      <trkpt lat="44.16922" lon="5.00996">
        <ele>296</ele>
        <time>2021-02-06T10:41:04Z</time>
      </trkpt>
      <trkpt lat="44.1692" lon="5.00993">
        <ele>296</ele>
        <time>2021-02-06T10:41:05Z</time>
      </trkpt>
      <trkpt lat="44.16918" lon="5.00989">
        <ele>296</ele>
        <time>2021-02-06T10:41:06Z</time>
      </trkpt>
      <trkpt lat="44.16916" lon="5.00987">
        <ele>296</ele>
        <time>2021-02-06T10:41:07Z</time>
      </trkpt>
      <trkpt lat="44.16915" lon="5.00984">
        <ele>296</ele>
        <time>2021-02-06T10:41:08Z</time>
      </trkpt>
      <trkpt lat="44.16913" lon="5.00981">
        <ele>295</ele>
        <time>2021-02-06T10:41:09Z</time>
      </trkpt>
      <trkpt lat="44.16911" lon="5.00979">
        <ele>295</ele>
        <time>2021-02-06T10:41:10Z</time>
      </trkpt>
      <trkpt lat="44.1691" lon="5.00976">
        <ele>295</ele>
        <time>2021-02-06T10:41:11Z</time>
      </trkpt>
      <trkpt lat="44.16908" lon="5.00973">
        <ele>294</ele>
        <time>2021-02-06T10:41:12Z</time>
      </trkpt>
      <trkpt lat="44.16906" lon="5.0097">
        <ele>294</ele>
        <time>2021-02-06T10:41:13Z</time>
      </trkpt>
      <trkpt lat="44.16905" lon="5.00968">
        <ele>294</ele>
        <time>2021-02-06T10:41:14Z</time>
      </trkpt>
      <trkpt lat="44.16904" lon="5.00966">
        <ele>294</ele>
        <time>2021-02-06T10:41:15Z</time>
      </trkpt>
      <trkpt lat="44.16897" lon="5.00956">
        <ele>293</ele>
        <time>2021-02-06T10:41:18Z</time>
      </trkpt>
      <trkpt lat="44.16894" lon="5.0095">
        <ele>292</ele>
        <time>2021-02-06T10:41:20Z</time>
      </trkpt>
      <trkpt lat="44.16892" lon="5.00947">
        <ele>292</ele>
        <time>2021-02-06T10:41:21Z</time>
      </trkpt>
      <trkpt lat="44.16891" lon="5.00944">
        <ele>292</ele>
        <time>2021-02-06T10:41:22Z</time>
      </trkpt>
      <trkpt lat="44.16889" lon="5.00941">
        <ele>292</ele>
        <time>2021-02-06T10:41:23Z</time>
      </trkpt>
      <trkpt lat="44.16888" lon="5.00938">
        <ele>292</ele>
        <time>2021-02-06T10:41:24Z</time>
      </trkpt>
      <trkpt lat="44.16886" lon="5.00934">
        <ele>291</ele>
        <time>2021-02-06T10:41:25Z</time>
      </trkpt>
      <trkpt lat="44.16885" lon="5.00931">
        <ele>291</ele>
        <time>2021-02-06T10:41:26Z</time>
      </trkpt>
      <trkpt lat="44.16883" lon="5.00928">
        <ele>291</ele>
        <time>2021-02-06T10:41:27Z</time>
      </trkpt>
      <trkpt lat="44.16881" lon="5.00926">
        <ele>291</ele>
        <time>2021-02-06T10:41:28Z</time>
      </trkpt>
      <trkpt lat="44.1688" lon="5.00923">
        <ele>290</ele>
        <time>2021-02-06T10:41:29Z</time>
      </trkpt>
      <trkpt lat="44.16878" lon="5.00921">
        <ele>290</ele>
        <time>2021-02-06T10:41:30Z</time>
      </trkpt>
      <trkpt lat="44.16877" lon="5.00918">
        <ele>290</ele>
        <time>2021-02-06T10:41:31Z</time>
      </trkpt>
      <trkpt lat="44.16876" lon="5.00916">
        <ele>290</ele>
        <time>2021-02-06T10:41:32Z</time>
      </trkpt>
      <trkpt lat="44.16874" lon="5.00913">
        <ele>289</ele>
        <time>2021-02-06T10:41:33Z</time>
      </trkpt>
      <trkpt lat="44.16871" lon="5.00904">
        <ele>288</ele>
        <time>2021-02-06T10:41:35Z</time>
      </trkpt>
      <trkpt lat="44.16869" lon="5.00899">
        <ele>287</ele>
        <time>2021-02-06T10:41:36Z</time>
      </trkpt>
      <trkpt lat="44.16868" lon="5.00895">
        <ele>286</ele>
        <time>2021-02-06T10:41:37Z</time>
      </trkpt>
      <trkpt lat="44.16868" lon="5.00891">
        <ele>286</ele>
        <time>2021-02-06T10:41:38Z</time>
      </trkpt>
      <trkpt lat="44.16867" lon="5.00887">
        <ele>285</ele>
        <time>2021-02-06T10:41:39Z</time>
      </trkpt>
      <trkpt lat="44.16866" lon="5.00884">
        <ele>285</ele>
        <time>2021-02-06T10:41:40Z</time>
      </trkpt>
      <trkpt lat="44.16865" lon="5.00881">
        <ele>284</ele>
        <time>2021-02-06T10:41:41Z</time>
      </trkpt>
      <trkpt lat="44.16865" lon="5.00878">
        <ele>284</ele>
        <time>2021-02-06T10:41:42Z</time>
      </trkpt>
      <trkpt lat="44.16866" lon="5.00874">
        <ele>284</ele>
        <time>2021-02-06T10:41:43Z</time>
      </trkpt>
      <trkpt lat="44.16865" lon="5.00871">
        <ele>284</ele>
        <time>2021-02-06T10:41:44Z</time>
      </trkpt>
      <trkpt lat="44.16865" lon="5.00868">
        <ele>284</ele>
        <time>2021-02-06T10:41:45Z</time>
      </trkpt>
      <trkpt lat="44.16865" lon="5.00864">
        <ele>284</ele>
        <time>2021-02-06T10:41:46Z</time>
      </trkpt>
      <trkpt lat="44.16864" lon="5.00861">
        <ele>283</ele>
        <time>2021-02-06T10:41:47Z</time>
      </trkpt>
      <trkpt lat="44.16864" lon="5.00858">
        <ele>283</ele>
        <time>2021-02-06T10:41:48Z</time>
      </trkpt>
      <trkpt lat="44.16863" lon="5.00854">
        <ele>282</ele>
        <time>2021-02-06T10:41:49Z</time>
      </trkpt>
      <trkpt lat="44.16863" lon="5.00849">
        <ele>282</ele>
        <time>2021-02-06T10:41:50Z</time>
      </trkpt>
      <trkpt lat="44.16862" lon="5.00845">
        <ele>281</ele>
        <time>2021-02-06T10:41:51Z</time>
      </trkpt>
      <trkpt lat="44.16862" lon="5.00841">
        <ele>281</ele>
        <time>2021-02-06T10:41:52Z</time>
      </trkpt>
      <trkpt lat="44.16862" lon="5.00838">
        <ele>280</ele>
        <time>2021-02-06T10:41:53Z</time>
      </trkpt>
      <trkpt lat="44.16862" lon="5.00835">
        <ele>280</ele>
        <time>2021-02-06T10:41:54Z</time>
      </trkpt>
      <trkpt lat="44.16862" lon="5.0083">
        <ele>280</ele>
        <time>2021-02-06T10:41:56Z</time>
      </trkpt>
      <trkpt lat="44.16862" lon="5.00827">
        <ele>280</ele>
        <time>2021-02-06T10:41:57Z</time>
      </trkpt>
      <trkpt lat="44.16861" lon="5.00823">
        <ele>279</ele>
        <time>2021-02-06T10:41:58Z</time>
      </trkpt>
      <trkpt lat="44.16862" lon="5.00819">
        <ele>279</ele>
        <time>2021-02-06T10:41:59Z</time>
      </trkpt>
      <trkpt lat="44.16862" lon="5.00815">
        <ele>279</ele>
        <time>2021-02-06T10:42:00Z</time>
      </trkpt>
      <trkpt lat="44.16862" lon="5.00812">
        <ele>279</ele>
        <time>2021-02-06T10:42:01Z</time>
      </trkpt>
      <trkpt lat="44.16863" lon="5.00808">
        <ele>279</ele>
        <time>2021-02-06T10:42:02Z</time>
      </trkpt>
      <trkpt lat="44.16862" lon="5.00805">
        <ele>278</ele>
        <time>2021-02-06T10:42:03Z</time>
      </trkpt>
      <trkpt lat="44.16861" lon="5.00802">
        <ele>278</ele>
        <time>2021-02-06T10:42:04Z</time>
      </trkpt>
      <trkpt lat="44.1686" lon="5.00799">
        <ele>277</ele>
        <time>2021-02-06T10:42:05Z</time>
      </trkpt>
      <trkpt lat="44.1686" lon="5.00795">
        <ele>277</ele>
        <time>2021-02-06T10:42:06Z</time>
      </trkpt>
      <trkpt lat="44.16859" lon="5.00792">
        <ele>276</ele>
        <time>2021-02-06T10:42:07Z</time>
      </trkpt>
      <trkpt lat="44.16859" lon="5.00789">
        <ele>276</ele>
        <time>2021-02-06T10:42:08Z</time>
      </trkpt>
      <trkpt lat="44.16859" lon="5.00786">
        <ele>276</ele>
        <time>2021-02-06T10:42:09Z</time>
      </trkpt>
      <trkpt lat="44.16858" lon="5.00782">
        <ele>275</ele>
        <time>2021-02-06T10:42:10Z</time>
      </trkpt>
      <trkpt lat="44.16857" lon="5.00777">
        <ele>274</ele>
        <time>2021-02-06T10:42:12Z</time>
      </trkpt>
      <trkpt lat="44.16856" lon="5.00773">
        <ele>274</ele>
        <time>2021-02-06T10:42:13Z</time>
      </trkpt>
      <trkpt lat="44.16855" lon="5.00769">
        <ele>273</ele>
        <time>2021-02-06T10:42:14Z</time>
      </trkpt>
      <trkpt lat="44.16854" lon="5.00765">
        <ele>272</ele>
        <time>2021-02-06T10:42:15Z</time>
      </trkpt>
      <trkpt lat="44.16854" lon="5.0076">
        <ele>272</ele>
        <time>2021-02-06T10:42:16Z</time>
      </trkpt>
      <trkpt lat="44.16853" lon="5.00757">
        <ele>272</ele>
        <time>2021-02-06T10:42:17Z</time>
      </trkpt>
      <trkpt lat="44.16853" lon="5.00753">
        <ele>271</ele>
        <time>2021-02-06T10:42:18Z</time>
      </trkpt>
      <trkpt lat="44.16852" lon="5.0075">
        <ele>271</ele>
        <time>2021-02-06T10:42:19Z</time>
      </trkpt>
      <trkpt lat="44.1685" lon="5.00747">
        <ele>270</ele>
        <time>2021-02-06T10:42:20Z</time>
      </trkpt>
      <trkpt lat="44.16848" lon="5.00745">
        <ele>269</ele>
        <time>2021-02-06T10:42:21Z</time>
      </trkpt>
      <trkpt lat="44.16846" lon="5.00742">
        <ele>268</ele>
        <time>2021-02-06T10:42:22Z</time>
      </trkpt>
      <trkpt lat="44.16843" lon="5.0074">
        <ele>267</ele>
        <time>2021-02-06T10:42:23Z</time>
      </trkpt>
      <trkpt lat="44.16841" lon="5.00738">
        <ele>266</ele>
        <time>2021-02-06T10:42:24Z</time>
      </trkpt>
      <trkpt lat="44.16839" lon="5.00735">
        <ele>265</ele>
        <time>2021-02-06T10:42:25Z</time>
      </trkpt>
      <trkpt lat="44.16836" lon="5.00733">
        <ele>264</ele>
        <time>2021-02-06T10:42:26Z</time>
      </trkpt>
      <trkpt lat="44.16834" lon="5.00731">
        <ele>263</ele>
        <time>2021-02-06T10:42:27Z</time>
      </trkpt>
      <trkpt lat="44.16832" lon="5.00729">
        <ele>262</ele>
        <time>2021-02-06T10:42:28Z</time>
      </trkpt>
      <trkpt lat="44.16829" lon="5.00727">
        <ele>262</ele>
        <time>2021-02-06T10:42:29Z</time>
      </trkpt>
      <trkpt lat="44.16827" lon="5.00725">
        <ele>261</ele>
        <time>2021-02-06T10:42:30Z</time>
      </trkpt>
      <trkpt lat="44.16825" lon="5.00723">
        <ele>261</ele>
        <time>2021-02-06T10:42:31Z</time>
      </trkpt>
      <trkpt lat="44.16822" lon="5.00721">
        <ele>261</ele>
        <time>2021-02-06T10:42:32Z</time>
      </trkpt>
      <trkpt lat="44.1682" lon="5.00719">
        <ele>261</ele>
        <time>2021-02-06T10:42:33Z</time>
      </trkpt>
      <trkpt lat="44.16818" lon="5.00718">
        <ele>260</ele>
        <time>2021-02-06T10:42:34Z</time>
      </trkpt>
      <trkpt lat="44.16816" lon="5.00716">
        <ele>260</ele>
        <time>2021-02-06T10:42:35Z</time>
      </trkpt>
      <trkpt lat="44.16814" lon="5.00715">
        <ele>260</ele>
        <time>2021-02-06T10:42:36Z</time>
      </trkpt>
      <trkpt lat="44.16812" lon="5.00712">
        <ele>260</ele>
        <time>2021-02-06T10:42:37Z</time>
      </trkpt>
      <trkpt lat="44.1681" lon="5.00709">
        <ele>259</ele>
        <time>2021-02-06T10:42:38Z</time>
      </trkpt>
      <trkpt lat="44.16809" lon="5.00706">
        <ele>259</ele>
        <time>2021-02-06T10:42:39Z</time>
      </trkpt>
      <trkpt lat="44.16808" lon="5.00703">
        <ele>259</ele>
        <time>2021-02-06T10:42:40Z</time>
      </trkpt>
      <trkpt lat="44.16808" lon="5.00699">
        <ele>259</ele>
        <time>2021-02-06T10:42:41Z</time>
      </trkpt>
      <trkpt lat="44.16807" lon="5.00696">
        <ele>259</ele>
        <time>2021-02-06T10:42:42Z</time>
      </trkpt>
      <trkpt lat="44.16807" lon="5.00693">
        <ele>259</ele>
        <time>2021-02-06T10:42:43Z</time>
      </trkpt>
      <trkpt lat="44.16806" lon="5.0069">
        <ele>258</ele>
        <time>2021-02-06T10:42:44Z</time>
      </trkpt>
      <trkpt lat="44.16804" lon="5.00688">
        <ele>258</ele>
        <time>2021-02-06T10:42:45Z</time>
      </trkpt>
      <trkpt lat="44.16802" lon="5.00688">
        <ele>257</ele>
        <time>2021-02-06T10:42:46Z</time>
      </trkpt>
      <trkpt lat="44.16799" lon="5.0069">
        <ele>257</ele>
        <time>2021-02-06T10:42:47Z</time>
      </trkpt>
      <trkpt lat="44.16798" lon="5.00693">
        <ele>258</ele>
        <time>2021-02-06T10:42:48Z</time>
      </trkpt>
      <trkpt lat="44.16798" lon="5.00696">
        <ele>258</ele>
        <time>2021-02-06T10:42:49Z</time>
      </trkpt>
      <trkpt lat="44.16798" lon="5.007">
        <ele>258</ele>
        <time>2021-02-06T10:42:50Z</time>
      </trkpt>
      <trkpt lat="44.16798" lon="5.00703">
        <ele>258</ele>
        <time>2021-02-06T10:42:51Z</time>
      </trkpt>
      <trkpt lat="44.16799" lon="5.00705">
        <ele>258</ele>
        <time>2021-02-06T10:42:52Z</time>
      </trkpt>
      <trkpt lat="44.16799" lon="5.00709">
        <ele>258</ele>
        <time>2021-02-06T10:42:53Z</time>
      </trkpt>
      <trkpt lat="44.16799" lon="5.00712">
        <ele>258</ele>
        <time>2021-02-06T10:42:54Z</time>
      </trkpt>
      <trkpt lat="44.16799" lon="5.00715">
        <ele>258</ele>
        <time>2021-02-06T10:42:55Z</time>
      </trkpt>
      <trkpt lat="44.16798" lon="5.00718">
        <ele>258</ele>
        <time>2021-02-06T10:42:56Z</time>
      </trkpt>
      <trkpt lat="44.16797" lon="5.0072">
        <ele>258</ele>
        <time>2021-02-06T10:42:57Z</time>
      </trkpt>
      <trkpt lat="44.16796" lon="5.00723">
        <ele>258</ele>
        <time>2021-02-06T10:42:58Z</time>
      </trkpt>
      <trkpt lat="44.16794" lon="5.00725">
        <ele>257</ele>
        <time>2021-02-06T10:42:59Z</time>
      </trkpt>
      <trkpt lat="44.16792" lon="5.00726">
        <ele>257</ele>
        <time>2021-02-06T10:43:00Z</time>
      </trkpt>
      <trkpt lat="44.1679" lon="5.00727">
        <ele>257</ele>
        <time>2021-02-06T10:43:01Z</time>
      </trkpt>
      <trkpt lat="44.16788" lon="5.00728">
        <ele>256</ele>
        <time>2021-02-06T10:43:02Z</time>
      </trkpt>
      <trkpt lat="44.16785" lon="5.00728">
        <ele>256</ele>
        <time>2021-02-06T10:43:03Z</time>
      </trkpt>
      <trkpt lat="44.16783" lon="5.00729">
        <ele>256</ele>
        <time>2021-02-06T10:43:04Z</time>
      </trkpt>
      <trkpt lat="44.1678" lon="5.00729">
        <ele>255</ele>
        <time>2021-02-06T10:43:05Z</time>
      </trkpt>
      <trkpt lat="44.16778" lon="5.00727">
        <ele>255</ele>
        <time>2021-02-06T10:43:06Z</time>
      </trkpt>
      <trkpt lat="44.16775" lon="5.00727">
        <ele>255</ele>
        <time>2021-02-06T10:43:07Z</time>
      </trkpt>
      <trkpt lat="44.16773" lon="5.00726">
        <ele>254</ele>
        <time>2021-02-06T10:43:08Z</time>
      </trkpt>
      <trkpt lat="44.1677" lon="5.00723">
        <ele>254</ele>
        <time>2021-02-06T10:43:10Z</time>
      </trkpt>
      <trkpt lat="44.16768" lon="5.00722">
        <ele>253</ele>
        <time>2021-02-06T10:43:11Z</time>
      </trkpt>
      <trkpt lat="44.16766" lon="5.00721">
        <ele>253</ele>
        <time>2021-02-06T10:43:12Z</time>
      </trkpt>
      <trkpt lat="44.16764" lon="5.0072">
        <ele>253</ele>
        <time>2021-02-06T10:43:13Z</time>
      </trkpt>
      <trkpt lat="44.16763" lon="5.0072">
        <ele>252</ele>
        <time>2021-02-06T10:43:14Z</time>
      </trkpt>
      <trkpt lat="44.16761" lon="5.00721">
        <ele>252</ele>
        <time>2021-02-06T10:43:15Z</time>
      </trkpt>
      <trkpt lat="44.16759" lon="5.00723">
        <ele>252</ele>
        <time>2021-02-06T10:43:16Z</time>
      </trkpt>
      <trkpt lat="44.16757" lon="5.00725">
        <ele>251</ele>
        <time>2021-02-06T10:43:17Z</time>
      </trkpt>
      <trkpt lat="44.16756" lon="5.00727">
        <ele>251</ele>
        <time>2021-02-06T10:43:18Z</time>
      </trkpt>
      <trkpt lat="44.16755" lon="5.00729">
        <ele>251</ele>
        <time>2021-02-06T10:43:19Z</time>
      </trkpt>
      <trkpt lat="44.16753" lon="5.00732">
        <ele>251</ele>
        <time>2021-02-06T10:43:20Z</time>
      </trkpt>
      <trkpt lat="44.16751" lon="5.00734">
        <ele>251</ele>
        <time>2021-02-06T10:43:21Z</time>
      </trkpt>
      <trkpt lat="44.1675" lon="5.00737">
        <ele>250</ele>
        <time>2021-02-06T10:43:22Z</time>
      </trkpt>
      <trkpt lat="44.16748" lon="5.00738">
        <ele>250</ele>
        <time>2021-02-06T10:43:23Z</time>
      </trkpt>
      <trkpt lat="44.16746" lon="5.00739">
        <ele>250</ele>
        <time>2021-02-06T10:43:24Z</time>
      </trkpt>
      <trkpt lat="44.16744" lon="5.00741">
        <ele>249</ele>
        <time>2021-02-06T10:43:25Z</time>
      </trkpt>
      <trkpt lat="44.16741" lon="5.00741">
        <ele>249</ele>
        <time>2021-02-06T10:43:26Z</time>
      </trkpt>
      <trkpt lat="44.16739" lon="5.00742">
        <ele>248</ele>
        <time>2021-02-06T10:43:27Z</time>
      </trkpt>
      <trkpt lat="44.16737" lon="5.00742">
        <ele>248</ele>
        <time>2021-02-06T10:43:28Z</time>
      </trkpt>
      <trkpt lat="44.16735" lon="5.00743">
        <ele>247</ele>
        <time>2021-02-06T10:43:29Z</time>
      </trkpt>
      <trkpt lat="44.16733" lon="5.00743">
        <ele>246</ele>
        <time>2021-02-06T10:43:30Z</time>
      </trkpt>
      <trkpt lat="44.1673" lon="5.00744">
        <ele>246</ele>
        <time>2021-02-06T10:43:31Z</time>
      </trkpt>
      <trkpt lat="44.16728" lon="5.00745">
        <ele>245</ele>
        <time>2021-02-06T10:43:32Z</time>
      </trkpt>
      <trkpt lat="44.16725" lon="5.00745">
        <ele>245</ele>
        <time>2021-02-06T10:43:33Z</time>
      </trkpt>
      <trkpt lat="44.16723" lon="5.00746">
        <ele>244</ele>
        <time>2021-02-06T10:43:34Z</time>
      </trkpt>
      <trkpt lat="44.1672" lon="5.00746">
        <ele>244</ele>
        <time>2021-02-06T10:43:36Z</time>
      </trkpt>
      <trkpt lat="44.16718" lon="5.00747">
        <ele>243</ele>
        <time>2021-02-06T10:43:37Z</time>
      </trkpt>
      <trkpt lat="44.16716" lon="5.00747">
        <ele>243</ele>
        <time>2021-02-06T10:43:38Z</time>
      </trkpt>
      <trkpt lat="44.16714" lon="5.00747">
        <ele>243</ele>
        <time>2021-02-06T10:43:39Z</time>
      </trkpt>
      <trkpt lat="44.16712" lon="5.00747">
        <ele>243</ele>
        <time>2021-02-06T10:43:40Z</time>
      </trkpt>
      <trkpt lat="44.1671" lon="5.00746">
        <ele>242</ele>
        <time>2021-02-06T10:43:41Z</time>
      </trkpt>
      <trkpt lat="44.16707" lon="5.00746">
        <ele>242</ele>
        <time>2021-02-06T10:43:42Z</time>
      </trkpt>
      <trkpt lat="44.16705" lon="5.00746">
        <ele>241</ele>
        <time>2021-02-06T10:43:43Z</time>
      </trkpt>
      <trkpt lat="44.16703" lon="5.00745">
        <ele>241</ele>
        <time>2021-02-06T10:43:44Z</time>
      </trkpt>
      <trkpt lat="44.167" lon="5.00745">
        <ele>241</ele>
        <time>2021-02-06T10:43:45Z</time>
      </trkpt>
      <trkpt lat="44.16698" lon="5.00745">
        <ele>241</ele>
        <time>2021-02-06T10:43:46Z</time>
      </trkpt>
      <trkpt lat="44.16696" lon="5.00744">
        <ele>240</ele>
        <time>2021-02-06T10:43:47Z</time>
      </trkpt>
      <trkpt lat="44.16693" lon="5.00745">
        <ele>240</ele>
        <time>2021-02-06T10:43:49Z</time>
      </trkpt>
      <trkpt lat="44.16692" lon="5.00747">
        <ele>240</ele>
        <time>2021-02-06T10:43:50Z</time>
      </trkpt>
      <trkpt lat="44.1669" lon="5.00748">
        <ele>240</ele>
        <time>2021-02-06T10:43:51Z</time>
      </trkpt>
      <trkpt lat="44.16689" lon="5.0075">
        <ele>240</ele>
        <time>2021-02-06T10:43:52Z</time>
      </trkpt>
      <trkpt lat="44.16687" lon="5.00752">
        <ele>240</ele>
        <time>2021-02-06T10:43:53Z</time>
      </trkpt>
      <trkpt lat="44.16685" lon="5.00753">
        <ele>240</ele>
        <time>2021-02-06T10:43:54Z</time>
      </trkpt>
      <trkpt lat="44.16683" lon="5.00752">
        <ele>240</ele>
        <time>2021-02-06T10:43:55Z</time>
      </trkpt>
      <trkpt lat="44.1668" lon="5.00752">
        <ele>240</ele>
        <time>2021-02-06T10:43:56Z</time>
      </trkpt>
      <trkpt lat="44.16678" lon="5.00751">
        <ele>240</ele>
        <time>2021-02-06T10:43:57Z</time>
      </trkpt>
      <trkpt lat="44.16676" lon="5.0075">
        <ele>240</ele>
        <time>2021-02-06T10:43:58Z</time>
      </trkpt>
      <trkpt lat="44.16674" lon="5.00749">
        <ele>240</ele>
        <time>2021-02-06T10:43:59Z</time>
      </trkpt>
      <trkpt lat="44.16671" lon="5.00748">
        <ele>240</ele>
        <time>2021-02-06T10:44:00Z</time>
      </trkpt>
      <trkpt lat="44.16669" lon="5.00747">
        <ele>240</ele>
        <time>2021-02-06T10:44:01Z</time>
      </trkpt>
      <trkpt lat="44.16666" lon="5.00746">
        <ele>240</ele>
        <time>2021-02-06T10:44:02Z</time>
      </trkpt>
      <trkpt lat="44.16664" lon="5.00744">
        <ele>240</ele>
        <time>2021-02-06T10:44:03Z</time>
      </trkpt>
      <trkpt lat="44.16661" lon="5.00743">
        <ele>240</ele>
        <time>2021-02-06T10:44:04Z</time>
      </trkpt>
      <trkpt lat="44.16657" lon="5.00741">
        <ele>240</ele>
        <time>2021-02-06T10:44:05Z</time>
      </trkpt>
      <trkpt lat="44.16655" lon="5.0074">
        <ele>241</ele>
        <time>2021-02-06T10:44:06Z</time>
      </trkpt>
      <trkpt lat="44.16652" lon="5.0074">
        <ele>241</ele>
        <time>2021-02-06T10:44:07Z</time>
      </trkpt>
      <trkpt lat="44.1665" lon="5.0074">
        <ele>241</ele>
        <time>2021-02-06T10:44:08Z</time>
      </trkpt>
      <trkpt lat="44.16647" lon="5.00739">
        <ele>241</ele>
        <time>2021-02-06T10:44:09Z</time>
      </trkpt>
      <trkpt lat="44.16644" lon="5.00738">
        <ele>242</ele>
        <time>2021-02-06T10:44:10Z</time>
      </trkpt>
      <trkpt lat="44.16642" lon="5.00738">
        <ele>242</ele>
        <time>2021-02-06T10:44:11Z</time>
      </trkpt>
      <trkpt lat="44.16639" lon="5.00737">
        <ele>242</ele>
        <time>2021-02-06T10:44:12Z</time>
      </trkpt>
      <trkpt lat="44.16637" lon="5.00736">
        <ele>242</ele>
        <time>2021-02-06T10:44:13Z</time>
      </trkpt>
      <trkpt lat="44.16635" lon="5.00736">
        <ele>242</ele>
        <time>2021-02-06T10:44:14Z</time>
      </trkpt>
      <trkpt lat="44.16633" lon="5.00735">
        <ele>243</ele>
        <time>2021-02-06T10:44:15Z</time>
      </trkpt>
      <trkpt lat="44.1663" lon="5.00734">
        <ele>243</ele>
        <time>2021-02-06T10:44:16Z</time>
      </trkpt>
      <trkpt lat="44.16628" lon="5.00733">
        <ele>243</ele>
        <time>2021-02-06T10:44:17Z</time>
      </trkpt>
      <trkpt lat="44.16626" lon="5.00732">
        <ele>243</ele>
        <time>2021-02-06T10:44:18Z</time>
      </trkpt>
      <trkpt lat="44.16623" lon="5.00732">
        <ele>243</ele>
        <time>2021-02-06T10:44:19Z</time>
      </trkpt>
      <trkpt lat="44.16621" lon="5.00731">
        <ele>244</ele>
        <time>2021-02-06T10:44:20Z</time>
      </trkpt>
      <trkpt lat="44.16618" lon="5.0073">
        <ele>244</ele>
        <time>2021-02-06T10:44:21Z</time>
      </trkpt>
      <trkpt lat="44.16616" lon="5.00729">
        <ele>244</ele>
        <time>2021-02-06T10:44:22Z</time>
      </trkpt>
      <trkpt lat="44.16614" lon="5.00727">
        <ele>244</ele>
        <time>2021-02-06T10:44:23Z</time>
      </trkpt>
      <trkpt lat="44.16612" lon="5.00726">
        <ele>244</ele>
        <time>2021-02-06T10:44:24Z</time>
      </trkpt>
      <trkpt lat="44.1661" lon="5.00724">
        <ele>244</ele>
        <time>2021-02-06T10:44:25Z</time>
      </trkpt>
      <trkpt lat="44.16607" lon="5.00722">
        <ele>244</ele>
        <time>2021-02-06T10:44:26Z</time>
      </trkpt>
      <trkpt lat="44.16605" lon="5.00719">
        <ele>244</ele>
        <time>2021-02-06T10:44:27Z</time>
      </trkpt>
      <trkpt lat="44.16603" lon="5.00717">
        <ele>244</ele>
        <time>2021-02-06T10:44:28Z</time>
      </trkpt>
      <trkpt lat="44.16601" lon="5.00714">
        <ele>244</ele>
        <time>2021-02-06T10:44:29Z</time>
      </trkpt>
      <trkpt lat="44.16599" lon="5.00712">
        <ele>244</ele>
        <time>2021-02-06T10:44:30Z</time>
      </trkpt>
      <trkpt lat="44.16597" lon="5.0071">
        <ele>244</ele>
        <time>2021-02-06T10:44:31Z</time>
      </trkpt>
      <trkpt lat="44.16594" lon="5.00709">
        <ele>244</ele>
        <time>2021-02-06T10:44:32Z</time>
      </trkpt>
      <trkpt lat="44.16592" lon="5.00706">
        <ele>244</ele>
        <time>2021-02-06T10:44:33Z</time>
      </trkpt>
      <trkpt lat="44.1659" lon="5.00705">
        <ele>244</ele>
        <time>2021-02-06T10:44:34Z</time>
      </trkpt>
      <trkpt lat="44.16588" lon="5.00703">
        <ele>244</ele>
        <time>2021-02-06T10:44:35Z</time>
      </trkpt>
      <trkpt lat="44.16586" lon="5.00701">
        <ele>244</ele>
        <time>2021-02-06T10:44:36Z</time>
      </trkpt>
      <trkpt lat="44.16584" lon="5.00698">
        <ele>244</ele>
        <time>2021-02-06T10:44:37Z</time>
      </trkpt>
      <trkpt lat="44.16581" lon="5.00696">
        <ele>244</ele>
        <time>2021-02-06T10:44:38Z</time>
      </trkpt>
      <trkpt lat="44.16579" lon="5.00695">
        <ele>244</ele>
        <time>2021-02-06T10:44:39Z</time>
      </trkpt>
      <trkpt lat="44.16577" lon="5.00693">
        <ele>244</ele>
        <time>2021-02-06T10:44:40Z</time>
      </trkpt>
      <trkpt lat="44.16575" lon="5.00691">
        <ele>244</ele>
        <time>2021-02-06T10:44:41Z</time>
      </trkpt>
      <trkpt lat="44.16573" lon="5.00689">
        <ele>244</ele>
        <time>2021-02-06T10:44:42Z</time>
      </trkpt>
      <trkpt lat="44.16571" lon="5.00686">
        <ele>244</ele>
        <time>2021-02-06T10:44:43Z</time>
      </trkpt>
      <trkpt lat="44.16569" lon="5.00684">
        <ele>244</ele>
        <time>2021-02-06T10:44:44Z</time>
      </trkpt>
      <trkpt lat="44.16566" lon="5.00682">
        <ele>244</ele>
        <time>2021-02-06T10:44:45Z</time>
      </trkpt>
      <trkpt lat="44.16564" lon="5.0068">
        <ele>244</ele>
        <time>2021-02-06T10:44:46Z</time>
      </trkpt>
      <trkpt lat="44.16562" lon="5.00677">
        <ele>244</ele>
        <time>2021-02-06T10:44:47Z</time>
      </trkpt>
      <trkpt lat="44.1656" lon="5.00675">
        <ele>244</ele>
        <time>2021-02-06T10:44:48Z</time>
      </trkpt>
      <trkpt lat="44.16556" lon="5.00669">
        <ele>244</ele>
        <time>2021-02-06T10:44:50Z</time>
      </trkpt>
      <trkpt lat="44.16554" lon="5.00667">
        <ele>244</ele>
        <time>2021-02-06T10:44:51Z</time>
      </trkpt>
      <trkpt lat="44.16551" lon="5.00664">
        <ele>244</ele>
        <time>2021-02-06T10:44:52Z</time>
      </trkpt>
      <trkpt lat="44.16549" lon="5.00662">
        <ele>244</ele>
        <time>2021-02-06T10:44:53Z</time>
      </trkpt>
      <trkpt lat="44.16547" lon="5.0066">
        <ele>244</ele>
        <time>2021-02-06T10:44:54Z</time>
      </trkpt>
      <trkpt lat="44.16546" lon="5.00658">
        <ele>244</ele>
        <time>2021-02-06T10:44:55Z</time>
      </trkpt>
      <trkpt lat="44.16544" lon="5.00656">
        <ele>244</ele>
        <time>2021-02-06T10:44:56Z</time>
      </trkpt>
      <trkpt lat="44.16541" lon="5.00654">
        <ele>244</ele>
        <time>2021-02-06T10:44:57Z</time>
      </trkpt>
      <trkpt lat="44.16539" lon="5.00652">
        <ele>244</ele>
        <time>2021-02-06T10:44:58Z</time>
      </trkpt>
      <trkpt lat="44.16537" lon="5.0065">
        <ele>244</ele>
        <time>2021-02-06T10:44:59Z</time>
      </trkpt>
      <trkpt lat="44.16536" lon="5.00647">
        <ele>244</ele>
        <time>2021-02-06T10:45:00Z</time>
      </trkpt>
      <trkpt lat="44.16534" lon="5.00645">
        <ele>244</ele>
        <time>2021-02-06T10:45:01Z</time>
      </trkpt>
      <trkpt lat="44.16532" lon="5.00643">
        <ele>244</ele>
        <time>2021-02-06T10:45:02Z</time>
      </trkpt>
      <trkpt lat="44.1653" lon="5.00641">
        <ele>244</ele>
        <time>2021-02-06T10:45:03Z</time>
      </trkpt>
      <trkpt lat="44.16528" lon="5.00638">
        <ele>244</ele>
        <time>2021-02-06T10:45:04Z</time>
      </trkpt>
      <trkpt lat="44.16526" lon="5.00636">
        <ele>244</ele>
        <time>2021-02-06T10:45:05Z</time>
      </trkpt>
      <trkpt lat="44.16524" lon="5.00634">
        <ele>244</ele>
        <time>2021-02-06T10:45:06Z</time>
      </trkpt>
      <trkpt lat="44.16523" lon="5.00632">
        <ele>244</ele>
        <time>2021-02-06T10:45:07Z</time>
      </trkpt>
      <trkpt lat="44.16521" lon="5.0063">
        <ele>244</ele>
        <time>2021-02-06T10:45:08Z</time>
      </trkpt>
      <trkpt lat="44.16519" lon="5.00628">
        <ele>244</ele>
        <time>2021-02-06T10:45:09Z</time>
      </trkpt>
      <trkpt lat="44.16517" lon="5.00626">
        <ele>244</ele>
        <time>2021-02-06T10:45:10Z</time>
      </trkpt>
      <trkpt lat="44.16515" lon="5.00623">
        <ele>244</ele>
        <time>2021-02-06T10:45:11Z</time>
      </trkpt>
      <trkpt lat="44.16514" lon="5.00622">
        <ele>244</ele>
        <time>2021-02-06T10:45:12Z</time>
      </trkpt>
      <trkpt lat="44.16512" lon="5.0062">
        <ele>244</ele>
        <time>2021-02-06T10:45:13Z</time>
      </trkpt>
      <trkpt lat="44.1651" lon="5.00618">
        <ele>244</ele>
        <time>2021-02-06T10:45:14Z</time>
      </trkpt>
      <trkpt lat="44.16507" lon="5.00616">
        <ele>245</ele>
        <time>2021-02-06T10:45:15Z</time>
      </trkpt>
      <trkpt lat="44.16505" lon="5.00615">
        <ele>245</ele>
        <time>2021-02-06T10:45:16Z</time>
      </trkpt>
      <trkpt lat="44.16503" lon="5.00613">
        <ele>245</ele>
        <time>2021-02-06T10:45:17Z</time>
      </trkpt>
      <trkpt lat="44.16501" lon="5.00611">
        <ele>245</ele>
        <time>2021-02-06T10:45:19Z</time>
      </trkpt>
      <trkpt lat="44.16499" lon="5.00609">
        <ele>245</ele>
        <time>2021-02-06T10:45:20Z</time>
      </trkpt>
      <trkpt lat="44.16497" lon="5.00607">
        <ele>245</ele>
        <time>2021-02-06T10:45:21Z</time>
      </trkpt>
      <trkpt lat="44.16495" lon="5.00604">
        <ele>245</ele>
        <time>2021-02-06T10:45:22Z</time>
      </trkpt>
      <trkpt lat="44.16493" lon="5.00602">
        <ele>245</ele>
        <time>2021-02-06T10:45:23Z</time>
      </trkpt>
      <trkpt lat="44.16492" lon="5.00599">
        <ele>245</ele>
        <time>2021-02-06T10:45:24Z</time>
      </trkpt>
      <trkpt lat="44.16488" lon="5.00593">
        <ele>245</ele>
        <time>2021-02-06T10:45:26Z</time>
      </trkpt>
      <trkpt lat="44.16483" lon="5.00588">
        <ele>245</ele>
        <time>2021-02-06T10:45:28Z</time>
      </trkpt>
      <trkpt lat="44.16479" lon="5.00584">
        <ele>245</ele>
        <time>2021-02-06T10:45:30Z</time>
      </trkpt>
      <trkpt lat="44.16475" lon="5.0058">
        <ele>245</ele>
        <time>2021-02-06T10:45:32Z</time>
      </trkpt>
      <trkpt lat="44.16471" lon="5.00576">
        <ele>245</ele>
        <time>2021-02-06T10:45:34Z</time>
      </trkpt>
      <trkpt lat="44.16467" lon="5.00572">
        <ele>246</ele>
        <time>2021-02-06T10:45:36Z</time>
      </trkpt>
      <trkpt lat="44.16463" lon="5.00568">
        <ele>247</ele>
        <time>2021-02-06T10:45:38Z</time>
      </trkpt>
      <trkpt lat="44.16459" lon="5.00565">
        <ele>248</ele>
        <time>2021-02-06T10:45:40Z</time>
      </trkpt>
      <trkpt lat="44.16455" lon="5.00561">
        <ele>248</ele>
        <time>2021-02-06T10:45:42Z</time>
      </trkpt>
      <trkpt lat="44.16451" lon="5.00557">
        <ele>249</ele>
        <time>2021-02-06T10:45:44Z</time>
      </trkpt>
      <trkpt lat="44.16446" lon="5.00553">
        <ele>250</ele>
        <time>2021-02-06T10:45:46Z</time>
      </trkpt>
      <trkpt lat="44.16442" lon="5.0055">
        <ele>251</ele>
        <time>2021-02-06T10:45:48Z</time>
      </trkpt>
      <trkpt lat="44.16438" lon="5.00548">
        <ele>251</ele>
        <time>2021-02-06T10:45:50Z</time>
      </trkpt>
      <trkpt lat="44.16434" lon="5.00545">
        <ele>251</ele>
        <time>2021-02-06T10:45:52Z</time>
      </trkpt>
      <trkpt lat="44.1643" lon="5.00541">
        <ele>252</ele>
        <time>2021-02-06T10:45:54Z</time>
      </trkpt>
      <trkpt lat="44.16426" lon="5.00537">
        <ele>252</ele>
        <time>2021-02-06T10:45:56Z</time>
      </trkpt>
      <trkpt lat="44.16422" lon="5.00533">
        <ele>252</ele>
        <time>2021-02-06T10:45:59Z</time>
      </trkpt>
      <trkpt lat="44.16419" lon="5.00523">
        <ele>252</ele>
        <time>2021-02-06T10:46:03Z</time>
      </trkpt>
      <trkpt lat="44.16416" lon="5.00515">
        <ele>253</ele>
        <time>2021-02-06T10:46:07Z</time>
      </trkpt>
      <trkpt lat="44.16414" lon="5.00507">
        <ele>252</ele>
        <time>2021-02-06T10:46:09Z</time>
      </trkpt>
      <trkpt lat="44.16412" lon="5.00501">
        <ele>252</ele>
        <time>2021-02-06T10:46:11Z</time>
      </trkpt>
      <trkpt lat="44.16409" lon="5.00495">
        <ele>252</ele>
        <time>2021-02-06T10:46:13Z</time>
      </trkpt>
      <trkpt lat="44.16403" lon="5.00486">
        <ele>252</ele>
        <time>2021-02-06T10:46:16Z</time>
      </trkpt>
      <trkpt lat="44.16401" lon="5.00484">
        <ele>252</ele>
        <time>2021-02-06T10:46:17Z</time>
      </trkpt>
      <trkpt lat="44.16398" lon="5.00479">
        <ele>252</ele>
        <time>2021-02-06T10:46:19Z</time>
      </trkpt>
      <trkpt lat="44.16396" lon="5.00477">
        <ele>252</ele>
        <time>2021-02-06T10:46:20Z</time>
      </trkpt>
      <trkpt lat="44.16393" lon="5.00473">
        <ele>252</ele>
        <time>2021-02-06T10:46:22Z</time>
      </trkpt>
      <trkpt lat="44.16389" lon="5.00468">
        <ele>252</ele>
        <time>2021-02-06T10:46:24Z</time>
      </trkpt>
      <trkpt lat="44.16386" lon="5.00464">
        <ele>252</ele>
        <time>2021-02-06T10:46:26Z</time>
      </trkpt>
      <trkpt lat="44.16379" lon="5.00453">
        <ele>251</ele>
        <time>2021-02-06T10:46:30Z</time>
      </trkpt>
      <trkpt lat="44.16369" lon="5.00444">
        <ele>251</ele>
        <time>2021-02-06T10:46:34Z</time>
      </trkpt>
      <trkpt lat="44.16359" lon="5.00438">
        <ele>250</ele>
        <time>2021-02-06T10:46:38Z</time>
      </trkpt>
      <trkpt lat="44.16351" lon="5.00434">
        <ele>250</ele>
        <time>2021-02-06T10:46:41Z</time>
      </trkpt>
      <trkpt lat="44.16346" lon="5.00431">
        <ele>250</ele>
        <time>2021-02-06T10:46:43Z</time>
      </trkpt>
      <trkpt lat="44.16341" lon="5.00428">
        <ele>250</ele>
        <time>2021-02-06T10:46:45Z</time>
      </trkpt>
      <trkpt lat="44.16334" lon="5.0042">
        <ele>249</ele>
        <time>2021-02-06T10:46:49Z</time>
      </trkpt>
      <trkpt lat="44.16332" lon="5.00418">
        <ele>249</ele>
        <time>2021-02-06T10:46:50Z</time>
      </trkpt>
      <trkpt lat="44.1633" lon="5.00414">
        <ele>248</ele>
        <time>2021-02-06T10:46:52Z</time>
      </trkpt>
      <trkpt lat="44.16331" lon="5.00411">
        <ele>248</ele>
        <time>2021-02-06T10:46:53Z</time>
      </trkpt>
      <trkpt lat="44.16334" lon="5.00404">
        <ele>246</ele>
        <time>2021-02-06T10:46:55Z</time>
      </trkpt>
      <trkpt lat="44.16337" lon="5.00399">
        <ele>245</ele>
        <time>2021-02-06T10:46:57Z</time>
      </trkpt>
      <trkpt lat="44.16337" lon="5.00396">
        <ele>244</ele>
        <time>2021-02-06T10:46:58Z</time>
      </trkpt>
      <trkpt lat="44.16337" lon="5.0039">
        <ele>243</ele>
        <time>2021-02-06T10:47:00Z</time>
      </trkpt>
      <trkpt lat="44.16336" lon="5.00387">
        <ele>243</ele>
        <time>2021-02-06T10:47:01Z</time>
      </trkpt>
      <trkpt lat="44.16334" lon="5.0038">
        <ele>242</ele>
        <time>2021-02-06T10:47:03Z</time>
      </trkpt>
      <trkpt lat="44.16331" lon="5.0037">
        <ele>240</ele>
        <time>2021-02-06T10:47:06Z</time>
      </trkpt>
      <trkpt lat="44.1633" lon="5.00367">
        <ele>240</ele>
        <time>2021-02-06T10:47:07Z</time>
      </trkpt>
      <trkpt lat="44.16328" lon="5.00361">
        <ele>239</ele>
        <time>2021-02-06T10:47:09Z</time>
      </trkpt>
      <trkpt lat="44.16327" lon="5.00358">
        <ele>239</ele>
        <time>2021-02-06T10:47:10Z</time>
      </trkpt>
      <trkpt lat="44.16325" lon="5.00352">
        <ele>239</ele>
        <time>2021-02-06T10:47:12Z</time>
      </trkpt>
      <trkpt lat="44.16325" lon="5.00347">
        <ele>238</ele>
        <time>2021-02-06T10:47:14Z</time>
      </trkpt>
      <trkpt lat="44.16325" lon="5.0034">
        <ele>238</ele>
        <time>2021-02-06T10:47:16Z</time>
      </trkpt>
      <trkpt lat="44.16325" lon="5.00332">
        <ele>238</ele>
        <time>2021-02-06T10:47:18Z</time>
      </trkpt>
      <trkpt lat="44.16326" lon="5.00325">
        <ele>237</ele>
        <time>2021-02-06T10:47:20Z</time>
      </trkpt>
      <trkpt lat="44.16328" lon="5.00318">
        <ele>237</ele>
        <time>2021-02-06T10:47:22Z</time>
      </trkpt>
      <trkpt lat="44.16328" lon="5.00312">
        <ele>236</ele>
        <time>2021-02-06T10:47:24Z</time>
      </trkpt>
      <trkpt lat="44.16327" lon="5.00308">
        <ele>236</ele>
        <time>2021-02-06T10:47:25Z</time>
      </trkpt>
      <trkpt lat="44.16325" lon="5.00303">
        <ele>236</ele>
        <time>2021-02-06T10:47:27Z</time>
      </trkpt>
      <trkpt lat="44.16325" lon="5.003">
        <ele>236</ele>
        <time>2021-02-06T10:47:28Z</time>
      </trkpt>
      <trkpt lat="44.16327" lon="5.00295">
        <ele>235</ele>
        <time>2021-02-06T10:47:30Z</time>
      </trkpt>
      <trkpt lat="44.16328" lon="5.00292">
        <ele>235</ele>
        <time>2021-02-06T10:47:31Z</time>
      </trkpt>
      <trkpt lat="44.16331" lon="5.00286">
        <ele>234</ele>
        <time>2021-02-06T10:47:36Z</time>
      </trkpt>
    </trkseg>
  </trk>
</gpx>